<?xml version='1.0' encoding='UTF-8'?><gpx version="1.1" creator="JPX - https://github.com/jenetics/jpx" xmlns="http://www.topografix.com/GPX/1/1"><trk><trkseg><trkpt lat="44.97353994278855" lon="0.979992823239361"><ele>198.50000000000003</ele><time>2026-03-29T09:50:22Z</time></trkpt><trkpt lat="44.973529809773055" lon="0.9801009509115455"><ele>197.0</ele><time>2026-03-29T09:50:25Z</time></trkpt><trkpt lat="44.97349648481956" lon="0.9801947905936508"><ele>195.5</ele><time>2026-03-29T09:50:28.999Z</time></trkpt><trkpt lat="44.973414503061406" lon="0.9802344735116818"><ele>194.0</ele><time>2026-03-29T09:50:31.999Z</time></trkpt><trkpt lat="44.973343092937405" lon="0.9802681923686345"><ele>192.5</ele><time>2026-03-29T09:50:35.999Z</time></trkpt><trkpt lat="44.97329284809344" lon="0.9803516635294015"><ele>191.0</ele><time>2026-03-29T09:50:39.999Z</time></trkpt><trkpt lat="44.9732412686497" lon="0.9804293009573054"><ele>190.83333333333331</ele><time>2026-03-29T09:50:43.999Z</time></trkpt><trkpt lat="44.97319002323965" lon="0.9804969339661916"><ele>190.66666666666666</ele><time>2026-03-29T09:50:46.999Z</time></trkpt><trkpt lat="44.97314486442547" lon="0.9806113474215445"><ele>190.5</ele><time>2026-03-29T09:50:49.999Z</time></trkpt><trkpt lat="44.973073557037644" lon="0.9806942247680136"><ele>190.33333333333334</ele><time>2026-03-29T09:50:52.999Z</time></trkpt><trkpt lat="44.973010548116214" lon="0.9807434072796614"><ele>190.16666666666669</ele><time>2026-03-29T09:50:54.999Z</time></trkpt><trkpt lat="44.97295727953198" lon="0.9807926249725328"><ele>190.0</ele><time>2026-03-29T09:50:57.999Z</time></trkpt><trkpt lat="44.972887131676096" lon="0.9808361194448109"><ele>187.83333333333334</ele><time>2026-03-29T09:51:00.999Z</time></trkpt><trkpt lat="44.97281810868005" lon="0.9809040043381148"><ele>185.66666666666669</ele><time>2026-03-29T09:51:03.999Z</time></trkpt><trkpt lat="44.97273174786152" lon="0.9809340394085225"><ele>183.5</ele><time>2026-03-29T09:51:06.999Z</time></trkpt><trkpt lat="44.972646958350886" lon="0.980943893698501"><ele>181.33333333333334</ele><time>2026-03-29T09:51:09.999Z</time></trkpt><trkpt lat="44.97258658131263" lon="0.9809746112516219"><ele>179.16666666666666</ele><time>2026-03-29T09:51:11.999Z</time></trkpt><trkpt lat="44.97249736543807" lon="0.9810005830463507"><ele>177.0</ele><time>2026-03-29T09:51:14.999Z</time></trkpt><trkpt lat="44.97241189590745" lon="0.9810341952932042"><ele>176.39999999999998</ele><time>2026-03-29T09:51:16.999Z</time></trkpt><trkpt lat="44.9723115599265" lon="0.981060547934341"><ele>175.79999999999998</ele><time>2026-03-29T09:51:18.999Z</time></trkpt><trkpt lat="44.972227012684726" lon="0.9810720433422929"><ele>175.2</ele><time>2026-03-29T09:51:20.999Z</time></trkpt><trkpt lat="44.97213436870886" lon="0.9810925916613228"><ele>174.6</ele><time>2026-03-29T09:51:22.999Z</time></trkpt><trkpt lat="44.972032161433134" lon="0.9811558703360089"><ele>174.0</ele><time>2026-03-29T09:51:24.999Z</time></trkpt><trkpt lat="44.97192332726343" lon="0.9812109081881927"><ele>174.0</ele><time>2026-03-29T09:51:26.999Z</time></trkpt><trkpt lat="44.97182392794022" lon="0.9812366425729987"><ele>174.0</ele><time>2026-03-29T09:51:28.999Z</time></trkpt><trkpt lat="44.971746684540015" lon="0.9812572078081104"><ele>174.0</ele><time>2026-03-29T09:51:30.999Z</time></trkpt><trkpt lat="44.971656347020804" lon="0.9812521591470277"><ele>174.0</ele><time>2026-03-29T09:51:32.998Z</time></trkpt><trkpt lat="44.97156697281895" lon="0.9812730379038862"><ele>174.0</ele><time>2026-03-29T09:51:34.998Z</time></trkpt><trkpt lat="44.97148433443996" lon="0.9813104478238056"><ele>174.0</ele><time>2026-03-29T09:51:36.998Z</time></trkpt><trkpt lat="44.97140028673301" lon="0.9813133511003114"><ele>171.66666666666666</ele><time>2026-03-29T09:51:39.001Z</time></trkpt><trkpt lat="44.97132292670444" lon="0.9813381786133006"><ele>169.33333333333334</ele><time>2026-03-29T09:51:41.001Z</time></trkpt><trkpt lat="44.97125249863765" lon="0.9813776572868222"><ele>167.0</ele><time>2026-03-29T09:51:43.001Z</time></trkpt><trkpt lat="44.971183361190555" lon="0.9814275471062608"><ele>164.66666666666669</ele><time>2026-03-29T09:51:45.001Z</time></trkpt><trkpt lat="44.971103076917785" lon="0.981446208108619"><ele>162.33333333333334</ele><time>2026-03-29T09:51:47.001Z</time></trkpt><trkpt lat="44.971009184349306" lon="0.981474813685319"><ele>160.0</ele><time>2026-03-29T09:51:49Z</time></trkpt><trkpt lat="44.97090175068812" lon="0.9814736257904867"><ele>157.5</ele><time>2026-03-29T09:51:51Z</time></trkpt><trkpt lat="44.970819716477735" lon="0.9814770921624709"><ele>155.0</ele><time>2026-03-29T09:51:53Z</time></trkpt><trkpt lat="44.970734920411196" lon="0.9815129051679424"><ele>152.5</ele><time>2026-03-29T09:51:55Z</time></trkpt><trkpt lat="44.9706603259725" lon="0.9816003601080511"><ele>150.0</ele><time>2026-03-29T09:51:57Z</time></trkpt><trkpt lat="44.97057942400421" lon="0.9816726382474326"><ele>147.5</ele><time>2026-03-29T09:51:59Z</time></trkpt><trkpt lat="44.97050537048712" lon="0.981731706140224"><ele>145.0</ele><time>2026-03-29T09:52:01Z</time></trkpt><trkpt lat="44.970413381277616" lon="0.9817575487748555"><ele>142.0</ele><time>2026-03-29T09:52:03Z</time></trkpt><trkpt lat="44.97031179188006" lon="0.9818270123145593"><ele>139.0</ele><time>2026-03-29T09:52:05Z</time></trkpt><trkpt lat="44.97020369352893" lon="0.9818625608644151"><ele>136.0</ele><time>2026-03-29T09:52:07Z</time></trkpt><trkpt lat="44.9700904096644" lon="0.9818851585566998"><ele>133.0</ele><time>2026-03-29T09:52:09Z</time></trkpt><trkpt lat="44.969986937029425" lon="0.9819654845520369"><ele>131.8</ele><time>2026-03-29T09:52:11Z</time></trkpt><trkpt lat="44.96988253191089" lon="0.9820520941336436"><ele>130.60000000000002</ele><time>2026-03-29T09:52:13Z</time></trkpt><trkpt lat="44.96982157425406" lon="0.9821908472642118"><ele>129.39999999999998</ele><time>2026-03-29T09:52:15Z</time></trkpt><trkpt lat="44.96974529745518" lon="0.9822991296386032"><ele>128.2</ele><time>2026-03-29T09:52:17Z</time></trkpt><trkpt lat="44.96967963729085" lon="0.9823229233651878"><ele>127.0</ele><time>2026-03-29T09:52:18Z</time></trkpt><trkpt lat="44.969617208980104" lon="0.9823606841432518"><ele>127.00000000000001</ele><time>2026-03-29T09:52:19Z</time></trkpt><trkpt lat="44.96956242061326" lon="0.9824053920566849"><ele>127.0</ele><time>2026-03-29T09:52:20Z</time></trkpt><trkpt lat="44.96945940372591" lon="0.9825058047762953"><ele>127.0</ele><time>2026-03-29T09:52:22Z</time></trkpt><trkpt lat="44.96938304486265" lon="0.9825703832549334"><ele>127.0</ele><time>2026-03-29T09:52:24Z</time></trkpt><trkpt lat="44.969314819860244" lon="0.9826112903238389"><ele>127.00000000000001</ele><time>2026-03-29T09:52:26Z</time></trkpt><trkpt lat="44.96925264823195" lon="0.9826506547212629"><ele>127.0</ele><time>2026-03-29T09:52:28Z</time></trkpt><trkpt lat="44.9691676021089" lon="0.9827101333691138"><ele>124.50000000000001</ele><time>2026-03-29T09:52:31Z</time></trkpt><trkpt lat="44.96909703038656" lon="0.9827600427559408"><ele>122.0</ele><time>2026-03-29T09:52:34Z</time></trkpt><trkpt lat="44.96902800388709" lon="0.9827963870593418"><ele>119.5</ele><time>2026-03-29T09:52:36Z</time></trkpt><trkpt lat="44.96895980141312" lon="0.9827997769675033"><ele>117.0</ele><time>2026-03-29T09:52:37.999Z</time></trkpt><trkpt lat="44.96888718704301" lon="0.9827903222761168"><ele>114.50000000000001</ele><time>2026-03-29T09:52:39.999Z</time></trkpt><trkpt lat="44.96880986145444" lon="0.9828385892561333"><ele>112.0</ele><time>2026-03-29T09:52:41.999Z</time></trkpt><trkpt lat="44.96870849414794" lon="0.9829238733186043"><ele>112.0</ele><time>2026-03-29T09:52:43.999Z</time></trkpt><trkpt lat="44.96859963110219" lon="0.9829924957722656"><ele>111.99999999999999</ele><time>2026-03-29T09:52:45.999Z</time></trkpt><trkpt lat="44.968492493286476" lon="0.983066693757176"><ele>111.99999999999999</ele><time>2026-03-29T09:52:47.999Z</time></trkpt><trkpt lat="44.96843163819489" lon="0.9831049483361477"><ele>112.0</ele><time>2026-03-29T09:52:49.999Z</time></trkpt><trkpt lat="44.96836782867136" lon="0.9831642186662514"><ele>112.0</ele><time>2026-03-29T09:52:51.999Z</time></trkpt><trkpt lat="44.96829118282059" lon="0.983200814226977"><ele>109.39999999999999</ele><time>2026-03-29T09:52:53.999Z</time></trkpt><trkpt lat="44.96817102871012" lon="0.9832516675942659"><ele>106.79999999999998</ele><time>2026-03-29T09:52:55.999Z</time></trkpt><trkpt lat="44.96811110239358" lon="0.9832890019390863"><ele>104.2</ele><time>2026-03-29T09:52:56.999Z</time></trkpt><trkpt lat="44.968025598552785" lon="0.9833030486236558"><ele>101.6</ele><time>2026-03-29T09:52:59.999Z</time></trkpt><trkpt lat="44.967982070513344" lon="0.9831913967899236"><ele>99.0</ele><time>2026-03-29T09:53:01.999Z</time></trkpt><trkpt lat="44.9679315374857" lon="0.9830637872915728"><ele>99.0</ele><time>2026-03-29T09:53:03.999Z</time></trkpt><trkpt lat="44.96785894916705" lon="0.9829475619320222"><ele>99.0</ele><time>2026-03-29T09:53:05.999Z</time></trkpt><trkpt lat="44.9677889071044" lon="0.9828616041530688"><ele>99.0</ele><time>2026-03-29T09:53:07.999Z</time></trkpt><trkpt lat="44.967726497621406" lon="0.9827670886693721"><ele>99.0</ele><time>2026-03-29T09:53:09.999Z</time></trkpt><trkpt lat="44.9677581041066" lon="0.9826644860350786"><ele>99.0</ele><time>2026-03-29T09:53:11.999Z</time></trkpt><trkpt lat="44.96777749079432" lon="0.9825169659837725"><ele>98.4</ele><time>2026-03-29T09:53:14.999Z</time></trkpt><trkpt lat="44.96777899462923" lon="0.9824012695800312"><ele>97.80000000000001</ele><time>2026-03-29T09:53:16.999Z</time></trkpt><trkpt lat="44.96786221185032" lon="0.9823127171830008"><ele>97.19999999999999</ele><time>2026-03-29T09:53:18.999Z</time></trkpt><trkpt lat="44.96792860289011" lon="0.9821946585583505"><ele>96.6</ele><time>2026-03-29T09:53:20.999Z</time></trkpt><trkpt lat="44.96795879355248" lon="0.9820646444371711"><ele>96.0</ele><time>2026-03-29T09:53:22.999Z</time></trkpt><trkpt lat="44.967893556638366" lon="0.9819818015190566"><ele>96.0</ele><time>2026-03-29T09:53:24.999Z</time></trkpt><trkpt lat="44.96784398484051" lon="0.9818679947591058"><ele>96.0</ele><time>2026-03-29T09:53:26.999Z</time></trkpt><trkpt lat="44.96784562349711" lon="0.9817046023720151"><ele>96.0</ele><time>2026-03-29T09:53:28.999Z</time></trkpt><trkpt lat="44.96776615387628" lon="0.9815953907074998"><ele>96.0</ele><time>2026-03-29T09:53:30.999Z</time></trkpt><trkpt lat="44.96768202771563" lon="0.9814714567437091"><ele>96.0</ele><time>2026-03-29T09:53:32.999Z</time></trkpt><trkpt lat="44.96763521392375" lon="0.9813333921406606"><ele>97.25</ele><time>2026-03-29T09:53:34.999Z</time></trkpt><trkpt lat="44.967577652879115" lon="0.9811811403691488"><ele>98.5</ele><time>2026-03-29T09:53:36.998Z</time></trkpt><trkpt lat="44.96757638072077" lon="0.9809899843581719"><ele>99.75</ele><time>2026-03-29T09:53:38.998Z</time></trkpt><trkpt lat="44.96759836739104" lon="0.9808925737198516"><ele>101.0</ele><time>2026-03-29T09:53:39.998Z</time></trkpt><trkpt lat="44.96761520588971" lon="0.980715860365821"><ele>102.83333333333333</ele><time>2026-03-29T09:53:41.998Z</time></trkpt><trkpt lat="44.967600811823765" lon="0.9805827016733885"><ele>104.66666666666666</ele><time>2026-03-29T09:53:42.998Z</time></trkpt><trkpt lat="44.96761727899099" lon="0.9804764050663761"><ele>106.5</ele><time>2026-03-29T09:53:44.001Z</time></trkpt><trkpt lat="44.967641395069194" lon="0.9803651084515177"><ele>108.33333333333334</ele><time>2026-03-29T09:53:45.001Z</time></trkpt><trkpt lat="44.967651791136724" lon="0.9802754592637533"><ele>110.16666666666667</ele><time>2026-03-29T09:53:46.001Z</time></trkpt><trkpt lat="44.967744346228855" lon="0.9801840323977608"><ele>112.0</ele><time>2026-03-29T09:53:48.001Z</time></trkpt><trkpt lat="44.96784200003261" lon="0.9801496908296576"><ele>112.00000000000001</ele><time>2026-03-29T09:53:49Z</time></trkpt><trkpt lat="44.96789585425032" lon="0.9800880794777105"><ele>112.0</ele><time>2026-03-29T09:53:50Z</time></trkpt><trkpt lat="44.96793454240018" lon="0.9799559085641762"><ele>112.0</ele><time>2026-03-29T09:53:52Z</time></trkpt><trkpt lat="44.96795280166561" lon="0.979859552030276"><ele>112.0</ele><time>2026-03-29T09:53:53Z</time></trkpt><trkpt lat="44.96799274407151" lon="0.9797638139503234"><ele>112.00000000000001</ele><time>2026-03-29T09:53:54Z</time></trkpt><trkpt lat="44.96804094631377" lon="0.9796604264518685"><ele>112.0</ele><time>2026-03-29T09:53:55Z</time></trkpt><trkpt lat="44.96808576474128" lon="0.9795650233775345"><ele>113.50000000000001</ele><time>2026-03-29T09:53:56Z</time></trkpt><trkpt lat="44.96811132095634" lon="0.9794789368325775"><ele>115.0</ele><time>2026-03-29T09:53:57Z</time></trkpt><trkpt lat="44.96814010953391" lon="0.9793822144497937"><ele>116.5</ele><time>2026-03-29T09:53:58Z</time></trkpt><trkpt lat="44.96812088645489" lon="0.9792095745626093"><ele>118.0</ele><time>2026-03-29T09:54:00Z</time></trkpt><trkpt lat="44.9680886659087" lon="0.979129258466862"><ele>119.50000000000001</ele><time>2026-03-29T09:54:01Z</time></trkpt><trkpt lat="44.96804810038413" lon="0.9790400389178551"><ele>121.0</ele><time>2026-03-29T09:54:02Z</time></trkpt><trkpt lat="44.9680211572868" lon="0.9789479217521595"><ele>122.33333333333334</ele><time>2026-03-29T09:54:03Z</time></trkpt><trkpt lat="44.9679935345915" lon="0.9788662083185574"><ele>123.66666666666667</ele><time>2026-03-29T09:54:04Z</time></trkpt><trkpt lat="44.96793710899417" lon="0.97879879601338"><ele>125.0</ele><time>2026-03-29T09:54:05Z</time></trkpt><trkpt lat="44.9678886372905" lon="0.9787287325934126"><ele>126.33333333333334</ele><time>2026-03-29T09:54:06Z</time></trkpt><trkpt lat="44.967831334575166" lon="0.978627703456288"><ele>127.66666666666667</ele><time>2026-03-29T09:54:08Z</time></trkpt><trkpt lat="44.96784121114812" lon="0.9785129803092557"><ele>129.0</ele><time>2026-03-29T09:54:18Z</time></trkpt><trkpt lat="44.96787892839443" lon="0.9783970496665065"><ele>129.16666666666666</ele><time>2026-03-29T09:54:21Z</time></trkpt><trkpt lat="44.96791555032427" lon="0.9782872648569196"><ele>129.33333333333334</ele><time>2026-03-29T09:54:23Z</time></trkpt><trkpt lat="44.967960497933106" lon="0.9781727653927392"><ele>129.5</ele><time>2026-03-29T09:54:25Z</time></trkpt><trkpt lat="44.96797799348256" lon="0.9780750768115587"><ele>129.66666666666669</ele><time>2026-03-29T09:54:27Z</time></trkpt><trkpt lat="44.96798337004532" lon="0.9779458659125589"><ele>129.83333333333334</ele><time>2026-03-29T09:54:29Z</time></trkpt><trkpt lat="44.9679840570362" lon="0.9778400171757224"><ele>130.0</ele><time>2026-03-29T09:54:30.999Z</time></trkpt><trkpt lat="44.968030941700825" lon="0.9777779984516024"><ele>130.0</ele><time>2026-03-29T09:54:38.999Z</time></trkpt><trkpt lat="44.967968111345826" lon="0.9777997765360477"><ele>130.0</ele><time>2026-03-29T09:54:50.999Z</time></trkpt><trkpt lat="44.967954923224795" lon="0.9779366310951136"><ele>130.0</ele><time>2026-03-29T09:54:52.999Z</time></trkpt><trkpt lat="44.96795575590381" lon="0.978057030975154"><ele>130.0</ele><time>2026-03-29T09:54:53.999Z</time></trkpt><trkpt lat="44.96796459193444" lon="0.9781653672681012"><ele>130.0</ele><time>2026-03-29T09:54:54.999Z</time></trkpt><trkpt lat="44.96792440701958" lon="0.978271095232859"><ele>130.0</ele><time>2026-03-29T09:54:56.999Z</time></trkpt><trkpt lat="44.96788879984122" lon="0.9783522101656623"><ele>129.83333333333334</ele><time>2026-03-29T09:54:57.999Z</time></trkpt><trkpt lat="44.96784973710265" lon="0.9784684905502382"><ele>129.66666666666669</ele><time>2026-03-29T09:54:58.999Z</time></trkpt><trkpt lat="44.96782051153473" lon="0.9785782899767921"><ele>129.5</ele><time>2026-03-29T09:54:59.999Z</time></trkpt><trkpt lat="44.96786980134803" lon="0.978676835929925"><ele>129.33333333333334</ele><time>2026-03-29T09:55:02.999Z</time></trkpt><trkpt lat="44.967915081781136" lon="0.9787404051579712"><ele>129.16666666666666</ele><time>2026-03-29T09:55:03.999Z</time></trkpt><trkpt lat="44.96798217120774" lon="0.9788715423721471"><ele>129.0</ele><time>2026-03-29T09:55:05.999Z</time></trkpt><trkpt lat="44.96804917830934" lon="0.9790048112915389"><ele>129.0</ele><time>2026-03-29T09:55:07.999Z</time></trkpt><trkpt lat="44.96809058725094" lon="0.9791610246353286"><ele>129.0</ele><time>2026-03-29T09:55:09.999Z</time></trkpt><trkpt lat="44.96813473828826" lon="0.9792976061703936"><ele>129.0</ele><time>2026-03-29T09:55:11.999Z</time></trkpt><trkpt lat="44.96810458332594" lon="0.9794593667180292"><ele>129.0</ele><time>2026-03-29T09:55:13.999Z</time></trkpt><trkpt lat="44.9680636894233" lon="0.9796322686886361"><ele>127.66666666666667</ele><time>2026-03-29T09:55:15.999Z</time></trkpt><trkpt lat="44.968034278660745" lon="0.9797229497487858"><ele>126.33333333333334</ele><time>2026-03-29T09:55:16.999Z</time></trkpt><trkpt lat="44.96800360362895" lon="0.9798054300381603"><ele>125.0</ele><time>2026-03-29T09:55:17.999Z</time></trkpt><trkpt lat="44.96794618085038" lon="0.9799252781965798"><ele>123.66666666666667</ele><time>2026-03-29T09:55:19.999Z</time></trkpt><trkpt lat="44.967898476590484" lon="0.9800699197759057"><ele>122.33333333333334</ele><time>2026-03-29T09:55:21.999Z</time></trkpt><trkpt lat="44.967857271784666" lon="0.9801705276396847"><ele>121.0</ele><time>2026-03-29T09:55:23.998Z</time></trkpt><trkpt lat="44.967749082745776" lon="0.9802309987690987"><ele>119.19999999999999</ele><time>2026-03-29T09:55:25.998Z</time></trkpt><trkpt lat="44.96764033007912" lon="0.9802773923916971"><ele>117.39999999999999</ele><time>2026-03-29T09:55:27.998Z</time></trkpt><trkpt lat="44.967633788757986" lon="0.9804726151556447"><ele>115.6</ele><time>2026-03-29T09:55:29.998Z</time></trkpt><trkpt lat="44.96761914668776" lon="0.9805852264743591"><ele>113.8</ele><time>2026-03-29T09:55:30.998Z</time></trkpt><trkpt lat="44.967609796051" lon="0.9806906140956848"><ele>112.0</ele><time>2026-03-29T09:55:31.998Z</time></trkpt><trkpt lat="44.96761612234327" lon="0.9807879622918433"><ele>109.8</ele><time>2026-03-29T09:55:32.998Z</time></trkpt><trkpt lat="44.96760893332346" lon="0.9809643793776586"><ele>107.6</ele><time>2026-03-29T09:55:34.998Z</time></trkpt><trkpt lat="44.96758892093092" lon="0.9810797360729717"><ele>105.39999999999999</ele><time>2026-03-29T09:55:35.998Z</time></trkpt><trkpt lat="44.967579432937605" lon="0.9812468897365677"><ele>103.19999999999999</ele><time>2026-03-29T09:55:37.998Z</time></trkpt><trkpt lat="44.96764480886186" lon="0.9813897761195662"><ele>101.0</ele><time>2026-03-29T09:55:39.998Z</time></trkpt><trkpt lat="44.9677191693781" lon="0.9815256357762642"><ele>101.0</ele><time>2026-03-29T09:55:41.998Z</time></trkpt><trkpt lat="44.9677815437277" lon="0.9816464278433121"><ele>101.0</ele><time>2026-03-29T09:55:43.998Z</time></trkpt><trkpt lat="44.967869096367785" lon="0.9817516136178829"><ele>101.0</ele><time>2026-03-29T09:55:45.998Z</time></trkpt><trkpt lat="44.967879163475395" lon="0.9818829068605902"><ele>101.0</ele><time>2026-03-29T09:55:47.998Z</time></trkpt><trkpt lat="44.96787373501292" lon="0.9820128549552258"><ele>101.0</ele><time>2026-03-29T09:55:50Z</time></trkpt><trkpt lat="44.96796004912536" lon="0.9820762343165504"><ele>100.6</ele><time>2026-03-29T09:55:52Z</time></trkpt><trkpt lat="44.967928752144275" lon="0.9822089528486453"><ele>100.19999999999999</ele><time>2026-03-29T09:55:54Z</time></trkpt><trkpt lat="44.967842619752204" lon="0.9823438475915898"><ele>99.80000000000001</ele><time>2026-03-29T09:55:56Z</time></trkpt><trkpt lat="44.96777660606892" lon="0.9824644255622079"><ele>99.4</ele><time>2026-03-29T09:55:58Z</time></trkpt><trkpt lat="44.96777206095494" lon="0.9825972956624499"><ele>99.0</ele><time>2026-03-29T09:56:00Z</time></trkpt><trkpt lat="44.967767034054546" lon="0.982721489928303"><ele>99.0</ele><time>2026-03-29T09:56:02Z</time></trkpt><trkpt lat="44.967746867763225" lon="0.9828245098037051"><ele>99.0</ele><time>2026-03-29T09:56:04Z</time></trkpt><trkpt lat="44.96783008051867" lon="0.9828937504724707"><ele>99.0</ele><time>2026-03-29T09:56:06Z</time></trkpt><trkpt lat="44.96790411091803" lon="0.9828993166924301"><ele>99.0</ele><time>2026-03-29T09:56:07Z</time></trkpt><trkpt lat="44.96799208873743" lon="0.9828653530558931"><ele>99.0</ele><time>2026-03-29T09:56:08Z</time></trkpt><trkpt lat="44.96806067084511" lon="0.982815373991179"><ele>99.0</ele><time>2026-03-29T09:56:09Z</time></trkpt><trkpt lat="44.96815508889323" lon="0.9827878150069492"><ele>99.0</ele><time>2026-03-29T09:56:11Z</time></trkpt><trkpt lat="44.96823552605116" lon="0.9827596358829221"><ele>99.0</ele><time>2026-03-29T09:56:15Z</time></trkpt><trkpt lat="44.96828699377368" lon="0.9826933301179884"><ele>99.0</ele><time>2026-03-29T09:56:17Z</time></trkpt><trkpt lat="44.96833656363644" lon="0.9826370329154365"><ele>99.0</ele><time>2026-03-29T09:56:19Z</time></trkpt><trkpt lat="44.96839984226078" lon="0.9825903523600165"><ele>99.0</ele><time>2026-03-29T09:56:21Z</time></trkpt><trkpt lat="44.96842274802795" lon="0.9824824740937014"><ele>99.0</ele><time>2026-03-29T09:56:24Z</time></trkpt><trkpt lat="44.96844600878947" lon="0.9823982942657814"><ele>99.0</ele><time>2026-03-29T09:56:27Z</time></trkpt><trkpt lat="44.96849420879956" lon="0.9822919704056969"><ele>100.5</ele><time>2026-03-29T09:56:30Z</time></trkpt><trkpt lat="44.96853454820197" lon="0.9821804961923537"><ele>102.0</ele><time>2026-03-29T09:56:32.999Z</time></trkpt><trkpt lat="44.96855542537409" lon="0.9820843075763467"><ele>103.5</ele><time>2026-03-29T09:56:34.999Z</time></trkpt><trkpt lat="44.968601177877645" lon="0.9819746918400932"><ele>105.0</ele><time>2026-03-29T09:56:36.999Z</time></trkpt><trkpt lat="44.96862944864229" lon="0.9818527279879786"><ele>106.5</ele><time>2026-03-29T09:56:38.999Z</time></trkpt><trkpt lat="44.9686533395352" lon="0.9817476079671315"><ele>108.0</ele><time>2026-03-29T09:56:40.999Z</time></trkpt><trkpt lat="44.968699020421035" lon="0.9816222373185843"><ele>108.0</ele><time>2026-03-29T09:56:42.999Z</time></trkpt><trkpt lat="44.96877265469399" lon="0.9814618551585372"><ele>108.0</ele><time>2026-03-29T09:56:44.999Z</time></trkpt><trkpt lat="44.968801878460994" lon="0.9813660649284727"><ele>108.0</ele><time>2026-03-29T09:56:45.999Z</time></trkpt><trkpt lat="44.96884732437356" lon="0.9812765815695618"><ele>108.0</ele><time>2026-03-29T09:56:46.999Z</time></trkpt><trkpt lat="44.96888453555852" lon="0.9811954010516394"><ele>108.0</ele><time>2026-03-29T09:56:47.999Z</time></trkpt><trkpt lat="44.96893546340041" lon="0.9811293266185597"><ele>108.0</ele><time>2026-03-29T09:56:48.999Z</time></trkpt><trkpt lat="44.96896759582274" lon="0.9810440110620756"><ele>108.0</ele><time>2026-03-29T09:56:49.999Z</time></trkpt><trkpt lat="44.96905325170928" lon="0.9809214958586907"><ele>108.00000000000001</ele><time>2026-03-29T09:56:51.999Z</time></trkpt><trkpt lat="44.96912375715165" lon="0.9808517819703221"><ele>108.00000000000001</ele><time>2026-03-29T09:56:52.999Z</time></trkpt><trkpt lat="44.969198672624564" lon="0.9807348798837554"><ele>108.0</ele><time>2026-03-29T09:56:53.999Z</time></trkpt><trkpt lat="44.969242794967556" lon="0.9805975035428801"><ele>108.0</ele><time>2026-03-29T09:56:54.999Z</time></trkpt><trkpt lat="44.96932476583682" lon="0.9804730405652713"><ele>108.0</ele><time>2026-03-29T09:56:55.999Z</time></trkpt><trkpt lat="44.96940608453282" lon="0.9803512642791955"><ele>108.0</ele><time>2026-03-29T09:56:56.999Z</time></trkpt><trkpt lat="44.96948112698348" lon="0.9802329531488023"><ele>108.0</ele><time>2026-03-29T09:56:57.999Z</time></trkpt><trkpt lat="44.96954167071654" lon="0.980105722400683"><ele>108.0</ele><time>2026-03-29T09:56:58.999Z</time></trkpt><trkpt lat="44.96962301987234" lon="0.9799739554031188"><ele>108.0</ele><time>2026-03-29T09:56:59.999Z</time></trkpt><trkpt lat="44.96968521825149" lon="0.9798761814510334"><ele>108.0</ele><time>2026-03-29T09:57:00.999Z</time></trkpt><trkpt lat="44.96973915249246" lon="0.9797575835751131"><ele>108.0</ele><time>2026-03-29T09:57:02.999Z</time></trkpt><trkpt lat="44.96975906273451" lon="0.9796696987414809"><ele>108.0</ele><time>2026-03-29T09:57:03.999Z</time></trkpt><trkpt lat="44.9697902114424" lon="0.9795865713729786"><ele>108.0</ele><time>2026-03-29T09:57:04.999Z</time></trkpt><trkpt lat="44.96984705967063" lon="0.9795088144730856"><ele>108.0</ele><time>2026-03-29T09:57:05.999Z</time></trkpt><trkpt lat="44.96990108051018" lon="0.979421879418619"><ele>108.0</ele><time>2026-03-29T09:57:06.999Z</time></trkpt><trkpt lat="44.96996604539901" lon="0.9793261199872656"><ele>108.0</ele><time>2026-03-29T09:57:07.999Z</time></trkpt><trkpt lat="44.97001493632913" lon="0.9792147987187674"><ele>108.0</ele><time>2026-03-29T09:57:08.999Z</time></trkpt><trkpt lat="44.97006033716467" lon="0.9791435006795142"><ele>108.0</ele><time>2026-03-29T09:57:09.999Z</time></trkpt><trkpt lat="44.97010226411369" lon="0.9790708151481727"><ele>108.0</ele><time>2026-03-29T09:57:10.999Z</time></trkpt><trkpt lat="44.9701463513107" lon="0.9790065103877327"><ele>108.0</ele><time>2026-03-29T09:57:11.999Z</time></trkpt><trkpt lat="44.97019540365107" lon="0.9789414065219708"><ele>110.2</ele><time>2026-03-29T09:57:12.999Z</time></trkpt><trkpt lat="44.97023279575484" lon="0.9788660006705773"><ele>112.4</ele><time>2026-03-29T09:57:13.999Z</time></trkpt><trkpt lat="44.97027334178262" lon="0.9787186334880613"><ele>114.60000000000001</ele><time>2026-03-29T09:57:15.999Z</time></trkpt><trkpt lat="44.9703106236624" lon="0.978582623122837"><ele>116.80000000000001</ele><time>2026-03-29T09:57:17.999Z</time></trkpt><trkpt lat="44.97038098874783" lon="0.9785016663249898"><ele>119.0</ele><time>2026-03-29T09:57:19.999Z</time></trkpt><trkpt lat="44.97043204277411" lon="0.9783881316845411"><ele>117.2</ele><time>2026-03-29T09:57:21.999Z</time></trkpt><trkpt lat="44.970478884902825" lon="0.9782905048167578"><ele>115.4</ele><time>2026-03-29T09:57:23.998Z</time></trkpt><trkpt lat="44.970518644630936" lon="0.9782041070846574"><ele>113.6</ele><time>2026-03-29T09:57:25.998Z</time></trkpt><trkpt lat="44.970583472583144" lon="0.9780936103068464"><ele>111.8</ele><time>2026-03-29T09:57:27.998Z</time></trkpt><trkpt lat="44.97065685126701" lon="0.977965269816803"><ele>110.0</ele><time>2026-03-29T09:57:29.998Z</time></trkpt><trkpt lat="44.97072922537019" lon="0.977855088597636"><ele>109.99999999999999</ele><time>2026-03-29T09:57:31.998Z</time></trkpt><trkpt lat="44.97082631551869" lon="0.9777465736295835"><ele>110.0</ele><time>2026-03-29T09:57:33.998Z</time></trkpt><trkpt lat="44.97088074207415" lon="0.977696328976428"><ele>110.0</ele><time>2026-03-29T09:57:34.998Z</time></trkpt><trkpt lat="44.970931348578894" lon="0.9776419933957053"><ele>110.0</ele><time>2026-03-29T09:57:35.998Z</time></trkpt><trkpt lat="44.970985465213005" lon="0.9775831257593758"><ele>109.99999999999999</ele><time>2026-03-29T09:57:36.998Z</time></trkpt><trkpt lat="44.97102748206018" lon="0.9775157409399002"><ele>110.0</ele><time>2026-03-29T09:57:37.998Z</time></trkpt><trkpt lat="44.97105813623052" lon="0.9774249176666409"><ele>111.33333333333333</ele><time>2026-03-29T09:57:38.998Z</time></trkpt><trkpt lat="44.97108881735043" lon="0.9773407568833243"><ele>112.66666666666666</ele><time>2026-03-29T09:57:39.998Z</time></trkpt><trkpt lat="44.97115851080349" lon="0.9772198461815534"><ele>114.0</ele><time>2026-03-29T09:57:41.998Z</time></trkpt><trkpt lat="44.971212534846046" lon="0.9771623030538218"><ele>115.33333333333334</ele><time>2026-03-29T09:57:42.998Z</time></trkpt><trkpt lat="44.97128357658963" lon="0.977073839219972"><ele>116.66666666666667</ele><time>2026-03-29T09:57:43.998Z</time></trkpt><trkpt lat="44.97135335393034" lon="0.9769922033293649"><ele>118.0</ele><time>2026-03-29T09:57:44.998Z</time></trkpt><trkpt lat="44.971423525237384" lon="0.9769068421785873"><ele>118.0</ele><time>2026-03-29T09:57:45.998Z</time></trkpt><trkpt lat="44.97148498238563" lon="0.9768068340836488"><ele>118.00000000000001</ele><time>2026-03-29T09:57:46.998Z</time></trkpt><trkpt lat="44.97154100790119" lon="0.9767158196772389"><ele>118.00000000000001</ele><time>2026-03-29T09:57:47.998Z</time></trkpt><trkpt lat="44.971613635080644" lon="0.9766313704119167"><ele>118.0</ele><time>2026-03-29T09:57:48.998Z</time></trkpt><trkpt lat="44.97168192331102" lon="0.976546127601446"><ele>118.0</ele><time>2026-03-29T09:57:49.998Z</time></trkpt><trkpt lat="44.971742739551104" lon="0.9764453182284488"><ele>119.33333333333334</ele><time>2026-03-29T09:57:50.998Z</time></trkpt><trkpt lat="44.97180180774423" lon="0.9763695431223067"><ele>120.66666666666667</ele><time>2026-03-29T09:57:51.998Z</time></trkpt><trkpt lat="44.97185753243232" lon="0.9762955509122185"><ele>122.0</ele><time>2026-03-29T09:57:52.998Z</time></trkpt><trkpt lat="44.97190914092031" lon="0.97623106315532"><ele>123.33333333333334</ele><time>2026-03-29T09:57:53.998Z</time></trkpt><trkpt lat="44.97195837260977" lon="0.9761703927805027"><ele>124.66666666666667</ele><time>2026-03-29T09:57:55Z</time></trkpt><trkpt lat="44.97201290920865" lon="0.9760983671230835"><ele>126.0</ele><time>2026-03-29T09:57:56Z</time></trkpt><trkpt lat="44.97207232798374" lon="0.9760001409804175"><ele>126.0</ele><time>2026-03-29T09:57:58Z</time></trkpt><trkpt lat="44.972139574065025" lon="0.9759203705542858"><ele>126.0</ele><time>2026-03-29T09:58:01Z</time></trkpt><trkpt lat="44.97219443786957" lon="0.9758373826664716"><ele>126.0</ele><time>2026-03-29T09:58:04Z</time></trkpt><trkpt lat="44.97221057824133" lon="0.9757418045614276"><ele>126.0</ele><time>2026-03-29T09:58:06Z</time></trkpt><trkpt lat="44.97223687444764" lon="0.9756437676753853"><ele>126.0</ele><time>2026-03-29T09:58:09Z</time></trkpt><trkpt lat="44.97230561948375" lon="0.9755762902463072"><ele>126.0</ele><time>2026-03-29T09:58:13Z</time></trkpt><trkpt lat="44.97236221938712" lon="0.9755158731339509"><ele>127.33333333333333</ele><time>2026-03-29T09:58:15Z</time></trkpt><trkpt lat="44.97242680903274" lon="0.9754401417550256"><ele>128.66666666666666</ele><time>2026-03-29T09:58:17Z</time></trkpt><trkpt lat="44.97247995127006" lon="0.9753195592476738"><ele>130.0</ele><time>2026-03-29T09:58:19Z</time></trkpt><trkpt lat="44.972524143978745" lon="0.975255049947908"><ele>131.33333333333331</ele><time>2026-03-29T09:58:30Z</time></trkpt><trkpt lat="44.972582401787506" lon="0.9751610853218152"><ele>132.66666666666666</ele><time>2026-03-29T09:58:33Z</time></trkpt><trkpt lat="44.97261382773321" lon="0.9750829106696173"><ele>134.0</ele><time>2026-03-29T09:58:34.999Z</time></trkpt><trkpt lat="44.97267216695285" lon="0.974985676314355"><ele>131.33333333333331</ele><time>2026-03-29T09:58:37.999Z</time></trkpt><trkpt lat="44.97270924674988" lon="0.9749056488337856"><ele>128.66666666666666</ele><time>2026-03-29T09:58:39.999Z</time></trkpt><trkpt lat="44.97274825564334" lon="0.9748329565472175"><ele>126.0</ele><time>2026-03-29T09:58:41.999Z</time></trkpt><trkpt lat="44.972786072187056" lon="0.9747558119499491"><ele>123.33333333333334</ele><time>2026-03-29T09:58:43.999Z</time></trkpt><trkpt lat="44.97283273269871" lon="0.9746459056280417"><ele>120.66666666666667</ele><time>2026-03-29T09:58:45.999Z</time></trkpt><trkpt lat="44.97287280541071" lon="0.9745655500911888"><ele>118.0</ele><time>2026-03-29T09:58:46.999Z</time></trkpt><trkpt lat="44.972927211292415" lon="0.9744437952107329"><ele>118.0</ele><time>2026-03-29T09:58:47.999Z</time></trkpt><trkpt lat="44.97297142302766" lon="0.9743091851713348"><ele>118.00000000000001</ele><time>2026-03-29T09:58:48.999Z</time></trkpt><trkpt lat="44.97298860467843" lon="0.9742060236615906"><ele>118.00000000000001</ele><time>2026-03-29T09:58:49.999Z</time></trkpt><trkpt lat="44.972983561524245" lon="0.9741087303950398"><ele>118.0</ele><time>2026-03-29T09:58:50.999Z</time></trkpt><trkpt lat="44.97299452282949" lon="0.9739660004921457"><ele>118.0</ele><time>2026-03-29T09:58:52.999Z</time></trkpt><trkpt lat="44.97307889569272" lon="0.9738770181644592"><ele>118.50000000000001</ele><time>2026-03-29T09:58:54.999Z</time></trkpt><trkpt lat="44.9731556552356" lon="0.9738307466811792"><ele>119.0</ele><time>2026-03-29T09:58:56.999Z</time></trkpt><trkpt lat="44.973230025086885" lon="0.9738186146864587"><ele>119.5</ele><time>2026-03-29T09:58:58.999Z</time></trkpt><trkpt lat="44.97329651400603" lon="0.9738267506070172"><ele>120.0</ele><time>2026-03-29T09:59:00.999Z</time></trkpt><trkpt lat="44.97336773895902" lon="0.9737686579820689"><ele>120.50000000000001</ele><time>2026-03-29T09:59:20.999Z</time></trkpt><trkpt lat="44.973413468681684" lon="0.9736863655621121"><ele>121.0</ele><time>2026-03-29T09:59:22.999Z</time></trkpt><trkpt lat="44.97338594613631" lon="0.9735601731448444"><ele>121.0</ele><time>2026-03-29T09:59:24.998Z</time></trkpt><trkpt lat="44.973370364479294" lon="0.9734673098466096"><ele>121.0</ele><time>2026-03-29T09:59:25.998Z</time></trkpt><trkpt lat="44.97335527561439" lon="0.973313757937332"><ele>121.0</ele><time>2026-03-29T09:59:27.998Z</time></trkpt><trkpt lat="44.97329177311051" lon="0.9731733555822799"><ele>121.0</ele><time>2026-03-29T09:59:29.998Z</time></trkpt><trkpt lat="44.973320393738994" lon="0.9730201248159199"><ele>121.0</ele><time>2026-03-29T09:59:31.998Z</time></trkpt><trkpt lat="44.97334334302964" lon="0.9728909948364564"><ele>123.19999999999999</ele><time>2026-03-29T09:59:33.998Z</time></trkpt><trkpt lat="44.97335877236918" lon="0.9727905326386267"><ele>125.39999999999999</ele><time>2026-03-29T09:59:35.998Z</time></trkpt><trkpt lat="44.973375792101216" lon="0.9726314438046951"><ele>127.6</ele><time>2026-03-29T09:59:37.998Z</time></trkpt><trkpt lat="44.97336905496346" lon="0.97244951530583"><ele>129.79999999999998</ele><time>2026-03-29T09:59:39.998Z</time></trkpt><trkpt lat="44.97342636368361" lon="0.9722787263825647"><ele>132.0</ele><time>2026-03-29T09:59:41.998Z</time></trkpt><trkpt lat="44.973440974058974" lon="0.9721680506355861"><ele>132.16666666666666</ele><time>2026-03-29T09:59:42.998Z</time></trkpt><trkpt lat="44.97343249831215" lon="0.9720542113758333"><ele>132.33333333333334</ele><time>2026-03-29T09:59:43.998Z</time></trkpt><trkpt lat="44.973421583298" lon="0.9719502613899401"><ele>132.5</ele><time>2026-03-29T09:59:44.998Z</time></trkpt><trkpt lat="44.97341971719823" lon="0.9718155980431229"><ele>132.66666666666669</ele><time>2026-03-29T09:59:45.998Z</time></trkpt><trkpt lat="44.97342322916713" lon="0.971688620015238"><ele>132.83333333333334</ele><time>2026-03-29T09:59:46.998Z</time></trkpt><trkpt lat="44.97346647469693" lon="0.9715995078750462"><ele>133.0</ele><time>2026-03-29T09:59:47.998Z</time></trkpt><trkpt lat="44.97349396101083" lon="0.9714894449327602"><ele>133.0</ele><time>2026-03-29T09:59:48.998Z</time></trkpt><trkpt lat="44.97351048098408" lon="0.9713856173483754"><ele>133.0</ele><time>2026-03-29T09:59:49.998Z</time></trkpt><trkpt lat="44.97352154506767" lon="0.9712848734000654"><ele>133.0</ele><time>2026-03-29T09:59:50.998Z</time></trkpt><trkpt lat="44.973541316381024" lon="0.9711989235898911"><ele>133.0</ele><time>2026-03-29T09:59:51.998Z</time></trkpt><trkpt lat="44.97359054750713" lon="0.9710587498219923"><ele>133.0</ele><time>2026-03-29T09:59:53.998Z</time></trkpt><trkpt lat="44.97358136530677" lon="0.9709410013957663"><ele>133.0</ele><time>2026-03-29T09:59:55.998Z</time></trkpt><trkpt lat="44.97353696272461" lon="0.9708538970165783"><ele>131.5</ele><time>2026-03-29T09:59:57.998Z</time></trkpt><trkpt lat="44.973436100917525" lon="0.9708229700256669"><ele>130.0</ele><time>2026-03-29T09:59:59.998Z</time></trkpt><trkpt lat="44.97341106013703" lon="0.9707286919999409"><ele>128.5</ele><time>2026-03-29T10:00:03Z</time></trkpt><trkpt lat="44.973446261876894" lon="0.9706520716807372"><ele>127.0</ele><time>2026-03-29T10:00:05Z</time></trkpt><trkpt lat="44.97350535335876" lon="0.9705194702605253"><ele>125.50000000000001</ele><time>2026-03-29T10:00:07Z</time></trkpt><trkpt lat="44.97354401745964" lon="0.9704190508567055"><ele>124.0</ele><time>2026-03-29T10:00:08Z</time></trkpt><trkpt lat="44.973577932876736" lon="0.9703283254854521"><ele>124.00000000000001</ele><time>2026-03-29T10:00:09Z</time></trkpt><trkpt lat="44.97360725005766" lon="0.9702323091383659"><ele>124.0</ele><time>2026-03-29T10:00:10Z</time></trkpt><trkpt lat="44.97363875436501" lon="0.9701439208232521"><ele>124.0</ele><time>2026-03-29T10:00:11Z</time></trkpt><trkpt lat="44.973682816839876" lon="0.9700374291005748"><ele>124.0</ele><time>2026-03-29T10:00:12Z</time></trkpt><trkpt lat="44.973724169714" lon="0.9699151393531138"><ele>124.00000000000001</ele><time>2026-03-29T10:00:13Z</time></trkpt><trkpt lat="44.97377674677657" lon="0.9697839554666154"><ele>124.0</ele><time>2026-03-29T10:00:14Z</time></trkpt><trkpt lat="44.97383253939332" lon="0.9696881445895169"><ele>124.16666666666667</ele><time>2026-03-29T10:00:15Z</time></trkpt><trkpt lat="44.97388557862479" lon="0.969560131261801"><ele>124.33333333333334</ele><time>2026-03-29T10:00:16Z</time></trkpt><trkpt lat="44.97393812117908" lon="0.9694754874813651"><ele>124.5</ele><time>2026-03-29T10:00:17Z</time></trkpt><trkpt lat="44.97398539257447" lon="0.969394648625718"><ele>124.66666666666666</ele><time>2026-03-29T10:00:18Z</time></trkpt><trkpt lat="44.97401926027601" lon="0.9693107514461984"><ele>124.83333333333333</ele><time>2026-03-29T10:00:19Z</time></trkpt><trkpt lat="44.974083237361086" lon="0.9692601808639826"><ele>125.0</ele><time>2026-03-29T10:00:20Z</time></trkpt><trkpt lat="44.97413635499943" lon="0.9691919040490387"><ele>124.83333333333333</ele><time>2026-03-29T10:00:21Z</time></trkpt><trkpt lat="44.97419889178509" lon="0.9691003834982066"><ele>124.66666666666666</ele><time>2026-03-29T10:00:22Z</time></trkpt><trkpt lat="44.97424993796855" lon="0.9690136184479563"><ele>124.5</ele><time>2026-03-29T10:00:23Z</time></trkpt><trkpt lat="44.97430459351648" lon="0.9689225026131412"><ele>124.33333333333334</ele><time>2026-03-29T10:00:24Z</time></trkpt><trkpt lat="44.974354828187" lon="0.9688621551483327"><ele>124.16666666666667</ele><time>2026-03-29T10:00:25Z</time></trkpt><trkpt lat="44.97442043336584" lon="0.9687823157952635"><ele>124.0</ele><time>2026-03-29T10:00:26Z</time></trkpt><trkpt lat="44.97446899975697" lon="0.9686940234878711"><ele>124.0</ele><time>2026-03-29T10:00:27Z</time></trkpt><trkpt lat="44.97450566613324" lon="0.9685877606364666"><ele>124.0</ele><time>2026-03-29T10:00:28Z</time></trkpt><trkpt lat="44.974571501423654" lon="0.968541729408717"><ele>124.0</ele><time>2026-03-29T10:00:29Z</time></trkpt><trkpt lat="44.97468809848559" lon="0.9684069359529051"><ele>124.0</ele><time>2026-03-29T10:00:31Z</time></trkpt><trkpt lat="44.97474460575585" lon="0.9683202931390944"><ele>124.0</ele><time>2026-03-29T10:00:32Z</time></trkpt><trkpt lat="44.9748042641583" lon="0.9682389176408425"><ele>123.4</ele><time>2026-03-29T10:00:33Z</time></trkpt><trkpt lat="44.97485747722281" lon="0.968144105966561"><ele>122.80000000000001</ele><time>2026-03-29T10:00:34Z</time></trkpt><trkpt lat="44.97495021390621" lon="0.9680523030685009"><ele>122.19999999999999</ele><time>2026-03-29T10:00:35Z</time></trkpt><trkpt lat="44.97501069186795" lon="0.9679527867941434"><ele>121.6</ele><time>2026-03-29T10:00:36Z</time></trkpt><trkpt lat="44.97506561321081" lon="0.9678370828027331"><ele>121.0</ele><time>2026-03-29T10:00:37Z</time></trkpt><trkpt lat="44.97513272835719" lon="0.9677565790357486"><ele>121.19999999999999</ele><time>2026-03-29T10:00:38Z</time></trkpt><trkpt lat="44.97521071072947" lon="0.9676935470661832"><ele>121.39999999999999</ele><time>2026-03-29T10:00:39Z</time></trkpt><trkpt lat="44.9752931279721" lon="0.9676072419344245"><ele>121.6</ele><time>2026-03-29T10:00:40Z</time></trkpt><trkpt lat="44.97537342995698" lon="0.9675419181924276"><ele>121.8</ele><time>2026-03-29T10:00:40.999Z</time></trkpt><trkpt lat="44.975438177568535" lon="0.9674480729229085"><ele>122.0</ele><time>2026-03-29T10:00:41.999Z</time></trkpt><trkpt lat="44.975511909285565" lon="0.9673615657446781"><ele>122.0</ele><time>2026-03-29T10:00:42.999Z</time></trkpt><trkpt lat="44.975577353905166" lon="0.9673014354549299"><ele>121.99999999999999</ele><time>2026-03-29T10:00:43.999Z</time></trkpt><trkpt lat="44.97565798839117" lon="0.9672103083792173"><ele>121.99999999999999</ele><time>2026-03-29T10:00:44.999Z</time></trkpt><trkpt lat="44.975740988241064" lon="0.9671116087974901"><ele>122.0</ele><time>2026-03-29T10:00:45.999Z</time></trkpt><trkpt lat="44.97581342874313" lon="0.9670111061235712"><ele>122.0</ele><time>2026-03-29T10:00:46.999Z</time></trkpt><trkpt lat="44.975882558931474" lon="0.966939156565621"><ele>122.16666666666666</ele><time>2026-03-29T10:00:47.999Z</time></trkpt><trkpt lat="44.975924019903836" lon="0.966833963978538"><ele>122.33333333333333</ele><time>2026-03-29T10:00:48.999Z</time></trkpt><trkpt lat="44.97601036445264" lon="0.9667407219550814"><ele>122.5</ele><time>2026-03-29T10:00:50.999Z</time></trkpt><trkpt lat="44.97607243605123" lon="0.9666608363725642"><ele>122.66666666666666</ele><time>2026-03-29T10:00:51.999Z</time></trkpt><trkpt lat="44.97613567390502" lon="0.96662140105999"><ele>122.83333333333333</ele><time>2026-03-29T10:00:54.999Z</time></trkpt><trkpt lat="44.97619631328822" lon="0.9667031209746717"><ele>123.0</ele><time>2026-03-29T10:00:56.999Z</time></trkpt><trkpt lat="44.97623585753731" lon="0.9667845149760718"><ele>123.83333333333333</ele><time>2026-03-29T10:00:57.999Z</time></trkpt><trkpt lat="44.976288662298685" lon="0.9668596810588478"><ele>124.66666666666666</ele><time>2026-03-29T10:00:58.999Z</time></trkpt><trkpt lat="44.97634214468765" lon="0.9669092955580948"><ele>125.5</ele><time>2026-03-29T10:00:59.999Z</time></trkpt><trkpt lat="44.97642658363055" lon="0.9670059323524496"><ele>126.33333333333333</ele><time>2026-03-29T10:01:01.999Z</time></trkpt><trkpt lat="44.97652673814615" lon="0.9670596820189649"><ele>127.16666666666666</ele><time>2026-03-29T10:01:03.999Z</time></trkpt><trkpt lat="44.97660043298495" lon="0.9670544771945744"><ele>128.0</ele><time>2026-03-29T10:01:05.999Z</time></trkpt><trkpt lat="44.97670221786739" lon="0.9669677025443765"><ele>131.8</ele><time>2026-03-29T10:01:07.999Z</time></trkpt><trkpt lat="44.976746785011244" lon="0.9668830680022896"><ele>135.60000000000002</ele><time>2026-03-29T10:01:08.999Z</time></trkpt><trkpt lat="44.97678665506389" lon="0.9667617342707229"><ele>139.39999999999998</ele><time>2026-03-29T10:01:09.999Z</time></trkpt><trkpt lat="44.97681857972526" lon="0.9666319387121761"><ele>143.2</ele><time>2026-03-29T10:01:10.999Z</time></trkpt><trkpt lat="44.97687363336492" lon="0.9665159108962622"><ele>147.0</ele><time>2026-03-29T10:01:11.999Z</time></trkpt><trkpt lat="44.97691979976023" lon="0.9663984541014037"><ele>147.0</ele><time>2026-03-29T10:01:12.999Z</time></trkpt><trkpt lat="44.97696590830309" lon="0.9662959708582269"><ele>147.0</ele><time>2026-03-29T10:01:13.999Z</time></trkpt><trkpt lat="44.977014318896984" lon="0.966199402145923"><ele>147.0</ele><time>2026-03-29T10:01:14.999Z</time></trkpt><trkpt lat="44.97707246461082" lon="0.9660990475858618"><ele>147.0</ele><time>2026-03-29T10:01:15.999Z</time></trkpt><trkpt lat="44.97713945855297" lon="0.9660056188112557"><ele>147.0</ele><time>2026-03-29T10:01:16.999Z</time></trkpt><trkpt lat="44.977205829697304" lon="0.9659235701493898"><ele>147.0</ele><time>2026-03-29T10:01:17.999Z</time></trkpt><trkpt lat="44.97727361238539" lon="0.9658452448078628"><ele>147.79999999999998</ele><time>2026-03-29T10:01:18.999Z</time></trkpt><trkpt lat="44.97733824207287" lon="0.965767719446487"><ele>148.6</ele><time>2026-03-29T10:01:19.999Z</time></trkpt><trkpt lat="44.97741124344597" lon="0.9656814159652217"><ele>149.39999999999998</ele><time>2026-03-29T10:01:20.999Z</time></trkpt><trkpt lat="44.97748736402747" lon="0.965598622484367"><ele>150.2</ele><time>2026-03-29T10:01:21.999Z</time></trkpt><trkpt lat="44.977572165368485" lon="0.9655220143914429"><ele>151.0</ele><time>2026-03-29T10:01:22.999Z</time></trkpt><trkpt lat="44.97766503011009" lon="0.9654555685300603"><ele>151.0</ele><time>2026-03-29T10:01:23.999Z</time></trkpt><trkpt lat="44.977772084960655" lon="0.9653953218826727"><ele>151.0</ele><time>2026-03-29T10:01:24.999Z</time></trkpt><trkpt lat="44.97789358529263" lon="0.9653492727762518"><ele>151.0</ele><time>2026-03-29T10:01:25.999Z</time></trkpt><trkpt lat="44.97800828726619" lon="0.9653147026351981"><ele>151.0</ele><time>2026-03-29T10:01:26.999Z</time></trkpt><trkpt lat="44.97812254132614" lon="0.9652455787342722"><ele>151.0</ele><time>2026-03-29T10:01:27.999Z</time></trkpt><trkpt lat="44.97824408884531" lon="0.965210469373196"><ele>151.0</ele><time>2026-03-29T10:01:28.999Z</time></trkpt><trkpt lat="44.97834955447033" lon="0.9651519649357534"><ele>151.0</ele><time>2026-03-29T10:01:29.999Z</time></trkpt><trkpt lat="44.978465281353245" lon="0.9651099691962214"><ele>151.0</ele><time>2026-03-29T10:01:30.999Z</time></trkpt><trkpt lat="44.97857951957399" lon="0.9651040326413282"><ele>150.5</ele><time>2026-03-29T10:01:31.998Z</time></trkpt><trkpt lat="44.97869807328019" lon="0.9650852820210218"><ele>150.0</ele><time>2026-03-29T10:01:32.998Z</time></trkpt><trkpt lat="44.97881758331689" lon="0.9650617639726984"><ele>149.5</ele><time>2026-03-29T10:01:33.998Z</time></trkpt><trkpt lat="44.97893225990965" lon="0.9650196899622691"><ele>149.0</ele><time>2026-03-29T10:01:34.998Z</time></trkpt><trkpt lat="44.979035237428164" lon="0.9649548922198226"><ele>149.0</ele><time>2026-03-29T10:01:35.998Z</time></trkpt><trkpt lat="44.9791280248856" lon="0.9649085277155786"><ele>149.0</ele><time>2026-03-29T10:01:36.998Z</time></trkpt><trkpt lat="44.979234559655005" lon="0.9648717292145891"><ele>149.0</ele><time>2026-03-29T10:01:37.998Z</time></trkpt><trkpt lat="44.97935733042613" lon="0.9648452129336108"><ele>149.0</ele><time>2026-03-29T10:01:38.998Z</time></trkpt><trkpt lat="44.979478233331996" lon="0.9648029459344071"><ele>152.75</ele><time>2026-03-29T10:01:39.998Z</time></trkpt><trkpt lat="44.9796022860099" lon="0.9647576995535853"><ele>156.5</ele><time>2026-03-29T10:01:40.998Z</time></trkpt><trkpt lat="44.979714246714735" lon="0.9646943405016943"><ele>160.25</ele><time>2026-03-29T10:01:41.998Z</time></trkpt><trkpt lat="44.97983388153314" lon="0.9646291731880391"><ele>164.0</ele><time>2026-03-29T10:01:42.998Z</time></trkpt><trkpt lat="44.979950137511004" lon="0.9645758624586982"><ele>167.5</ele><time>2026-03-29T10:01:43.998Z</time></trkpt><trkpt lat="44.98006770682503" lon="0.964518586658626"><ele>171.0</ele><time>2026-03-29T10:01:44.998Z</time></trkpt><trkpt lat="44.98017868126589" lon="0.9644666405877813"><ele>174.5</ele><time>2026-03-29T10:01:45.998Z</time></trkpt><trkpt lat="44.98028750956455" lon="0.9644136314169834"><ele>178.0</ele><time>2026-03-29T10:01:46.998Z</time></trkpt><trkpt lat="44.98039689669669" lon="0.9643453457252219"><ele>178.0</ele><time>2026-03-29T10:01:47.998Z</time></trkpt><trkpt lat="44.98051022212888" lon="0.96427077897469"><ele>178.0</ele><time>2026-03-29T10:01:48.998Z</time></trkpt><trkpt lat="44.9806237533644" lon="0.9642013989466106"><ele>178.0</ele><time>2026-03-29T10:01:49.998Z</time></trkpt><trkpt lat="44.98073664961435" lon="0.9641208619591717"><ele>178.0</ele><time>2026-03-29T10:01:50.998Z</time></trkpt><trkpt lat="44.980857680264634" lon="0.9640452019926283"><ele>176.8</ele><time>2026-03-29T10:01:51.998Z</time></trkpt><trkpt lat="44.98098189928937" lon="0.9639800227422556"><ele>175.60000000000002</ele><time>2026-03-29T10:01:52.998Z</time></trkpt><trkpt lat="44.98107929774212" lon="0.9639419728932483"><ele>174.39999999999998</ele><time>2026-03-29T10:01:53.998Z</time></trkpt><trkpt lat="44.98115891460811" lon="0.9639139978448066"><ele>173.2</ele><time>2026-03-29T10:01:54.998Z</time></trkpt><trkpt lat="44.981237390550504" lon="0.9639193093468673"><ele>172.0</ele><time>2026-03-29T10:01:55.998Z</time></trkpt><trkpt lat="44.98132865691863" lon="0.9638860189969193"><ele>172.0</ele><time>2026-03-29T10:01:56.998Z</time></trkpt><trkpt lat="44.98142902418837" lon="0.9638800640250914"><ele>172.0</ele><time>2026-03-29T10:01:57.998Z</time></trkpt><trkpt lat="44.981528075921254" lon="0.9639120578385134"><ele>172.0</ele><time>2026-03-29T10:01:58.998Z</time></trkpt><trkpt lat="44.981615211344945" lon="0.9639298513478282"><ele>172.0</ele><time>2026-03-29T10:01:59.998Z</time></trkpt><trkpt lat="44.9816998562873" lon="0.9639542120219003"><ele>172.0</ele><time>2026-03-29T10:02:00.998Z</time></trkpt><trkpt lat="44.98178309444374" lon="0.9639947322746975"><ele>171.16666666666669</ele><time>2026-03-29T10:02:01.998Z</time></trkpt><trkpt lat="44.98186834626034" lon="0.9640447993037399"><ele>170.33333333333334</ele><time>2026-03-29T10:02:02.998Z</time></trkpt><trkpt lat="44.981952791801724" lon="0.9640843568827663"><ele>169.5</ele><time>2026-03-29T10:02:03.998Z</time></trkpt><trkpt lat="44.982020343561835" lon="0.9641849198126321"><ele>168.66666666666666</ele><time>2026-03-29T10:02:04.998Z</time></trkpt><trkpt lat="44.98207473919328" lon="0.9642791911288713"><ele>167.83333333333331</ele><time>2026-03-29T10:02:05.998Z</time></trkpt><trkpt lat="44.9821044616395" lon="0.9643734156215837"><ele>167.0</ele><time>2026-03-29T10:02:07Z</time></trkpt><trkpt lat="44.98212606927414" lon="0.964475398772643"><ele>167.0</ele><time>2026-03-29T10:02:08Z</time></trkpt><trkpt lat="44.98213840957486" lon="0.9645825957572738"><ele>167.0</ele><time>2026-03-29T10:02:09Z</time></trkpt><trkpt lat="44.98214353918333" lon="0.9647074231406825"><ele>167.0</ele><time>2026-03-29T10:02:10Z</time></trkpt><trkpt lat="44.98214594243292" lon="0.9648342002824767"><ele>167.0</ele><time>2026-03-29T10:02:11Z</time></trkpt><trkpt lat="44.982146900258975" lon="0.9649619944951958"><ele>167.0</ele><time>2026-03-29T10:02:12Z</time></trkpt><trkpt lat="44.982149456987365" lon="0.9650892840550089"><ele>167.0</ele><time>2026-03-29T10:02:13Z</time></trkpt><trkpt lat="44.98215307249137" lon="0.9652202668387861"><ele>168.8</ele><time>2026-03-29T10:02:14Z</time></trkpt><trkpt lat="44.98216111476377" lon="0.9653442703237255"><ele>170.6</ele><time>2026-03-29T10:02:15Z</time></trkpt><trkpt lat="44.98217058188735" lon="0.9654743297984278"><ele>172.4</ele><time>2026-03-29T10:02:16Z</time></trkpt><trkpt lat="44.98218169411577" lon="0.9656155135686797"><ele>174.20000000000002</ele><time>2026-03-29T10:02:17Z</time></trkpt><trkpt lat="44.982189505856" lon="0.9657537107711415"><ele>176.0</ele><time>2026-03-29T10:02:18Z</time></trkpt><trkpt lat="44.98220085384445" lon="0.9659032016160474"><ele>178.20000000000002</ele><time>2026-03-29T10:02:19Z</time></trkpt><trkpt lat="44.9821901368144" lon="0.966056105095187"><ele>180.4</ele><time>2026-03-29T10:02:20Z</time></trkpt><trkpt lat="44.98218578821443" lon="0.9662196872928239"><ele>182.6</ele><time>2026-03-29T10:02:21Z</time></trkpt><trkpt lat="44.98219519902954" lon="0.966354225925541"><ele>184.8</ele><time>2026-03-29T10:02:22Z</time></trkpt><trkpt lat="44.98222598587555" lon="0.9664867919355703"><ele>187.0</ele><time>2026-03-29T10:02:23Z</time></trkpt><trkpt lat="44.98227184186921" lon="0.9666219050428155"><ele>188.6</ele><time>2026-03-29T10:02:24Z</time></trkpt><trkpt lat="44.98234175877358" lon="0.9667608689669978"><ele>190.2</ele><time>2026-03-29T10:02:25Z</time></trkpt><trkpt lat="44.98240268221222" lon="0.9669035435032731"><ele>191.8</ele><time>2026-03-29T10:02:26Z</time></trkpt><trkpt lat="44.98244999101297" lon="0.9670366722129933"><ele>193.4</ele><time>2026-03-29T10:02:27Z</time></trkpt><trkpt lat="44.98245480884388" lon="0.9671664881334749"><ele>195.0</ele><time>2026-03-29T10:02:28Z</time></trkpt><trkpt lat="44.98248283596347" lon="0.9672765773856477"><ele>195.0</ele><time>2026-03-29T10:02:29Z</time></trkpt><trkpt lat="44.982471485422664" lon="0.9674166663040684"><ele>195.0</ele><time>2026-03-29T10:02:30Z</time></trkpt><trkpt lat="44.98247399992468" lon="0.9675749546006238"><ele>195.0</ele><time>2026-03-29T10:02:31Z</time></trkpt><trkpt lat="44.98247592429979" lon="0.9677458410452506"><ele>195.0</ele><time>2026-03-29T10:02:32Z</time></trkpt><trkpt lat="44.98248597620816" lon="0.9679118313260143"><ele>195.8</ele><time>2026-03-29T10:02:33Z</time></trkpt><trkpt lat="44.98248163109158" lon="0.968061030619644"><ele>196.6</ele><time>2026-03-29T10:02:34Z</time></trkpt><trkpt lat="44.98246965915077" lon="0.9681976938247486"><ele>197.39999999999998</ele><time>2026-03-29T10:02:35Z</time></trkpt><trkpt lat="44.982460314308035" lon="0.9683544919199922"><ele>198.2</ele><time>2026-03-29T10:02:36Z</time></trkpt><trkpt lat="44.982449073896234" lon="0.9685204817477039"><ele>199.0</ele><time>2026-03-29T10:02:37Z</time></trkpt><trkpt lat="44.982430703423155" lon="0.9686916799020121"><ele>200.0</ele><time>2026-03-29T10:02:38Z</time></trkpt><trkpt lat="44.98239957605184" lon="0.9688566857544841"><ele>201.0</ele><time>2026-03-29T10:02:39Z</time></trkpt><trkpt lat="44.98237831660745" lon="0.9689967172166842"><ele>202.0</ele><time>2026-03-29T10:02:40Z</time></trkpt><trkpt lat="44.98236427690214" lon="0.9691164940054998"><ele>203.0</ele><time>2026-03-29T10:02:41Z</time></trkpt><trkpt lat="44.98235430324329" lon="0.9692237955311819"><ele>204.0</ele><time>2026-03-29T10:02:41.999Z</time></trkpt><trkpt lat="44.98235471441246" lon="0.9693288159522943"><ele>204.5</ele><time>2026-03-29T10:02:42.999Z</time></trkpt><trkpt lat="44.98236780148268" lon="0.9694441248555501"><ele>205.0</ele><time>2026-03-29T10:02:43.999Z</time></trkpt><trkpt lat="44.98240183929213" lon="0.9695404335928302"><ele>205.5</ele><time>2026-03-29T10:02:44.999Z</time></trkpt><trkpt lat="44.98245437864913" lon="0.9696330568818244"><ele>206.0</ele><time>2026-03-29T10:02:45.999Z</time></trkpt><trkpt lat="44.982522821121904" lon="0.9696855829483679"><ele>206.5</ele><time>2026-03-29T10:02:46.999Z</time></trkpt><trkpt lat="44.98261773092439" lon="0.9697012177683495"><ele>207.0</ele><time>2026-03-29T10:02:47.999Z</time></trkpt><trkpt lat="44.98269516866362" lon="0.9696916875850419"><ele>207.16666666666666</ele><time>2026-03-29T10:02:48.999Z</time></trkpt><trkpt lat="44.98276333819986" lon="0.9696776477359228"><ele>207.33333333333331</ele><time>2026-03-29T10:02:49.999Z</time></trkpt><trkpt lat="44.98283136472344" lon="0.9696790913923478"><ele>207.5</ele><time>2026-03-29T10:02:50.999Z</time></trkpt><trkpt lat="44.98290484879751" lon="0.9696758302147501"><ele>207.66666666666666</ele><time>2026-03-29T10:02:51.999Z</time></trkpt><trkpt lat="44.98298607523509" lon="0.9696953927464597"><ele>207.83333333333331</ele><time>2026-03-29T10:02:52.999Z</time></trkpt><trkpt lat="44.98307011797971" lon="0.9697164259891379"><ele>208.0</ele><time>2026-03-29T10:02:53.999Z</time></trkpt><trkpt lat="44.98314156919936" lon="0.969774620014789"><ele>208.0</ele><time>2026-03-29T10:02:54.999Z</time></trkpt><trkpt lat="44.98320472521998" lon="0.9698584972599211"><ele>208.0</ele><time>2026-03-29T10:02:55.999Z</time></trkpt><trkpt lat="44.983258840524485" lon="0.9699531270198516"><ele>208.0</ele><time>2026-03-29T10:02:56.999Z</time></trkpt><trkpt lat="44.98330716516199" lon="0.9700691954602797"><ele>208.0</ele><time>2026-03-29T10:02:57.999Z</time></trkpt><trkpt lat="44.98335602040806" lon="0.9701973639571474"><ele>208.0</ele><time>2026-03-29T10:02:58.999Z</time></trkpt><trkpt lat="44.98340055587145" lon="0.9703255554161522"><ele>208.8</ele><time>2026-03-29T10:02:59.999Z</time></trkpt><trkpt lat="44.983442741024696" lon="0.9704481695871302"><ele>209.60000000000002</ele><time>2026-03-29T10:03:00.999Z</time></trkpt><trkpt lat="44.983490936215595" lon="0.9705664740755902"><ele>210.39999999999998</ele><time>2026-03-29T10:03:01.999Z</time></trkpt><trkpt lat="44.98353268876024" lon="0.9706883846848904"><ele>211.2</ele><time>2026-03-29T10:03:02.999Z</time></trkpt><trkpt lat="44.98355977106363" lon="0.9708139922148336"><ele>212.0</ele><time>2026-03-29T10:03:03.999Z</time></trkpt><trkpt lat="44.98358541246723" lon="0.9709487639525396"><ele>212.0</ele><time>2026-03-29T10:03:04.999Z</time></trkpt><trkpt lat="44.98361248531437" lon="0.9710929304793253"><ele>212.0</ele><time>2026-03-29T10:03:05.999Z</time></trkpt><trkpt lat="44.98363169093634" lon="0.9712542909230049"><ele>212.0</ele><time>2026-03-29T10:03:06.999Z</time></trkpt><trkpt lat="44.98365168384755" lon="0.9714248222014502"><ele>212.0</ele><time>2026-03-29T10:03:07.999Z</time></trkpt><trkpt lat="44.983673693834604" lon="0.9715943262593604"><ele>212.25</ele><time>2026-03-29T10:03:08.999Z</time></trkpt><trkpt lat="44.98369967028116" lon="0.9717649979784408"><ele>212.5</ele><time>2026-03-29T10:03:09.999Z</time></trkpt><trkpt lat="44.983724570344926" lon="0.971932522802751"><ele>212.75</ele><time>2026-03-29T10:03:10.999Z</time></trkpt><trkpt lat="44.98375371162471" lon="0.9720988995100897"><ele>213.0</ele><time>2026-03-29T10:03:11.999Z</time></trkpt><trkpt lat="44.98379167415572" lon="0.972241089173908"><ele>213.0</ele><time>2026-03-29T10:03:12.999Z</time></trkpt><trkpt lat="44.983852791992376" lon="0.9723598563582149"><ele>213.0</ele><time>2026-03-29T10:03:13.999Z</time></trkpt><trkpt lat="44.98393560758998" lon="0.9724759465189898"><ele>213.0</ele><time>2026-03-29T10:03:14.999Z</time></trkpt><trkpt lat="44.98403435819833" lon="0.9725822407558807"><ele>213.0</ele><time>2026-03-29T10:03:15.999Z</time></trkpt><trkpt lat="44.98414321271864" lon="0.9726758575965428"><ele>214.60000000000002</ele><time>2026-03-29T10:03:16.999Z</time></trkpt><trkpt lat="44.984246228268425" lon="0.9727764048285127"><ele>216.20000000000002</ele><time>2026-03-29T10:03:17.999Z</time></trkpt><trkpt lat="44.98433904525173" lon="0.9728877685621283"><ele>217.8</ele><time>2026-03-29T10:03:18.999Z</time></trkpt><trkpt lat="44.98441784940486" lon="0.9729861188375271"><ele>219.4</ele><time>2026-03-29T10:03:19.999Z</time></trkpt><trkpt lat="44.98448181467314" lon="0.9730824823595559"><ele>221.0</ele><time>2026-03-29T10:03:20.999Z</time></trkpt><trkpt lat="44.984511994517085" lon="0.9732247012663847"><ele>222.20000000000002</ele><time>2026-03-29T10:03:21.999Z</time></trkpt><trkpt lat="44.984512207429816" lon="0.9733765085280349"><ele>223.40000000000003</ele><time>2026-03-29T10:03:22.999Z</time></trkpt><trkpt lat="44.98450507397287" lon="0.9735250693073069"><ele>224.6</ele><time>2026-03-29T10:03:23.999Z</time></trkpt><trkpt lat="44.98449642527668" lon="0.973678662605686"><ele>225.8</ele><time>2026-03-29T10:03:24.999Z</time></trkpt><trkpt lat="44.9844862878061" lon="0.9738498504106723"><ele>227.0</ele><time>2026-03-29T10:03:25.999Z</time></trkpt><trkpt lat="44.984476483232186" lon="0.9740155824296545"><ele>227.0</ele><time>2026-03-29T10:03:26.999Z</time></trkpt><trkpt lat="44.98448110923106" lon="0.9741680550558768"><ele>227.0</ele><time>2026-03-29T10:03:27.999Z</time></trkpt><trkpt lat="44.984483094699804" lon="0.9743193153836028"><ele>227.0</ele><time>2026-03-29T10:03:28.999Z</time></trkpt><trkpt lat="44.984501369777405" lon="0.9744837257049642"><ele>227.0</ele><time>2026-03-29T10:03:29.999Z</time></trkpt><trkpt lat="44.98453519992023" lon="0.9746385945316778"><ele>227.0</ele><time>2026-03-29T10:03:30.999Z</time></trkpt><trkpt lat="44.98457580920003" lon="0.9747994923229856"><ele>227.6</ele><time>2026-03-29T10:03:31.999Z</time></trkpt><trkpt lat="44.98461436869851" lon="0.9749569491289294"><ele>228.2</ele><time>2026-03-29T10:03:32.999Z</time></trkpt><trkpt lat="44.984617532804094" lon="0.9750891121233446"><ele>228.8</ele><time>2026-03-29T10:03:33.998Z</time></trkpt><trkpt lat="44.98462009039757" lon="0.9752184405813904"><ele>229.4</ele><time>2026-03-29T10:03:34.998Z</time></trkpt><trkpt lat="44.984606300135376" lon="0.9753549973737918"><ele>230.0</ele><time>2026-03-29T10:03:35.998Z</time></trkpt><trkpt lat="44.98456830058132" lon="0.9754950748695926"><ele>230.0</ele><time>2026-03-29T10:03:36.998Z</time></trkpt><trkpt lat="44.984523102877866" lon="0.9756329822285811"><ele>230.0</ele><time>2026-03-29T10:03:37.998Z</time></trkpt><trkpt lat="44.98446971658988" lon="0.9757710377253591"><ele>230.0</ele><time>2026-03-29T10:03:38.998Z</time></trkpt><trkpt lat="44.984417693580035" lon="0.9759023106936185"><ele>230.0</ele><time>2026-03-29T10:03:39.998Z</time></trkpt><trkpt lat="44.98437073197495" lon="0.9760252183673086"><ele>230.0</ele><time>2026-03-29T10:03:40.998Z</time></trkpt><trkpt lat="44.98434816732499" lon="0.9761281118723513"><ele>230.0</ele><time>2026-03-29T10:03:41.998Z</time></trkpt><trkpt lat="44.98431841173645" lon="0.976207343997433"><ele>230.0</ele><time>2026-03-29T10:03:42.998Z</time></trkpt><trkpt lat="44.98428276818023" lon="0.9763056040936429"><ele>230.0</ele><time>2026-03-29T10:03:45.998Z</time></trkpt><trkpt lat="44.98445140411498" lon="0.9762819896445771"><ele>230.0</ele><time>2026-03-29T10:03:47.998Z</time></trkpt><trkpt lat="44.984558009683965" lon="0.9761721261677956"><ele>230.0</ele><time>2026-03-29T10:03:49.998Z</time></trkpt><trkpt lat="44.98462616254785" lon="0.9761155102433754"><ele>230.0</ele><time>2026-03-29T10:03:50.998Z</time></trkpt><trkpt lat="44.98470248604628" lon="0.9760490974508814"><ele>230.0</ele><time>2026-03-29T10:03:51.998Z</time></trkpt><trkpt lat="44.984788513543045" lon="0.9759743546330831"><ele>230.0</ele><time>2026-03-29T10:03:52.998Z</time></trkpt><trkpt lat="44.98487272117164" lon="0.9758949381953901"><ele>230.0</ele><time>2026-03-29T10:03:53.998Z</time></trkpt><trkpt lat="44.984967055689" lon="0.9758060826523459"><ele>230.0</ele><time>2026-03-29T10:03:54.998Z</time></trkpt><trkpt lat="44.98505356454361" lon="0.9757142245747811"><ele>231.75</ele><time>2026-03-29T10:03:55.998Z</time></trkpt><trkpt lat="44.98514890161593" lon="0.9755993198129566"><ele>233.5</ele><time>2026-03-29T10:03:56.998Z</time></trkpt><trkpt lat="44.9852366302327" lon="0.9754887556675204"><ele>235.25</ele><time>2026-03-29T10:03:57.998Z</time></trkpt><trkpt lat="44.98532170025936" lon="0.97538138628679"><ele>237.0</ele><time>2026-03-29T10:03:58.998Z</time></trkpt><trkpt lat="44.9854106962274" lon="0.9752729472791568"><ele>237.0</ele><time>2026-03-29T10:03:59.998Z</time></trkpt><trkpt lat="44.98550114655791" lon="0.9751652582380904"><ele>237.0</ele><time>2026-03-29T10:04:00.998Z</time></trkpt><trkpt lat="44.98558840092501" lon="0.9750570397390796"><ele>237.0</ele><time>2026-03-29T10:04:01.998Z</time></trkpt><trkpt lat="44.98567874608703" lon="0.9749492168200088"><ele>237.0</ele><time>2026-03-29T10:04:02.998Z</time></trkpt><trkpt lat="44.985786333531216" lon="0.974855969931987"><ele>236.25</ele><time>2026-03-29T10:04:03.998Z</time></trkpt><trkpt lat="44.985884914914706" lon="0.9747642704502258"><ele>235.5</ele><time>2026-03-29T10:04:04.998Z</time></trkpt><trkpt lat="44.98598639521196" lon="0.9746797472839349"><ele>234.75</ele><time>2026-03-29T10:04:05.998Z</time></trkpt><trkpt lat="44.98608982024394" lon="0.9745849291229283"><ele>234.0</ele><time>2026-03-29T10:04:06.998Z</time></trkpt><trkpt lat="44.98620418332408" lon="0.9745097585872471"><ele>234.0</ele><time>2026-03-29T10:04:07.998Z</time></trkpt><trkpt lat="44.986313138968335" lon="0.9744414748574098"><ele>234.0</ele><time>2026-03-29T10:04:08.998Z</time></trkpt><trkpt lat="44.986426891354135" lon="0.9743601800969652"><ele>234.0</ele><time>2026-03-29T10:04:09.998Z</time></trkpt><trkpt lat="44.98653624805844" lon="0.9742887468659863"><ele>234.0</ele><time>2026-03-29T10:04:10.998Z</time></trkpt><trkpt lat="44.9866483455862" lon="0.9742082155387977"><ele>234.25</ele><time>2026-03-29T10:04:11.998Z</time></trkpt><trkpt lat="44.986759134370665" lon="0.9741445102343971"><ele>234.5</ele><time>2026-03-29T10:04:13Z</time></trkpt><trkpt lat="44.986886758430664" lon="0.9740847220996066"><ele>234.75</ele><time>2026-03-29T10:04:14Z</time></trkpt><trkpt lat="44.98701850863047" lon="0.974029748315044"><ele>235.0</ele><time>2026-03-29T10:04:15Z</time></trkpt><trkpt lat="44.987152578968136" lon="0.9739826134390402"><ele>235.0</ele><time>2026-03-29T10:04:16Z</time></trkpt><trkpt lat="44.987287507935" lon="0.9739221881100014"><ele>235.0</ele><time>2026-03-29T10:04:17Z</time></trkpt><trkpt lat="44.98741866540706" lon="0.973873540339753"><ele>235.0</ele><time>2026-03-29T10:04:18Z</time></trkpt><trkpt lat="44.98755343739284" lon="0.9738263013106164"><ele>235.0</ele><time>2026-03-29T10:04:19Z</time></trkpt><trkpt lat="44.98768363564109" lon="0.973779166284339"><ele>233.5</ele><time>2026-03-29T10:04:20Z</time></trkpt><trkpt lat="44.98781265148187" lon="0.9737382961407611"><ele>232.0</ele><time>2026-03-29T10:04:21Z</time></trkpt><trkpt lat="44.987946192315505" lon="0.973694731605713"><ele>230.5</ele><time>2026-03-29T10:04:22Z</time></trkpt><trkpt lat="44.98807567893623" lon="0.9736502316940059"><ele>229.0</ele><time>2026-03-29T10:04:23Z</time></trkpt><trkpt lat="44.98820349775357" lon="0.9736010845903139"><ele>229.0</ele><time>2026-03-29T10:04:24Z</time></trkpt><trkpt lat="44.988326240900726" lon="0.9735598636335976"><ele>229.0</ele><time>2026-03-29T10:04:25Z</time></trkpt><trkpt lat="44.988450948776936" lon="0.9735157128094855"><ele>229.0</ele><time>2026-03-29T10:04:26Z</time></trkpt><trkpt lat="44.988582204236714" lon="0.9734595040750572"><ele>229.0</ele><time>2026-03-29T10:04:27Z</time></trkpt><trkpt lat="44.988693838989846" lon="0.9734353406887778"><ele>227.75</ele><time>2026-03-29T10:04:28Z</time></trkpt><trkpt lat="44.988790196038636" lon="0.9734131256534496"><ele>226.5</ele><time>2026-03-29T10:04:29Z</time></trkpt><trkpt lat="44.98891214443922" lon="0.9733903210130885"><ele>225.25</ele><time>2026-03-29T10:04:30Z</time></trkpt><trkpt lat="44.989084260851705" lon="0.9732612911269475"><ele>224.0</ele><time>2026-03-29T10:04:31Z</time></trkpt><trkpt lat="44.98924089242779" lon="0.9731593960046877"><ele>223.2</ele><time>2026-03-29T10:04:32Z</time></trkpt><trkpt lat="44.98930874721509" lon="0.9731319621004985"><ele>222.39999999999998</ele><time>2026-03-29T10:04:33Z</time></trkpt><trkpt lat="44.989410061174546" lon="0.9730617592068391"><ele>221.6</ele><time>2026-03-29T10:04:34Z</time></trkpt><trkpt lat="44.98950561260285" lon="0.9729989718774584"><ele>220.8</ele><time>2026-03-29T10:04:35Z</time></trkpt><trkpt lat="44.98959839929008" lon="0.972933958848009"><ele>220.0</ele><time>2026-03-29T10:04:36Z</time></trkpt><trkpt lat="44.989687793272445" lon="0.9728699743255147"><ele>219.99999999999997</ele><time>2026-03-29T10:04:37Z</time></trkpt><trkpt lat="44.98977303632361" lon="0.9728146357374935"><ele>220.0</ele><time>2026-03-29T10:04:38Z</time></trkpt><trkpt lat="44.98984837461234" lon="0.9727675972611913"><ele>220.0</ele><time>2026-03-29T10:04:39Z</time></trkpt><trkpt lat="44.98992389520055" lon="0.9727251505290544"><ele>220.0</ele><time>2026-03-29T10:04:40Z</time></trkpt><trkpt lat="44.98998993900595" lon="0.9726718485615773"><ele>219.99999999999997</ele><time>2026-03-29T10:04:41Z</time></trkpt><trkpt lat="44.99005770246884" lon="0.9726621086649961"><ele>220.0</ele><time>2026-03-29T10:04:42Z</time></trkpt><trkpt lat="44.99011936784413" lon="0.972644132890841"><ele>220.33333333333331</ele><time>2026-03-29T10:04:43Z</time></trkpt><trkpt lat="44.99021367106887" lon="0.9726059234524291"><ele>220.66666666666669</ele><time>2026-03-29T10:04:45Z</time></trkpt><trkpt lat="44.99021473119771" lon="0.9721592374689206"><ele>221.0</ele><time>2026-03-29T10:04:46Z</time></trkpt><trkpt lat="44.99025477408005" lon="0.9720615597546617"><ele>221.8</ele><time>2026-03-29T10:04:47Z</time></trkpt><trkpt lat="44.990305457070285" lon="0.971945516085492"><ele>222.60000000000002</ele><time>2026-03-29T10:04:48Z</time></trkpt><trkpt lat="44.990354709531964" lon="0.9718397218387945"><ele>223.4</ele><time>2026-03-29T10:04:49Z</time></trkpt><trkpt lat="44.990401224615844" lon="0.9717288147083873"><ele>224.2</ele><time>2026-03-29T10:04:50Z</time></trkpt><trkpt lat="44.990444523860006" lon="0.9716190999148301"><ele>225.0</ele><time>2026-03-29T10:04:50.999Z</time></trkpt><trkpt lat="44.990487190338285" lon="0.9715147877045233"><ele>225.4</ele><time>2026-03-29T10:04:51.999Z</time></trkpt><trkpt lat="44.99053026306467" lon="0.9714010735245807"><ele>225.8</ele><time>2026-03-29T10:04:52.999Z</time></trkpt><trkpt lat="44.99056825336357" lon="0.9712798312027533"><ele>226.2</ele><time>2026-03-29T10:04:53.999Z</time></trkpt><trkpt lat="44.990607395084346" lon="0.971169221235301"><ele>226.6</ele><time>2026-03-29T10:04:54.999Z</time></trkpt><trkpt lat="44.99065383677056" lon="0.9710608355813048"><ele>227.0</ele><time>2026-03-29T10:04:55.999Z</time></trkpt><trkpt lat="44.990697246460975" lon="0.9709532938072225"><ele>226.83333333333334</ele><time>2026-03-29T10:04:56.999Z</time></trkpt><trkpt lat="44.99074406397551" lon="0.9708556959306233"><ele>226.66666666666669</ele><time>2026-03-29T10:04:57.999Z</time></trkpt><trkpt lat="44.990791628379206" lon="0.9707477591437892"><ele>226.5</ele><time>2026-03-29T10:04:58.999Z</time></trkpt><trkpt lat="44.9908338049221" lon="0.970636986467391"><ele>226.33333333333331</ele><time>2026-03-29T10:04:59.999Z</time></trkpt><trkpt lat="44.99087152856004" lon="0.9705216117381471"><ele>226.16666666666666</ele><time>2026-03-29T10:05:00.999Z</time></trkpt><trkpt lat="44.990912955522255" lon="0.9704013950733141"><ele>226.0</ele><time>2026-03-29T10:05:01.999Z</time></trkpt><trkpt lat="44.9909563588467" lon="0.9702896589867304"><ele>226.49999999999997</ele><time>2026-03-29T10:05:02.999Z</time></trkpt><trkpt lat="44.99099967639445" lon="0.9701734610784417"><ele>227.0</ele><time>2026-03-29T10:05:03.999Z</time></trkpt><trkpt lat="44.99104527691026" lon="0.9700561368632262"><ele>227.5</ele><time>2026-03-29T10:05:04.999Z</time></trkpt><trkpt lat="44.99108815144649" lon="0.9699428695375888"><ele>228.0</ele><time>2026-03-29T10:05:05.999Z</time></trkpt><trkpt lat="44.991135690174055" lon="0.9698422569268029"><ele>228.49999999999997</ele><time>2026-03-29T10:05:06.999Z</time></trkpt><trkpt lat="44.99117751082455" lon="0.9697398359862145"><ele>229.0</ele><time>2026-03-29T10:05:07.999Z</time></trkpt><trkpt lat="44.99123053235525" lon="0.9696357317043359"><ele>229.0</ele><time>2026-03-29T10:05:08.999Z</time></trkpt><trkpt lat="44.99128675927667" lon="0.9695464258811101"><ele>229.0</ele><time>2026-03-29T10:05:09.999Z</time></trkpt><trkpt lat="44.99133189807015" lon="0.9694822769896883"><ele>229.0</ele><time>2026-03-29T10:05:10.999Z</time></trkpt><trkpt lat="44.99137596681838" lon="0.9694172910638958"><ele>229.0</ele><time>2026-03-29T10:05:11.999Z</time></trkpt><trkpt lat="44.99142021939314" lon="0.969350029681923"><ele>229.0</ele><time>2026-03-29T10:05:12.999Z</time></trkpt><trkpt lat="44.99147004961273" lon="0.9692880487649876"><ele>229.0</ele><time>2026-03-29T10:05:13.999Z</time></trkpt><trkpt lat="44.99152914221078" lon="0.9692221908914712"><ele>229.0</ele><time>2026-03-29T10:05:14.999Z</time></trkpt><trkpt lat="44.991581225739274" lon="0.9691481113075181"><ele>228.0</ele><time>2026-03-29T10:05:15.999Z</time></trkpt><trkpt lat="44.991677535868135" lon="0.9690480250679119"><ele>227.0</ele><time>2026-03-29T10:05:17.999Z</time></trkpt><trkpt lat="44.99176604552439" lon="0.9689257962963292"><ele>226.0</ele><time>2026-03-29T10:05:19.999Z</time></trkpt><trkpt lat="44.991863017394564" lon="0.9688063628047837"><ele>225.0</ele><time>2026-03-29T10:05:21.999Z</time></trkpt><trkpt lat="44.99192231272833" lon="0.9687345905964764"><ele>225.0</ele><time>2026-03-29T10:05:22.999Z</time></trkpt><trkpt lat="44.99197990245146" lon="0.9686639792250278"><ele>225.0</ele><time>2026-03-29T10:05:23.999Z</time></trkpt><trkpt lat="44.99203796929128" lon="0.9685953050641701"><ele>225.0</ele><time>2026-03-29T10:05:24.999Z</time></trkpt><trkpt lat="44.99210445429469" lon="0.968511904920451"><ele>225.0</ele><time>2026-03-29T10:05:25.999Z</time></trkpt><trkpt lat="44.99215964431168" lon="0.9684429644739246"><ele>225.0</ele><time>2026-03-29T10:05:26.999Z</time></trkpt><trkpt lat="44.99221004627127" lon="0.9683697941954209"><ele>225.0</ele><time>2026-03-29T10:05:27.999Z</time></trkpt><trkpt lat="44.99226651443662" lon="0.9682926150795343"><ele>224.66666666666666</ele><time>2026-03-29T10:05:28.999Z</time></trkpt><trkpt lat="44.99232630784301" lon="0.9682200674498895"><ele>224.33333333333331</ele><time>2026-03-29T10:05:29.999Z</time></trkpt><trkpt lat="44.99238202184763" lon="0.9681471144067609"><ele>224.0</ele><time>2026-03-29T10:05:30.999Z</time></trkpt><trkpt lat="44.992445610387165" lon="0.9680815155404885"><ele>223.66666666666666</ele><time>2026-03-29T10:05:31.999Z</time></trkpt><trkpt lat="44.992517810136235" lon="0.9680123430990493"><ele>223.33333333333331</ele><time>2026-03-29T10:05:32.999Z</time></trkpt><trkpt lat="44.99258617020876" lon="0.9679368111842648"><ele>223.0</ele><time>2026-03-29T10:05:33.999Z</time></trkpt><trkpt lat="44.99266894789589" lon="0.9678508618376603"><ele>222.66666666666666</ele><time>2026-03-29T10:05:34.999Z</time></trkpt><trkpt lat="44.9927393896581" lon="0.9677729588999633"><ele>222.33333333333331</ele><time>2026-03-29T10:05:35.999Z</time></trkpt><trkpt lat="44.99281005711022" lon="0.9676958247280611"><ele>222.0</ele><time>2026-03-29T10:05:36.999Z</time></trkpt><trkpt lat="44.992881016350346" lon="0.9676335183494075"><ele>221.66666666666669</ele><time>2026-03-29T10:05:37.999Z</time></trkpt><trkpt lat="44.99295122016764" lon="0.9675610650742755"><ele>221.33333333333334</ele><time>2026-03-29T10:05:38.999Z</time></trkpt><trkpt lat="44.9930217564665" lon="0.967479988341905"><ele>221.0</ele><time>2026-03-29T10:05:39.999Z</time></trkpt><trkpt lat="44.993084649959634" lon="0.9673937198214351"><ele>221.0</ele><time>2026-03-29T10:05:40.999Z</time></trkpt><trkpt lat="44.993146623560435" lon="0.9673220717397546"><ele>221.00000000000003</ele><time>2026-03-29T10:05:41.999Z</time></trkpt><trkpt lat="44.99322111187167" lon="0.9672343908331439"><ele>221.00000000000003</ele><time>2026-03-29T10:05:42.998Z</time></trkpt><trkpt lat="44.99328486560925" lon="0.9671557332411537"><ele>221.0</ele><time>2026-03-29T10:05:43.998Z</time></trkpt><trkpt lat="44.99336385458743" lon="0.9670600687135369"><ele>221.0</ele><time>2026-03-29T10:05:44.998Z</time></trkpt><trkpt lat="44.99344777259048" lon="0.9669593547911743"><ele>220.8</ele><time>2026-03-29T10:05:45.998Z</time></trkpt><trkpt lat="44.99353214159631" lon="0.9668578870140744"><ele>220.60000000000002</ele><time>2026-03-29T10:05:46.998Z</time></trkpt><trkpt lat="44.99360576192909" lon="0.9667608521696053"><ele>220.4</ele><time>2026-03-29T10:05:47.998Z</time></trkpt><trkpt lat="44.993670975444836" lon="0.9666693538814066"><ele>220.2</ele><time>2026-03-29T10:05:48.998Z</time></trkpt><trkpt lat="44.99373322994199" lon="0.9665746799457526"><ele>220.0</ele><time>2026-03-29T10:05:49.998Z</time></trkpt><trkpt lat="44.9937857656141" lon="0.966477006065146"><ele>220.66666666666666</ele><time>2026-03-29T10:05:50.998Z</time></trkpt><trkpt lat="44.9938448104187" lon="0.9663975329101023"><ele>221.33333333333331</ele><time>2026-03-29T10:05:51.998Z</time></trkpt><trkpt lat="44.99390814619828" lon="0.9663268572279983"><ele>222.0</ele><time>2026-03-29T10:05:52.998Z</time></trkpt><trkpt lat="44.99395153429104" lon="0.9662607730130292"><ele>222.66666666666669</ele><time>2026-03-29T10:05:53.998Z</time></trkpt><trkpt lat="44.99400974443822" lon="0.9661830532213239"><ele>223.33333333333334</ele><time>2026-03-29T10:05:54.998Z</time></trkpt><trkpt lat="44.99408047457162" lon="0.9661239068030735"><ele>224.0</ele><time>2026-03-29T10:05:55.998Z</time></trkpt><trkpt lat="44.99414536034891" lon="0.9660592742630663"><ele>223.66666666666669</ele><time>2026-03-29T10:05:56.998Z</time></trkpt><trkpt lat="44.994217055090544" lon="0.9660117534496426"><ele>223.33333333333334</ele><time>2026-03-29T10:05:57.998Z</time></trkpt><trkpt lat="44.994299270822026" lon="0.965977197303411"><ele>223.0</ele><time>2026-03-29T10:05:58.998Z</time></trkpt><trkpt lat="44.994385472135775" lon="0.9659354091511293"><ele>222.66666666666669</ele><time>2026-03-29T10:05:59.998Z</time></trkpt><trkpt lat="44.99444989898212" lon="0.9659080577517283"><ele>222.33333333333334</ele><time>2026-03-29T10:06:00.998Z</time></trkpt><trkpt lat="44.99452977095442" lon="0.9658799882117433"><ele>222.0</ele><time>2026-03-29T10:06:01.998Z</time></trkpt><trkpt lat="44.99463198875203" lon="0.9658373972717091"><ele>221.66666666666666</ele><time>2026-03-29T10:06:02.998Z</time></trkpt><trkpt lat="44.994715129844714" lon="0.9657977553390771"><ele>221.33333333333331</ele><time>2026-03-29T10:06:03.998Z</time></trkpt><trkpt lat="44.99478868372636" lon="0.9657529884572766"><ele>221.0</ele><time>2026-03-29T10:06:04.998Z</time></trkpt><trkpt lat="44.994867129495354" lon="0.9657021841297018"><ele>220.66666666666666</ele><time>2026-03-29T10:06:05.998Z</time></trkpt><trkpt lat="44.99494459781243" lon="0.965652635416973"><ele>220.33333333333331</ele><time>2026-03-29T10:06:06.998Z</time></trkpt><trkpt lat="44.9950249878735" lon="0.9656202651737865"><ele>220.0</ele><time>2026-03-29T10:06:07.998Z</time></trkpt><trkpt lat="44.99511333079613" lon="0.965584120539569"><ele>217.6</ele><time>2026-03-29T10:06:08.998Z</time></trkpt><trkpt lat="44.99524911644381" lon="0.9655118709457884"><ele>215.2</ele><time>2026-03-29T10:06:10.998Z</time></trkpt><trkpt lat="44.995325802298574" lon="0.9654254679165917"><ele>212.8</ele><time>2026-03-29T10:06:11.998Z</time></trkpt><trkpt lat="44.995386579595355" lon="0.9653748289241968"><ele>210.4</ele><time>2026-03-29T10:06:12.998Z</time></trkpt><trkpt lat="44.9954643030086" lon="0.9653380536899254"><ele>208.0</ele><time>2026-03-29T10:06:13.998Z</time></trkpt><trkpt lat="44.99553777323363" lon="0.9653004986415862"><ele>207.99999999999997</ele><time>2026-03-29T10:06:14.998Z</time></trkpt><trkpt lat="44.9956014936597" lon="0.9652083895774459"><ele>208.0</ele><time>2026-03-29T10:06:15.998Z</time></trkpt><trkpt lat="44.99567241918307" lon="0.965135808518685"><ele>208.0</ele><time>2026-03-29T10:06:16.998Z</time></trkpt><trkpt lat="44.995745898426115" lon="0.9650721370128027"><ele>208.0</ele><time>2026-03-29T10:06:17.998Z</time></trkpt><trkpt lat="44.99581870562862" lon="0.9650075282876357"><ele>207.99999999999997</ele><time>2026-03-29T10:06:19Z</time></trkpt><trkpt lat="44.9958804114422" lon="0.9649389210672972"><ele>208.0</ele><time>2026-03-29T10:06:20Z</time></trkpt><trkpt lat="44.99594189021209" lon="0.9648851656247346"><ele>204.2</ele><time>2026-03-29T10:06:21Z</time></trkpt><trkpt lat="44.996017044847775" lon="0.9648279152820305"><ele>200.4</ele><time>2026-03-29T10:06:22Z</time></trkpt><trkpt lat="44.996099871535485" lon="0.9647652823026752"><ele>196.6</ele><time>2026-03-29T10:06:23Z</time></trkpt><trkpt lat="44.996167348549314" lon="0.9646818074003503"><ele>192.79999999999998</ele><time>2026-03-29T10:06:24Z</time></trkpt><trkpt lat="44.996232967687625" lon="0.9646105459416896"><ele>189.0</ele><time>2026-03-29T10:06:25Z</time></trkpt><trkpt lat="44.9963348990486" lon="0.9644838554862976"><ele>189.0</ele><time>2026-03-29T10:06:27Z</time></trkpt><trkpt lat="44.996393591853476" lon="0.9644375309599114"><ele>189.0</ele><time>2026-03-29T10:06:28Z</time></trkpt><trkpt lat="44.99647113996356" lon="0.9643190256692019"><ele>189.0</ele><time>2026-03-29T10:06:30Z</time></trkpt><trkpt lat="44.99655556798256" lon="0.9642571381194915"><ele>189.0</ele><time>2026-03-29T10:06:32Z</time></trkpt><trkpt lat="44.99664395226787" lon="0.9641704853439481"><ele>189.0</ele><time>2026-03-29T10:06:34Z</time></trkpt><trkpt lat="44.99670650568109" lon="0.9640713910873149"><ele>187.85714285714286</ele><time>2026-03-29T10:06:37Z</time></trkpt><trkpt lat="44.996767723126005" lon="0.9640142688043581"><ele>186.71428571428572</ele><time>2026-03-29T10:06:39Z</time></trkpt><trkpt lat="44.996821457768434" lon="0.9639457715331806"><ele>185.57142857142856</ele><time>2026-03-29T10:06:41Z</time></trkpt><trkpt lat="44.996882056118444" lon="0.9638797433253256"><ele>184.42857142857144</ele><time>2026-03-29T10:06:43Z</time></trkpt><trkpt lat="44.99690925787115" lon="0.9637954309517063"><ele>183.28571428571428</ele><time>2026-03-29T10:06:45Z</time></trkpt><trkpt lat="44.99692242160506" lon="0.963693282343909"><ele>182.14285714285714</ele><time>2026-03-29T10:06:48Z</time></trkpt><trkpt lat="44.99692125425261" lon="0.9635926783998023"><ele>181.0</ele><time>2026-03-29T10:06:50Z</time></trkpt><trkpt lat="44.99694688997377" lon="0.9634946779545094"><ele>179.20000000000002</ele><time>2026-03-29T10:06:52Z</time></trkpt><trkpt lat="44.99701801922143" lon="0.9633407645091452"><ele>177.4</ele><time>2026-03-29T10:06:54Z</time></trkpt><trkpt lat="44.997063678391896" lon="0.9632181819432633"><ele>175.6</ele><time>2026-03-29T10:06:55Z</time></trkpt><trkpt lat="44.99714911648737" lon="0.9631343929133775"><ele>173.8</ele><time>2026-03-29T10:06:56Z</time></trkpt><trkpt lat="44.99720156339808" lon="0.9630255266242941"><ele>172.0</ele><time>2026-03-29T10:06:57Z</time></trkpt><trkpt lat="44.99722777390031" lon="0.9629388653136561"><ele>172.0</ele><time>2026-03-29T10:06:57.999Z</time></trkpt><trkpt lat="44.99725803853259" lon="0.9628239843629887"><ele>172.0</ele><time>2026-03-29T10:06:58.999Z</time></trkpt><trkpt lat="44.99730138852698" lon="0.9627261653864193"><ele>172.0</ele><time>2026-03-29T10:06:59.999Z</time></trkpt><trkpt lat="44.99737603576141" lon="0.9626334340247882"><ele>172.0</ele><time>2026-03-29T10:07:00.999Z</time></trkpt><trkpt lat="44.99745944856935" lon="0.962558037152857"><ele>172.0</ele><time>2026-03-29T10:07:01.999Z</time></trkpt><trkpt lat="44.997583980364354" lon="0.9625313327697951"><ele>174.2</ele><time>2026-03-29T10:07:02.999Z</time></trkpt><trkpt lat="44.997682163306756" lon="0.9624529975341973"><ele>176.39999999999998</ele><time>2026-03-29T10:07:03.999Z</time></trkpt><trkpt lat="44.997768689513535" lon="0.9623768636419208"><ele>178.60000000000002</ele><time>2026-03-29T10:07:04.999Z</time></trkpt><trkpt lat="44.99785097813023" lon="0.96229486204182"><ele>180.8</ele><time>2026-03-29T10:07:05.999Z</time></trkpt><trkpt lat="44.99792008924052" lon="0.9621955199523765"><ele>183.0</ele><time>2026-03-29T10:07:06.999Z</time></trkpt><trkpt lat="44.99799149860782" lon="0.962109362664315"><ele>183.0</ele><time>2026-03-29T10:07:07.999Z</time></trkpt><trkpt lat="44.998069344415036" lon="0.9620127950207481"><ele>183.0</ele><time>2026-03-29T10:07:08.999Z</time></trkpt><trkpt lat="44.998134121989345" lon="0.9619381184925512"><ele>183.0</ele><time>2026-03-29T10:07:09.999Z</time></trkpt><trkpt lat="44.99818289568381" lon="0.9618630280052455"><ele>183.0</ele><time>2026-03-29T10:07:10.999Z</time></trkpt><trkpt lat="44.998240725502335" lon="0.961800753780313"><ele>183.0</ele><time>2026-03-29T10:07:11.999Z</time></trkpt><trkpt lat="44.9983134648842" lon="0.9617734737054979"><ele>183.0</ele><time>2026-03-29T10:07:12.999Z</time></trkpt><trkpt lat="44.99839749984024" lon="0.9617922255715685"><ele>184.2</ele><time>2026-03-29T10:07:13.999Z</time></trkpt><trkpt lat="44.99849188495649" lon="0.9618057337261388"><ele>185.4</ele><time>2026-03-29T10:07:14.999Z</time></trkpt><trkpt lat="44.99858757677018" lon="0.9617904372705683"><ele>186.6</ele><time>2026-03-29T10:07:15.999Z</time></trkpt><trkpt lat="44.998691816876395" lon="0.961807343338925"><ele>187.79999999999998</ele><time>2026-03-29T10:07:16.999Z</time></trkpt><trkpt lat="44.99879449198082" lon="0.9617926998001648"><ele>189.0</ele><time>2026-03-29T10:07:17.999Z</time></trkpt><trkpt lat="44.99887652953407" lon="0.9617704509423206"><ele>189.0</ele><time>2026-03-29T10:07:18.999Z</time></trkpt><trkpt lat="44.998949680027565" lon="0.9617275577912583"><ele>189.0</ele><time>2026-03-29T10:07:19.999Z</time></trkpt><trkpt lat="44.999033445086084" lon="0.9616616750932856"><ele>189.0</ele><time>2026-03-29T10:07:20.999Z</time></trkpt><trkpt lat="44.99911603842351" lon="0.9615814964607463"><ele>189.0</ele><time>2026-03-29T10:07:21.999Z</time></trkpt><trkpt lat="44.99917235104001" lon="0.9614668423363648"><ele>189.0</ele><time>2026-03-29T10:07:22.999Z</time></trkpt><trkpt lat="44.99922647561408" lon="0.9613390552490907"><ele>190.39999999999998</ele><time>2026-03-29T10:07:23.999Z</time></trkpt><trkpt lat="44.99926923425552" lon="0.961188338382703"><ele>191.8</ele><time>2026-03-29T10:07:24.999Z</time></trkpt><trkpt lat="44.999315646224815" lon="0.9610758932791249"><ele>193.2</ele><time>2026-03-29T10:07:25.999Z</time></trkpt><trkpt lat="44.99933009174724" lon="0.9609573402420752"><ele>194.60000000000002</ele><time>2026-03-29T10:07:26.999Z</time></trkpt><trkpt lat="44.99935875027832" lon="0.9608469045871979"><ele>196.0</ele><time>2026-03-29T10:07:27.999Z</time></trkpt><trkpt lat="44.99940583607565" lon="0.960726503075893"><ele>197.4</ele><time>2026-03-29T10:07:28.999Z</time></trkpt><trkpt lat="44.999424132354484" lon="0.9605976396417878"><ele>198.8</ele><time>2026-03-29T10:07:29.999Z</time></trkpt><trkpt lat="44.99946018965157" lon="0.9604692643613111"><ele>200.20000000000002</ele><time>2026-03-29T10:07:30.999Z</time></trkpt><trkpt lat="44.99950802812391" lon="0.9603505062871501"><ele>201.60000000000002</ele><time>2026-03-29T10:07:31.999Z</time></trkpt><trkpt lat="44.99951704328934" lon="0.960210020351708"><ele>203.0</ele><time>2026-03-29T10:07:32.999Z</time></trkpt><trkpt lat="44.99952813188789" lon="0.9600758000070968"><ele>204.8</ele><time>2026-03-29T10:07:33.999Z</time></trkpt><trkpt lat="44.99949638188011" lon="0.9599415360163448"><ele>206.60000000000002</ele><time>2026-03-29T10:07:34.999Z</time></trkpt><trkpt lat="44.9994519527599" lon="0.9598168287777056"><ele>208.39999999999998</ele><time>2026-03-29T10:07:35.999Z</time></trkpt><trkpt lat="44.99942384297454" lon="0.9596878172686444"><ele>210.2</ele><time>2026-03-29T10:07:36.999Z</time></trkpt><trkpt lat="44.999419371589205" lon="0.9595645314499203"><ele>212.0</ele><time>2026-03-29T10:07:37.999Z</time></trkpt><trkpt lat="44.999449412554" lon="0.9594573020463086"><ele>212.0</ele><time>2026-03-29T10:07:38.999Z</time></trkpt><trkpt lat="44.99947919903936" lon="0.9593456618294518"><ele>212.0</ele><time>2026-03-29T10:07:39.999Z</time></trkpt><trkpt lat="44.99951412276685" lon="0.95922733340608"><ele>212.0</ele><time>2026-03-29T10:07:40.999Z</time></trkpt><trkpt lat="44.99955506031522" lon="0.9591140744004767"><ele>212.0</ele><time>2026-03-29T10:07:41.999Z</time></trkpt><trkpt lat="44.99960666596272" lon="0.9590020118411141"><ele>212.0</ele><time>2026-03-29T10:07:42.999Z</time></trkpt><trkpt lat="44.99966744237028" lon="0.9589067581427778"><ele>213.33333333333334</ele><time>2026-03-29T10:07:43.999Z</time></trkpt><trkpt lat="44.999735360773855" lon="0.9588218625886643"><ele>214.66666666666669</ele><time>2026-03-29T10:07:44.999Z</time></trkpt><trkpt lat="44.9997922569921" lon="0.9587181143047713"><ele>216.0</ele><time>2026-03-29T10:07:45.999Z</time></trkpt><trkpt lat="44.999853421448464" lon="0.9586403332784664"><ele>217.33333333333331</ele><time>2026-03-29T10:07:46.999Z</time></trkpt><trkpt lat="44.999895765059435" lon="0.9585578870237068"><ele>218.66666666666666</ele><time>2026-03-29T10:07:47.999Z</time></trkpt><trkpt lat="44.99992304665023" lon="0.9584666436207478"><ele>220.0</ele><time>2026-03-29T10:07:48.999Z</time></trkpt><trkpt lat="44.999960072331234" lon="0.9583894605417306"><ele>220.66666666666666</ele><time>2026-03-29T10:07:49.999Z</time></trkpt><trkpt lat="44.99998823439996" lon="0.9582515143768051"><ele>221.33333333333331</ele><time>2026-03-29T10:07:51.998Z</time></trkpt><trkpt lat="45.00000479448018" lon="0.9581633052234827"><ele>222.0</ele><time>2026-03-29T10:07:55.998Z</time></trkpt><trkpt lat="45.00000644381712" lon="0.9580279080988594"><ele>222.66666666666669</ele><time>2026-03-29T10:07:58.998Z</time></trkpt><trkpt lat="45.000032478101765" lon="0.9578938901004813"><ele>223.33333333333334</ele><time>2026-03-29T10:08:00.998Z</time></trkpt><trkpt lat="45.00001672014274" lon="0.957801009132155"><ele>224.0</ele><time>2026-03-29T10:08:01.998Z</time></trkpt><trkpt lat="45.00000989139662" lon="0.9576927088289974"><ele>224.0</ele><time>2026-03-29T10:08:02.998Z</time></trkpt><trkpt lat="44.99998496175391" lon="0.957572536989596"><ele>223.99999999999997</ele><time>2026-03-29T10:08:03.998Z</time></trkpt><trkpt lat="44.99998219036373" lon="0.9574299196527046"><ele>223.99999999999997</ele><time>2026-03-29T10:08:04.998Z</time></trkpt><trkpt lat="44.999967020945036" lon="0.9572756099449132"><ele>224.0</ele><time>2026-03-29T10:08:05.998Z</time></trkpt><trkpt lat="44.99995838232672" lon="0.9571161262093099"><ele>224.0</ele><time>2026-03-29T10:08:06.998Z</time></trkpt><trkpt lat="44.99995444043864" lon="0.9569471411077012"><ele>223.39999999999998</ele><time>2026-03-29T10:08:07.998Z</time></trkpt><trkpt lat="44.9999452686645" lon="0.9567892220945317"><ele>222.79999999999998</ele><time>2026-03-29T10:08:08.998Z</time></trkpt><trkpt lat="44.999930264975596" lon="0.956647723079051"><ele>222.20000000000002</ele><time>2026-03-29T10:08:09.998Z</time></trkpt><trkpt lat="44.99992242878807" lon="0.9564916964297451"><ele>221.60000000000002</ele><time>2026-03-29T10:08:10.998Z</time></trkpt><trkpt lat="44.999912194386404" lon="0.9563330297271356"><ele>221.0</ele><time>2026-03-29T10:08:11.998Z</time></trkpt><trkpt lat="44.99991238944512" lon="0.9561809711189607"><ele>219.8</ele><time>2026-03-29T10:08:12.998Z</time></trkpt><trkpt lat="44.9999041419484" lon="0.9560350247875867"><ele>218.60000000000002</ele><time>2026-03-29T10:08:13.998Z</time></trkpt><trkpt lat="44.99989999486674" lon="0.9558888132520623"><ele>217.4</ele><time>2026-03-29T10:08:14.998Z</time></trkpt><trkpt lat="44.999890986124896" lon="0.9557399191011354"><ele>216.2</ele><time>2026-03-29T10:08:15.998Z</time></trkpt><trkpt lat="44.999885882101225" lon="0.9555982791674479"><ele>215.0</ele><time>2026-03-29T10:08:16.998Z</time></trkpt><trkpt lat="44.99987441332158" lon="0.9554536072228935"><ele>213.5</ele><time>2026-03-29T10:08:17.998Z</time></trkpt><trkpt lat="44.99983920552575" lon="0.9553039269290178"><ele>212.0</ele><time>2026-03-29T10:08:18.998Z</time></trkpt><trkpt lat="44.99979602789288" lon="0.9551423792807191"><ele>210.5</ele><time>2026-03-29T10:08:19.998Z</time></trkpt><trkpt lat="44.999748900035655" lon="0.9549853085007238"><ele>209.0</ele><time>2026-03-29T10:08:20.998Z</time></trkpt><trkpt lat="44.999695583809306" lon="0.954839474337752"><ele>208.0</ele><time>2026-03-29T10:08:21.998Z</time></trkpt><trkpt lat="44.9996291163452" lon="0.9546934506798117"><ele>207.0</ele><time>2026-03-29T10:08:22.998Z</time></trkpt><trkpt lat="44.99956354371466" lon="0.9545523271334888"><ele>206.0</ele><time>2026-03-29T10:08:23.998Z</time></trkpt><trkpt lat="44.999485914604655" lon="0.9544227708073848"><ele>205.0</ele><time>2026-03-29T10:08:25Z</time></trkpt><trkpt lat="44.999411581787975" lon="0.9542860228209029"><ele>204.5</ele><time>2026-03-29T10:08:26Z</time></trkpt><trkpt lat="44.99934880351186" lon="0.9541385941051431"><ele>204.0</ele><time>2026-03-29T10:08:27Z</time></trkpt><trkpt lat="44.99930839667629" lon="0.9539767151568084"><ele>203.5</ele><time>2026-03-29T10:08:28Z</time></trkpt><trkpt lat="44.99928477568381" lon="0.953795090883332"><ele>203.0</ele><time>2026-03-29T10:08:29Z</time></trkpt><trkpt lat="44.999258681506554" lon="0.9536144003628421"><ele>203.0</ele><time>2026-03-29T10:08:30Z</time></trkpt><trkpt lat="44.99922653793745" lon="0.9534374223440011"><ele>203.0</ele><time>2026-03-29T10:08:31Z</time></trkpt><trkpt lat="44.99917633282903" lon="0.9532786325001402"><ele>203.0</ele><time>2026-03-29T10:08:32Z</time></trkpt><trkpt lat="44.999121928474594" lon="0.9531234178419309"><ele>203.0</ele><time>2026-03-29T10:08:33Z</time></trkpt><trkpt lat="44.99905357656904" lon="0.9529639514243344"><ele>201.0</ele><time>2026-03-29T10:08:34Z</time></trkpt><trkpt lat="44.9990040794814" lon="0.9527944955745823"><ele>199.0</ele><time>2026-03-29T10:08:35Z</time></trkpt><trkpt lat="44.99895039483384" lon="0.9526381486000219"><ele>197.0</ele><time>2026-03-29T10:08:36Z</time></trkpt><trkpt lat="44.998917333302124" lon="0.952451400754289"><ele>195.0</ele><time>2026-03-29T10:08:37Z</time></trkpt><trkpt lat="44.99887453773147" lon="0.9523046563049302"><ele>192.25</ele><time>2026-03-29T10:08:38Z</time></trkpt><trkpt lat="44.998812667284945" lon="0.9521570269011097"><ele>189.5</ele><time>2026-03-29T10:08:39Z</time></trkpt><trkpt lat="44.998766445156726" lon="0.9519974980675321"><ele>186.75</ele><time>2026-03-29T10:08:40Z</time></trkpt><trkpt lat="44.99872392881238" lon="0.9518343830850458"><ele>184.0</ele><time>2026-03-29T10:08:41Z</time></trkpt><trkpt lat="44.998695315070165" lon="0.9516638348813509"><ele>181.25</ele><time>2026-03-29T10:08:42Z</time></trkpt><trkpt lat="44.998672537368755" lon="0.9514975376894548"><ele>178.5</ele><time>2026-03-29T10:08:43Z</time></trkpt><trkpt lat="44.99868148331012" lon="0.9513215883008697"><ele>175.75</ele><time>2026-03-29T10:08:44Z</time></trkpt><trkpt lat="44.998667600332226" lon="0.9511504949644023"><ele>173.0</ele><time>2026-03-29T10:08:45Z</time></trkpt><trkpt lat="44.99862036151511" lon="0.9509922389220969"><ele>169.75</ele><time>2026-03-29T10:08:46Z</time></trkpt><trkpt lat="44.998593732450466" lon="0.9508288767854852"><ele>166.5</ele><time>2026-03-29T10:08:47Z</time></trkpt><trkpt lat="44.99855833845672" lon="0.9506737552090269"><ele>163.25</ele><time>2026-03-29T10:08:48Z</time></trkpt><trkpt lat="44.998507915318825" lon="0.9505203725266856"><ele>160.0</ele><time>2026-03-29T10:08:49Z</time></trkpt><trkpt lat="44.99845907298914" lon="0.9503706895993549"><ele>160.0</ele><time>2026-03-29T10:08:50Z</time></trkpt><trkpt lat="44.99840993117742" lon="0.9502204752673696"><ele>160.0</ele><time>2026-03-29T10:08:51Z</time></trkpt><trkpt lat="44.998359686192714" lon="0.950067356153428"><ele>160.0</ele><time>2026-03-29T10:08:52Z</time></trkpt><trkpt lat="44.99831306206644" lon="0.9499108245348103"><ele>160.0</ele><time>2026-03-29T10:08:53Z</time></trkpt><trkpt lat="44.998263338093345" lon="0.9497678976460464"><ele>159.28571428571428</ele><time>2026-03-29T10:08:54Z</time></trkpt><trkpt lat="44.998215859092625" lon="0.9496503388874151"><ele>158.57142857142858</ele><time>2026-03-29T10:08:55Z</time></trkpt><trkpt lat="44.998184104511466" lon="0.9495479710554142"><ele>157.85714285714286</ele><time>2026-03-29T10:08:56Z</time></trkpt><trkpt lat="44.99818354900898" lon="0.9494500932288594"><ele>157.14285714285714</ele><time>2026-03-29T10:08:57Z</time></trkpt><trkpt lat="44.99817187015161" lon="0.9493590591307098"><ele>156.42857142857142</ele><time>2026-03-29T10:08:58Z</time></trkpt><trkpt lat="44.99819756464927" lon="0.9492689870752558"><ele>155.71428571428572</ele><time>2026-03-29T10:08:59Z</time></trkpt><trkpt lat="44.99822850602413" lon="0.9491850652562164"><ele>155.0</ele><time>2026-03-29T10:09:00Z</time></trkpt><trkpt lat="44.9983396510237" lon="0.9491732086997713"><ele>154.16666666666666</ele><time>2026-03-29T10:09:01Z</time></trkpt><trkpt lat="44.99840849877511" lon="0.9491277780577821"><ele>153.33333333333331</ele><time>2026-03-29T10:09:02Z</time></trkpt><trkpt lat="44.99849434287102" lon="0.9491726115341231"><ele>152.5</ele><time>2026-03-29T10:09:03Z</time></trkpt><trkpt lat="44.998573949070455" lon="0.949236600144461"><ele>151.66666666666666</ele><time>2026-03-29T10:09:04Z</time></trkpt><trkpt lat="44.998635351918786" lon="0.9493309218465518"><ele>150.83333333333334</ele><time>2026-03-29T10:09:05Z</time></trkpt><trkpt lat="44.998687170944656" lon="0.9494397416474268"><ele>150.0</ele><time>2026-03-29T10:09:06Z</time></trkpt><trkpt lat="44.99873738624997" lon="0.9495482933437216"><ele>150.0</ele><time>2026-03-29T10:09:06.999Z</time></trkpt><trkpt lat="44.9987863164937" lon="0.9496419446251272"><ele>150.0</ele><time>2026-03-29T10:09:07.999Z</time></trkpt><trkpt lat="44.998839038390926" lon="0.949750038503476"><ele>150.0</ele><time>2026-03-29T10:09:08.999Z</time></trkpt><trkpt lat="44.99888612794801" lon="0.9498503673683403"><ele>150.0</ele><time>2026-03-29T10:09:09.999Z</time></trkpt><trkpt lat="44.99893476784589" lon="0.9499602273712647"><ele>150.0</ele><time>2026-03-29T10:09:10.999Z</time></trkpt><trkpt lat="44.998981100151596" lon="0.9500580790061969"><ele>150.0</ele><time>2026-03-29T10:09:11.999Z</time></trkpt><trkpt lat="44.9990339462618" lon="0.9501467695173594"><ele>151.66666666666666</ele><time>2026-03-29T10:09:12.999Z</time></trkpt><trkpt lat="44.99908291627977" lon="0.9502081537953304"><ele>153.33333333333334</ele><time>2026-03-29T10:09:13.999Z</time></trkpt><trkpt lat="44.999169444010825" lon="0.9502311998565518"><ele>155.0</ele><time>2026-03-29T10:09:14.999Z</time></trkpt><trkpt lat="44.99926087096952" lon="0.9502143584676034"><ele>156.66666666666669</ele><time>2026-03-29T10:09:15.999Z</time></trkpt><trkpt lat="44.99933023754807" lon="0.9501796153410925"><ele>158.33333333333334</ele><time>2026-03-29T10:09:16.999Z</time></trkpt><trkpt lat="44.99940202925091" lon="0.9501243864082459"><ele>160.0</ele><time>2026-03-29T10:09:17.999Z</time></trkpt><trkpt lat="44.99945364851576" lon="0.94999320797366"><ele>160.75</ele><time>2026-03-29T10:09:18.999Z</time></trkpt><trkpt lat="44.999482868498994" lon="0.9498610695289317"><ele>161.5</ele><time>2026-03-29T10:09:19.999Z</time></trkpt><trkpt lat="44.9996052744265" lon="0.9497879560457376"><ele>162.25</ele><time>2026-03-29T10:09:20.999Z</time></trkpt><trkpt lat="44.99968675585712" lon="0.9496572160561872"><ele>163.0</ele><time>2026-03-29T10:09:21.999Z</time></trkpt><trkpt lat="44.99975080443496" lon="0.9495080700705653"><ele>163.0</ele><time>2026-03-29T10:09:22.999Z</time></trkpt><trkpt lat="44.99980639643003" lon="0.949355335945879"><ele>163.0</ele><time>2026-03-29T10:09:23.999Z</time></trkpt><trkpt lat="44.999867113909744" lon="0.949218790381127"><ele>163.0</ele><time>2026-03-29T10:09:24.999Z</time></trkpt><trkpt lat="44.99994063005535" lon="0.9490972104799119"><ele>163.0</ele><time>2026-03-29T10:09:25.999Z</time></trkpt><trkpt lat="45.00002702280468" lon="0.949004575887204"><ele>159.4</ele><time>2026-03-29T10:09:26.999Z</time></trkpt><trkpt lat="45.000118414462484" lon="0.9489513066718666"><ele>155.8</ele><time>2026-03-29T10:09:27.999Z</time></trkpt><trkpt lat="45.00021939919471" lon="0.9489378078959986"><ele>152.2</ele><time>2026-03-29T10:09:28.999Z</time></trkpt><trkpt lat="45.00034352631819" lon="0.9489529562756968"><ele>148.6</ele><time>2026-03-29T10:09:29.999Z</time></trkpt><trkpt lat="45.0004658518689" lon="0.9489801654344603"><ele>145.0</ele><time>2026-03-29T10:09:30.999Z</time></trkpt><trkpt lat="45.000584139126566" lon="0.949018573303059"><ele>145.0</ele><time>2026-03-29T10:09:31.999Z</time></trkpt><trkpt lat="45.000704815314926" lon="0.9490425370499214"><ele>145.0</ele><time>2026-03-29T10:09:32.999Z</time></trkpt><trkpt lat="45.00081741305003" lon="0.9490828137317332"><ele>145.0</ele><time>2026-03-29T10:09:33.999Z</time></trkpt><trkpt lat="45.000931238056026" lon="0.9491246231321474"><ele>145.0</ele><time>2026-03-29T10:09:34.999Z</time></trkpt><trkpt lat="45.001036970902106" lon="0.9491859620050881"><ele>152.75</ele><time>2026-03-29T10:09:35.999Z</time></trkpt><trkpt lat="45.001140927607274" lon="0.9492315323038589"><ele>160.5</ele><time>2026-03-29T10:09:36.999Z</time></trkpt><trkpt lat="45.001245654011385" lon="0.9493013151925102"><ele>168.25</ele><time>2026-03-29T10:09:37.999Z</time></trkpt><trkpt lat="45.0013662025339" lon="0.9493481552062379"><ele>176.0</ele><time>2026-03-29T10:09:38.999Z</time></trkpt><trkpt lat="45.00148727695852" lon="0.9494121066386716"><ele>176.0</ele><time>2026-03-29T10:09:39.999Z</time></trkpt><trkpt lat="45.001617270644445" lon="0.9494904883174085"><ele>176.0</ele><time>2026-03-29T10:09:40.999Z</time></trkpt><trkpt lat="45.00175626056273" lon="0.9495668034815844"><ele>176.0</ele><time>2026-03-29T10:09:41.999Z</time></trkpt><trkpt lat="45.001896200151755" lon="0.9496409690279881"><ele>176.0</ele><time>2026-03-29T10:09:42.999Z</time></trkpt><trkpt lat="45.00203926950531" lon="0.9497131146794501"><ele>175.0</ele><time>2026-03-29T10:09:43.999Z</time></trkpt><trkpt lat="45.00218355827074" lon="0.9497841478456511"><ele>174.0</ele><time>2026-03-29T10:09:44.999Z</time></trkpt><trkpt lat="45.00232541143343" lon="0.9498579566196214"><ele>173.0</ele><time>2026-03-29T10:09:45.999Z</time></trkpt><trkpt lat="45.00246936733148" lon="0.9499279327679143"><ele>171.33333333333331</ele><time>2026-03-29T10:09:46.999Z</time></trkpt><trkpt lat="45.00261246061619" lon="0.9500050591704525"><ele>169.66666666666666</ele><time>2026-03-29T10:09:47.999Z</time></trkpt><trkpt lat="45.00276222025424" lon="0.9500817743825577"><ele>168.0</ele><time>2026-03-29T10:09:48.999Z</time></trkpt><trkpt lat="45.00291043159547" lon="0.950152643424722"><ele>172.5</ele><time>2026-03-29T10:09:49.999Z</time></trkpt><trkpt lat="45.00304973127972" lon="0.9502004784303627"><ele>177.0</ele><time>2026-03-29T10:09:50.999Z</time></trkpt><trkpt lat="45.003185866317594" lon="0.9502365601718962"><ele>181.5</ele><time>2026-03-29T10:09:51.999Z</time></trkpt><trkpt lat="45.00331198334091" lon="0.9502765681680599"><ele>186.0</ele><time>2026-03-29T10:09:52.999Z</time></trkpt><trkpt lat="45.003448095267125" lon="0.9503136425257415"><ele>186.0</ele><time>2026-03-29T10:09:53.999Z</time></trkpt><trkpt lat="45.00356850889409" lon="0.9503628013217127"><ele>186.0</ele><time>2026-03-29T10:09:54.999Z</time></trkpt><trkpt lat="45.003685452320624" lon="0.9503927014034083"><ele>186.0</ele><time>2026-03-29T10:09:55.999Z</time></trkpt><trkpt lat="45.0037952047954" lon="0.9504264365568444"><ele>186.0</ele><time>2026-03-29T10:09:56.999Z</time></trkpt><trkpt lat="45.003901277935114" lon="0.9504490535890093"><ele>186.0</ele><time>2026-03-29T10:09:57.999Z</time></trkpt><trkpt lat="45.00400564839743" lon="0.9504955496476709"><ele>186.0</ele><time>2026-03-29T10:09:58.999Z</time></trkpt><trkpt lat="45.00412191581633" lon="0.9505574252682992"><ele>186.0</ele><time>2026-03-29T10:09:59.998Z</time></trkpt><trkpt lat="45.004235203127884" lon="0.950627483013376"><ele>186.0</ele><time>2026-03-29T10:10:00.998Z</time></trkpt><trkpt lat="45.00434405384429" lon="0.9507148897590046"><ele>184.25</ele><time>2026-03-29T10:10:01.998Z</time></trkpt><trkpt lat="45.004443373864014" lon="0.9508162409320702"><ele>182.5</ele><time>2026-03-29T10:10:02.998Z</time></trkpt><trkpt lat="45.004541911752284" lon="0.9509332076939334"><ele>180.75</ele><time>2026-03-29T10:10:03.998Z</time></trkpt><trkpt lat="45.004628056251015" lon="0.9510638397646209"><ele>179.0</ele><time>2026-03-29T10:10:04.998Z</time></trkpt><trkpt lat="45.004704441564584" lon="0.9512123903319346"><ele>182.5</ele><time>2026-03-29T10:10:05.998Z</time></trkpt><trkpt lat="45.00476104004176" lon="0.9513710692974442"><ele>186.0</ele><time>2026-03-29T10:10:06.998Z</time></trkpt><trkpt lat="45.004801419223476" lon="0.9515390576128945"><ele>189.5</ele><time>2026-03-29T10:10:07.998Z</time></trkpt><trkpt lat="45.004827752141075" lon="0.9517097436987694"><ele>193.0</ele><time>2026-03-29T10:10:08.998Z</time></trkpt><trkpt lat="45.00483533557569" lon="0.951900976950067"><ele>195.0</ele><time>2026-03-29T10:10:09.998Z</time></trkpt><trkpt lat="45.00488599978092" lon="0.952081982283797"><ele>197.0</ele><time>2026-03-29T10:10:10.998Z</time></trkpt><trkpt lat="45.004906913665394" lon="0.9522441660589144"><ele>199.0</ele><time>2026-03-29T10:10:11.998Z</time></trkpt><trkpt lat="45.004894905583114" lon="0.9523948427744854"><ele>201.0</ele><time>2026-03-29T10:10:12.998Z</time></trkpt><trkpt lat="45.00488623860527" lon="0.952535945707979"><ele>201.16666666666666</ele><time>2026-03-29T10:10:13.998Z</time></trkpt><trkpt lat="45.00489808843782" lon="0.9526582079352591"><ele>201.33333333333331</ele><time>2026-03-29T10:10:14.998Z</time></trkpt><trkpt lat="45.00492330699553" lon="0.9527707048276886"><ele>201.5</ele><time>2026-03-29T10:10:15.998Z</time></trkpt><trkpt lat="45.00496990726366" lon="0.9528466691481193"><ele>201.66666666666666</ele><time>2026-03-29T10:10:16.998Z</time></trkpt><trkpt lat="45.00502947602051" lon="0.9528980581563811"><ele>201.83333333333331</ele><time>2026-03-29T10:10:17.998Z</time></trkpt><trkpt lat="45.00513032794452" lon="0.9529545359652284"><ele>202.0</ele><time>2026-03-29T10:10:19.998Z</time></trkpt><trkpt lat="45.005217620529464" lon="0.9529965872041913"><ele>199.2</ele><time>2026-03-29T10:10:21.998Z</time></trkpt><trkpt lat="45.00533532493958" lon="0.953055110751955"><ele>196.39999999999998</ele><time>2026-03-29T10:10:23.998Z</time></trkpt><trkpt lat="45.005414454818656" lon="0.9531196319765731"><ele>193.60000000000002</ele><time>2026-03-29T10:10:25.998Z</time></trkpt><trkpt lat="45.005476540699824" lon="0.9531649653365255"><ele>190.8</ele><time>2026-03-29T10:10:27.998Z</time></trkpt><trkpt lat="45.00554926556766" lon="0.9531968092586188"><ele>188.0</ele><time>2026-03-29T10:10:32Z</time></trkpt><trkpt lat="45.005459353541156" lon="0.9531329458825666"><ele>188.0</ele><time>2026-03-29T10:10:36Z</time></trkpt><trkpt lat="45.00537799399715" lon="0.9530385366418136"><ele>188.0</ele><time>2026-03-29T10:10:38Z</time></trkpt><trkpt lat="45.00526581986734" lon="0.9529835912056746"><ele>188.0</ele><time>2026-03-29T10:10:40Z</time></trkpt><trkpt lat="45.00514654127777" lon="0.9529185592026795"><ele>188.0</ele><time>2026-03-29T10:10:42Z</time></trkpt><trkpt lat="45.005081463447105" lon="0.952882135637474"><ele>188.0</ele><time>2026-03-29T10:10:43Z</time></trkpt><trkpt lat="45.005006115273915" lon="0.9528239580027076"><ele>190.60000000000002</ele><time>2026-03-29T10:10:44Z</time></trkpt><trkpt lat="45.00495032806745" lon="0.9527360197804816"><ele>193.20000000000002</ele><time>2026-03-29T10:10:45Z</time></trkpt><trkpt lat="45.00491198069508" lon="0.9526082084055605"><ele>195.8</ele><time>2026-03-29T10:10:46Z</time></trkpt><trkpt lat="45.00490618899641" lon="0.9524658525234239"><ele>198.4</ele><time>2026-03-29T10:10:47Z</time></trkpt><trkpt lat="45.00491804165427" lon="0.9523106341504469"><ele>201.0</ele><time>2026-03-29T10:10:48Z</time></trkpt><trkpt lat="45.004927826903256" lon="0.9521564851607416"><ele>201.0</ele><time>2026-03-29T10:10:49Z</time></trkpt><trkpt lat="45.004923969306745" lon="0.9520150509439241"><ele>201.0</ele><time>2026-03-29T10:10:50Z</time></trkpt><trkpt lat="45.004899484881015" lon="0.9518801756749206"><ele>201.0</ele><time>2026-03-29T10:10:51Z</time></trkpt><trkpt lat="45.00485514606099" lon="0.9517633609765876"><ele>201.0</ele><time>2026-03-29T10:10:52Z</time></trkpt><trkpt lat="45.004829733724335" lon="0.9516493063754603"><ele>201.0</ele><time>2026-03-29T10:10:53Z</time></trkpt><trkpt lat="45.00480782235834" lon="0.9515207796728914"><ele>199.4</ele><time>2026-03-29T10:10:54Z</time></trkpt><trkpt lat="45.004778915516" lon="0.9513937816976231"><ele>197.8</ele><time>2026-03-29T10:10:55Z</time></trkpt><trkpt lat="45.004735861519045" lon="0.951271664971478"><ele>196.20000000000002</ele><time>2026-03-29T10:10:56Z</time></trkpt><trkpt lat="45.00468602089763" lon="0.9511547307545274"><ele>194.60000000000002</ele><time>2026-03-29T10:10:57Z</time></trkpt><trkpt lat="45.0046288170563" lon="0.9510461473137881"><ele>193.0</ele><time>2026-03-29T10:10:58Z</time></trkpt><trkpt lat="45.004565453664796" lon="0.9509540372963309"><ele>190.2</ele><time>2026-03-29T10:10:59Z</time></trkpt><trkpt lat="45.00449744265411" lon="0.9508602580684203"><ele>187.4</ele><time>2026-03-29T10:11:00Z</time></trkpt><trkpt lat="45.00443033860243" lon="0.950780901283823"><ele>184.6</ele><time>2026-03-29T10:11:01Z</time></trkpt><trkpt lat="45.00435449734711" lon="0.9507058827372651"><ele>181.79999999999998</ele><time>2026-03-29T10:11:02Z</time></trkpt><trkpt lat="45.00427370220176" lon="0.9506361405614148"><ele>179.0</ele><time>2026-03-29T10:11:03Z</time></trkpt><trkpt lat="45.004190126776756" lon="0.9505742007856001"><ele>180.39999999999998</ele><time>2026-03-29T10:11:04Z</time></trkpt><trkpt lat="45.0041041191526" lon="0.950518761506479"><ele>181.8</ele><time>2026-03-29T10:11:05Z</time></trkpt><trkpt lat="45.004012157629084" lon="0.9504786330279548"><ele>183.2</ele><time>2026-03-29T10:11:06Z</time></trkpt><trkpt lat="45.00392106384464" lon="0.9504425520458546"><ele>184.60000000000002</ele><time>2026-03-29T10:11:07Z</time></trkpt><trkpt lat="45.00383661955964" lon="0.9504024694533638"><ele>186.0</ele><time>2026-03-29T10:11:08Z</time></trkpt><trkpt lat="45.00374997512506" lon="0.9503829523090329"><ele>186.0</ele><time>2026-03-29T10:11:09Z</time></trkpt><trkpt lat="45.00366665284556" lon="0.9503614745232303"><ele>186.0</ele><time>2026-03-29T10:11:10Z</time></trkpt><trkpt lat="45.00357955577822" lon="0.9503257301690231"><ele>186.0</ele><time>2026-03-29T10:11:11Z</time></trkpt><trkpt lat="45.003501533929324" lon="0.9503106383224825"><ele>186.0</ele><time>2026-03-29T10:11:12Z</time></trkpt><trkpt lat="45.0034228096504" lon="0.9502871322873495"><ele>186.0</ele><time>2026-03-29T10:11:13Z</time></trkpt><trkpt lat="45.00334517650219" lon="0.9502611107445382"><ele>186.0</ele><time>2026-03-29T10:11:13.999Z</time></trkpt><trkpt lat="45.00327271562658" lon="0.9502325900604459"><ele>186.0</ele><time>2026-03-29T10:11:14.999Z</time></trkpt><trkpt lat="45.00317990948897" lon="0.950204239488956"><ele>186.0</ele><time>2026-03-29T10:11:16.999Z</time></trkpt><trkpt lat="45.00311360698506" lon="0.9501839163271756"><ele>186.0</ele><time>2026-03-29T10:11:18.999Z</time></trkpt><trkpt lat="45.00316872143929" lon="0.9501358399558032"><ele>186.0</ele><time>2026-03-29T10:11:24.999Z</time></trkpt><trkpt lat="45.00329430148065" lon="0.950146064426555"><ele>186.0</ele><time>2026-03-29T10:11:26.999Z</time></trkpt><trkpt lat="45.00340531580687" lon="0.9501152798235322"><ele>186.0</ele><time>2026-03-29T10:11:27.999Z</time></trkpt><trkpt lat="45.00351227372165" lon="0.950092795030082"><ele>186.0</ele><time>2026-03-29T10:11:28.999Z</time></trkpt><trkpt lat="45.00362060911979" lon="0.9500647111270235"><ele>186.0</ele><time>2026-03-29T10:11:29.999Z</time></trkpt><trkpt lat="45.003739848085644" lon="0.950039435810584"><ele>186.0</ele><time>2026-03-29T10:11:30.999Z</time></trkpt><trkpt lat="45.003837643658976" lon="0.9500098926728243"><ele>186.0</ele><time>2026-03-29T10:11:31.999Z</time></trkpt><trkpt lat="45.00394244119334" lon="0.9499859955093337"><ele>181.8</ele><time>2026-03-29T10:11:32.999Z</time></trkpt><trkpt lat="45.0040482103885" lon="0.9499636808819129"><ele>177.60000000000002</ele><time>2026-03-29T10:11:33.999Z</time></trkpt><trkpt lat="45.00416823871663" lon="0.9499524962886777"><ele>173.4</ele><time>2026-03-29T10:11:34.999Z</time></trkpt><trkpt lat="45.00426381696439" lon="0.9499499298807728"><ele>169.2</ele><time>2026-03-29T10:11:35.999Z</time></trkpt><trkpt lat="45.00436388782588" lon="0.9499424529538152"><ele>165.0</ele><time>2026-03-29T10:11:36.999Z</time></trkpt><trkpt lat="45.004461113402655" lon="0.9499399327737517"><ele>164.66666666666666</ele><time>2026-03-29T10:11:37.999Z</time></trkpt><trkpt lat="45.0045425403169" lon="0.9499634063197986"><ele>164.33333333333334</ele><time>2026-03-29T10:11:38.999Z</time></trkpt><trkpt lat="45.0046274467352" lon="0.9499723861514973"><ele>164.0</ele><time>2026-03-29T10:11:39.999Z</time></trkpt><trkpt lat="45.00471029980379" lon="0.9500209239313612"><ele>163.66666666666669</ele><time>2026-03-29T10:11:40.999Z</time></trkpt><trkpt lat="45.00479712737428" lon="0.9500826277794756"><ele>163.33333333333334</ele><time>2026-03-29T10:11:41.999Z</time></trkpt><trkpt lat="45.004873067899396" lon="0.9501483687747232"><ele>163.0</ele><time>2026-03-29T10:11:42.999Z</time></trkpt><trkpt lat="45.00494279842483" lon="0.9502445269196554"><ele>162.8</ele><time>2026-03-29T10:11:43.999Z</time></trkpt><trkpt lat="45.005017676264046" lon="0.9503402812405299"><ele>162.60000000000002</ele><time>2026-03-29T10:11:44.999Z</time></trkpt><trkpt lat="45.00509334131061" lon="0.9504342801079877"><ele>162.39999999999998</ele><time>2026-03-29T10:11:45.999Z</time></trkpt><trkpt lat="45.00515949702007" lon="0.9505211581622032"><ele>162.2</ele><time>2026-03-29T10:11:46.999Z</time></trkpt><trkpt lat="45.005225766066225" lon="0.9506202585009276"><ele>162.0</ele><time>2026-03-29T10:11:47.999Z</time></trkpt><trkpt lat="45.005296581849315" lon="0.950704505311024"><ele>162.0</ele><time>2026-03-29T10:11:48.999Z</time></trkpt><trkpt lat="45.00536190880572" lon="0.9507845358850728"><ele>162.0</ele><time>2026-03-29T10:11:49.999Z</time></trkpt><trkpt lat="45.005414076812315" lon="0.9508476200666836"><ele>162.0</ele><time>2026-03-29T10:11:50.999Z</time></trkpt><trkpt lat="45.005508652012765" lon="0.9508863186968588"><ele>162.0</ele><time>2026-03-29T10:11:52.999Z</time></trkpt><trkpt lat="45.005571620460124" lon="0.9508556248379851"><ele>162.0</ele><time>2026-03-29T10:11:53.999Z</time></trkpt><trkpt lat="45.00562145675798" lon="0.9507934497024926"><ele>162.0</ele><time>2026-03-29T10:11:54.999Z</time></trkpt><trkpt lat="45.005650020194544" lon="0.9506970376295757"><ele>162.0</ele><time>2026-03-29T10:11:55.999Z</time></trkpt><trkpt lat="45.005646728858984" lon="0.9505723941346044"><ele>162.0</ele><time>2026-03-29T10:11:56.999Z</time></trkpt><trkpt lat="45.005615868471956" lon="0.9504496375027297"><ele>162.0</ele><time>2026-03-29T10:11:57.999Z</time></trkpt><trkpt lat="45.00558550093575" lon="0.9503379503369357"><ele>162.0</ele><time>2026-03-29T10:11:58.999Z</time></trkpt><trkpt lat="45.005551873499435" lon="0.9502062828649495"><ele>162.0</ele><time>2026-03-29T10:11:59.999Z</time></trkpt><trkpt lat="45.0055269663842" lon="0.9500900230154379"><ele>159.66666666666666</ele><time>2026-03-29T10:12:00.999Z</time></trkpt><trkpt lat="45.005495494251335" lon="0.9499728653141676"><ele>157.33333333333334</ele><time>2026-03-29T10:12:01.999Z</time></trkpt><trkpt lat="45.005482987923386" lon="0.9498508058339789"><ele>155.0</ele><time>2026-03-29T10:12:02.999Z</time></trkpt><trkpt lat="45.005465591243286" lon="0.9497589989907687"><ele>152.66666666666669</ele><time>2026-03-29T10:12:03.999Z</time></trkpt><trkpt lat="45.00545375097209" lon="0.9496681323708723"><ele>150.33333333333334</ele><time>2026-03-29T10:12:04.999Z</time></trkpt><trkpt lat="45.00542421869615" lon="0.9495614154295164"><ele>148.0</ele><time>2026-03-29T10:12:05.998Z</time></trkpt><trkpt lat="45.00542015417454" lon="0.9494609650111351"><ele>148.0</ele><time>2026-03-29T10:12:06.998Z</time></trkpt><trkpt lat="45.00542225157659" lon="0.9493668578040332"><ele>148.0</ele><time>2026-03-29T10:12:07.998Z</time></trkpt><trkpt lat="45.00545496558644" lon="0.949280529964705"><ele>148.0</ele><time>2026-03-29T10:12:08.998Z</time></trkpt><trkpt lat="45.005513421678835" lon="0.9492233838225367"><ele>148.0</ele><time>2026-03-29T10:12:09.998Z</time></trkpt><trkpt lat="45.00560444918224" lon="0.949133002287414"><ele>148.0</ele><time>2026-03-29T10:12:11.998Z</time></trkpt><trkpt lat="45.00569492116755" lon="0.9490369886430435"><ele>148.0</ele><time>2026-03-29T10:12:13.998Z</time></trkpt><trkpt lat="45.00581595343622" lon="0.9489991555806322"><ele>146.33333333333334</ele><time>2026-03-29T10:12:15.998Z</time></trkpt><trkpt lat="45.00588211455579" lon="0.9489848158378985"><ele>144.66666666666669</ele><time>2026-03-29T10:12:16.998Z</time></trkpt><trkpt lat="45.005965211645325" lon="0.9489395550713483"><ele>143.0</ele><time>2026-03-29T10:12:17.998Z</time></trkpt><trkpt lat="45.006038800618285" lon="0.9488874681818296"><ele>141.33333333333334</ele><time>2026-03-29T10:12:18.998Z</time></trkpt><trkpt lat="45.00611660715411" lon="0.948854625561318"><ele>139.66666666666666</ele><time>2026-03-29T10:12:19.998Z</time></trkpt><trkpt lat="45.00618483354473" lon="0.9487980929039639"><ele>138.0</ele><time>2026-03-29T10:12:20.998Z</time></trkpt><trkpt lat="45.006246148073615" lon="0.9486787023351798"><ele>138.0</ele><time>2026-03-29T10:12:21.998Z</time></trkpt><trkpt lat="45.00631517116013" lon="0.948586792705803"><ele>138.0</ele><time>2026-03-29T10:12:22.998Z</time></trkpt><trkpt lat="45.006375507904586" lon="0.9484928265899905"><ele>138.0</ele><time>2026-03-29T10:12:23.998Z</time></trkpt><trkpt lat="45.00643178043717" lon="0.9484158021515494"><ele>138.0</ele><time>2026-03-29T10:12:24.998Z</time></trkpt><trkpt lat="45.00649160903565" lon="0.9483508492371342"><ele>138.0</ele><time>2026-03-29T10:12:25.998Z</time></trkpt><trkpt lat="45.00656299618649" lon="0.9482996371991412"><ele>138.0</ele><time>2026-03-29T10:12:26.998Z</time></trkpt><trkpt lat="45.00663532344332" lon="0.9482609137881849"><ele>137.20000000000002</ele><time>2026-03-29T10:12:27.998Z</time></trkpt><trkpt lat="45.00672060889713" lon="0.9482352505361133"><ele>136.4</ele><time>2026-03-29T10:12:28.998Z</time></trkpt><trkpt lat="45.00680731109742" lon="0.9482430857725092"><ele>135.60000000000002</ele><time>2026-03-29T10:12:29.998Z</time></trkpt><trkpt lat="45.006931532579166" lon="0.9482204953151601"><ele>134.8</ele><time>2026-03-29T10:12:30.998Z</time></trkpt><trkpt lat="45.00703774913829" lon="0.9482084336674318"><ele>134.0</ele><time>2026-03-29T10:12:31.998Z</time></trkpt><trkpt lat="45.00713332605312" lon="0.9482558684415887"><ele>134.0</ele><time>2026-03-29T10:12:32.998Z</time></trkpt><trkpt lat="45.00724011712529" lon="0.9482823852101226"><ele>134.0</ele><time>2026-03-29T10:12:33.998Z</time></trkpt><trkpt lat="45.00735317361008" lon="0.9483195935495478"><ele>134.0</ele><time>2026-03-29T10:12:34.998Z</time></trkpt><trkpt lat="45.007465047134225" lon="0.9483640785117138"><ele>134.0</ele><time>2026-03-29T10:12:35.998Z</time></trkpt><trkpt lat="45.00759451918367" lon="0.9484195447953846"><ele>138.25</ele><time>2026-03-29T10:12:37Z</time></trkpt><trkpt lat="45.00770459121031" lon="0.9484736331754701"><ele>142.5</ele><time>2026-03-29T10:12:38Z</time></trkpt><trkpt lat="45.00782168920358" lon="0.948531766371726"><ele>146.75</ele><time>2026-03-29T10:12:39Z</time></trkpt><trkpt lat="45.007943763827456" lon="0.9485762941394954"><ele>151.0</ele><time>2026-03-29T10:12:40Z</time></trkpt><trkpt lat="45.00805760006338" lon="0.9486364192244995"><ele>151.0</ele><time>2026-03-29T10:12:41Z</time></trkpt><trkpt lat="45.00816554680462" lon="0.9486756484554185"><ele>151.0</ele><time>2026-03-29T10:12:42Z</time></trkpt><trkpt lat="45.008290287319454" lon="0.948699423948575"><ele>151.0</ele><time>2026-03-29T10:12:43Z</time></trkpt><trkpt lat="45.00842166067433" lon="0.948684954343365"><ele>151.0</ele><time>2026-03-29T10:12:44Z</time></trkpt><trkpt lat="45.008560966830785" lon="0.9487035729640763"><ele>150.0</ele><time>2026-03-29T10:12:45Z</time></trkpt><trkpt lat="45.00866619193075" lon="0.9486973767107457"><ele>149.0</ele><time>2026-03-29T10:12:46Z</time></trkpt><trkpt lat="45.00878624276718" lon="0.9486972392415846"><ele>148.0</ele><time>2026-03-29T10:12:47Z</time></trkpt><trkpt lat="45.00891978062853" lon="0.9487110574448444"><ele>147.0</ele><time>2026-03-29T10:12:48Z</time></trkpt><trkpt lat="45.009048875167345" lon="0.9487025575565124"><ele>146.25</ele><time>2026-03-29T10:12:49Z</time></trkpt><trkpt lat="45.00916469034461" lon="0.9486675244023784"><ele>145.5</ele><time>2026-03-29T10:12:50Z</time></trkpt><trkpt lat="45.009302595532034" lon="0.9486592269783609"><ele>144.75</ele><time>2026-03-29T10:12:51Z</time></trkpt><trkpt lat="45.009439102180224" lon="0.9486499100618038"><ele>144.0</ele><time>2026-03-29T10:12:52Z</time></trkpt><trkpt lat="45.009568192787945" lon="0.9486312390175388"><ele>144.0</ele><time>2026-03-29T10:12:53Z</time></trkpt><trkpt lat="45.009692365789185" lon="0.9486417603537938"><ele>144.0</ele><time>2026-03-29T10:12:54Z</time></trkpt><trkpt lat="45.0098105831887" lon="0.9486302404998218"><ele>144.0</ele><time>2026-03-29T10:12:55Z</time></trkpt><trkpt lat="45.009930479963" lon="0.9486085608401601"><ele>144.0</ele><time>2026-03-29T10:12:56Z</time></trkpt><trkpt lat="45.01004647472479" lon="0.9486194028910804"><ele>143.8</ele><time>2026-03-29T10:12:57Z</time></trkpt><trkpt lat="45.010148263029436" lon="0.9485881937763256"><ele>143.60000000000002</ele><time>2026-03-29T10:12:58Z</time></trkpt><trkpt lat="45.010241749270385" lon="0.9486132915563834"><ele>143.4</ele><time>2026-03-29T10:12:59Z</time></trkpt><trkpt lat="45.01030420945891" lon="0.9486406189992201"><ele>143.20000000000002</ele><time>2026-03-29T10:13:00Z</time></trkpt><trkpt lat="45.01040265917783" lon="0.9487275823223628"><ele>143.0</ele><time>2026-03-29T10:13:02Z</time></trkpt><trkpt lat="45.010456480915806" lon="0.9488669902842478"><ele>143.0</ele><time>2026-03-29T10:13:04Z</time></trkpt><trkpt lat="45.010476205008636" lon="0.9489747527656052"><ele>143.0</ele><time>2026-03-29T10:13:07Z</time></trkpt><trkpt lat="45.01064555444519" lon="0.9489045748915956"><ele>143.0</ele><time>2026-03-29T10:13:10Z</time></trkpt><trkpt lat="45.01070604625739" lon="0.948838039882585"><ele>143.0</ele><time>2026-03-29T10:13:12Z</time></trkpt><trkpt lat="45.010706570297494" lon="0.9486630388098587"><ele>143.0</ele><time>2026-03-29T10:13:15Z</time></trkpt><trkpt lat="45.01073986519503" lon="0.9485071836404669"><ele>143.0</ele><time>2026-03-29T10:13:17Z</time></trkpt><trkpt lat="45.01076238681445" lon="0.9484010388990716"><ele>143.0</ele><time>2026-03-29T10:13:18.999Z</time></trkpt><trkpt lat="45.010803505971204" lon="0.9483222146129009"><ele>143.0</ele><time>2026-03-29T10:13:21.999Z</time></trkpt><trkpt lat="45.0108417123883" lon="0.9482366310681466"><ele>143.0</ele><time>2026-03-29T10:13:23.999Z</time></trkpt><trkpt lat="45.010833549803145" lon="0.9481074020781634"><ele>143.0</ele><time>2026-03-29T10:13:25.999Z</time></trkpt><trkpt lat="45.010775669551464" lon="0.9479659230813622"><ele>142.7142857142857</ele><time>2026-03-29T10:13:27.999Z</time></trkpt><trkpt lat="45.01075676125146" lon="0.9478692152002309"><ele>142.42857142857142</ele><time>2026-03-29T10:13:28.999Z</time></trkpt><trkpt lat="45.01072750210873" lon="0.9477597461975577"><ele>142.14285714285714</ele><time>2026-03-29T10:13:29.999Z</time></trkpt><trkpt lat="45.010700381514575" lon="0.9476569911900026"><ele>141.85714285714283</ele><time>2026-03-29T10:13:30.999Z</time></trkpt><trkpt lat="45.010688252149286" lon="0.9475590460155581"><ele>141.57142857142856</ele><time>2026-03-29T10:13:31.999Z</time></trkpt><trkpt lat="45.010648552105145" lon="0.9474856009621608"><ele>141.28571428571428</ele><time>2026-03-29T10:13:32.999Z</time></trkpt><trkpt lat="45.010588284688026" lon="0.9474439312996569"><ele>141.0</ele><time>2026-03-29T10:13:33.999Z</time></trkpt><trkpt lat="45.01052104710956" lon="0.9473942353656477"><ele>141.0</ele><time>2026-03-29T10:13:34.999Z</time></trkpt><trkpt lat="45.01044792519509" lon="0.9473518362528424"><ele>141.0</ele><time>2026-03-29T10:13:35.999Z</time></trkpt><trkpt lat="45.01037744121913" lon="0.9473261457185831"><ele>141.0</ele><time>2026-03-29T10:13:36.999Z</time></trkpt><trkpt lat="45.01025459202266" lon="0.9473563170568943"><ele>141.0</ele><time>2026-03-29T10:13:38.999Z</time></trkpt><trkpt lat="45.01014838528187" lon="0.9473528272177225"><ele>141.0</ele><time>2026-03-29T10:13:39.999Z</time></trkpt><trkpt lat="45.01003231432817" lon="0.9473288770354807"><ele>140.8</ele><time>2026-03-29T10:13:40.999Z</time></trkpt><trkpt lat="45.00992298354874" lon="0.9473091233404783"><ele>140.6</ele><time>2026-03-29T10:13:41.999Z</time></trkpt><trkpt lat="45.00983275302435" lon="0.9472897848210028"><ele>140.4</ele><time>2026-03-29T10:13:42.999Z</time></trkpt><trkpt lat="45.00976839859475" lon="0.9472658548164281"><ele>140.2</ele><time>2026-03-29T10:13:43.999Z</time></trkpt><trkpt lat="45.009660556102546" lon="0.947286001013471"><ele>140.0</ele><time>2026-03-29T10:13:44.999Z</time></trkpt><trkpt lat="45.009563890212924" lon="0.9472892650623114"><ele>140.0</ele><time>2026-03-29T10:13:45.999Z</time></trkpt><trkpt lat="45.00946950648643" lon="0.9472787631950411"><ele>140.0</ele><time>2026-03-29T10:13:46.999Z</time></trkpt><trkpt lat="45.009397156992854" lon="0.9472774782810142"><ele>140.0</ele><time>2026-03-29T10:13:47.999Z</time></trkpt><trkpt lat="45.009304687026" lon="0.9472595021820419"><ele>140.0</ele><time>2026-03-29T10:13:48.999Z</time></trkpt><trkpt lat="45.009220166991625" lon="0.94728992221858"><ele>140.0</ele><time>2026-03-29T10:13:49.999Z</time></trkpt><trkpt lat="45.00911089454951" lon="0.9472798680011405"><ele>138.5</ele><time>2026-03-29T10:13:50.999Z</time></trkpt><trkpt lat="45.00902397715356" lon="0.9472807221652022"><ele>137.0</ele><time>2026-03-29T10:13:51.999Z</time></trkpt><trkpt lat="45.00894708745444" lon="0.9472755216420901"><ele>135.5</ele><time>2026-03-29T10:13:52.999Z</time></trkpt><trkpt lat="45.00882456303987" lon="0.9472762655409189"><ele>134.0</ele><time>2026-03-29T10:13:54.999Z</time></trkpt><trkpt lat="45.0087502087113" lon="0.9472368837778995"><ele>132.5</ele><time>2026-03-29T10:13:55.999Z</time></trkpt><trkpt lat="45.00868551789073" lon="0.9471960114343256"><ele>131.0</ele><time>2026-03-29T10:13:56.999Z</time></trkpt><trkpt lat="45.00861766733046" lon="0.947173640999156"><ele>131.0</ele><time>2026-03-29T10:13:57.999Z</time></trkpt><trkpt lat="45.00853743203802" lon="0.9471440384288934"><ele>131.0</ele><time>2026-03-29T10:13:58.999Z</time></trkpt><trkpt lat="45.0084827420606" lon="0.9470944566494227"><ele>131.0</ele><time>2026-03-29T10:13:59.999Z</time></trkpt><trkpt lat="45.008415227951176" lon="0.947017064276098"><ele>131.0</ele><time>2026-03-29T10:14:00.999Z</time></trkpt><trkpt lat="45.00836516506496" lon="0.9469430210032813"><ele>131.0</ele><time>2026-03-29T10:14:01.999Z</time></trkpt><trkpt lat="45.00828331120315" lon="0.9468799419702112"><ele>131.0</ele><time>2026-03-29T10:14:02.999Z</time></trkpt><trkpt lat="45.008215567553385" lon="0.9468262033978095"><ele>130.66666666666666</ele><time>2026-03-29T10:14:03.999Z</time></trkpt><trkpt lat="45.00814195233977" lon="0.9467871292141824"><ele>130.33333333333331</ele><time>2026-03-29T10:14:04.999Z</time></trkpt><trkpt lat="45.00807471975249" lon="0.9467098774286213"><ele>130.0</ele><time>2026-03-29T10:14:05.999Z</time></trkpt><trkpt lat="45.00801066625837" lon="0.9466249406467833"><ele>129.66666666666666</ele><time>2026-03-29T10:14:06.999Z</time></trkpt><trkpt lat="45.007945453475465" lon="0.9465607995248734"><ele>129.33333333333334</ele><time>2026-03-29T10:14:07.999Z</time></trkpt><trkpt lat="45.00788657447578" lon="0.9465104422759992"><ele>129.0</ele><time>2026-03-29T10:14:08.999Z</time></trkpt><trkpt lat="45.00782090363049" lon="0.9463883832030718"><ele>129.2</ele><time>2026-03-29T10:14:10.999Z</time></trkpt><trkpt lat="45.00784696847183" lon="0.946213674576717"><ele>129.4</ele><time>2026-03-29T10:14:12.998Z</time></trkpt><trkpt lat="45.00788869321398" lon="0.9461198200738166"><ele>129.6</ele><time>2026-03-29T10:14:13.998Z</time></trkpt><trkpt lat="45.007930262767196" lon="0.9460119003417521"><ele>129.8</ele><time>2026-03-29T10:14:14.998Z</time></trkpt><trkpt lat="45.00796036009975" lon="0.945892885072091"><ele>130.0</ele><time>2026-03-29T10:14:15.998Z</time></trkpt><trkpt lat="45.00799152326583" lon="0.9457736767232265"><ele>130.0</ele><time>2026-03-29T10:14:16.998Z</time></trkpt><trkpt lat="45.00802765207747" lon="0.945661947019009"><ele>130.0</ele><time>2026-03-29T10:14:17.998Z</time></trkpt><trkpt lat="45.00806084117107" lon="0.9455728981837624"><ele>130.0</ele><time>2026-03-29T10:14:18.998Z</time></trkpt><trkpt lat="45.00809538048082" lon="0.945473106277944"><ele>130.0</ele><time>2026-03-29T10:14:19.998Z</time></trkpt><trkpt lat="45.00814043345133" lon="0.9453711440978402"><ele>130.0</ele><time>2026-03-29T10:14:20.998Z</time></trkpt><trkpt lat="45.00817394311358" lon="0.9452692229657312"><ele>130.0</ele><time>2026-03-29T10:14:21.998Z</time></trkpt><trkpt lat="45.00819843442437" lon="0.9451583270567406"><ele>130.0</ele><time>2026-03-29T10:14:22.998Z</time></trkpt><trkpt lat="45.00822858179202" lon="0.9450491609382548"><ele>130.0</ele><time>2026-03-29T10:14:23.998Z</time></trkpt><trkpt lat="45.00826963740397" lon="0.9449185506040988"><ele>130.0</ele><time>2026-03-29T10:14:24.998Z</time></trkpt><trkpt lat="45.00830283507049" lon="0.9447716089658807"><ele>130.0</ele><time>2026-03-29T10:14:25.998Z</time></trkpt><trkpt lat="45.00834128099129" lon="0.9446474429624784"><ele>130.0</ele><time>2026-03-29T10:14:26.998Z</time></trkpt><trkpt lat="45.00839446609113" lon="0.9445311222784286"><ele>131.16666666666669</ele><time>2026-03-29T10:14:27.998Z</time></trkpt><trkpt lat="45.00846317874465" lon="0.9444232960301692"><ele>132.33333333333334</ele><time>2026-03-29T10:14:28.998Z</time></trkpt><trkpt lat="45.008520967981" lon="0.9443457975379999"><ele>133.5</ele><time>2026-03-29T10:14:29.998Z</time></trkpt><trkpt lat="45.00857614247985" lon="0.9442623692574613"><ele>134.66666666666666</ele><time>2026-03-29T10:14:30.998Z</time></trkpt><trkpt lat="45.008630672679914" lon="0.9441723461925213"><ele>135.83333333333331</ele><time>2026-03-29T10:14:31.998Z</time></trkpt><trkpt lat="45.008644975788094" lon="0.9440584023025286"><ele>137.0</ele><time>2026-03-29T10:14:32.998Z</time></trkpt><trkpt lat="45.00867778398341" lon="0.9439603908804917"><ele>137.0</ele><time>2026-03-29T10:14:33.998Z</time></trkpt><trkpt lat="45.00869927849225" lon="0.9438430365741058"><ele>137.0</ele><time>2026-03-29T10:14:34.998Z</time></trkpt><trkpt lat="45.008724333088885" lon="0.9437562608154559"><ele>137.0</ele><time>2026-03-29T10:14:35.998Z</time></trkpt><trkpt lat="45.00875084862277" lon="0.9436558355303301"><ele>137.0</ele><time>2026-03-29T10:14:36.998Z</time></trkpt><trkpt lat="45.008787636213874" lon="0.9435629207365674"><ele>137.0</ele><time>2026-03-29T10:14:37.998Z</time></trkpt><trkpt lat="45.00883626623626" lon="0.9434578410016872"><ele>137.0</ele><time>2026-03-29T10:14:38.998Z</time></trkpt><trkpt lat="45.00888934984034" lon="0.9433632768408122"><ele>136.0</ele><time>2026-03-29T10:14:39.998Z</time></trkpt><trkpt lat="45.0089501417221" lon="0.9432853859502035"><ele>135.0</ele><time>2026-03-29T10:14:40.998Z</time></trkpt><trkpt lat="45.009003567020635" lon="0.9431632270966365"><ele>134.0</ele><time>2026-03-29T10:14:41.998Z</time></trkpt><trkpt lat="45.00904453848244" lon="0.9430364683857525"><ele>133.0</ele><time>2026-03-29T10:14:43Z</time></trkpt><trkpt lat="45.009095419814855" lon="0.9429334507911448"><ele>132.0</ele><time>2026-03-29T10:14:44Z</time></trkpt><trkpt lat="45.0091666053598" lon="0.9428212150286316"><ele>133.79999999999998</ele><time>2026-03-29T10:14:45Z</time></trkpt><trkpt lat="45.00922636825311" lon="0.9427148234191846"><ele>135.6</ele><time>2026-03-29T10:14:46Z</time></trkpt><trkpt lat="45.00927961354356" lon="0.9426090879796264"><ele>137.39999999999998</ele><time>2026-03-29T10:14:47Z</time></trkpt><trkpt lat="45.009325023363424" lon="0.9425031079700862"><ele>139.2</ele><time>2026-03-29T10:14:48Z</time></trkpt><trkpt lat="45.00938808416229" lon="0.9424017211439445"><ele>141.0</ele><time>2026-03-29T10:14:49Z</time></trkpt><trkpt lat="45.00944921388174" lon="0.9422939586372797"><ele>141.0</ele><time>2026-03-29T10:14:50Z</time></trkpt><trkpt lat="45.00950494069603" lon="0.9421890682627125"><ele>141.0</ele><time>2026-03-29T10:14:51Z</time></trkpt><trkpt lat="45.00957039244259" lon="0.9420891282175055"><ele>141.0</ele><time>2026-03-29T10:14:52Z</time></trkpt><trkpt lat="45.009626122951964" lon="0.9419917582022306"><ele>141.0</ele><time>2026-03-29T10:14:53Z</time></trkpt><trkpt lat="45.00968154715734" lon="0.9419038197349427"><ele>141.0</ele><time>2026-03-29T10:14:54Z</time></trkpt><trkpt lat="45.00972169845146" lon="0.9417763461240771"><ele>139.83333333333334</ele><time>2026-03-29T10:14:55Z</time></trkpt><trkpt lat="45.00974419966991" lon="0.9416594079059699"><ele>138.66666666666666</ele><time>2026-03-29T10:14:56Z</time></trkpt><trkpt lat="45.00976776548075" lon="0.941555116755409"><ele>137.5</ele><time>2026-03-29T10:14:57Z</time></trkpt><trkpt lat="45.00980688710345" lon="0.9414648860023704"><ele>136.33333333333331</ele><time>2026-03-29T10:14:58Z</time></trkpt><trkpt lat="45.00988363754886" lon="0.9413799972605842"><ele>135.16666666666666</ele><time>2026-03-29T10:15:00Z</time></trkpt><trkpt lat="45.0099576866535" lon="0.9413278978545987"><ele>134.0</ele><time>2026-03-29T10:15:03Z</time></trkpt><trkpt lat="45.009995829922964" lon="0.9412520050258368"><ele>134.66666666666666</ele><time>2026-03-29T10:15:04Z</time></trkpt><trkpt lat="45.010048860261506" lon="0.9411683275361292"><ele>135.33333333333331</ele><time>2026-03-29T10:15:05Z</time></trkpt><trkpt lat="45.01013377783421" lon="0.9410765047313528"><ele>136.0</ele><time>2026-03-29T10:15:07Z</time></trkpt><trkpt lat="45.010197483512286" lon="0.9409944499652728"><ele>136.66666666666666</ele><time>2026-03-29T10:15:09Z</time></trkpt><trkpt lat="45.01021469725249" lon="0.9409041213595682"><ele>137.33333333333334</ele><time>2026-03-29T10:15:11Z</time></trkpt><trkpt lat="45.01028477557692" lon="0.9408230511271376"><ele>138.0</ele><time>2026-03-29T10:15:13Z</time></trkpt><trkpt lat="45.01036197544034" lon="0.9407118583853015"><ele>138.0</ele><time>2026-03-29T10:15:15Z</time></trkpt><trkpt lat="45.01045250749306" lon="0.9406215450958285"><ele>138.0</ele><time>2026-03-29T10:15:17Z</time></trkpt><trkpt lat="45.01049681241064" lon="0.9405539290394542"><ele>138.0</ele><time>2026-03-29T10:15:18Z</time></trkpt><trkpt lat="45.0105279128711" lon="0.9404748399259859"><ele>138.0</ele><time>2026-03-29T10:15:19Z</time></trkpt><trkpt lat="45.01061957077843" lon="0.9403552667437276"><ele>138.0</ele><time>2026-03-29T10:15:21Z</time></trkpt><trkpt lat="45.01072341061293" lon="0.9402902473440119"><ele>138.0</ele><time>2026-03-29T10:15:22.999Z</time></trkpt><trkpt lat="45.01079287852329" lon="0.9402759064089611"><ele>138.0</ele><time>2026-03-29T10:15:23.999Z</time></trkpt><trkpt lat="45.010872670323835" lon="0.940240677797712"><ele>138.0</ele><time>2026-03-29T10:15:24.999Z</time></trkpt><trkpt lat="45.010943388034605" lon="0.940191094363693"><ele>138.0</ele><time>2026-03-29T10:15:25.999Z</time></trkpt><trkpt lat="45.01101083983632" lon="0.9401746279571174"><ele>138.0</ele><time>2026-03-29T10:15:26.999Z</time></trkpt><trkpt lat="45.01106967096447" lon="0.940138417889407"><ele>138.0</ele><time>2026-03-29T10:15:27.999Z</time></trkpt><trkpt lat="45.011183380594886" lon="0.9401078629897569"><ele>138.4</ele><time>2026-03-29T10:15:29.999Z</time></trkpt><trkpt lat="45.011283635206716" lon="0.9401079417748971"><ele>138.8</ele><time>2026-03-29T10:15:32.999Z</time></trkpt><trkpt lat="45.0113664103437" lon="0.9400915652312312"><ele>139.2</ele><time>2026-03-29T10:15:34.999Z</time></trkpt><trkpt lat="45.01143491911861" lon="0.9401089240820265"><ele>139.6</ele><time>2026-03-29T10:15:35.999Z</time></trkpt><trkpt lat="45.01151698424111" lon="0.9400389829930248"><ele>140.0</ele><time>2026-03-29T10:15:37.999Z</time></trkpt><trkpt lat="45.01159516248946" lon="0.9399499340501308"><ele>142.16666666666666</ele><time>2026-03-29T10:15:39.999Z</time></trkpt><trkpt lat="45.0116698981262" lon="0.939864678407398"><ele>144.33333333333331</ele><time>2026-03-29T10:15:41.999Z</time></trkpt><trkpt lat="45.01176930758579" lon="0.9398125209334326"><ele>146.5</ele><time>2026-03-29T10:15:43.999Z</time></trkpt><trkpt lat="45.011841318587344" lon="0.9398016092872001"><ele>148.66666666666666</ele><time>2026-03-29T10:15:44.999Z</time></trkpt><trkpt lat="45.01190917822918" lon="0.9397663948903469"><ele>150.83333333333334</ele><time>2026-03-29T10:15:45.999Z</time></trkpt><trkpt lat="45.011970914798795" lon="0.939709257971286"><ele>153.0</ele><time>2026-03-29T10:15:47.999Z</time></trkpt><trkpt lat="45.01203784440857" lon="0.93960391225279"><ele>153.0</ele><time>2026-03-29T10:15:50.999Z</time></trkpt><trkpt lat="45.01212238589226" lon="0.9395379870849946"><ele>153.0</ele><time>2026-03-29T10:15:52.999Z</time></trkpt><trkpt lat="45.01223051100404" lon="0.9395262298810815"><ele>153.0</ele><time>2026-03-29T10:15:54.999Z</time></trkpt><trkpt lat="45.01232013345631" lon="0.939564078001426"><ele>153.0</ele><time>2026-03-29T10:15:56.999Z</time></trkpt><trkpt lat="45.01242662142354" lon="0.9395693271072018"><ele>153.0</ele><time>2026-03-29T10:15:58.999Z</time></trkpt><trkpt lat="45.01249666388133" lon="0.9395897232591783"><ele>155.16666666666666</ele><time>2026-03-29T10:16:00.999Z</time></trkpt><trkpt lat="45.012567756680944" lon="0.9396018513276405"><ele>157.33333333333334</ele><time>2026-03-29T10:16:01.999Z</time></trkpt><trkpt lat="45.01264229156452" lon="0.9395856277086927"><ele>159.5</ele><time>2026-03-29T10:16:03.999Z</time></trkpt><trkpt lat="45.01272662128589" lon="0.939651637570246"><ele>161.66666666666669</ele><time>2026-03-29T10:16:05.999Z</time></trkpt><trkpt lat="45.01278480600729" lon="0.9395997433435526"><ele>163.83333333333334</ele><time>2026-03-29T10:16:07.999Z</time></trkpt><trkpt lat="45.012882614570266" lon="0.939642433130347"><ele>166.0</ele><time>2026-03-29T10:16:09.999Z</time></trkpt><trkpt lat="45.012951484035064" lon="0.9396713124538952"><ele>166.0</ele><time>2026-03-29T10:16:10.999Z</time></trkpt><trkpt lat="45.01302026203844" lon="0.939697841789605"><ele>166.0</ele><time>2026-03-29T10:16:11.999Z</time></trkpt><trkpt lat="45.01309025605817" lon="0.9396977070412329"><ele>166.0</ele><time>2026-03-29T10:16:12.999Z</time></trkpt><trkpt lat="45.01321376752206" lon="0.9397029977904144"><ele>166.0</ele><time>2026-03-29T10:16:14.998Z</time></trkpt><trkpt lat="45.01328702779008" lon="0.9397210286559422"><ele>166.0</ele><time>2026-03-29T10:16:15.998Z</time></trkpt><trkpt lat="45.013357400280576" lon="0.9397342784189027"><ele>166.0</ele><time>2026-03-29T10:16:16.998Z</time></trkpt><trkpt lat="45.01342513484006" lon="0.9397665083594533"><ele>167.4</ele><time>2026-03-29T10:16:17.998Z</time></trkpt><trkpt lat="45.013508911409325" lon="0.9398025338527125"><ele>168.8</ele><time>2026-03-29T10:16:18.998Z</time></trkpt><trkpt lat="45.013591489568746" lon="0.9398560354999138"><ele>170.20000000000002</ele><time>2026-03-29T10:16:19.998Z</time></trkpt><trkpt lat="45.013688861866754" lon="0.9399091311432323"><ele>171.60000000000002</ele><time>2026-03-29T10:16:20.998Z</time></trkpt><trkpt lat="45.013796891190665" lon="0.939947223371951"><ele>173.0</ele><time>2026-03-29T10:16:21.998Z</time></trkpt><trkpt lat="45.013898104546904" lon="0.93998034127328"><ele>173.0</ele><time>2026-03-29T10:16:22.998Z</time></trkpt><trkpt lat="45.01398891583602" lon="0.9400202037555038"><ele>173.0</ele><time>2026-03-29T10:16:23.998Z</time></trkpt><trkpt lat="45.01409331899764" lon="0.9400590435431215"><ele>173.0</ele><time>2026-03-29T10:16:24.998Z</time></trkpt><trkpt lat="45.01419340690531" lon="0.9401033546858579"><ele>173.0</ele><time>2026-03-29T10:16:25.998Z</time></trkpt><trkpt lat="45.0142779510025" lon="0.9401485007052722"><ele>173.0</ele><time>2026-03-29T10:16:26.998Z</time></trkpt><trkpt lat="45.01436508037809" lon="0.9401851100562799"><ele>178.8</ele><time>2026-03-29T10:16:27.998Z</time></trkpt><trkpt lat="45.01444347566132" lon="0.940237496941711"><ele>184.60000000000002</ele><time>2026-03-29T10:16:28.998Z</time></trkpt><trkpt lat="45.014546309293316" lon="0.9403001377176659"><ele>190.39999999999998</ele><time>2026-03-29T10:16:29.998Z</time></trkpt><trkpt lat="45.01465025850791" lon="0.9403597825857326"><ele>196.2</ele><time>2026-03-29T10:16:30.998Z</time></trkpt><trkpt lat="45.01473739622368" lon="0.9404051437258811"><ele>202.0</ele><time>2026-03-29T10:16:31.998Z</time></trkpt><trkpt lat="45.01482967944916" lon="0.940462858835614"><ele>202.0</ele><time>2026-03-29T10:16:32.998Z</time></trkpt><trkpt lat="45.01495493316932" lon="0.9405301762482892"><ele>202.0</ele><time>2026-03-29T10:16:33.998Z</time></trkpt><trkpt lat="45.01504565010842" lon="0.9406169962288992"><ele>202.0</ele><time>2026-03-29T10:16:34.998Z</time></trkpt><trkpt lat="45.015100593331944" lon="0.9406815744929194"><ele>202.0</ele><time>2026-03-29T10:16:36.998Z</time></trkpt><trkpt lat="45.015195160462625" lon="0.9407517029519655"><ele>202.0</ele><time>2026-03-29T10:16:38.998Z</time></trkpt><trkpt lat="45.015269658026696" lon="0.9408445646742639"><ele>206.0</ele><time>2026-03-29T10:16:40.998Z</time></trkpt><trkpt lat="45.015220824779924" lon="0.9409237124516705"><ele>210.0</ele><time>2026-03-29T10:16:42.998Z</time></trkpt><trkpt lat="45.01511101742632" lon="0.9409408049528297"><ele>214.0</ele><time>2026-03-29T10:16:44.998Z</time></trkpt><trkpt lat="45.015041934598386" lon="0.9409803946810107"><ele>218.0</ele><time>2026-03-29T10:16:45.998Z</time></trkpt><trkpt lat="45.01495001094144" lon="0.9410297775771412"><ele>222.0</ele><time>2026-03-29T10:16:46.998Z</time></trkpt><trkpt lat="45.014854048073424" lon="0.9410591041458373"><ele>222.2</ele><time>2026-03-29T10:16:47.998Z</time></trkpt><trkpt lat="45.014749865390606" lon="0.9410764533902106"><ele>222.39999999999998</ele><time>2026-03-29T10:16:49Z</time></trkpt><trkpt lat="45.014649262141106" lon="0.9411126167747497"><ele>222.60000000000002</ele><time>2026-03-29T10:16:50Z</time></trkpt><trkpt lat="45.01456278976054" lon="0.9411459955266398"><ele>222.8</ele><time>2026-03-29T10:16:51Z</time></trkpt><trkpt lat="45.01448861213582" lon="0.9411887503250149"><ele>223.0</ele><time>2026-03-29T10:16:52Z</time></trkpt><trkpt lat="45.014434923529315" lon="0.9412767705910694"><ele>222.99999999999997</ele><time>2026-03-29T10:16:54Z</time></trkpt><trkpt lat="45.01452535592326" lon="0.9413210628007084"><ele>223.0</ele><time>2026-03-29T10:16:56Z</time></trkpt><trkpt lat="45.014593056240045" lon="0.9413330713105844"><ele>223.0</ele><time>2026-03-29T10:16:57Z</time></trkpt><trkpt lat="45.01467506678093" lon="0.9413644769440058"><ele>223.0</ele><time>2026-03-29T10:16:58Z</time></trkpt><trkpt lat="45.01475742423879" lon="0.941436596319787"><ele>222.99999999999997</ele><time>2026-03-29T10:16:59Z</time></trkpt><trkpt lat="45.014848841648124" lon="0.9414799072591428"><ele>223.0</ele><time>2026-03-29T10:17:00Z</time></trkpt><trkpt lat="45.01496069806448" lon="0.9415018459865179"><ele>222.8</ele><time>2026-03-29T10:17:01Z</time></trkpt><trkpt lat="45.01506938329355" lon="0.9415221553496794"><ele>222.60000000000002</ele><time>2026-03-29T10:17:02Z</time></trkpt><trkpt lat="45.01518385854248" lon="0.9415811215328984"><ele>222.39999999999998</ele><time>2026-03-29T10:17:03Z</time></trkpt><trkpt lat="45.01527590138948" lon="0.9416365575254222"><ele>222.2</ele><time>2026-03-29T10:17:04Z</time></trkpt><trkpt lat="45.01535729685248" lon="0.9416854445509311"><ele>222.0</ele><time>2026-03-29T10:17:05Z</time></trkpt><trkpt lat="45.015448039410934" lon="0.9417107799443487"><ele>223.8</ele><time>2026-03-29T10:17:06Z</time></trkpt><trkpt lat="45.01555697958345" lon="0.9417286191175984"><ele>225.6</ele><time>2026-03-29T10:17:07Z</time></trkpt><trkpt lat="45.015643590139234" lon="0.9417731075383781"><ele>227.40000000000003</ele><time>2026-03-29T10:17:08Z</time></trkpt><trkpt lat="45.015717098372996" lon="0.941843602195955"><ele>229.20000000000002</ele><time>2026-03-29T10:17:09Z</time></trkpt><trkpt lat="45.01580831465173" lon="0.941921174087182"><ele>231.0</ele><time>2026-03-29T10:17:10Z</time></trkpt><trkpt lat="45.01589830361462" lon="0.9420035906759275"><ele>231.0</ele><time>2026-03-29T10:17:11Z</time></trkpt><trkpt lat="45.01595955375725" lon="0.9420772075984544"><ele>231.0</ele><time>2026-03-29T10:17:12Z</time></trkpt><trkpt lat="45.01597255211847" lon="0.9421704846525485"><ele>231.0</ele><time>2026-03-29T10:17:14Z</time></trkpt><trkpt lat="45.01597067993792" lon="0.9422856796147631"><ele>231.0</ele><time>2026-03-29T10:17:16Z</time></trkpt><trkpt lat="45.01599445343038" lon="0.9424486463986899"><ele>231.0</ele><time>2026-03-29T10:17:18Z</time></trkpt><trkpt lat="45.01598645455588" lon="0.9425383589579476"><ele>231.0</ele><time>2026-03-29T10:17:19Z</time></trkpt><trkpt lat="45.01599987769171" lon="0.9426534899946334"><ele>231.33333333333334</ele><time>2026-03-29T10:17:21Z</time></trkpt><trkpt lat="45.016080985128205" lon="0.9427306152286342"><ele>231.66666666666669</ele><time>2026-03-29T10:17:24Z</time></trkpt><trkpt lat="45.016155450809414" lon="0.9427695270788493"><ele>232.0</ele><time>2026-03-29T10:20:08.999Z</time></trkpt><trkpt lat="45.01623800880156" lon="0.9426961969749165"><ele>232.33333333333334</ele><time>2026-03-29T10:20:11.999Z</time></trkpt><trkpt lat="45.01630002906237" lon="0.9426645844704965"><ele>232.66666666666669</ele><time>2026-03-29T10:20:13.999Z</time></trkpt><trkpt lat="45.01638272788783" lon="0.9426534158819713"><ele>233.0</ele><time>2026-03-29T10:20:15.999Z</time></trkpt><trkpt lat="45.01645792061744" lon="0.9426471744055435"><ele>233.0</ele><time>2026-03-29T10:20:16.999Z</time></trkpt><trkpt lat="45.016527854395555" lon="0.9426521609381971"><ele>233.0</ele><time>2026-03-29T10:20:17.999Z</time></trkpt><trkpt lat="45.016647140841556" lon="0.9426528237240008"><ele>233.0</ele><time>2026-03-29T10:20:19.999Z</time></trkpt><trkpt lat="45.01676971511744" lon="0.94269696353823"><ele>233.0</ele><time>2026-03-29T10:20:21.999Z</time></trkpt><trkpt lat="45.016828045738976" lon="0.9427469119297676"><ele>233.0</ele><time>2026-03-29T10:20:22.999Z</time></trkpt><trkpt lat="45.016891765582855" lon="0.9427847298887599"><ele>232.16666666666669</ele><time>2026-03-29T10:20:23.999Z</time></trkpt><trkpt lat="45.016960322060896" lon="0.9428082348855733"><ele>231.33333333333334</ele><time>2026-03-29T10:20:24.998Z</time></trkpt><trkpt lat="45.017027824285485" lon="0.9428263748771546"><ele>230.5</ele><time>2026-03-29T10:20:25.998Z</time></trkpt><trkpt lat="45.01710160145631" lon="0.942848103923949"><ele>229.66666666666669</ele><time>2026-03-29T10:20:26.998Z</time></trkpt><trkpt lat="45.01717444997232" lon="0.942872416372764"><ele>228.83333333333334</ele><time>2026-03-29T10:20:27.998Z</time></trkpt><trkpt lat="45.01725659206337" lon="0.9428997728259239"><ele>228.0</ele><time>2026-03-29T10:20:28.998Z</time></trkpt><trkpt lat="45.017342248556" lon="0.9429269052373839"><ele>228.0</ele><time>2026-03-29T10:20:29.998Z</time></trkpt><trkpt lat="45.017424916524085" lon="0.9429526967178091"><ele>228.0</ele><time>2026-03-29T10:20:30.998Z</time></trkpt><trkpt lat="45.01751717592295" lon="0.9429831403530742"><ele>228.0</ele><time>2026-03-29T10:20:31.998Z</time></trkpt><trkpt lat="45.0176006750121" lon="0.9430099882756701"><ele>228.0</ele><time>2026-03-29T10:20:32.998Z</time></trkpt><trkpt lat="45.01768628280445" lon="0.9430358962092004"><ele>228.0</ele><time>2026-03-29T10:20:33.998Z</time></trkpt><trkpt lat="45.0177698589189" lon="0.9430617361695893"><ele>228.0</ele><time>2026-03-29T10:20:34.998Z</time></trkpt><trkpt lat="45.0178544914984" lon="0.9430883464245388"><ele>228.60000000000002</ele><time>2026-03-29T10:20:35.998Z</time></trkpt><trkpt lat="45.017942761609305" lon="0.9431146727470796"><ele>229.20000000000002</ele><time>2026-03-29T10:20:36.998Z</time></trkpt><trkpt lat="45.01803302688001" lon="0.943128288867352"><ele>229.8</ele><time>2026-03-29T10:20:37.998Z</time></trkpt><trkpt lat="45.01812675008013" lon="0.9431260976821269"><ele>230.4</ele><time>2026-03-29T10:20:38.998Z</time></trkpt><trkpt lat="45.01822559249377" lon="0.9431335478027485"><ele>231.0</ele><time>2026-03-29T10:20:39.998Z</time></trkpt><trkpt lat="45.018315353982416" lon="0.943150795724032"><ele>232.0</ele><time>2026-03-29T10:20:40.998Z</time></trkpt><trkpt lat="45.01841463584594" lon="0.9431575030588332"><ele>233.00000000000003</ele><time>2026-03-29T10:20:41.998Z</time></trkpt><trkpt lat="45.018505537462325" lon="0.9431563836583884"><ele>234.00000000000003</ele><time>2026-03-29T10:20:42.998Z</time></trkpt><trkpt lat="45.018603972688396" lon="0.9431362335209689"><ele>235.0</ele><time>2026-03-29T10:20:43.998Z</time></trkpt><trkpt lat="45.01869441962467" lon="0.9431118743038223"><ele>236.0</ele><time>2026-03-29T10:20:44.998Z</time></trkpt><trkpt lat="45.01879237207682" lon="0.9431133365369584"><ele>236.0</ele><time>2026-03-29T10:20:45.998Z</time></trkpt><trkpt lat="45.01889531556742" lon="0.9431317062672819"><ele>236.00000000000003</ele><time>2026-03-29T10:20:46.998Z</time></trkpt><trkpt lat="45.01898397393412" lon="0.9431412360814508"><ele>236.00000000000003</ele><time>2026-03-29T10:20:47.998Z</time></trkpt><trkpt lat="45.01907771240261" lon="0.9431222947528105"><ele>236.0</ele><time>2026-03-29T10:20:48.998Z</time></trkpt><trkpt lat="45.01918772815676" lon="0.9430867289616883"><ele>236.0</ele><time>2026-03-29T10:20:49.998Z</time></trkpt><trkpt lat="45.019300650749045" lon="0.94302244088744"><ele>236.20000000000002</ele><time>2026-03-29T10:20:50.998Z</time></trkpt><trkpt lat="45.019416640204376" lon="0.9429594281649054"><ele>236.40000000000003</ele><time>2026-03-29T10:20:51.998Z</time></trkpt><trkpt lat="45.019517618958396" lon="0.9429087216041186"><ele>236.6</ele><time>2026-03-29T10:20:52.998Z</time></trkpt><trkpt lat="45.01960508929114" lon="0.9428743314444833"><ele>236.8</ele><time>2026-03-29T10:20:53.998Z</time></trkpt><trkpt lat="45.01968286242787" lon="0.942838785264288"><ele>237.0</ele><time>2026-03-29T10:20:54.998Z</time></trkpt><trkpt lat="45.019754370329" lon="0.9428126503828049"><ele>236.99999999999997</ele><time>2026-03-29T10:20:55.998Z</time></trkpt><trkpt lat="45.019819584326086" lon="0.9427789653540681"><ele>237.0</ele><time>2026-03-29T10:20:56.998Z</time></trkpt><trkpt lat="45.019886097909456" lon="0.9427228704821525"><ele>236.99999999999997</ele><time>2026-03-29T10:20:57.998Z</time></trkpt><trkpt lat="45.01995127830909" lon="0.9426811203870751"><ele>236.99999999999997</ele><time>2026-03-29T10:20:58.998Z</time></trkpt><trkpt lat="45.020014781401876" lon="0.9426496361497193"><ele>237.0</ele><time>2026-03-29T10:20:59.998Z</time></trkpt><trkpt lat="45.0200746422421" lon="0.9426151189120315"><ele>236.99999999999997</ele><time>2026-03-29T10:21:01Z</time></trkpt><trkpt lat="45.02013596734155" lon="0.9425664938793836"><ele>236.99999999999997</ele><time>2026-03-29T10:21:02Z</time></trkpt><trkpt lat="45.02019894928546" lon="0.9425172587673879"><ele>237.0</ele><time>2026-03-29T10:21:03Z</time></trkpt><trkpt lat="45.020317084386484" lon="0.9424667479531138"><ele>237.0</ele><time>2026-03-29T10:21:05Z</time></trkpt><trkpt lat="45.020382530105636" lon="0.9424300773137709"><ele>237.0</ele><time>2026-03-29T10:21:06Z</time></trkpt><trkpt lat="45.020446021553724" lon="0.9423959101973569"><ele>237.0</ele><time>2026-03-29T10:21:07Z</time></trkpt><trkpt lat="45.020523985860635" lon="0.9423593776585328"><ele>237.0</ele><time>2026-03-29T10:21:08Z</time></trkpt><trkpt lat="45.02060193462245" lon="0.9423162263601558"><ele>237.0</ele><time>2026-03-29T10:21:09Z</time></trkpt><trkpt lat="45.020683929192344" lon="0.9422842379518482"><ele>237.0</ele><time>2026-03-29T10:21:10Z</time></trkpt><trkpt lat="45.0207570701806" lon="0.9422221316184735"><ele>237.0</ele><time>2026-03-29T10:21:11Z</time></trkpt><trkpt lat="45.02083246285029" lon="0.942173184529629"><ele>237.0</ele><time>2026-03-29T10:21:12Z</time></trkpt><trkpt lat="45.02089823324954" lon="0.9421193050835541"><ele>237.0</ele><time>2026-03-29T10:21:13Z</time></trkpt><trkpt lat="45.0209658937148" lon="0.9420782948885488"><ele>237.0</ele><time>2026-03-29T10:21:14Z</time></trkpt><trkpt lat="45.02101750494567" lon="0.9420082291779944"><ele>237.0</ele><time>2026-03-29T10:21:15Z</time></trkpt><trkpt lat="45.02106150443082" lon="0.9419358270203262"><ele>237.0</ele><time>2026-03-29T10:21:16Z</time></trkpt><trkpt lat="45.02111241363874" lon="0.9418740888250159"><ele>237.0</ele><time>2026-03-29T10:21:17Z</time></trkpt><trkpt lat="45.021222728353756" lon="0.9417936282806236"><ele>237.0</ele><time>2026-03-29T10:21:19Z</time></trkpt><trkpt lat="45.021290993827634" lon="0.94175528220839"><ele>237.0</ele><time>2026-03-29T10:21:20Z</time></trkpt><trkpt lat="45.021401783445235" lon="0.941772788954585"><ele>237.0</ele><time>2026-03-29T10:21:22Z</time></trkpt><trkpt lat="45.0215069362219" lon="0.9418661000674207"><ele>237.0</ele><time>2026-03-29T10:21:24Z</time></trkpt><trkpt lat="45.02156596345759" lon="0.9419044660061063"><ele>237.0</ele><time>2026-03-29T10:21:25Z</time></trkpt><trkpt lat="45.02163284303938" lon="0.9418781943038258"><ele>237.0</ele><time>2026-03-29T10:21:26Z</time></trkpt><trkpt lat="45.02171703661141" lon="0.941842330098118"><ele>237.0</ele><time>2026-03-29T10:21:27Z</time></trkpt><trkpt lat="45.021797522259924" lon="0.9418312554643206"><ele>237.0</ele><time>2026-03-29T10:21:28Z</time></trkpt><trkpt lat="45.0218814250165" lon="0.9417996080646782"><ele>237.0</ele><time>2026-03-29T10:21:29Z</time></trkpt><trkpt lat="45.02195836615129" lon="0.9417811704262709"><ele>236.39999999999998</ele><time>2026-03-29T10:21:30Z</time></trkpt><trkpt lat="45.02204757928052" lon="0.9417527861539784"><ele>235.79999999999998</ele><time>2026-03-29T10:21:31Z</time></trkpt><trkpt lat="45.02214065537626" lon="0.9417259335781875"><ele>235.2</ele><time>2026-03-29T10:21:32Z</time></trkpt><trkpt lat="45.02222476162245" lon="0.9416695976117628"><ele>234.6</ele><time>2026-03-29T10:21:33Z</time></trkpt><trkpt lat="45.02231275992362" lon="0.9416176952405909"><ele>234.0</ele><time>2026-03-29T10:21:34Z</time></trkpt><trkpt lat="45.022400799772015" lon="0.9415771393724692"><ele>234.0</ele><time>2026-03-29T10:21:35Z</time></trkpt><trkpt lat="45.022474312043755" lon="0.9415272838865659"><ele>234.0</ele><time>2026-03-29T10:21:36Z</time></trkpt><trkpt lat="45.022560187574136" lon="0.9414755724513145"><ele>234.0</ele><time>2026-03-29T10:21:37Z</time></trkpt><trkpt lat="45.02263277186144" lon="0.9414545411429988"><ele>234.0</ele><time>2026-03-29T10:21:37.999Z</time></trkpt><trkpt lat="45.02268819479035" lon="0.9414118460011741"><ele>234.0</ele><time>2026-03-29T10:21:38.999Z</time></trkpt><trkpt lat="45.022728171737974" lon="0.9413245285762871"><ele>234.0</ele><time>2026-03-29T10:21:39.999Z</time></trkpt><trkpt lat="45.02276140022473" lon="0.9412075632230242"><ele>234.33333333333334</ele><time>2026-03-29T10:21:40.999Z</time></trkpt><trkpt lat="45.02277087189232" lon="0.9411015160885571"><ele>234.66666666666669</ele><time>2026-03-29T10:21:41.999Z</time></trkpt><trkpt lat="45.02278663586664" lon="0.9410001393182204"><ele>235.0</ele><time>2026-03-29T10:21:42.999Z</time></trkpt><trkpt lat="45.02281262058091" lon="0.940900010630926"><ele>235.33333333333334</ele><time>2026-03-29T10:21:43.999Z</time></trkpt><trkpt lat="45.02283950646789" lon="0.9407935559774376"><ele>235.66666666666669</ele><time>2026-03-29T10:21:44.999Z</time></trkpt><trkpt lat="45.02285674830946" lon="0.9407034804150735"><ele>236.0</ele><time>2026-03-29T10:21:45.999Z</time></trkpt><trkpt lat="45.02289656158879" lon="0.9405528661796997"><ele>235.33333333333334</ele><time>2026-03-29T10:21:47.999Z</time></trkpt><trkpt lat="45.02292917834324" lon="0.9404613507771608"><ele>234.66666666666669</ele><time>2026-03-29T10:21:48.999Z</time></trkpt><trkpt lat="45.02297457480077" lon="0.9403726861975783"><ele>234.0</ele><time>2026-03-29T10:21:49.999Z</time></trkpt><trkpt lat="45.023022218046194" lon="0.9402873767249349"><ele>233.33333333333331</ele><time>2026-03-29T10:21:50.999Z</time></trkpt><trkpt lat="45.02305306827258" lon="0.9401853603811205"><ele>232.66666666666666</ele><time>2026-03-29T10:21:51.999Z</time></trkpt><trkpt lat="45.023096230324626" lon="0.9400811098973179"><ele>232.0</ele><time>2026-03-29T10:21:52.999Z</time></trkpt><trkpt lat="45.02314128006742" lon="0.939990450328126"><ele>230.66666666666666</ele><time>2026-03-29T10:21:53.999Z</time></trkpt><trkpt lat="45.02318446956737" lon="0.939901623495507"><ele>229.33333333333331</ele><time>2026-03-29T10:21:54.999Z</time></trkpt><trkpt lat="45.02322785921128" lon="0.9398107971873719"><ele>228.0</ele><time>2026-03-29T10:21:55.999Z</time></trkpt><trkpt lat="45.0232728349808" lon="0.9397181403611564"><ele>226.66666666666669</ele><time>2026-03-29T10:21:56.999Z</time></trkpt><trkpt lat="45.02331003616595" lon="0.9396365880536658"><ele>225.33333333333334</ele><time>2026-03-29T10:21:57.999Z</time></trkpt><trkpt lat="45.023346590813354" lon="0.9395516068916253"><ele>224.0</ele><time>2026-03-29T10:21:58.999Z</time></trkpt><trkpt lat="45.02338609229049" lon="0.9394518331002547"><ele>224.0</ele><time>2026-03-29T10:21:59.999Z</time></trkpt><trkpt lat="45.02341691735223" lon="0.9393714972367342"><ele>224.0</ele><time>2026-03-29T10:22:00.999Z</time></trkpt><trkpt lat="45.02345924282521" lon="0.9392867335761087"><ele>224.0</ele><time>2026-03-29T10:22:01.999Z</time></trkpt><trkpt lat="45.02350900670024" lon="0.9392191007992409"><ele>224.0</ele><time>2026-03-29T10:22:02.999Z</time></trkpt><trkpt lat="45.02355779404731" lon="0.939160646571501"><ele>224.0</ele><time>2026-03-29T10:22:03.999Z</time></trkpt><trkpt lat="45.023619361322105" lon="0.9390868914520099"><ele>224.0</ele><time>2026-03-29T10:22:04.999Z</time></trkpt><trkpt lat="45.0236881772935" lon="0.9390093461541836"><ele>224.0</ele><time>2026-03-29T10:22:05.999Z</time></trkpt><trkpt lat="45.0237442617921" lon="0.9389343676668467"><ele>221.28571428571428</ele><time>2026-03-29T10:22:06.999Z</time></trkpt><trkpt lat="45.02379855465508" lon="0.938865451017899"><ele>218.57142857142856</ele><time>2026-03-29T10:22:07.999Z</time></trkpt><trkpt lat="45.02385355810334" lon="0.9387839799785933"><ele>215.85714285714286</ele><time>2026-03-29T10:22:08.999Z</time></trkpt><trkpt lat="45.02389800171344" lon="0.9386967536103673"><ele>213.14285714285714</ele><time>2026-03-29T10:22:09.999Z</time></trkpt><trkpt lat="45.02393796979244" lon="0.938627645665228"><ele>210.42857142857142</ele><time>2026-03-29T10:22:10.999Z</time></trkpt><trkpt lat="45.02398985089068" lon="0.9385467390834225"><ele>207.71428571428572</ele><time>2026-03-29T10:22:11.999Z</time></trkpt><trkpt lat="45.02403706103511" lon="0.9384663821883119"><ele>205.0</ele><time>2026-03-29T10:22:12.999Z</time></trkpt><trkpt lat="45.024080853184756" lon="0.9383978858489261"><ele>202.75</ele><time>2026-03-29T10:22:13.999Z</time></trkpt><trkpt lat="45.024174841872714" lon="0.9382931357997487"><ele>200.5</ele><time>2026-03-29T10:22:15.999Z</time></trkpt><trkpt lat="45.02426286726006" lon="0.9381832019442128"><ele>198.25</ele><time>2026-03-29T10:22:17.999Z</time></trkpt><trkpt lat="45.02434261555071" lon="0.9380776435136255"><ele>196.0</ele><time>2026-03-29T10:22:19.999Z</time></trkpt><trkpt lat="45.02443026401245" lon="0.9379722664394787"><ele>195.99999999999997</ele><time>2026-03-29T10:22:21.999Z</time></trkpt><trkpt lat="45.024517897538956" lon="0.9378884045286066"><ele>196.0</ele><time>2026-03-29T10:22:23.999Z</time></trkpt><trkpt lat="45.02459511768065" lon="0.9378419868043548"><ele>196.0</ele><time>2026-03-29T10:22:25.999Z</time></trkpt><trkpt lat="45.02465469025084" lon="0.9377767789450921"><ele>196.0</ele><time>2026-03-29T10:22:28.999Z</time></trkpt><trkpt lat="45.02471407040915" lon="0.9377230957861392"><ele>195.99999999999997</ele><time>2026-03-29T10:22:38.998Z</time></trkpt><trkpt lat="45.0248005621208" lon="0.9376567596142455"><ele>196.0</ele><time>2026-03-29T10:22:40.998Z</time></trkpt><trkpt lat="45.02485394875105" lon="0.9376089936653083"><ele>195.99999999999997</ele><time>2026-03-29T10:22:41.998Z</time></trkpt><trkpt lat="45.02490860294212" lon="0.9375549374699214"><ele>196.0</ele><time>2026-03-29T10:22:42.998Z</time></trkpt><trkpt lat="45.02498037697574" lon="0.9375031532407694"><ele>196.0</ele><time>2026-03-29T10:22:43.998Z</time></trkpt><trkpt lat="45.02503835676637" lon="0.9374522742677851"><ele>196.0</ele><time>2026-03-29T10:22:44.998Z</time></trkpt><trkpt lat="45.02510638426643" lon="0.9374112944840769"><ele>195.99999999999997</ele><time>2026-03-29T10:22:45.998Z</time></trkpt><trkpt lat="45.02518679297002" lon="0.9373844841845568"><ele>196.0</ele><time>2026-03-29T10:22:46.998Z</time></trkpt><trkpt lat="45.02525844196596" lon="0.9373399055038077"><ele>197.0</ele><time>2026-03-29T10:22:47.998Z</time></trkpt><trkpt lat="45.025348990233944" lon="0.9372931725387292"><ele>198.0</ele><time>2026-03-29T10:22:49.998Z</time></trkpt><trkpt lat="45.025479753932466" lon="0.9373736365031455"><ele>199.0</ele><time>2026-03-29T10:22:51.998Z</time></trkpt><trkpt lat="45.025537855342314" lon="0.9374604778769631"><ele>200.0</ele><time>2026-03-29T10:22:52.998Z</time></trkpt><trkpt lat="45.025606884183574" lon="0.9375313945631057"><ele>201.0</ele><time>2026-03-29T10:22:53.998Z</time></trkpt><trkpt lat="45.02570651159517" lon="0.9375869501945002"><ele>198.4</ele><time>2026-03-29T10:22:55.998Z</time></trkpt><trkpt lat="45.02577837137826" lon="0.9375316680135032"><ele>195.8</ele><time>2026-03-29T10:22:57.998Z</time></trkpt><trkpt lat="45.02586955929679" lon="0.9375116548247168"><ele>193.20000000000002</ele><time>2026-03-29T10:22:58.998Z</time></trkpt><trkpt lat="45.02596705207751" lon="0.9375210379648011"><ele>190.60000000000002</ele><time>2026-03-29T10:22:59.998Z</time></trkpt><trkpt lat="45.02608926902646" lon="0.937520828844505"><ele>188.0</ele><time>2026-03-29T10:23:00.998Z</time></trkpt><trkpt lat="45.026207833423854" lon="0.9375006992455237"><ele>188.0</ele><time>2026-03-29T10:23:01.998Z</time></trkpt><trkpt lat="45.02631214588501" lon="0.9374904829298536"><ele>188.0</ele><time>2026-03-29T10:23:02.998Z</time></trkpt><trkpt lat="45.02638613718124" lon="0.9374823494644582"><ele>188.0</ele><time>2026-03-29T10:23:03.998Z</time></trkpt><trkpt lat="45.02644901794265" lon="0.9374361442220637"><ele>188.0</ele><time>2026-03-29T10:23:04.998Z</time></trkpt><trkpt lat="45.0265177709646" lon="0.9374215063196206"><ele>188.0</ele><time>2026-03-29T10:23:05.998Z</time></trkpt><trkpt lat="45.026587114087654" lon="0.9374338380488485"><ele>188.0</ele><time>2026-03-29T10:23:07Z</time></trkpt><trkpt lat="45.0266611313347" lon="0.9374874174452927"><ele>188.60000000000002</ele><time>2026-03-29T10:23:08Z</time></trkpt><trkpt lat="45.02673127747172" lon="0.9374994251120445"><ele>189.20000000000002</ele><time>2026-03-29T10:23:09Z</time></trkpt><trkpt lat="45.02679695038978" lon="0.9375210482335813"><ele>189.8</ele><time>2026-03-29T10:23:10Z</time></trkpt><trkpt lat="45.02696119633437" lon="0.9375376920051586"><ele>190.4</ele><time>2026-03-29T10:23:12Z</time></trkpt><trkpt lat="45.027066463662386" lon="0.9375131974168588"><ele>191.0</ele><time>2026-03-29T10:23:13Z</time></trkpt><trkpt lat="45.02717620885542" lon="0.9375065789267736"><ele>191.0</ele><time>2026-03-29T10:23:14Z</time></trkpt><trkpt lat="45.027243848015374" lon="0.9374900451133233"><ele>191.0</ele><time>2026-03-29T10:23:15Z</time></trkpt><trkpt lat="45.02731542256018" lon="0.937467488839406"><ele>191.0</ele><time>2026-03-29T10:23:16Z</time></trkpt><trkpt lat="45.02741137405428" lon="0.9374614030765399"><ele>191.0</ele><time>2026-03-29T10:23:17Z</time></trkpt><trkpt lat="45.027482162371605" lon="0.9374606316126066"><ele>191.0</ele><time>2026-03-29T10:23:18Z</time></trkpt><trkpt lat="45.02756779503451" lon="0.937472206026193"><ele>191.0</ele><time>2026-03-29T10:23:19Z</time></trkpt><trkpt lat="45.027634397262425" lon="0.9374534491532399"><ele>191.33333333333331</ele><time>2026-03-29T10:23:20Z</time></trkpt><trkpt lat="45.02770570978975" lon="0.9374232531616914"><ele>191.66666666666666</ele><time>2026-03-29T10:23:21Z</time></trkpt><trkpt lat="45.0277880439414" lon="0.9374101714204666"><ele>192.0</ele><time>2026-03-29T10:23:22Z</time></trkpt><trkpt lat="45.02787663175169" lon="0.9374283596873005"><ele>192.33333333333331</ele><time>2026-03-29T10:23:23Z</time></trkpt><trkpt lat="45.02796152912694" lon="0.9374292979691671"><ele>192.66666666666666</ele><time>2026-03-29T10:23:24Z</time></trkpt><trkpt lat="45.028035352040206" lon="0.9374233985072679"><ele>193.0</ele><time>2026-03-29T10:23:25Z</time></trkpt><trkpt lat="45.028095360212156" lon="0.9373954779521441"><ele>192.99999999999997</ele><time>2026-03-29T10:23:26Z</time></trkpt><trkpt lat="45.02815604566483" lon="0.9373369746697362"><ele>193.0</ele><time>2026-03-29T10:23:27Z</time></trkpt><trkpt lat="45.02824332619029" lon="0.9373188404492606"><ele>193.0</ele><time>2026-03-29T10:23:28Z</time></trkpt><trkpt lat="45.02832638459366" lon="0.9373115703056265"><ele>193.0</ele><time>2026-03-29T10:23:29Z</time></trkpt><trkpt lat="45.02840105762338" lon="0.9373207265600284"><ele>192.99999999999997</ele><time>2026-03-29T10:23:30Z</time></trkpt><trkpt lat="45.02848734309974" lon="0.937343927488642"><ele>193.0</ele><time>2026-03-29T10:23:31Z</time></trkpt><trkpt lat="45.02857743445254" lon="0.9373797336431023"><ele>193.2</ele><time>2026-03-29T10:23:32Z</time></trkpt><trkpt lat="45.02865003332184" lon="0.9374044194496093"><ele>193.4</ele><time>2026-03-29T10:23:33Z</time></trkpt><trkpt lat="45.02871541297068" lon="0.9374051255174167"><ele>193.6</ele><time>2026-03-29T10:23:34Z</time></trkpt><trkpt lat="45.028835522891754" lon="0.9372967220379587"><ele>193.79999999999998</ele><time>2026-03-29T10:23:36Z</time></trkpt><trkpt lat="45.02892517353398" lon="0.9372716635635041"><ele>194.0</ele><time>2026-03-29T10:23:37Z</time></trkpt><trkpt lat="45.029012673552174" lon="0.9372539814330456"><ele>194.00000000000003</ele><time>2026-03-29T10:23:38Z</time></trkpt><trkpt lat="45.02910465495565" lon="0.9372428419136832"><ele>194.0</ele><time>2026-03-29T10:23:39Z</time></trkpt><trkpt lat="45.029170745791646" lon="0.9372221637110408"><ele>194.0</ele><time>2026-03-29T10:23:40Z</time></trkpt><trkpt lat="45.02928598068075" lon="0.9371877462885789"><ele>194.0</ele><time>2026-03-29T10:23:42Z</time></trkpt><trkpt lat="45.02934826363341" lon="0.9372335133750566"><ele>194.00000000000003</ele><time>2026-03-29T10:23:43Z</time></trkpt><trkpt lat="45.029421328122936" lon="0.9373090212918115"><ele>194.0</ele><time>2026-03-29T10:23:44Z</time></trkpt><trkpt lat="45.029502536130764" lon="0.9373712204161594"><ele>193.66666666666669</ele><time>2026-03-29T10:23:44.999Z</time></trkpt><trkpt lat="45.02958902812945" lon="0.9374254092492289"><ele>193.33333333333334</ele><time>2026-03-29T10:23:45.999Z</time></trkpt><trkpt lat="45.029675290895966" lon="0.9374681118577702"><ele>193.0</ele><time>2026-03-29T10:23:46.999Z</time></trkpt><trkpt lat="45.029755571138885" lon="0.9374888912982842"><ele>192.66666666666669</ele><time>2026-03-29T10:23:47.999Z</time></trkpt><trkpt lat="45.02982610813777" lon="0.937515578459107"><ele>192.33333333333334</ele><time>2026-03-29T10:23:48.999Z</time></trkpt><trkpt lat="45.029914576897134" lon="0.9375577525778956"><ele>192.0</ele><time>2026-03-29T10:23:49.999Z</time></trkpt><trkpt lat="45.0299939478812" lon="0.9376149899393814"><ele>194.39999999999998</ele><time>2026-03-29T10:23:50.999Z</time></trkpt><trkpt lat="45.030088577938045" lon="0.9376580032655585"><ele>196.79999999999998</ele><time>2026-03-29T10:23:51.999Z</time></trkpt><trkpt lat="45.030182856100275" lon="0.9376970745901819"><ele>199.2</ele><time>2026-03-29T10:23:52.999Z</time></trkpt><trkpt lat="45.03027487923921" lon="0.937756105923883"><ele>201.6</ele><time>2026-03-29T10:23:53.999Z</time></trkpt><trkpt lat="45.030367167077046" lon="0.9378161230348191"><ele>204.0</ele><time>2026-03-29T10:23:54.999Z</time></trkpt><trkpt lat="45.030463549592454" lon="0.9378762952087113"><ele>204.0</ele><time>2026-03-29T10:23:55.999Z</time></trkpt><trkpt lat="45.03055699892786" lon="0.9379395138562902"><ele>204.0</ele><time>2026-03-29T10:23:56.999Z</time></trkpt><trkpt lat="45.030638362535136" lon="0.9380069868113565"><ele>204.0</ele><time>2026-03-29T10:23:57.999Z</time></trkpt><trkpt lat="45.03069705509412" lon="0.9380634535705477"><ele>204.0</ele><time>2026-03-29T10:23:58.999Z</time></trkpt><trkpt lat="45.030799669173575" lon="0.9381354980543863"><ele>204.0</ele><time>2026-03-29T10:23:59.999Z</time></trkpt><trkpt lat="45.03087918336939" lon="0.9381774330139563"><ele>201.5</ele><time>2026-03-29T10:24:00.999Z</time></trkpt><trkpt lat="45.03096567682001" lon="0.9382063321315799"><ele>199.0</ele><time>2026-03-29T10:24:01.999Z</time></trkpt><trkpt lat="45.03103171442074" lon="0.9382312502749108"><ele>196.5</ele><time>2026-03-29T10:24:02.999Z</time></trkpt><trkpt lat="45.03110239926396" lon="0.9382933518881393"><ele>194.0</ele><time>2026-03-29T10:24:03.999Z</time></trkpt><trkpt lat="45.031166690976626" lon="0.9383377937636957"><ele>191.5</ele><time>2026-03-29T10:24:04.999Z</time></trkpt><trkpt lat="45.03128306967697" lon="0.9383276653730666"><ele>189.0</ele><time>2026-03-29T10:24:06.999Z</time></trkpt><trkpt lat="45.03141028322614" lon="0.9383194884947447"><ele>189.0</ele><time>2026-03-29T10:24:08.999Z</time></trkpt><trkpt lat="45.03147282224368" lon="0.9383737724288475"><ele>189.0</ele><time>2026-03-29T10:24:09.999Z</time></trkpt><trkpt lat="45.0315234977983" lon="0.9384740125529744"><ele>189.0</ele><time>2026-03-29T10:24:10.999Z</time></trkpt><trkpt lat="45.03158148467605" lon="0.9385570326959531"><ele>189.0</ele><time>2026-03-29T10:24:11.999Z</time></trkpt><trkpt lat="45.03164736023983" lon="0.9386347614251682"><ele>189.0</ele><time>2026-03-29T10:24:12.999Z</time></trkpt><trkpt lat="45.03170346109022" lon="0.9387139292586113"><ele>189.0</ele><time>2026-03-29T10:24:13.999Z</time></trkpt><trkpt lat="45.03176057073754" lon="0.9387755998740154"><ele>189.0</ele><time>2026-03-29T10:24:14.999Z</time></trkpt><trkpt lat="45.03181820905417" lon="0.9388414046971907"><ele>189.0</ele><time>2026-03-29T10:24:15.999Z</time></trkpt><trkpt lat="45.031888226796795" lon="0.9388882069986888"><ele>189.0</ele><time>2026-03-29T10:24:16.999Z</time></trkpt><trkpt lat="45.031958639883285" lon="0.938901824099518"><ele>189.0</ele><time>2026-03-29T10:24:17.999Z</time></trkpt><trkpt lat="45.032041887406" lon="0.9389322885870998"><ele>189.0</ele><time>2026-03-29T10:24:18.999Z</time></trkpt><trkpt lat="45.032117980525875" lon="0.9389495298470355"><ele>189.0</ele><time>2026-03-29T10:24:19.999Z</time></trkpt><trkpt lat="45.03220105384634" lon="0.9389353239611652"><ele>189.0</ele><time>2026-03-29T10:24:20.999Z</time></trkpt><trkpt lat="45.03226052965706" lon="0.9388960025763329"><ele>189.0</ele><time>2026-03-29T10:24:21.999Z</time></trkpt><trkpt lat="45.03235073966368" lon="0.9387882989268104"><ele>189.0</ele><time>2026-03-29T10:24:23.999Z</time></trkpt><trkpt lat="45.032411981384094" lon="0.9387587480457902"><ele>189.0</ele><time>2026-03-29T10:24:24.999Z</time></trkpt><trkpt lat="45.03252823850064" lon="0.9387651908844915"><ele>189.0</ele><time>2026-03-29T10:24:26.999Z</time></trkpt><trkpt lat="45.032640928352436" lon="0.9387704386473531"><ele>187.66666666666666</ele><time>2026-03-29T10:24:28.999Z</time></trkpt><trkpt lat="45.032747435128755" lon="0.9388168982104177"><ele>186.33333333333334</ele><time>2026-03-29T10:24:30.999Z</time></trkpt><trkpt lat="45.032813736842364" lon="0.938836054543343"><ele>185.0</ele><time>2026-03-29T10:24:31.999Z</time></trkpt><trkpt lat="45.032889397448315" lon="0.9388732350962622"><ele>183.66666666666669</ele><time>2026-03-29T10:24:32.999Z</time></trkpt><trkpt lat="45.032953882388966" lon="0.9388891153612818"><ele>182.33333333333334</ele><time>2026-03-29T10:24:33.999Z</time></trkpt><trkpt lat="45.033024826546665" lon="0.9389192356963747"><ele>181.0</ele><time>2026-03-29T10:24:34.999Z</time></trkpt><trkpt lat="45.033094535596874" lon="0.9389536855963957"><ele>181.0</ele><time>2026-03-29T10:24:35.999Z</time></trkpt><trkpt lat="45.033178385104286" lon="0.9389815614869461"><ele>181.0</ele><time>2026-03-29T10:24:36.999Z</time></trkpt><trkpt lat="45.033264456001696" lon="0.939022473537133"><ele>181.0</ele><time>2026-03-29T10:24:37.998Z</time></trkpt><trkpt lat="45.03335793006471" lon="0.9390670038150538"><ele>181.0</ele><time>2026-03-29T10:24:38.998Z</time></trkpt><trkpt lat="45.03344253758202" lon="0.9390877881857121"><ele>181.0</ele><time>2026-03-29T10:24:39.998Z</time></trkpt><trkpt lat="45.03354822743086" lon="0.9391129267606045"><ele>181.0</ele><time>2026-03-29T10:24:40.998Z</time></trkpt><trkpt lat="45.03364401588275" lon="0.9391400384511558"><ele>181.0</ele><time>2026-03-29T10:24:41.998Z</time></trkpt><trkpt lat="45.03372768520033" lon="0.9391830315034082"><ele>181.0</ele><time>2026-03-29T10:24:42.998Z</time></trkpt><trkpt lat="45.033809739330536" lon="0.9392314817319896"><ele>181.0</ele><time>2026-03-29T10:24:43.998Z</time></trkpt><trkpt lat="45.03387579383188" lon="0.9392889805865183"><ele>181.0</ele><time>2026-03-29T10:24:44.998Z</time></trkpt><trkpt lat="45.033954974392536" lon="0.9393377200743783"><ele>181.0</ele><time>2026-03-29T10:24:45.998Z</time></trkpt><trkpt lat="45.03405733037998" lon="0.9394142769934827"><ele>185.5</ele><time>2026-03-29T10:24:46.998Z</time></trkpt><trkpt lat="45.03416140664657" lon="0.9394956199320887"><ele>190.0</ele><time>2026-03-29T10:24:47.998Z</time></trkpt><trkpt lat="45.034271012652276" lon="0.9395669556045648"><ele>194.5</ele><time>2026-03-29T10:24:48.998Z</time></trkpt><trkpt lat="45.034371711711344" lon="0.9396334001324657"><ele>199.0</ele><time>2026-03-29T10:24:49.998Z</time></trkpt><trkpt lat="45.0344688059215" lon="0.939684994341213"><ele>199.0</ele><time>2026-03-29T10:24:50.998Z</time></trkpt><trkpt lat="45.03456190446286" lon="0.9397349895075094"><ele>199.0</ele><time>2026-03-29T10:24:51.998Z</time></trkpt><trkpt lat="45.03464372472922" lon="0.9397888738318889"><ele>199.0</ele><time>2026-03-29T10:24:52.998Z</time></trkpt><trkpt lat="45.03472208372274" lon="0.9398606482725351"><ele>199.0</ele><time>2026-03-29T10:24:53.998Z</time></trkpt><trkpt lat="45.03479754550733" lon="0.9399523885678422"><ele>199.0</ele><time>2026-03-29T10:24:54.998Z</time></trkpt><trkpt lat="45.03487231587432" lon="0.940048668100828"><ele>199.66666666666666</ele><time>2026-03-29T10:24:55.998Z</time></trkpt><trkpt lat="45.0349393731414" lon="0.9401183746345496"><ele>200.33333333333331</ele><time>2026-03-29T10:24:56.998Z</time></trkpt><trkpt lat="45.03499243340177" lon="0.9401772741997022"><ele>201.0</ele><time>2026-03-29T10:24:57.998Z</time></trkpt><trkpt lat="45.03507526078857" lon="0.9402955187279428"><ele>201.66666666666669</ele><time>2026-03-29T10:24:59.998Z</time></trkpt><trkpt lat="45.035100185391606" lon="0.9403985966207422"><ele>202.33333333333334</ele><time>2026-03-29T10:25:01.998Z</time></trkpt><trkpt lat="45.035183473528136" lon="0.9404419396906892"><ele>203.0</ele><time>2026-03-29T10:25:04.998Z</time></trkpt><trkpt lat="45.03525626099681" lon="0.9404536491090346"><ele>203.00000000000003</ele><time>2026-03-29T10:25:06.998Z</time></trkpt><trkpt lat="45.035342019632814" lon="0.9404056998481283"><ele>203.0</ele><time>2026-03-29T10:25:08.998Z</time></trkpt><trkpt lat="45.03542512797208" lon="0.9403401865597737"><ele>203.0</ele><time>2026-03-29T10:25:10.998Z</time></trkpt><trkpt lat="45.03550062065016" lon="0.9402707098114561"><ele>203.0</ele><time>2026-03-29T10:25:13Z</time></trkpt><trkpt lat="45.035580762813" lon="0.9402538419212347"><ele>203.00000000000003</ele><time>2026-03-29T10:25:15Z</time></trkpt><trkpt lat="45.03565515252963" lon="0.9402383781511024"><ele>203.0</ele><time>2026-03-29T10:25:17Z</time></trkpt><trkpt lat="45.03572453712997" lon="0.9401777130703519"><ele>203.0</ele><time>2026-03-29T10:25:19Z</time></trkpt><trkpt lat="45.035793339669596" lon="0.9400721630770988"><ele>203.0</ele><time>2026-03-29T10:25:21Z</time></trkpt><trkpt lat="45.0358412100586" lon="0.9399674951002764"><ele>203.0</ele><time>2026-03-29T10:25:23Z</time></trkpt><trkpt lat="45.035881306164924" lon="0.9398622654892769"><ele>203.0</ele><time>2026-03-29T10:25:25Z</time></trkpt><trkpt lat="45.035915428797274" lon="0.939737962158516"><ele>203.0</ele><time>2026-03-29T10:25:27Z</time></trkpt><trkpt lat="45.036097127760314" lon="0.9397002730761961"><ele>199.16666666666669</ele><time>2026-03-29T10:25:28Z</time></trkpt><trkpt lat="45.03607144591345" lon="0.9395671745886705"><ele>195.33333333333334</ele><time>2026-03-29T10:25:29Z</time></trkpt><trkpt lat="45.03599839201137" lon="0.9395934576258388"><ele>191.5</ele><time>2026-03-29T10:25:35Z</time></trkpt><trkpt lat="45.036063513961345" lon="0.9395638046216302"><ele>187.66666666666669</ele><time>2026-03-29T10:26:07.999Z</time></trkpt><trkpt lat="45.03604124378423" lon="0.9396778343467665"><ele>183.83333333333334</ele><time>2026-03-29T10:26:24.999Z</time></trkpt><trkpt lat="45.03604941011754" lon="0.9398108256299996"><ele>180.0</ele><time>2026-03-29T10:26:26.999Z</time></trkpt><trkpt lat="45.03602710028069" lon="0.9399842456184624"><ele>181.0</ele><time>2026-03-29T10:26:28.999Z</time></trkpt><trkpt lat="45.03599980993892" lon="0.94008117744927"><ele>182.0</ele><time>2026-03-29T10:26:29.999Z</time></trkpt><trkpt lat="45.03596698060144" lon="0.9401754176900248"><ele>183.0</ele><time>2026-03-29T10:26:30.999Z</time></trkpt><trkpt lat="45.03593656212061" lon="0.9402637813503687"><ele>184.0</ele><time>2026-03-29T10:26:31.999Z</time></trkpt><trkpt lat="45.0358832302656" lon="0.9404092222497636"><ele>185.0</ele><time>2026-03-29T10:26:33.999Z</time></trkpt><trkpt lat="45.03583753322173" lon="0.9405184755653838"><ele>186.0</ele><time>2026-03-29T10:26:35.999Z</time></trkpt><trkpt lat="45.03601797314086" lon="0.9407286975398974"><ele>186.0</ele><time>2026-03-29T10:26:37.999Z</time></trkpt><trkpt lat="45.03613330885628" lon="0.9407726330340743"><ele>186.0</ele><time>2026-03-29T10:26:38.999Z</time></trkpt><trkpt lat="45.03625589892494" lon="0.9407836212776934"><ele>186.0</ele><time>2026-03-29T10:26:39.999Z</time></trkpt><trkpt lat="45.03635900504292" lon="0.940759647702509"><ele>186.0</ele><time>2026-03-29T10:26:40.999Z</time></trkpt><trkpt lat="45.03643632188118" lon="0.940722038133491"><ele>186.0</ele><time>2026-03-29T10:26:41.999Z</time></trkpt><trkpt lat="45.03650332337876" lon="0.9407293141340876"><ele>186.0</ele><time>2026-03-29T10:26:42.999Z</time></trkpt><trkpt lat="45.03662940899769" lon="0.9407506006228766"><ele>186.0</ele><time>2026-03-29T10:26:44.999Z</time></trkpt><trkpt lat="45.036696727831476" lon="0.9407887753277747"><ele>186.0</ele><time>2026-03-29T10:26:45.998Z</time></trkpt><trkpt lat="45.03677588204999" lon="0.9408508638165155"><ele>186.0</ele><time>2026-03-29T10:26:46.998Z</time></trkpt><trkpt lat="45.0368546302014" lon="0.9409136276035858"><ele>186.0</ele><time>2026-03-29T10:26:47.998Z</time></trkpt><trkpt lat="45.03693254559789" lon="0.9409759946371077"><ele>187.4</ele><time>2026-03-29T10:26:48.998Z</time></trkpt><trkpt lat="45.03701734541983" lon="0.9410438722505234"><ele>188.8</ele><time>2026-03-29T10:26:49.998Z</time></trkpt><trkpt lat="45.037110245806474" lon="0.9411182339527896"><ele>190.20000000000002</ele><time>2026-03-29T10:26:50.998Z</time></trkpt><trkpt lat="45.03720056251433" lon="0.9411905275746154"><ele>191.60000000000002</ele><time>2026-03-29T10:26:51.998Z</time></trkpt><trkpt lat="45.037292824479216" lon="0.9412390772304684"><ele>193.0</ele><time>2026-03-29T10:26:52.998Z</time></trkpt><trkpt lat="45.037371394816546" lon="0.9413272695280449"><ele>193.0</ele><time>2026-03-29T10:26:53.998Z</time></trkpt><trkpt lat="45.03746779540468" lon="0.9414025749319144"><ele>193.0</ele><time>2026-03-29T10:26:54.998Z</time></trkpt><trkpt lat="45.037578288517054" lon="0.9414816997652601"><ele>193.0</ele><time>2026-03-29T10:26:55.998Z</time></trkpt><trkpt lat="45.037691372906906" lon="0.9415491849498312"><ele>193.0</ele><time>2026-03-29T10:26:56.998Z</time></trkpt><trkpt lat="45.03779864772868" lon="0.9416027882883531"><ele>192.60000000000002</ele><time>2026-03-29T10:26:57.998Z</time></trkpt><trkpt lat="45.037906654675695" lon="0.9416474836221341"><ele>192.20000000000002</ele><time>2026-03-29T10:26:58.998Z</time></trkpt><trkpt lat="45.038012840582155" lon="0.9416861349855236"><ele>191.8</ele><time>2026-03-29T10:26:59.998Z</time></trkpt><trkpt lat="45.03810782879334" lon="0.9417181159899035"><ele>191.4</ele><time>2026-03-29T10:27:00.998Z</time></trkpt><trkpt lat="45.038226837105775" lon="0.9417537957871351"><ele>191.0</ele><time>2026-03-29T10:27:01.998Z</time></trkpt><trkpt lat="45.038333257807246" lon="0.9417840406458933"><ele>194.20000000000002</ele><time>2026-03-29T10:27:02.998Z</time></trkpt><trkpt lat="45.03841575263361" lon="0.9418113021746134"><ele>197.4</ele><time>2026-03-29T10:27:03.998Z</time></trkpt><trkpt lat="45.03849914101057" lon="0.9418437223447135"><ele>200.6</ele><time>2026-03-29T10:27:04.998Z</time></trkpt><trkpt lat="45.03862469755268" lon="0.9419205845595231"><ele>203.8</ele><time>2026-03-29T10:27:06.998Z</time></trkpt><trkpt lat="45.038690845256646" lon="0.9419699562265103"><ele>207.0</ele><time>2026-03-29T10:27:07.998Z</time></trkpt><trkpt lat="45.03875564732667" lon="0.942021671757814"><ele>207.0</ele><time>2026-03-29T10:27:08.998Z</time></trkpt><trkpt lat="45.03882267518125" lon="0.9420815823203396"><ele>207.0</ele><time>2026-03-29T10:27:09.998Z</time></trkpt><trkpt lat="45.03888851802424" lon="0.942150842712192"><ele>207.0</ele><time>2026-03-29T10:27:10.998Z</time></trkpt><trkpt lat="45.0389684283187" lon="0.9422474006658887"><ele>207.0</ele><time>2026-03-29T10:27:11.998Z</time></trkpt><trkpt lat="45.039044559728126" lon="0.9423393069596426"><ele>207.0</ele><time>2026-03-29T10:27:12.998Z</time></trkpt><trkpt lat="45.039121473293974" lon="0.942433530173319"><ele>205.5</ele><time>2026-03-29T10:27:13.998Z</time></trkpt><trkpt lat="45.03919184671774" lon="0.9425186814088864"><ele>204.0</ele><time>2026-03-29T10:27:14.998Z</time></trkpt><trkpt lat="45.0392536260062" lon="0.9425929252216424"><ele>202.5</ele><time>2026-03-29T10:27:15.998Z</time></trkpt><trkpt lat="45.03932871282684" lon="0.942683149270349"><ele>201.0</ele><time>2026-03-29T10:27:16.998Z</time></trkpt><trkpt lat="45.0393880723218" lon="0.9427520866562731"><ele>199.5</ele><time>2026-03-29T10:27:17.998Z</time></trkpt><trkpt lat="45.03943753878958" lon="0.9428095347817095"><ele>198.0</ele><time>2026-03-29T10:27:19Z</time></trkpt><trkpt lat="45.03949910409252" lon="0.9428583854392689"><ele>198.0</ele><time>2026-03-29T10:27:20Z</time></trkpt><trkpt lat="45.039924340734586" lon="0.9422105642226059"><ele>198.0</ele><time>2026-03-29T10:27:22Z</time></trkpt><trkpt lat="45.03995155752497" lon="0.9420934758925805"><ele>198.0</ele><time>2026-03-29T10:27:23Z</time></trkpt><trkpt lat="45.03998741864577" lon="0.9419870582320984"><ele>198.0</ele><time>2026-03-29T10:27:24Z</time></trkpt><trkpt lat="45.04003917583558" lon="0.9418811863291104"><ele>198.0</ele><time>2026-03-29T10:27:25Z</time></trkpt><trkpt lat="45.04008322270619" lon="0.9417848187221359"><ele>198.0</ele><time>2026-03-29T10:27:26Z</time></trkpt><trkpt lat="45.04020856103741" lon="0.9417214786904967"><ele>196.66666666666666</ele><time>2026-03-29T10:27:28Z</time></trkpt><trkpt lat="45.04028247005509" lon="0.9417810347815027"><ele>195.33333333333334</ele><time>2026-03-29T10:27:29Z</time></trkpt><trkpt lat="45.040341027505235" lon="0.9418824901059872"><ele>194.0</ele><time>2026-03-29T10:27:30Z</time></trkpt><trkpt lat="45.04040042329792" lon="0.941962391166213"><ele>192.66666666666669</ele><time>2026-03-29T10:27:31Z</time></trkpt><trkpt lat="45.0404802830298" lon="0.9420269938692836"><ele>191.33333333333334</ele><time>2026-03-29T10:27:32Z</time></trkpt><trkpt lat="45.04054832461702" lon="0.9420714847418594"><ele>190.0</ele><time>2026-03-29T10:27:33Z</time></trkpt><trkpt lat="45.04062406951956" lon="0.9421639155480573"><ele>190.0</ele><time>2026-03-29T10:27:35Z</time></trkpt><trkpt lat="45.040714714407265" lon="0.942231686919515"><ele>190.0</ele><time>2026-03-29T10:27:45Z</time></trkpt><trkpt lat="45.04078322915275" lon="0.9422958697433476"><ele>190.0</ele><time>2026-03-29T10:27:46Z</time></trkpt><trkpt lat="45.04085946184217" lon="0.9423493874309277"><ele>190.0</ele><time>2026-03-29T10:27:47Z</time></trkpt><trkpt lat="45.04093598921079" lon="0.9423933404232677"><ele>190.0</ele><time>2026-03-29T10:27:48Z</time></trkpt><trkpt lat="45.04101090450028" lon="0.9424525408759992"><ele>190.0</ele><time>2026-03-29T10:27:49Z</time></trkpt><trkpt lat="45.0410903642385" lon="0.9424986998986203"><ele>190.83333333333334</ele><time>2026-03-29T10:27:50Z</time></trkpt><trkpt lat="45.04117477816575" lon="0.9425199972991751"><ele>191.66666666666669</ele><time>2026-03-29T10:27:51Z</time></trkpt><trkpt lat="45.041238758702384" lon="0.9425218637772236"><ele>192.5</ele><time>2026-03-29T10:27:52Z</time></trkpt><trkpt lat="45.04123247854207" lon="0.9423981716916676"><ele>193.33333333333334</ele><time>2026-03-29T10:27:55Z</time></trkpt><trkpt lat="45.041172410461925" lon="0.9423542542770209"><ele>194.16666666666666</ele><time>2026-03-29T10:27:56Z</time></trkpt><trkpt lat="45.04111353955663" lon="0.9422854816347407"><ele>195.0</ele><time>2026-03-29T10:27:57Z</time></trkpt><trkpt lat="45.041041085631825" lon="0.9421737992785847"><ele>195.0</ele><time>2026-03-29T10:27:58Z</time></trkpt><trkpt lat="45.040966959350676" lon="0.9420464697712951"><ele>195.0</ele><time>2026-03-29T10:27:59Z</time></trkpt><trkpt lat="45.040881035813705" lon="0.9419035434677827"><ele>195.0</ele><time>2026-03-29T10:28:00Z</time></trkpt><trkpt lat="45.04079370309402" lon="0.9417596712341284"><ele>195.0</ele><time>2026-03-29T10:28:01Z</time></trkpt><trkpt lat="45.04069193920074" lon="0.9415927125649537"><ele>194.25</ele><time>2026-03-29T10:28:02Z</time></trkpt><trkpt lat="45.040583261859595" lon="0.9414337032931183"><ele>193.5</ele><time>2026-03-29T10:28:03Z</time></trkpt><trkpt lat="45.0404904713639" lon="0.9412819710810602"><ele>192.75</ele><time>2026-03-29T10:28:03.999Z</time></trkpt><trkpt lat="45.04041492820818" lon="0.9411712952960236"><ele>192.0</ele><time>2026-03-29T10:28:04.999Z</time></trkpt><trkpt lat="45.04035576090984" lon="0.94106743017201"><ele>192.0</ele><time>2026-03-29T10:28:05.999Z</time></trkpt><trkpt lat="45.04030282376488" lon="0.9409699616645302"><ele>192.0</ele><time>2026-03-29T10:28:06.999Z</time></trkpt><trkpt lat="45.04024298640777" lon="0.9409077709605046"><ele>192.0</ele><time>2026-03-29T10:28:07.999Z</time></trkpt><trkpt lat="45.04016872587273" lon="0.9408200751216903"><ele>192.0</ele><time>2026-03-29T10:28:09.999Z</time></trkpt><trkpt lat="45.040220700254764" lon="0.9407327144902166"><ele>192.0</ele><time>2026-03-29T10:28:11.999Z</time></trkpt><trkpt lat="45.04032894488343" lon="0.9407873951742075"><ele>192.0</ele><time>2026-03-29T10:28:13.999Z</time></trkpt><trkpt lat="45.04037695799847" lon="0.9408598811545539"><ele>192.0</ele><time>2026-03-29T10:28:14.999Z</time></trkpt><trkpt lat="45.04044872374162" lon="0.9409187910586707"><ele>192.0</ele><time>2026-03-29T10:28:15.999Z</time></trkpt><trkpt lat="45.04055143882028" lon="0.9409842143137269"><ele>192.0</ele><time>2026-03-29T10:28:16.999Z</time></trkpt><trkpt lat="45.04064814395118" lon="0.9410229385143168"><ele>192.0</ele><time>2026-03-29T10:28:17.999Z</time></trkpt><trkpt lat="45.04072561730972" lon="0.941051448288445"><ele>192.0</ele><time>2026-03-29T10:28:18.999Z</time></trkpt><trkpt lat="45.0408248289323" lon="0.9410978377158851"><ele>195.0</ele><time>2026-03-29T10:28:19.999Z</time></trkpt><trkpt lat="45.04092499646112" lon="0.9411015469820085"><ele>198.0</ele><time>2026-03-29T10:28:20.999Z</time></trkpt><trkpt lat="45.0410181263939" lon="0.941086823959068"><ele>201.0</ele><time>2026-03-29T10:28:21.999Z</time></trkpt><trkpt lat="45.041115421273105" lon="0.9410500875597269"><ele>204.0</ele><time>2026-03-29T10:28:22.999Z</time></trkpt><trkpt lat="45.04119403274171" lon="0.9409867545224871"><ele>207.0</ele><time>2026-03-29T10:28:23.999Z</time></trkpt><trkpt lat="45.04127379241128" lon="0.9409136863799535"><ele>210.75</ele><time>2026-03-29T10:28:24.999Z</time></trkpt><trkpt lat="45.04134910626961" lon="0.9408056734770427"><ele>214.5</ele><time>2026-03-29T10:28:25.999Z</time></trkpt><trkpt lat="45.0414341874452" lon="0.9406774995626014"><ele>218.25</ele><time>2026-03-29T10:28:26.999Z</time></trkpt><trkpt lat="45.04153800959304" lon="0.9405302963419248"><ele>222.0</ele><time>2026-03-29T10:28:27.999Z</time></trkpt><trkpt lat="45.041628414562126" lon="0.9403790525265927"><ele>221.25</ele><time>2026-03-29T10:28:28.999Z</time></trkpt><trkpt lat="45.04171512840713" lon="0.940257987135688"><ele>220.5</ele><time>2026-03-29T10:28:29.999Z</time></trkpt><trkpt lat="45.041801605866475" lon="0.9401354516965232"><ele>219.75</ele><time>2026-03-29T10:28:30.999Z</time></trkpt><trkpt lat="45.04188557641985" lon="0.9400108137512477"><ele>219.0</ele><time>2026-03-29T10:28:31.999Z</time></trkpt><trkpt lat="45.04196465494117" lon="0.9398884363135256"><ele>221.16666666666666</ele><time>2026-03-29T10:28:32.999Z</time></trkpt><trkpt lat="45.04203051392285" lon="0.9397798204540556"><ele>223.33333333333331</ele><time>2026-03-29T10:28:33.999Z</time></trkpt><trkpt lat="45.04208869520783" lon="0.9396831714295187"><ele>225.5</ele><time>2026-03-29T10:28:34.999Z</time></trkpt><trkpt lat="45.04214779481112" lon="0.9395803438476117"><ele>227.66666666666666</ele><time>2026-03-29T10:28:35.999Z</time></trkpt><trkpt lat="45.04219491053121" lon="0.9394898531443547"><ele>229.83333333333331</ele><time>2026-03-29T10:28:36.999Z</time></trkpt><trkpt lat="45.042244695815725" lon="0.9394029771138755"><ele>232.0</ele><time>2026-03-29T10:28:37.999Z</time></trkpt><trkpt lat="45.04228661209605" lon="0.9393078499232297"><ele>231.99999999999997</ele><time>2026-03-29T10:28:38.999Z</time></trkpt><trkpt lat="45.04233474587589" lon="0.9392226207214834"><ele>232.0</ele><time>2026-03-29T10:28:39.999Z</time></trkpt><trkpt lat="45.0423779249372" lon="0.9391323533742896"><ele>232.0</ele><time>2026-03-29T10:28:40.999Z</time></trkpt><trkpt lat="45.04241465885854" lon="0.9390351320322083"><ele>232.0</ele><time>2026-03-29T10:28:41.999Z</time></trkpt><trkpt lat="45.04245257162693" lon="0.9389347657884702"><ele>231.99999999999997</ele><time>2026-03-29T10:28:42.999Z</time></trkpt><trkpt lat="45.04248357091442" lon="0.9388364143286337"><ele>232.0</ele><time>2026-03-29T10:28:43.999Z</time></trkpt><trkpt lat="45.042537864116646" lon="0.9386944775753265"><ele>232.39999999999998</ele><time>2026-03-29T10:28:45.999Z</time></trkpt><trkpt lat="45.042604000565824" lon="0.9385326034642208"><ele>232.79999999999998</ele><time>2026-03-29T10:28:47.999Z</time></trkpt><trkpt lat="45.042604917463684" lon="0.9384325691829712"><ele>233.2</ele><time>2026-03-29T10:28:48.999Z</time></trkpt><trkpt lat="45.0425977562788" lon="0.938317364880323"><ele>233.6</ele><time>2026-03-29T10:28:49.999Z</time></trkpt><trkpt lat="45.042585691661486" lon="0.938187788168886"><ele>234.0</ele><time>2026-03-29T10:28:50.999Z</time></trkpt><trkpt lat="45.04255763664183" lon="0.9380598435742822"><ele>235.0</ele><time>2026-03-29T10:28:51.999Z</time></trkpt><trkpt lat="45.04255931951468" lon="0.9379089805596627"><ele>235.99999999999997</ele><time>2026-03-29T10:28:52.999Z</time></trkpt><trkpt lat="45.042529563499045" lon="0.9377700517809007"><ele>236.99999999999997</ele><time>2026-03-29T10:28:53.999Z</time></trkpt><trkpt lat="45.042502828071775" lon="0.9376461579120218"><ele>238.0</ele><time>2026-03-29T10:28:54.999Z</time></trkpt><trkpt lat="45.04247141291483" lon="0.9375124226232895"><ele>239.0</ele><time>2026-03-29T10:28:55.999Z</time></trkpt><trkpt lat="45.0424413629" lon="0.937388969239098"><ele>239.66666666666669</ele><time>2026-03-29T10:28:56.998Z</time></trkpt><trkpt lat="45.04241287008037" lon="0.9372671129691681"><ele>240.33333333333334</ele><time>2026-03-29T10:28:57.998Z</time></trkpt><trkpt lat="45.0423883021468" lon="0.9371288845054239"><ele>241.0</ele><time>2026-03-29T10:28:58.998Z</time></trkpt><trkpt lat="45.04238167029941" lon="0.9370017406944376"><ele>241.66666666666669</ele><time>2026-03-29T10:28:59.998Z</time></trkpt><trkpt lat="45.042401146836156" lon="0.9368931278408356"><ele>242.33333333333334</ele><time>2026-03-29T10:29:00.998Z</time></trkpt><trkpt lat="45.04244711820658" lon="0.9368070492246964"><ele>243.0</ele><time>2026-03-29T10:29:01.998Z</time></trkpt><trkpt lat="45.04249404527187" lon="0.9367241956796873"><ele>243.28571428571428</ele><time>2026-03-29T10:29:02.998Z</time></trkpt><trkpt lat="45.04253760217146" lon="0.93664888511924"><ele>243.57142857142858</ele><time>2026-03-29T10:29:03.998Z</time></trkpt><trkpt lat="45.04259029512827" lon="0.9365574632533565"><ele>243.85714285714286</ele><time>2026-03-29T10:29:04.998Z</time></trkpt><trkpt lat="45.04263207048415" lon="0.9364816862399585"><ele>244.14285714285714</ele><time>2026-03-29T10:29:05.998Z</time></trkpt><trkpt lat="45.04267571598457" lon="0.9364027165349171"><ele>244.42857142857144</ele><time>2026-03-29T10:29:06.998Z</time></trkpt><trkpt lat="45.04271533190086" lon="0.9363310376556438"><ele>244.71428571428572</ele><time>2026-03-29T10:29:07.998Z</time></trkpt><trkpt lat="45.042756773133256" lon="0.936257676014336"><ele>245.0</ele><time>2026-03-29T10:29:08.998Z</time></trkpt><trkpt lat="45.04282781042219" lon="0.9361323146317873"><ele>245.00000000000003</ele><time>2026-03-29T10:29:10.998Z</time></trkpt><trkpt lat="45.042884793425024" lon="0.9360317551605664"><ele>245.0</ele><time>2026-03-29T10:29:12.998Z</time></trkpt><trkpt lat="45.0429317710155" lon="0.9359488525344941"><ele>245.0</ele><time>2026-03-29T10:29:14.998Z</time></trkpt><trkpt lat="45.04299101889809" lon="0.9358442962173997"><ele>245.0</ele><time>2026-03-29T10:29:16.998Z</time></trkpt><trkpt lat="45.04306919317921" lon="0.9357138583619431"><ele>245.00000000000003</ele><time>2026-03-29T10:29:18.998Z</time></trkpt><trkpt lat="45.04311386404634" lon="0.9356447543536243"><ele>245.0</ele><time>2026-03-29T10:29:19.998Z</time></trkpt><trkpt lat="45.04316370748672" lon="0.9355762387189283"><ele>245.16666666666669</ele><time>2026-03-29T10:29:20.998Z</time></trkpt><trkpt lat="45.043216295473314" lon="0.935508891162099"><ele>245.33333333333334</ele><time>2026-03-29T10:29:21.998Z</time></trkpt><trkpt lat="45.04326752638519" lon="0.935446042536988"><ele>245.5</ele><time>2026-03-29T10:29:22.998Z</time></trkpt><trkpt lat="45.043320239311726" lon="0.9353817464168017"><ele>245.66666666666669</ele><time>2026-03-29T10:29:23.998Z</time></trkpt><trkpt lat="45.04341223532945" lon="0.935263076006645"><ele>245.83333333333334</ele><time>2026-03-29T10:29:26Z</time></trkpt><trkpt lat="45.04345193937011" lon="0.9351767650351969"><ele>246.0</ele><time>2026-03-29T10:29:27Z</time></trkpt><trkpt lat="45.043504416569036" lon="0.9351053718380999"><ele>246.66666666666666</ele><time>2026-03-29T10:29:28Z</time></trkpt><trkpt lat="45.04356290113162" lon="0.9350256731558977"><ele>247.33333333333331</ele><time>2026-03-29T10:29:29Z</time></trkpt><trkpt lat="45.0436292825919" lon="0.9349437939295654"><ele>248.0</ele><time>2026-03-29T10:29:30Z</time></trkpt><trkpt lat="45.04369765338035" lon="0.9348532300967198"><ele>248.66666666666666</ele><time>2026-03-29T10:29:31Z</time></trkpt><trkpt lat="45.04376849366841" lon="0.9347626425067885"><ele>249.33333333333331</ele><time>2026-03-29T10:29:32Z</time></trkpt><trkpt lat="45.04384067168652" lon="0.9346890363208428"><ele>250.0</ele><time>2026-03-29T10:29:33Z</time></trkpt><trkpt lat="45.04390060692278" lon="0.934628673687787"><ele>250.0</ele><time>2026-03-29T10:29:34Z</time></trkpt><trkpt lat="45.04400935855915" lon="0.9345962459855676"><ele>250.0</ele><time>2026-03-29T10:29:36Z</time></trkpt><trkpt lat="45.04411259132648" lon="0.9347011107865179"><ele>250.0</ele><time>2026-03-29T10:29:38Z</time></trkpt><trkpt lat="45.04422066646904" lon="0.9347224363273435"><ele>250.0</ele><time>2026-03-29T10:29:40Z</time></trkpt><trkpt lat="45.044291867795955" lon="0.9347047576415467"><ele>250.0</ele><time>2026-03-29T10:29:41Z</time></trkpt><trkpt lat="45.04436732969295" lon="0.9346795713645636"><ele>250.66666666666666</ele><time>2026-03-29T10:29:42Z</time></trkpt><trkpt lat="45.044443240261586" lon="0.9346710498084437"><ele>251.33333333333331</ele><time>2026-03-29T10:29:43Z</time></trkpt><trkpt lat="45.04451190033738" lon="0.9346865946694315"><ele>252.0</ele><time>2026-03-29T10:29:44Z</time></trkpt><trkpt lat="45.04460015455599" lon="0.934721436789833"><ele>252.66666666666669</ele><time>2026-03-29T10:29:45Z</time></trkpt><trkpt lat="45.04468703586149" lon="0.9347553576721196"><ele>253.33333333333334</ele><time>2026-03-29T10:29:46Z</time></trkpt><trkpt lat="45.04476520003955" lon="0.93478236594375"><ele>254.0</ele><time>2026-03-29T10:29:47Z</time></trkpt><trkpt lat="45.04483410220567" lon="0.9348099325434324"><ele>254.0</ele><time>2026-03-29T10:29:48Z</time></trkpt><trkpt lat="45.04490239904886" lon="0.9348552629555271"><ele>253.99999999999997</ele><time>2026-03-29T10:29:49Z</time></trkpt><trkpt lat="45.04497057739574" lon="0.9349412593269844"><ele>253.99999999999997</ele><time>2026-03-29T10:29:50Z</time></trkpt><trkpt lat="45.04503650276879" lon="0.9350465104236046"><ele>254.0</ele><time>2026-03-29T10:29:51Z</time></trkpt><trkpt lat="45.0450973842064" lon="0.9351532489066403"><ele>254.0</ele><time>2026-03-29T10:29:52Z</time></trkpt><trkpt lat="45.04515839627265" lon="0.9352667670355247"><ele>255.39999999999998</ele><time>2026-03-29T10:29:53Z</time></trkpt><trkpt lat="45.04522298255943" lon="0.935382904078913"><ele>256.79999999999995</ele><time>2026-03-29T10:29:54Z</time></trkpt><trkpt lat="45.04528508581946" lon="0.93548698531258"><ele>258.20000000000005</ele><time>2026-03-29T10:29:55Z</time></trkpt><trkpt lat="45.045358779728325" lon="0.9355736551711381"><ele>259.6</ele><time>2026-03-29T10:29:56Z</time></trkpt><trkpt lat="45.045442500615934" lon="0.9356554981875104"><ele>261.0</ele><time>2026-03-29T10:29:57Z</time></trkpt><trkpt lat="45.04553086866132" lon="0.9357115957020069"><ele>261.0</ele><time>2026-03-29T10:29:58Z</time></trkpt><trkpt lat="45.04560645617926" lon="0.9357650749847981"><ele>261.0</ele><time>2026-03-29T10:29:59Z</time></trkpt><trkpt lat="45.04567804985186" lon="0.9358185605851014"><ele>261.0</ele><time>2026-03-29T10:30:00Z</time></trkpt><trkpt lat="45.04575707452956" lon="0.9358899471994911"><ele>261.0</ele><time>2026-03-29T10:30:00.999Z</time></trkpt><trkpt lat="45.04584033505216" lon="0.9359573263520268"><ele>261.0</ele><time>2026-03-29T10:30:01.999Z</time></trkpt><trkpt lat="45.045919157260805" lon="0.9360223154647105"><ele>261.0</ele><time>2026-03-29T10:30:02.999Z</time></trkpt><trkpt lat="45.046010301823785" lon="0.9360764179686808"><ele>261.6</ele><time>2026-03-29T10:30:03.999Z</time></trkpt><trkpt lat="45.04609939254754" lon="0.9361414471669948"><ele>262.20000000000005</ele><time>2026-03-29T10:30:04.999Z</time></trkpt><trkpt lat="45.04618663330537" lon="0.9362064025883908"><ele>262.79999999999995</ele><time>2026-03-29T10:30:05.999Z</time></trkpt><trkpt lat="45.04627122378009" lon="0.9362600070122667"><ele>263.4</ele><time>2026-03-29T10:30:06.999Z</time></trkpt><trkpt lat="45.04636324158482" lon="0.9363197225222857"><ele>264.0</ele><time>2026-03-29T10:30:07.999Z</time></trkpt><trkpt lat="45.04645298046047" lon="0.9363507122045343"><ele>264.0</ele><time>2026-03-29T10:30:08.999Z</time></trkpt><trkpt lat="45.046558555894386" lon="0.936368512548049"><ele>264.0</ele><time>2026-03-29T10:30:09.999Z</time></trkpt><trkpt lat="45.046673153340286" lon="0.9363588777512046"><ele>264.0</ele><time>2026-03-29T10:30:10.999Z</time></trkpt><trkpt lat="45.04678851732199" lon="0.9363687599840987"><ele>264.0</ele><time>2026-03-29T10:30:11.999Z</time></trkpt><trkpt lat="45.0468812558544" lon="0.9363753765768306"><ele>264.0</ele><time>2026-03-29T10:30:12.999Z</time></trkpt><trkpt lat="45.04696528224088" lon="0.9364075852834768"><ele>264.4</ele><time>2026-03-29T10:30:13.999Z</time></trkpt><trkpt lat="45.047029805857186" lon="0.9364054410510507"><ele>264.79999999999995</ele><time>2026-03-29T10:30:14.999Z</time></trkpt><trkpt lat="45.047092252656505" lon="0.9365600823342786"><ele>265.20000000000005</ele><time>2026-03-29T10:30:16.999Z</time></trkpt><trkpt lat="45.047105645274215" lon="0.936680416690734"><ele>265.6</ele><time>2026-03-29T10:30:17.999Z</time></trkpt><trkpt lat="45.04712456884829" lon="0.9367762678624617"><ele>266.0</ele><time>2026-03-29T10:30:18.999Z</time></trkpt><trkpt lat="45.04722774976264" lon="0.9368445909156231"><ele>266.1666666666667</ele><time>2026-03-29T10:30:20.999Z</time></trkpt><trkpt lat="45.04735276456659" lon="0.9368427681376238"><ele>266.33333333333337</ele><time>2026-03-29T10:30:22.999Z</time></trkpt><trkpt lat="45.047427262823454" lon="0.9368474990445417"><ele>266.5</ele><time>2026-03-29T10:30:23.999Z</time></trkpt><trkpt lat="45.04751337107689" lon="0.9368439720063796"><ele>266.6666666666667</ele><time>2026-03-29T10:30:24.999Z</time></trkpt><trkpt lat="45.04759314563715" lon="0.9368238926594691"><ele>266.8333333333333</ele><time>2026-03-29T10:30:25.999Z</time></trkpt><trkpt lat="45.04767318768648" lon="0.9368010447201816"><ele>267.0</ele><time>2026-03-29T10:30:26.999Z</time></trkpt><trkpt lat="45.04775429897641" lon="0.9367833919495594"><ele>267.1666666666667</ele><time>2026-03-29T10:30:27.999Z</time></trkpt><trkpt lat="45.047834129060234" lon="0.9367625794026765"><ele>267.3333333333333</ele><time>2026-03-29T10:30:28.999Z</time></trkpt><trkpt lat="45.04791716347942" lon="0.9367231591440135"><ele>267.5</ele><time>2026-03-29T10:30:29.999Z</time></trkpt><trkpt lat="45.04799683287174" lon="0.9366675154539187"><ele>267.66666666666663</ele><time>2026-03-29T10:30:30.999Z</time></trkpt><trkpt lat="45.04806957163821" lon="0.9366168540916971"><ele>267.8333333333333</ele><time>2026-03-29T10:30:31.999Z</time></trkpt><trkpt lat="45.04814305109822" lon="0.9365665929160897"><ele>268.0</ele><time>2026-03-29T10:30:32.999Z</time></trkpt><trkpt lat="45.04822224018572" lon="0.9365272724019907"><ele>268.5</ele><time>2026-03-29T10:30:33.999Z</time></trkpt><trkpt lat="45.04829741459683" lon="0.936486152854394"><ele>269.0</ele><time>2026-03-29T10:30:34.999Z</time></trkpt><trkpt lat="45.04837490294734" lon="0.9364469315718604"><ele>269.5</ele><time>2026-03-29T10:30:35.999Z</time></trkpt><trkpt lat="45.04845579555001" lon="0.9363982887209259"><ele>270.0</ele><time>2026-03-29T10:30:36.999Z</time></trkpt><trkpt lat="45.048536055391885" lon="0.9363537396612934"><ele>270.5</ele><time>2026-03-29T10:30:37.999Z</time></trkpt><trkpt lat="45.048614897205994" lon="0.9363185003299089"><ele>271.0</ele><time>2026-03-29T10:30:38.999Z</time></trkpt><trkpt lat="45.048691581509594" lon="0.9362780198559287"><ele>271.0</ele><time>2026-03-29T10:30:39.999Z</time></trkpt><trkpt lat="45.04876695228229" lon="0.9362395322327626"><ele>271.0</ele><time>2026-03-29T10:30:40.999Z</time></trkpt><trkpt lat="45.04885013899014" lon="0.9362251302533672"><ele>271.0</ele><time>2026-03-29T10:30:41.999Z</time></trkpt><trkpt lat="45.04891759532263" lon="0.9361852512035703"><ele>271.0</ele><time>2026-03-29T10:30:42.999Z</time></trkpt><trkpt lat="45.048981281146936" lon="0.9361510907988722"><ele>271.0</ele><time>2026-03-29T10:30:43.999Z</time></trkpt><trkpt lat="45.04904303817717" lon="0.9361214882572391"><ele>271.0</ele><time>2026-03-29T10:30:44.999Z</time></trkpt><trkpt lat="45.04910667192" lon="0.936093223801352"><ele>271.0</ele><time>2026-03-29T10:30:45.999Z</time></trkpt><trkpt lat="45.04922159093858" lon="0.9360494202917999"><ele>271.16666666666663</ele><time>2026-03-29T10:30:47.999Z</time></trkpt><trkpt lat="45.0493120463083" lon="0.936016149899254"><ele>271.3333333333333</ele><time>2026-03-29T10:30:49.999Z</time></trkpt><trkpt lat="45.049379359970814" lon="0.9359913912535329"><ele>271.5</ele><time>2026-03-29T10:30:53.998Z</time></trkpt><trkpt lat="45.04945925383953" lon="0.9359620072597908"><ele>271.6666666666667</ele><time>2026-03-29T10:30:55.998Z</time></trkpt><trkpt lat="45.049571906595936" lon="0.9359595911682432"><ele>271.83333333333337</ele><time>2026-03-29T10:30:57.998Z</time></trkpt><trkpt lat="45.049654337053944" lon="0.935950725452652"><ele>272.0</ele><time>2026-03-29T10:30:58.998Z</time></trkpt><trkpt lat="45.04973410408915" lon="0.9359452263524702"><ele>272.0</ele><time>2026-03-29T10:30:59.998Z</time></trkpt><trkpt lat="45.04982993831859" lon="0.9359466797567627"><ele>272.0</ele><time>2026-03-29T10:31:00.998Z</time></trkpt><trkpt lat="45.0499160854358" lon="0.9359531505282614"><ele>272.0</ele><time>2026-03-29T10:31:01.998Z</time></trkpt><trkpt lat="45.05000166942849" lon="0.9359603271117884"><ele>272.0</ele><time>2026-03-29T10:31:02.998Z</time></trkpt><trkpt lat="45.050079164896296" lon="0.9359668254531529"><ele>272.0</ele><time>2026-03-29T10:31:03.998Z</time></trkpt><trkpt lat="45.050163348992484" lon="0.9359738843308183"><ele>272.0</ele><time>2026-03-29T10:31:04.998Z</time></trkpt><trkpt lat="45.05023930567141" lon="0.9359792392761866"><ele>272.1666666666667</ele><time>2026-03-29T10:31:05.998Z</time></trkpt><trkpt lat="45.05032278942074" lon="0.9359632599708398"><ele>272.33333333333337</ele><time>2026-03-29T10:31:06.998Z</time></trkpt><trkpt lat="45.050405593632874" lon="0.9359928290898083"><ele>272.5</ele><time>2026-03-29T10:31:07.998Z</time></trkpt><trkpt lat="45.050491610966816" lon="0.9359787437059758"><ele>272.6666666666667</ele><time>2026-03-29T10:31:08.998Z</time></trkpt><trkpt lat="45.05057962848153" lon="0.9359834380828735"><ele>272.8333333333333</ele><time>2026-03-29T10:31:09.998Z</time></trkpt><trkpt lat="45.05066517068573" lon="0.9359887958369321"><ele>273.0</ele><time>2026-03-29T10:31:10.998Z</time></trkpt><trkpt lat="45.050757229727736" lon="0.9359859785765351"><ele>273.0</ele><time>2026-03-29T10:31:11.998Z</time></trkpt><trkpt lat="45.05083803327116" lon="0.9359597202553512"><ele>273.0</ele><time>2026-03-29T10:31:12.998Z</time></trkpt><trkpt lat="45.050924350553636" lon="0.9359168905451918"><ele>273.0</ele><time>2026-03-29T10:31:13.998Z</time></trkpt><trkpt lat="45.05099893482171" lon="0.9358560201258544"><ele>273.0</ele><time>2026-03-29T10:31:14.998Z</time></trkpt><trkpt lat="45.05107515083213" lon="0.9357735407446375"><ele>273.0</ele><time>2026-03-29T10:31:15.998Z</time></trkpt><trkpt lat="45.05114528440834" lon="0.9357046147759279"><ele>273.0</ele><time>2026-03-29T10:31:16.998Z</time></trkpt><trkpt lat="45.051217553411334" lon="0.93563396755025"><ele>273.2</ele><time>2026-03-29T10:31:17.998Z</time></trkpt><trkpt lat="45.05131275416213" lon="0.9355599470474869"><ele>273.4</ele><time>2026-03-29T10:31:18.998Z</time></trkpt><trkpt lat="45.0513982805897" lon="0.9354587958395264"><ele>273.59999999999997</ele><time>2026-03-29T10:31:19.998Z</time></trkpt><trkpt lat="45.05149654526957" lon="0.9353706132310212"><ele>273.8</ele><time>2026-03-29T10:31:20.998Z</time></trkpt><trkpt lat="45.05159528874511" lon="0.9353294598835015"><ele>274.0</ele><time>2026-03-29T10:31:21.998Z</time></trkpt><trkpt lat="45.05167851315884" lon="0.9352838741903852"><ele>274.0</ele><time>2026-03-29T10:31:22.998Z</time></trkpt><trkpt lat="45.0517505696226" lon="0.9352451882932417"><ele>274.0</ele><time>2026-03-29T10:31:23.998Z</time></trkpt><trkpt lat="45.05181497598674" lon="0.935210609563292"><ele>274.0</ele><time>2026-03-29T10:31:24.998Z</time></trkpt><trkpt lat="45.051913287668505" lon="0.9351691774105543"><ele>274.0</ele><time>2026-03-29T10:31:26.998Z</time></trkpt><trkpt lat="45.051990364661066" lon="0.9351577798697296"><ele>274.0</ele><time>2026-03-29T10:31:28.998Z</time></trkpt><trkpt lat="45.05207930883447" lon="0.9351448423573568"><ele>274.0</ele><time>2026-03-29T10:31:31Z</time></trkpt><trkpt lat="45.05212260277787" lon="0.9350133710002466"><ele>274.0</ele><time>2026-03-29T10:31:32Z</time></trkpt><trkpt lat="45.052196400930974" lon="0.9349875232582552"><ele>274.0</ele><time>2026-03-29T10:31:33Z</time></trkpt><trkpt lat="45.05226040429659" lon="0.9349368671253793"><ele>274.0</ele><time>2026-03-29T10:31:34Z</time></trkpt><trkpt lat="45.052328808755874" lon="0.9348545186486531"><ele>274.0</ele><time>2026-03-29T10:31:35Z</time></trkpt><trkpt lat="45.05240123272077" lon="0.9347881201460009"><ele>274.0</ele><time>2026-03-29T10:31:36Z</time></trkpt><trkpt lat="45.05248511031063" lon="0.93470139178153"><ele>274.0</ele><time>2026-03-29T10:31:37Z</time></trkpt><trkpt lat="45.05256032673505" lon="0.9346011763311043"><ele>273.8</ele><time>2026-03-29T10:31:38Z</time></trkpt><trkpt lat="45.05263734031092" lon="0.9345020874563523"><ele>273.59999999999997</ele><time>2026-03-29T10:31:39Z</time></trkpt><trkpt lat="45.052710211510416" lon="0.9344054023614937"><ele>273.4</ele><time>2026-03-29T10:31:40Z</time></trkpt><trkpt lat="45.05277701674282" lon="0.9343218389690157"><ele>273.2</ele><time>2026-03-29T10:31:41Z</time></trkpt><trkpt lat="45.05284918740527" lon="0.9342279753770051"><ele>273.0</ele><time>2026-03-29T10:31:42Z</time></trkpt><trkpt lat="45.052925014106144" lon="0.9341306183558464"><ele>272.8</ele><time>2026-03-29T10:31:43Z</time></trkpt><trkpt lat="45.05300500365562" lon="0.9340382515329636"><ele>272.6</ele><time>2026-03-29T10:31:44Z</time></trkpt><trkpt lat="45.05308832806883" lon="0.9339420951440865"><ele>272.4</ele><time>2026-03-29T10:31:45Z</time></trkpt><trkpt lat="45.05318404403077" lon="0.9338707404630435"><ele>272.2</ele><time>2026-03-29T10:31:46Z</time></trkpt><trkpt lat="45.05327711103847" lon="0.9337821497480491"><ele>272.0</ele><time>2026-03-29T10:31:47Z</time></trkpt><trkpt lat="45.05337554383797" lon="0.9336982469263766"><ele>272.0</ele><time>2026-03-29T10:31:48Z</time></trkpt><trkpt lat="45.053463510322054" lon="0.9335942469382981"><ele>272.0</ele><time>2026-03-29T10:31:49Z</time></trkpt><trkpt lat="45.05357128837405" lon="0.933507860513415"><ele>272.0</ele><time>2026-03-29T10:31:50Z</time></trkpt><trkpt lat="45.05365344132264" lon="0.9334088600355305"><ele>272.0</ele><time>2026-03-29T10:31:51Z</time></trkpt><trkpt lat="45.05372970790571" lon="0.9333157390120946"><ele>272.0</ele><time>2026-03-29T10:31:52Z</time></trkpt><trkpt lat="45.05381635830452" lon="0.9332457490871213"><ele>270.8</ele><time>2026-03-29T10:31:53Z</time></trkpt><trkpt lat="45.053901509228524" lon="0.933196650052551"><ele>269.6</ele><time>2026-03-29T10:31:54Z</time></trkpt><trkpt lat="45.05399827022851" lon="0.9331339460979867"><ele>268.40000000000003</ele><time>2026-03-29T10:31:55Z</time></trkpt><trkpt lat="45.05409047462191" lon="0.9330493122791448"><ele>267.2</ele><time>2026-03-29T10:31:56Z</time></trkpt><trkpt lat="45.054183418290016" lon="0.9329916041794621"><ele>266.0</ele><time>2026-03-29T10:31:57Z</time></trkpt><trkpt lat="45.05426715007236" lon="0.9329378748097225"><ele>266.0</ele><time>2026-03-29T10:31:58Z</time></trkpt><trkpt lat="45.054364771471484" lon="0.9329010555688126"><ele>266.0</ele><time>2026-03-29T10:31:59Z</time></trkpt><trkpt lat="45.05444814657586" lon="0.932870614180339"><ele>266.0</ele><time>2026-03-29T10:32:00Z</time></trkpt><trkpt lat="45.054547206215275" lon="0.9328517086166346"><ele>266.0</ele><time>2026-03-29T10:32:01Z</time></trkpt><trkpt lat="45.05465250018993" lon="0.9328351887760549"><ele>266.0</ele><time>2026-03-29T10:32:02Z</time></trkpt><trkpt lat="45.05475157733117" lon="0.9328003047127044"><ele>266.0</ele><time>2026-03-29T10:32:03Z</time></trkpt><trkpt lat="45.054856516398445" lon="0.932793693608152"><ele>266.0</ele><time>2026-03-29T10:32:04Z</time></trkpt><trkpt lat="45.0549461152919" lon="0.9327625463684359"><ele>266.0</ele><time>2026-03-29T10:32:05Z</time></trkpt><trkpt lat="45.05504225059653" lon="0.9327355430329741"><ele>266.0</ele><time>2026-03-29T10:32:06Z</time></trkpt><trkpt lat="45.05512798289999" lon="0.9327051590142582"><ele>266.0</ele><time>2026-03-29T10:32:07Z</time></trkpt><trkpt lat="45.05520862862212" lon="0.9326598713084443"><ele>264.83333333333337</ele><time>2026-03-29T10:32:08Z</time></trkpt><trkpt lat="45.05527375869095" lon="0.9326021037937376"><ele>263.6666666666667</ele><time>2026-03-29T10:32:08.999Z</time></trkpt><trkpt lat="45.05533853596494" lon="0.932550505768638"><ele>262.5</ele><time>2026-03-29T10:32:09.999Z</time></trkpt><trkpt lat="45.05540598194715" lon="0.9325014743444978"><ele>261.3333333333333</ele><time>2026-03-29T10:32:10.999Z</time></trkpt><trkpt lat="45.05547414046546" lon="0.9324281861638011"><ele>260.16666666666663</ele><time>2026-03-29T10:32:11.999Z</time></trkpt><trkpt lat="45.05554664353514" lon="0.9323264763721083"><ele>259.0</ele><time>2026-03-29T10:32:12.999Z</time></trkpt><trkpt lat="45.0556301946778" lon="0.9322224145434845"><ele>259.0</ele><time>2026-03-29T10:32:13.999Z</time></trkpt><trkpt lat="45.05570775329907" lon="0.9321101348441265"><ele>259.0</ele><time>2026-03-29T10:32:14.999Z</time></trkpt><trkpt lat="45.05577782555789" lon="0.931988382020496"><ele>259.0</ele><time>2026-03-29T10:32:15.999Z</time></trkpt><trkpt lat="45.05584718621515" lon="0.9318695927024546"><ele>259.0</ele><time>2026-03-29T10:32:16.999Z</time></trkpt><trkpt lat="45.05591644608987" lon="0.931752320462834"><ele>259.0</ele><time>2026-03-29T10:32:17.999Z</time></trkpt><trkpt lat="45.05601381360504" lon="0.9316460302945594"><ele>258.2</ele><time>2026-03-29T10:32:18.999Z</time></trkpt><trkpt lat="45.056110377534466" lon="0.9315822236498834"><ele>257.4</ele><time>2026-03-29T10:32:19.999Z</time></trkpt><trkpt lat="45.05620149449547" lon="0.9314884174629298"><ele>256.6</ele><time>2026-03-29T10:32:20.999Z</time></trkpt><trkpt lat="45.05630547274707" lon="0.9314210896802628"><ele>255.8</ele><time>2026-03-29T10:32:21.999Z</time></trkpt><trkpt lat="45.05639216254073" lon="0.9313950391237898"><ele>255.0</ele><time>2026-03-29T10:32:22.999Z</time></trkpt><trkpt lat="45.05647799192369" lon="0.9313647238310613"><ele>255.0</ele><time>2026-03-29T10:32:24.999Z</time></trkpt><trkpt lat="45.056545613457786" lon="0.9313395230052323"><ele>255.0</ele><time>2026-03-29T10:32:35.999Z</time></trkpt><trkpt lat="45.056705348037845" lon="0.9307602350517719"><ele>255.4</ele><time>2026-03-29T10:32:42.999Z</time></trkpt><trkpt lat="45.056824105992625" lon="0.9306927027993298"><ele>255.8</ele><time>2026-03-29T10:32:44.999Z</time></trkpt><trkpt lat="45.05688903318789" lon="0.9306577671129665"><ele>256.2</ele><time>2026-03-29T10:32:45.999Z</time></trkpt><trkpt lat="45.05696683284305" lon="0.9304917464513862"><ele>256.6</ele><time>2026-03-29T10:32:47.999Z</time></trkpt><trkpt lat="45.056993074898095" lon="0.9303884478840885"><ele>257.0</ele><time>2026-03-29T10:32:48.999Z</time></trkpt><trkpt lat="45.05701717918467" lon="0.9302905506166296"><ele>257.0</ele><time>2026-03-29T10:32:49.999Z</time></trkpt><trkpt lat="45.05705884479078" lon="0.9301989368594832"><ele>257.0</ele><time>2026-03-29T10:32:50.999Z</time></trkpt><trkpt lat="45.057118467659976" lon="0.9301327203535042"><ele>257.0</ele><time>2026-03-29T10:32:51.999Z</time></trkpt><trkpt lat="45.05718685457832" lon="0.9300698789437423"><ele>257.0</ele><time>2026-03-29T10:32:52.999Z</time></trkpt><trkpt lat="45.05724442848984" lon="0.929995428310167"><ele>257.0</ele><time>2026-03-29T10:32:53.999Z</time></trkpt><trkpt lat="45.057294051319516" lon="0.9299066260388394"><ele>257.0</ele><time>2026-03-29T10:32:54.999Z</time></trkpt><trkpt lat="45.057351477020084" lon="0.929820554907386"><ele>256.83333333333337</ele><time>2026-03-29T10:32:55.999Z</time></trkpt><trkpt lat="45.057408276126345" lon="0.9297271063735356"><ele>256.6666666666667</ele><time>2026-03-29T10:32:56.999Z</time></trkpt><trkpt lat="45.057446425716364" lon="0.929627370719647"><ele>256.5</ele><time>2026-03-29T10:32:57.999Z</time></trkpt><trkpt lat="45.057481188284584" lon="0.9295084773974016"><ele>256.3333333333333</ele><time>2026-03-29T10:32:58.999Z</time></trkpt><trkpt lat="45.0575217654135" lon="0.9294158077832265"><ele>256.16666666666663</ele><time>2026-03-29T10:32:59.999Z</time></trkpt><trkpt lat="45.057572464162" lon="0.9293457724011277"><ele>256.0</ele><time>2026-03-29T10:33:00.998Z</time></trkpt><trkpt lat="45.0576512621216" lon="0.9292951682445235"><ele>254.99999999999997</ele><time>2026-03-29T10:33:01.998Z</time></trkpt><trkpt lat="45.05773042212849" lon="0.9292081316196399"><ele>254.0</ele><time>2026-03-29T10:33:02.998Z</time></trkpt><trkpt lat="45.05778807226416" lon="0.9291231311452438"><ele>253.0</ele><time>2026-03-29T10:33:03.998Z</time></trkpt><trkpt lat="45.05784946625738" lon="0.9290350514451882"><ele>252.0</ele><time>2026-03-29T10:33:04.998Z</time></trkpt><trkpt lat="45.05792891631843" lon="0.9289939329992221"><ele>250.99999999999997</ele><time>2026-03-29T10:33:05.998Z</time></trkpt><trkpt lat="45.05801948734136" lon="0.9289620040618904"><ele>250.0</ele><time>2026-03-29T10:33:06.998Z</time></trkpt><trkpt lat="45.058105713096" lon="0.9289410230665406"><ele>249.99999999999997</ele><time>2026-03-29T10:33:07.998Z</time></trkpt><trkpt lat="45.05818373940209" lon="0.9289265549080391"><ele>250.0</ele><time>2026-03-29T10:33:08.998Z</time></trkpt><trkpt lat="45.05826114591098" lon="0.9288796810755241"><ele>250.0</ele><time>2026-03-29T10:33:09.998Z</time></trkpt><trkpt lat="45.05832635599926" lon="0.9288166780330734"><ele>250.0</ele><time>2026-03-29T10:33:10.998Z</time></trkpt><trkpt lat="45.05835933675877" lon="0.9287348350970765"><ele>249.99999999999997</ele><time>2026-03-29T10:33:11.998Z</time></trkpt><trkpt lat="45.05838920083111" lon="0.9286188566494405"><ele>250.0</ele><time>2026-03-29T10:33:12.998Z</time></trkpt><trkpt lat="45.05841898118001" lon="0.9285254727446313"><ele>249.83333333333331</ele><time>2026-03-29T10:33:13.998Z</time></trkpt><trkpt lat="45.058485768441685" lon="0.9284271990669622"><ele>249.66666666666666</ele><time>2026-03-29T10:33:14.998Z</time></trkpt><trkpt lat="45.058542801710075" lon="0.9283212667280781"><ele>249.5</ele><time>2026-03-29T10:33:15.998Z</time></trkpt><trkpt lat="45.05858497877655" lon="0.928230210868958"><ele>249.33333333333331</ele><time>2026-03-29T10:33:16.998Z</time></trkpt><trkpt lat="45.05863217471303" lon="0.9281414059366517"><ele>249.16666666666666</ele><time>2026-03-29T10:33:17.998Z</time></trkpt><trkpt lat="45.05869091224823" lon="0.9280740342736906"><ele>249.0</ele><time>2026-03-29T10:33:18.998Z</time></trkpt><trkpt lat="45.058720220679184" lon="0.9279861379943039"><ele>248.16666666666666</ele><time>2026-03-29T10:33:19.998Z</time></trkpt><trkpt lat="45.05873789372251" lon="0.9278735353209593"><ele>247.33333333333331</ele><time>2026-03-29T10:33:20.998Z</time></trkpt><trkpt lat="45.058767902906006" lon="0.9277721739958655"><ele>246.5</ele><time>2026-03-29T10:33:21.998Z</time></trkpt><trkpt lat="45.05882961171756" lon="0.9276913245591671"><ele>245.66666666666666</ele><time>2026-03-29T10:33:22.998Z</time></trkpt><trkpt lat="45.05887981825429" lon="0.9276060300525235"><ele>244.83333333333331</ele><time>2026-03-29T10:33:23.998Z</time></trkpt><trkpt lat="45.058932609335514" lon="0.9275241218171754"><ele>244.0</ele><time>2026-03-29T10:33:24.998Z</time></trkpt><trkpt lat="45.05898335144446" lon="0.9274479142548988"><ele>242.99999999999997</ele><time>2026-03-29T10:33:25.998Z</time></trkpt><trkpt lat="45.059037680671445" lon="0.9273735420467181"><ele>242.0</ele><time>2026-03-29T10:33:26.998Z</time></trkpt><trkpt lat="45.059088084182235" lon="0.9272834212019201"><ele>241.0</ele><time>2026-03-29T10:33:27.998Z</time></trkpt><trkpt lat="45.059098550954694" lon="0.9271865990707261"><ele>240.0</ele><time>2026-03-29T10:33:28.998Z</time></trkpt><trkpt lat="45.059093949874494" lon="0.9270692669093374"><ele>238.99999999999997</ele><time>2026-03-29T10:33:29.998Z</time></trkpt><trkpt lat="45.059091424887946" lon="0.9269364339173574"><ele>238.0</ele><time>2026-03-29T10:33:30.998Z</time></trkpt><trkpt lat="45.05910076297784" lon="0.9268481429483069"><ele>237.99999999999997</ele><time>2026-03-29T10:33:31.998Z</time></trkpt><trkpt lat="45.059108764741794" lon="0.9267496793504533"><ele>238.0</ele><time>2026-03-29T10:33:32.998Z</time></trkpt><trkpt lat="45.05905666115978" lon="0.9265974520555712"><ele>238.0</ele><time>2026-03-29T10:33:34.998Z</time></trkpt><trkpt lat="45.05901317132284" lon="0.9265080122064332"><ele>238.0</ele><time>2026-03-29T10:33:35.998Z</time></trkpt><trkpt lat="45.059002104387105" lon="0.9264106869739852"><ele>237.99999999999997</ele><time>2026-03-29T10:33:37Z</time></trkpt><trkpt lat="45.05899880047403" lon="0.9263162925446418"><ele>238.0</ele><time>2026-03-29T10:33:38Z</time></trkpt><trkpt lat="45.05900842639103" lon="0.9261914096702745"><ele>237.99999999999997</ele><time>2026-03-29T10:33:39Z</time></trkpt><trkpt lat="45.05899175161641" lon="0.9260647537927106"><ele>238.0</ele><time>2026-03-29T10:33:40Z</time></trkpt><trkpt lat="45.05895611985273" lon="0.9259589013065269"><ele>238.0</ele><time>2026-03-29T10:33:41Z</time></trkpt><trkpt lat="45.05894090747809" lon="0.9258451859772053"><ele>238.0</ele><time>2026-03-29T10:33:42Z</time></trkpt><trkpt lat="45.058974100990525" lon="0.9257618778148563"><ele>237.99999999999997</ele><time>2026-03-29T10:33:43Z</time></trkpt><trkpt lat="45.05901631963346" lon="0.9256570899757492"><ele>238.0</ele><time>2026-03-29T10:33:44Z</time></trkpt><trkpt lat="45.05902860718414" lon="0.9255594642897149"><ele>239.28571428571428</ele><time>2026-03-29T10:33:45Z</time></trkpt><trkpt lat="45.05903723713386" lon="0.9254538810787526"><ele>240.57142857142856</ele><time>2026-03-29T10:33:46Z</time></trkpt><trkpt lat="45.059033902054914" lon="0.9253610517262542"><ele>241.85714285714286</ele><time>2026-03-29T10:33:47Z</time></trkpt><trkpt lat="45.05900310620705" lon="0.9252715349714667"><ele>243.14285714285714</ele><time>2026-03-29T10:33:48Z</time></trkpt><trkpt lat="45.058944613657594" lon="0.9251671454323606"><ele>244.42857142857142</ele><time>2026-03-29T10:33:49Z</time></trkpt><trkpt lat="45.058893101494526" lon="0.9250838140606484"><ele>245.71428571428572</ele><time>2026-03-29T10:33:50Z</time></trkpt><trkpt lat="45.058855634890584" lon="0.9250082268821053"><ele>247.0</ele><time>2026-03-29T10:33:51Z</time></trkpt><trkpt lat="45.058826880537055" lon="0.9249286750790884"><ele>248.8</ele><time>2026-03-29T10:33:52Z</time></trkpt><trkpt lat="45.05880002913145" lon="0.9247741063897994"><ele>250.6</ele><time>2026-03-29T10:33:54Z</time></trkpt><trkpt lat="45.05874939333356" lon="0.9246717318808979"><ele>252.40000000000003</ele><time>2026-03-29T10:33:56Z</time></trkpt><trkpt lat="45.05876919300104" lon="0.9245683453691672"><ele>254.20000000000002</ele><time>2026-03-29T10:34:04Z</time></trkpt><trkpt lat="45.05887449191144" lon="0.9245399034469067"><ele>256.0</ele><time>2026-03-29T10:34:06Z</time></trkpt><trkpt lat="45.058947827473" lon="0.9245189940440908"><ele>255.99999999999997</ele><time>2026-03-29T10:34:07Z</time></trkpt><trkpt lat="45.05902197764065" lon="0.9245178186375012"><ele>256.0</ele><time>2026-03-29T10:34:08Z</time></trkpt><trkpt lat="45.05908521058967" lon="0.9245188238384573"><ele>256.0</ele><time>2026-03-29T10:34:09Z</time></trkpt><trkpt lat="45.05915019705194" lon="0.9244949391630318"><ele>256.0</ele><time>2026-03-29T10:34:10Z</time></trkpt><trkpt lat="45.05922960883818" lon="0.9244768408260409"><ele>255.99999999999997</ele><time>2026-03-29T10:34:11Z</time></trkpt><trkpt lat="45.059311290870674" lon="0.9244616790440076"><ele>256.0</ele><time>2026-03-29T10:34:12Z</time></trkpt><trkpt lat="45.05939522371869" lon="0.9244245168464846"><ele>255.49999999999997</ele><time>2026-03-29T10:34:13Z</time></trkpt><trkpt lat="45.05948592018802" lon="0.9244071518629737"><ele>255.0</ele><time>2026-03-29T10:34:14Z</time></trkpt><trkpt lat="45.059582582132535" lon="0.9243815039364303"><ele>254.5</ele><time>2026-03-29T10:34:15Z</time></trkpt><trkpt lat="45.059670974537504" lon="0.9243619077208698"><ele>254.0</ele><time>2026-03-29T10:34:15.999Z</time></trkpt><trkpt lat="45.059737907006934" lon="0.9243461622476704"><ele>253.49999999999997</ele><time>2026-03-29T10:34:16.999Z</time></trkpt><trkpt lat="45.05980460024473" lon="0.9243346130264586"><ele>253.0</ele><time>2026-03-29T10:34:17.999Z</time></trkpt><trkpt lat="45.059879975647846" lon="0.9243168287829847"><ele>253.66666666666666</ele><time>2026-03-29T10:34:18.999Z</time></trkpt><trkpt lat="45.059960037901085" lon="0.9242957893173318"><ele>254.33333333333331</ele><time>2026-03-29T10:34:19.999Z</time></trkpt><trkpt lat="45.06004189067277" lon="0.9242652963580564"><ele>255.0</ele><time>2026-03-29T10:34:20.999Z</time></trkpt><trkpt lat="45.060115890157974" lon="0.9242421715214882"><ele>255.66666666666669</ele><time>2026-03-29T10:34:21.999Z</time></trkpt><trkpt lat="45.060200699381326" lon="0.9242295279621718"><ele>256.33333333333337</ele><time>2026-03-29T10:34:22.999Z</time></trkpt><trkpt lat="45.06029427615866" lon="0.9241967315471935"><ele>257.0</ele><time>2026-03-29T10:34:23.999Z</time></trkpt><trkpt lat="45.060372849409596" lon="0.9242010922869184"><ele>257.0</ele><time>2026-03-29T10:34:24.999Z</time></trkpt><trkpt lat="45.06046536664056" lon="0.9242278966729912"><ele>257.0</ele><time>2026-03-29T10:34:25.999Z</time></trkpt><trkpt lat="45.06055009153429" lon="0.9242773428175854"><ele>257.0</ele><time>2026-03-29T10:34:26.999Z</time></trkpt><trkpt lat="45.06063585066477" lon="0.924321427398844"><ele>257.0</ele><time>2026-03-29T10:34:27.999Z</time></trkpt><trkpt lat="45.06073630511043" lon="0.9243364507956677"><ele>257.0</ele><time>2026-03-29T10:34:28.999Z</time></trkpt><trkpt lat="45.060829292589915" lon="0.9243748535339039"><ele>256.75</ele><time>2026-03-29T10:34:29.999Z</time></trkpt><trkpt lat="45.0609263553359" lon="0.9244011086160354"><ele>256.5</ele><time>2026-03-29T10:34:30.999Z</time></trkpt><trkpt lat="45.06102916664705" lon="0.9244228944348706"><ele>256.25</ele><time>2026-03-29T10:34:31.999Z</time></trkpt><trkpt lat="45.061141862197104" lon="0.9244571938612156"><ele>256.0</ele><time>2026-03-29T10:34:32.999Z</time></trkpt><trkpt lat="45.06127013424544" lon="0.9245016639467726"><ele>256.0</ele><time>2026-03-29T10:34:33.999Z</time></trkpt><trkpt lat="45.061400253867944" lon="0.9245548712122792"><ele>256.0</ele><time>2026-03-29T10:34:34.999Z</time></trkpt><trkpt lat="45.061522392393314" lon="0.9245922550816762"><ele>256.0</ele><time>2026-03-29T10:34:35.999Z</time></trkpt><trkpt lat="45.0616245112774" lon="0.9246495684703842"><ele>256.0</ele><time>2026-03-29T10:34:36.999Z</time></trkpt><trkpt lat="45.061750631797025" lon="0.9246629662725421"><ele>255.33333333333331</ele><time>2026-03-29T10:34:37.999Z</time></trkpt><trkpt lat="45.06184421208047" lon="0.9247103713759843"><ele>254.66666666666666</ele><time>2026-03-29T10:34:38.999Z</time></trkpt><trkpt lat="45.06193582745487" lon="0.9247718528488684"><ele>254.0</ele><time>2026-03-29T10:34:39.999Z</time></trkpt><trkpt lat="45.062020314002936" lon="0.9248298537182271"><ele>253.33333333333331</ele><time>2026-03-29T10:34:40.999Z</time></trkpt><trkpt lat="45.06210598668722" lon="0.9248591508447374"><ele>252.66666666666666</ele><time>2026-03-29T10:34:41.999Z</time></trkpt><trkpt lat="45.062169252979295" lon="0.9248721815281699"><ele>252.0</ele><time>2026-03-29T10:34:42.999Z</time></trkpt><trkpt lat="45.06223642769597" lon="0.9249029825053924"><ele>252.0</ele><time>2026-03-29T10:34:43.999Z</time></trkpt><trkpt lat="45.062296350736275" lon="0.924937116992645"><ele>252.0</ele><time>2026-03-29T10:34:44.999Z</time></trkpt><trkpt lat="45.06240577959977" lon="0.9249649121614186"><ele>252.0</ele><time>2026-03-29T10:34:46.999Z</time></trkpt><trkpt lat="45.062487129784934" lon="0.9249509299829911"><ele>252.0</ele><time>2026-03-29T10:34:47.999Z</time></trkpt><trkpt lat="45.062568046065614" lon="0.9249419150504966"><ele>252.0</ele><time>2026-03-29T10:34:48.999Z</time></trkpt><trkpt lat="45.06263532022205" lon="0.9249433922183944"><ele>252.0</ele><time>2026-03-29T10:34:49.999Z</time></trkpt><trkpt lat="45.0627138866918" lon="0.9249551061838985"><ele>251.5</ele><time>2026-03-29T10:34:50.999Z</time></trkpt><trkpt lat="45.06278410195135" lon="0.9249789524534284"><ele>251.0</ele><time>2026-03-29T10:34:51.999Z</time></trkpt><trkpt lat="45.062842071209936" lon="0.9250292469001522"><ele>250.5</ele><time>2026-03-29T10:34:52.999Z</time></trkpt><trkpt lat="45.06289627262582" lon="0.9250838085381331"><ele>250.0</ele><time>2026-03-29T10:34:53.999Z</time></trkpt><trkpt lat="45.06298936644632" lon="0.9251626475235097"><ele>249.5</ele><time>2026-03-29T10:34:55.999Z</time></trkpt><trkpt lat="45.06304961656123" lon="0.9250851954333325"><ele>249.0</ele><time>2026-03-29T10:34:58.999Z</time></trkpt><trkpt lat="45.063018854997516" lon="0.9248878397829122"><ele>249.0</ele><time>2026-03-29T10:35:00.999Z</time></trkpt><trkpt lat="45.062948990543134" lon="0.9247841176377393"><ele>249.0</ele><time>2026-03-29T10:35:01.999Z</time></trkpt><trkpt lat="45.06288179614812" lon="0.9246422913390886"><ele>249.0</ele><time>2026-03-29T10:35:02.999Z</time></trkpt><trkpt lat="45.062826233452256" lon="0.9244557634073969"><ele>249.0</ele><time>2026-03-29T10:35:03.999Z</time></trkpt><trkpt lat="45.06275973120467" lon="0.9242799625725109"><ele>249.2</ele><time>2026-03-29T10:35:04.999Z</time></trkpt><trkpt lat="45.062709582723855" lon="0.9241387180131653"><ele>249.39999999999998</ele><time>2026-03-29T10:35:05.999Z</time></trkpt><trkpt lat="45.06266188453239" lon="0.9239985912117803"><ele>249.6</ele><time>2026-03-29T10:35:06.999Z</time></trkpt><trkpt lat="45.062624034409026" lon="0.9238935982174338"><ele>249.8</ele><time>2026-03-29T10:35:07.998Z</time></trkpt><trkpt lat="45.062607966826846" lon="0.9237719166983753"><ele>250.0</ele><time>2026-03-29T10:35:08.998Z</time></trkpt><trkpt lat="45.062604946613035" lon="0.9236828492359053"><ele>250.0</ele><time>2026-03-29T10:35:09.998Z</time></trkpt><trkpt lat="45.062599194616666" lon="0.9235312606211122"><ele>250.0</ele><time>2026-03-29T10:35:11.998Z</time></trkpt><trkpt lat="45.06249575249438" lon="0.9234489311598802"><ele>250.0</ele><time>2026-03-29T10:35:13.998Z</time></trkpt><trkpt lat="45.062448936631135" lon="0.9233412969225147"><ele>250.0</ele><time>2026-03-29T10:35:14.998Z</time></trkpt><trkpt lat="45.06240828777605" lon="0.9232115904281513"><ele>250.0</ele><time>2026-03-29T10:35:15.998Z</time></trkpt><trkpt lat="45.0623841631498" lon="0.9230863026457341"><ele>250.2</ele><time>2026-03-29T10:35:16.998Z</time></trkpt><trkpt lat="45.06235132322047" lon="0.9229599264179184"><ele>250.4</ele><time>2026-03-29T10:35:17.998Z</time></trkpt><trkpt lat="45.06232186275908" lon="0.9228108739922043"><ele>250.60000000000002</ele><time>2026-03-29T10:35:18.998Z</time></trkpt><trkpt lat="45.06230374984378" lon="0.9226636668163882"><ele>250.8</ele><time>2026-03-29T10:35:19.998Z</time></trkpt><trkpt lat="45.06230898967348" lon="0.9225162016053637"><ele>251.0</ele><time>2026-03-29T10:35:20.998Z</time></trkpt><trkpt lat="45.062313248146026" lon="0.9223716076289717"><ele>251.00000000000003</ele><time>2026-03-29T10:35:21.998Z</time></trkpt><trkpt lat="45.06231541002946" lon="0.9222418197405116"><ele>251.0</ele><time>2026-03-29T10:35:22.998Z</time></trkpt><trkpt lat="45.062313128220545" lon="0.9221283810543873"><ele>251.0</ele><time>2026-03-29T10:35:23.998Z</time></trkpt><trkpt lat="45.06231445957285" lon="0.9220147821029444"><ele>251.0</ele><time>2026-03-29T10:35:24.998Z</time></trkpt><trkpt lat="45.06230685434057" lon="0.9219093722529814"><ele>251.00000000000003</ele><time>2026-03-29T10:35:25.998Z</time></trkpt><trkpt lat="45.06228637456877" lon="0.9218088110544052"><ele>251.0</ele><time>2026-03-29T10:35:26.998Z</time></trkpt><trkpt lat="45.06225620241967" lon="0.9217011733675763"><ele>250.20000000000002</ele><time>2026-03-29T10:35:27.998Z</time></trkpt><trkpt lat="45.06223997353857" lon="0.9215790863651621"><ele>249.40000000000003</ele><time>2026-03-29T10:35:28.998Z</time></trkpt><trkpt lat="45.062237645108816" lon="0.9214507672649139"><ele>248.6</ele><time>2026-03-29T10:35:29.998Z</time></trkpt><trkpt lat="45.062241800547405" lon="0.9212917155313607"><ele>247.8</ele><time>2026-03-29T10:35:30.998Z</time></trkpt><trkpt lat="45.0622372188345" lon="0.9211352351758428"><ele>247.0</ele><time>2026-03-29T10:35:31.998Z</time></trkpt><trkpt lat="45.06221026076317" lon="0.9209835408173753"><ele>247.0</ele><time>2026-03-29T10:35:32.998Z</time></trkpt><trkpt lat="45.06218832744862" lon="0.9208212584788259"><ele>247.0</ele><time>2026-03-29T10:35:33.998Z</time></trkpt><trkpt lat="45.06219237833516" lon="0.9206544074570262"><ele>247.0</ele><time>2026-03-29T10:35:34.998Z</time></trkpt><trkpt lat="45.06219934474833" lon="0.9204749102261314"><ele>247.0</ele><time>2026-03-29T10:35:35.998Z</time></trkpt><trkpt lat="45.062184779696366" lon="0.9202896374109232"><ele>247.0</ele><time>2026-03-29T10:35:36.998Z</time></trkpt><trkpt lat="45.06217074778643" lon="0.9200754449341189"><ele>247.0</ele><time>2026-03-29T10:35:37.998Z</time></trkpt><trkpt lat="45.06215162350673" lon="0.91987911382252"><ele>247.0</ele><time>2026-03-29T10:35:38.998Z</time></trkpt><trkpt lat="45.062142225529065" lon="0.9197068598709901"><ele>247.0</ele><time>2026-03-29T10:35:39.998Z</time></trkpt><trkpt lat="45.0621111097524" lon="0.9195917907147223"><ele>247.33333333333331</ele><time>2026-03-29T10:35:40.998Z</time></trkpt><trkpt lat="45.06212297900252" lon="0.9194985315188532"><ele>247.66666666666666</ele><time>2026-03-29T10:35:41.998Z</time></trkpt><trkpt lat="45.06213921961583" lon="0.919386100803928"><ele>248.0</ele><time>2026-03-29T10:35:45Z</time></trkpt><trkpt lat="45.06216659766402" lon="0.9192176732504493"><ele>248.33333333333331</ele><time>2026-03-29T10:35:47Z</time></trkpt><trkpt lat="45.06216825195652" lon="0.9191086233983289"><ele>248.66666666666666</ele><time>2026-03-29T10:35:48Z</time></trkpt><trkpt lat="45.06216545388369" lon="0.9189967162070489"><ele>249.0</ele><time>2026-03-29T10:35:49Z</time></trkpt><trkpt lat="45.06216875288884" lon="0.9189019131497985"><ele>249.39999999999998</ele><time>2026-03-29T10:35:50Z</time></trkpt><trkpt lat="45.06218649835349" lon="0.9187857860025377"><ele>249.79999999999998</ele><time>2026-03-29T10:35:51Z</time></trkpt><trkpt lat="45.06222687847083" lon="0.9186873517641438"><ele>250.20000000000002</ele><time>2026-03-29T10:35:52Z</time></trkpt><trkpt lat="45.0622636334756" lon="0.9185676985347604"><ele>250.60000000000002</ele><time>2026-03-29T10:35:53Z</time></trkpt><trkpt lat="45.06229287940847" lon="0.9184467422439992"><ele>251.0</ele><time>2026-03-29T10:35:54Z</time></trkpt><trkpt lat="45.06233360419209" lon="0.9183037083020529"><ele>251.0</ele><time>2026-03-29T10:35:55Z</time></trkpt><trkpt lat="45.06237707129856" lon="0.918166122622058"><ele>251.00000000000003</ele><time>2026-03-29T10:35:56Z</time></trkpt><trkpt lat="45.06240642950864" lon="0.91804468184605"><ele>251.00000000000003</ele><time>2026-03-29T10:35:57Z</time></trkpt><trkpt lat="45.062443122115674" lon="0.9179029678669525"><ele>251.0</ele><time>2026-03-29T10:35:58Z</time></trkpt><trkpt lat="45.06246617307815" lon="0.9177752047408336"><ele>251.0</ele><time>2026-03-29T10:35:59Z</time></trkpt><trkpt lat="45.0624772504989" lon="0.9176489358613219"><ele>250.50000000000003</ele><time>2026-03-29T10:36:00Z</time></trkpt><trkpt lat="45.06248182099733" lon="0.9175183597314868"><ele>250.0</ele><time>2026-03-29T10:36:01Z</time></trkpt><trkpt lat="45.062476064855595" lon="0.9173959847863113"><ele>249.5</ele><time>2026-03-29T10:36:02Z</time></trkpt><trkpt lat="45.062484948876275" lon="0.9173001362498676"><ele>249.0</ele><time>2026-03-29T10:36:03Z</time></trkpt><trkpt lat="45.062490413921495" lon="0.9171200930037362"><ele>248.50000000000003</ele><time>2026-03-29T10:36:05Z</time></trkpt><trkpt lat="45.0624838190327" lon="0.9170269587397974"><ele>248.0</ele><time>2026-03-29T10:36:06Z</time></trkpt><trkpt lat="45.06247750293291" lon="0.9169281085622017"><ele>248.2</ele><time>2026-03-29T10:36:10Z</time></trkpt><trkpt lat="45.06241665393645" lon="0.916883166612473"><ele>248.4</ele><time>2026-03-29T10:36:11Z</time></trkpt><trkpt lat="45.06236682002211" lon="0.9167653845109098"><ele>248.59999999999997</ele><time>2026-03-29T10:36:12Z</time></trkpt><trkpt lat="45.062298080609764" lon="0.9166518581342423"><ele>248.79999999999998</ele><time>2026-03-29T10:36:13Z</time></trkpt><trkpt lat="45.06220752277883" lon="0.9165325495620885"><ele>249.0</ele><time>2026-03-29T10:36:14Z</time></trkpt><trkpt lat="45.06213583546875" lon="0.916433870132579"><ele>249.0</ele><time>2026-03-29T10:36:15Z</time></trkpt><trkpt lat="45.06207078062327" lon="0.9163341388457515"><ele>249.0</ele><time>2026-03-29T10:36:16Z</time></trkpt><trkpt lat="45.06202493122988" lon="0.916211745904244"><ele>249.0</ele><time>2026-03-29T10:36:17Z</time></trkpt><trkpt lat="45.06198236430651" lon="0.9161387041707255"><ele>249.0</ele><time>2026-03-29T10:36:18Z</time></trkpt><trkpt lat="45.06193011084906" lon="0.9160060207663218"><ele>249.0</ele><time>2026-03-29T10:36:20Z</time></trkpt><trkpt lat="45.06188972541166" lon="0.9159092902930002"><ele>249.0</ele><time>2026-03-29T10:36:21.999Z</time></trkpt><trkpt lat="45.06185336112693" lon="0.9158268348040436"><ele>248.39999999999998</ele><time>2026-03-29T10:36:23.999Z</time></trkpt><trkpt lat="45.06180812376616" lon="0.9157280250083055"><ele>247.79999999999998</ele><time>2026-03-29T10:36:38.999Z</time></trkpt><trkpt lat="45.06175400374033" lon="0.9156356623096473"><ele>247.20000000000002</ele><time>2026-03-29T10:36:40.999Z</time></trkpt><trkpt lat="45.06171558174827" lon="0.9155462426719637"><ele>246.60000000000002</ele><time>2026-03-29T10:36:42.999Z</time></trkpt><trkpt lat="45.06160301523413" lon="0.9154286989191274"><ele>246.0</ele><time>2026-03-29T10:36:44.999Z</time></trkpt><trkpt lat="45.06151903632649" lon="0.9153400192253927"><ele>246.0</ele><time>2026-03-29T10:36:45.999Z</time></trkpt><trkpt lat="45.06144895093795" lon="0.9152548615801649"><ele>246.0</ele><time>2026-03-29T10:36:46.999Z</time></trkpt><trkpt lat="45.06138274243974" lon="0.9151833945390128"><ele>246.0</ele><time>2026-03-29T10:36:47.999Z</time></trkpt><trkpt lat="45.06132285334527" lon="0.9150980559406012"><ele>246.0</ele><time>2026-03-29T10:36:48.999Z</time></trkpt><trkpt lat="45.06128973470073" lon="0.9149918125599537"><ele>246.0</ele><time>2026-03-29T10:36:49.999Z</time></trkpt><trkpt lat="45.061250208994224" lon="0.9148794850686897"><ele>246.0</ele><time>2026-03-29T10:36:50.999Z</time></trkpt><trkpt lat="45.06118351864148" lon="0.9147974367672387"><ele>245.8</ele><time>2026-03-29T10:36:51.999Z</time></trkpt><trkpt lat="45.0610982571233" lon="0.914738484738601"><ele>245.60000000000002</ele><time>2026-03-29T10:36:52.999Z</time></trkpt><trkpt lat="45.06099693812553" lon="0.9146654614326349"><ele>245.4</ele><time>2026-03-29T10:36:53.999Z</time></trkpt><trkpt lat="45.060907034406114" lon="0.9146141598051724"><ele>245.2</ele><time>2026-03-29T10:36:54.999Z</time></trkpt><trkpt lat="45.06081402287284" lon="0.9145683269004083"><ele>245.0</ele><time>2026-03-29T10:36:55.999Z</time></trkpt><trkpt lat="45.06072923566736" lon="0.914491177377708"><ele>244.00000000000003</ele><time>2026-03-29T10:36:56.999Z</time></trkpt><trkpt lat="45.060646804597866" lon="0.914424225563744"><ele>243.0</ele><time>2026-03-29T10:36:57.999Z</time></trkpt><trkpt lat="45.06058143535481" lon="0.9143714327198096"><ele>242.0</ele><time>2026-03-29T10:36:58.999Z</time></trkpt><trkpt lat="45.060511012334445" lon="0.9143460693403288"><ele>241.0</ele><time>2026-03-29T10:36:59.999Z</time></trkpt><trkpt lat="45.060427653224544" lon="0.914324650472221"><ele>240.00000000000003</ele><time>2026-03-29T10:37:00.999Z</time></trkpt><trkpt lat="45.06034963650541" lon="0.9142722610357931"><ele>239.0</ele><time>2026-03-29T10:37:01.999Z</time></trkpt><trkpt lat="45.06027144225484" lon="0.9142157187226869"><ele>238.66666666666669</ele><time>2026-03-29T10:37:02.999Z</time></trkpt><trkpt lat="45.060188796881135" lon="0.9141761041752795"><ele>238.33333333333334</ele><time>2026-03-29T10:37:03.999Z</time></trkpt><trkpt lat="45.06009776981727" lon="0.9141397317212477"><ele>238.0</ele><time>2026-03-29T10:37:04.999Z</time></trkpt><trkpt lat="45.06001699224306" lon="0.9140880941738048"><ele>237.66666666666669</ele><time>2026-03-29T10:37:05.999Z</time></trkpt><trkpt lat="45.05994615743196" lon="0.9140376808432057"><ele>237.33333333333334</ele><time>2026-03-29T10:37:06.999Z</time></trkpt><trkpt lat="45.05988264992377" lon="0.9139905151046179"><ele>237.0</ele><time>2026-03-29T10:37:07.999Z</time></trkpt><trkpt lat="45.059793764018" lon="0.9139245845886734"><ele>237.0</ele><time>2026-03-29T10:37:09.999Z</time></trkpt><trkpt lat="45.059757070974975" lon="0.9138118413470371"><ele>237.0</ele><time>2026-03-29T10:37:11.999Z</time></trkpt><trkpt lat="45.059804202212696" lon="0.9137065809891709"><ele>237.0</ele><time>2026-03-29T10:37:13.998Z</time></trkpt><trkpt lat="45.05985578599102" lon="0.9135770471066402"><ele>237.0</ele><time>2026-03-29T10:37:15.998Z</time></trkpt><trkpt lat="45.059866868699885" lon="0.9134042663046595"><ele>237.0</ele><time>2026-03-29T10:37:17.998Z</time></trkpt><trkpt lat="45.05988829880285" lon="0.9133183630199243"><ele>236.66666666666666</ele><time>2026-03-29T10:37:18.998Z</time></trkpt><trkpt lat="45.05992818151138" lon="0.9132138233047462"><ele>236.33333333333331</ele><time>2026-03-29T10:37:19.998Z</time></trkpt><trkpt lat="45.05996350758245" lon="0.9131208346839748"><ele>236.0</ele><time>2026-03-29T10:37:20.998Z</time></trkpt><trkpt lat="45.060013066088906" lon="0.913027424647835"><ele>235.66666666666666</ele><time>2026-03-29T10:37:21.998Z</time></trkpt><trkpt lat="45.06004789271474" lon="0.9129431446620045"><ele>235.33333333333331</ele><time>2026-03-29T10:37:22.998Z</time></trkpt><trkpt lat="45.06007812130236" lon="0.9128453871795915"><ele>235.0</ele><time>2026-03-29T10:37:23.998Z</time></trkpt><trkpt lat="45.060147534276034" lon="0.9126738461053746"><ele>234.33333333333331</ele><time>2026-03-29T10:37:25.998Z</time></trkpt><trkpt lat="45.060202198513934" lon="0.9125995206870786"><ele>233.66666666666666</ele><time>2026-03-29T10:37:26.998Z</time></trkpt><trkpt lat="45.06027152050982" lon="0.9125514590885505"><ele>233.0</ele><time>2026-03-29T10:37:27.998Z</time></trkpt><trkpt lat="45.06035117101963" lon="0.9124927418243158"><ele>232.33333333333331</ele><time>2026-03-29T10:37:28.998Z</time></trkpt><trkpt lat="45.06041703611212" lon="0.9124328728130423"><ele>231.66666666666666</ele><time>2026-03-29T10:37:29.998Z</time></trkpt><trkpt lat="45.060491999704944" lon="0.9123600384736228"><ele>231.0</ele><time>2026-03-29T10:37:30.998Z</time></trkpt><trkpt lat="45.060551273048084" lon="0.9122683655185533"><ele>230.85714285714286</ele><time>2026-03-29T10:37:31.998Z</time></trkpt><trkpt lat="45.06060749867401" lon="0.9121928137420565"><ele>230.71428571428572</ele><time>2026-03-29T10:37:32.998Z</time></trkpt><trkpt lat="45.06065984455427" lon="0.9121288286217684"><ele>230.57142857142856</ele><time>2026-03-29T10:37:33.998Z</time></trkpt><trkpt lat="45.06070617511775" lon="0.9120480896446016"><ele>230.42857142857142</ele><time>2026-03-29T10:37:34.998Z</time></trkpt><trkpt lat="45.06074844081617" lon="0.9119802867667196"><ele>230.28571428571428</ele><time>2026-03-29T10:37:35.998Z</time></trkpt><trkpt lat="45.060795792803674" lon="0.9119168573493788"><ele>230.1428571428571</ele><time>2026-03-29T10:37:36.998Z</time></trkpt><trkpt lat="45.06085377533249" lon="0.9118434948514439"><ele>229.99999999999997</ele><time>2026-03-29T10:37:37.998Z</time></trkpt><trkpt lat="45.060946165449316" lon="0.9117999732690224"><ele>230.0</ele><time>2026-03-29T10:37:38.998Z</time></trkpt><trkpt lat="45.06100562960524" lon="0.9117638076574143"><ele>230.0</ele><time>2026-03-29T10:37:39.998Z</time></trkpt><trkpt lat="45.06106494803366" lon="0.9116017763605361"><ele>230.0</ele><time>2026-03-29T10:37:41.998Z</time></trkpt><trkpt lat="45.06110308082631" lon="0.9113994272478335"><ele>230.0</ele><time>2026-03-29T10:37:43.998Z</time></trkpt><trkpt lat="45.06110751735976" lon="0.9112989287842526"><ele>230.0</ele><time>2026-03-29T10:37:44.998Z</time></trkpt><trkpt lat="45.06112495097699" lon="0.9111932972680639"><ele>229.2</ele><time>2026-03-29T10:37:45.998Z</time></trkpt><trkpt lat="45.06110775354547" lon="0.9110922858452013"><ele>228.4</ele><time>2026-03-29T10:37:46.998Z</time></trkpt><trkpt lat="45.06107767651135" lon="0.9109550621269105"><ele>227.60000000000002</ele><time>2026-03-29T10:37:47.998Z</time></trkpt><trkpt lat="45.06102361791013" lon="0.9108345973547218"><ele>226.8</ele><time>2026-03-29T10:37:49Z</time></trkpt><trkpt lat="45.06097404262332" lon="0.9107007452460303"><ele>226.0</ele><time>2026-03-29T10:37:50Z</time></trkpt><trkpt lat="45.06095422388969" lon="0.9105667154829562"><ele>225.8</ele><time>2026-03-29T10:37:51Z</time></trkpt><trkpt lat="45.06094433022126" lon="0.9104331879656805"><ele>225.60000000000002</ele><time>2026-03-29T10:37:52Z</time></trkpt><trkpt lat="45.06093394620541" lon="0.910310806870969"><ele>225.4</ele><time>2026-03-29T10:37:53Z</time></trkpt><trkpt lat="45.060904930161286" lon="0.9101783413934059"><ele>225.2</ele><time>2026-03-29T10:37:54Z</time></trkpt><trkpt lat="45.060894415902304" lon="0.9100248759226215"><ele>225.0</ele><time>2026-03-29T10:37:55Z</time></trkpt><trkpt lat="45.06088988475517" lon="0.9099171553711181"><ele>225.0</ele><time>2026-03-29T10:37:56Z</time></trkpt><trkpt lat="45.060891913555736" lon="0.9098190870517572"><ele>225.0</ele><time>2026-03-29T10:37:57Z</time></trkpt><trkpt lat="45.06090996761552" lon="0.9096903660942885"><ele>225.0</ele><time>2026-03-29T10:37:58Z</time></trkpt><trkpt lat="45.060918189076126" lon="0.9095643185129354"><ele>225.0</ele><time>2026-03-29T10:37:59Z</time></trkpt><trkpt lat="45.06093741687585" lon="0.9094500567796232"><ele>225.0</ele><time>2026-03-29T10:38:00Z</time></trkpt><trkpt lat="45.06096804229602" lon="0.9093346213585878"><ele>225.0</ele><time>2026-03-29T10:38:01Z</time></trkpt><trkpt lat="45.06099718984058" lon="0.9092293842388748"><ele>225.71428571428575</ele><time>2026-03-29T10:38:02Z</time></trkpt><trkpt lat="45.06101705061765" lon="0.9091364620284009"><ele>226.42857142857144</ele><time>2026-03-29T10:38:03Z</time></trkpt><trkpt lat="45.06100838334167" lon="0.9090436669952958"><ele>227.14285714285714</ele><time>2026-03-29T10:38:04Z</time></trkpt><trkpt lat="45.06101189008039" lon="0.9089441877037877"><ele>227.85714285714286</ele><time>2026-03-29T10:38:05Z</time></trkpt><trkpt lat="45.06100899240404" lon="0.9088230829743575"><ele>228.57142857142856</ele><time>2026-03-29T10:38:06Z</time></trkpt><trkpt lat="45.06102260167729" lon="0.908720889229361"><ele>229.28571428571425</ele><time>2026-03-29T10:38:07Z</time></trkpt><trkpt lat="45.061040077295544" lon="0.9086161514508643"><ele>229.99999999999997</ele><time>2026-03-29T10:38:08Z</time></trkpt><trkpt lat="45.06105085069973" lon="0.908503866656815"><ele>230.16666666666669</ele><time>2026-03-29T10:38:09Z</time></trkpt><trkpt lat="45.061067641876434" lon="0.9083880107303721"><ele>230.33333333333334</ele><time>2026-03-29T10:38:10Z</time></trkpt><trkpt lat="45.06108428634093" lon="0.9082687552340986"><ele>230.5</ele><time>2026-03-29T10:38:11Z</time></trkpt><trkpt lat="45.06111016443804" lon="0.9081593728461299"><ele>230.66666666666669</ele><time>2026-03-29T10:38:12Z</time></trkpt><trkpt lat="45.06115114595676" lon="0.9080541691941111"><ele>230.83333333333334</ele><time>2026-03-29T10:38:13Z</time></trkpt><trkpt lat="45.06118529690433" lon="0.9079558220194338"><ele>231.0</ele><time>2026-03-29T10:38:14Z</time></trkpt><trkpt lat="45.06122454018032" lon="0.9078378056369151"><ele>231.0</ele><time>2026-03-29T10:38:15Z</time></trkpt><trkpt lat="45.06126234855894" lon="0.9077188731797892"><ele>231.0</ele><time>2026-03-29T10:38:16Z</time></trkpt><trkpt lat="45.061297100646364" lon="0.9076052950344252"><ele>231.0</ele><time>2026-03-29T10:38:17Z</time></trkpt><trkpt lat="45.06136571551173" lon="0.907522906337205"><ele>231.0</ele><time>2026-03-29T10:38:18Z</time></trkpt><trkpt lat="45.06141027953191" lon="0.9074237144191025"><ele>231.0</ele><time>2026-03-29T10:38:19Z</time></trkpt><trkpt lat="45.06145995005448" lon="0.9073289943635842"><ele>231.0</ele><time>2026-03-29T10:38:20Z</time></trkpt><trkpt lat="45.0615101092892" lon="0.9072254360639014"><ele>231.0</ele><time>2026-03-29T10:38:21Z</time></trkpt><trkpt lat="45.06155581109939" lon="0.9071069112521465"><ele>231.0</ele><time>2026-03-29T10:38:22Z</time></trkpt><trkpt lat="45.06158258327017" lon="0.9069889477172604"><ele>231.0</ele><time>2026-03-29T10:38:23Z</time></trkpt><trkpt lat="45.06159206373027" lon="0.9068646765845356"><ele>231.0</ele><time>2026-03-29T10:38:24Z</time></trkpt><trkpt lat="45.061591864870884" lon="0.9067475675853327"><ele>231.0</ele><time>2026-03-29T10:38:25Z</time></trkpt><trkpt lat="45.06160021360099" lon="0.9066228645964162"><ele>231.0</ele><time>2026-03-29T10:38:26Z</time></trkpt><trkpt lat="45.0615949237579" lon="0.9065030054547163"><ele>231.20000000000002</ele><time>2026-03-29T10:38:26.999Z</time></trkpt><trkpt lat="45.06160784615081" lon="0.9064091872274519"><ele>231.40000000000003</ele><time>2026-03-29T10:38:27.999Z</time></trkpt><trkpt lat="45.06160784615046" lon="0.9063183996728778"><ele>231.6</ele><time>2026-03-29T10:38:28.999Z</time></trkpt><trkpt lat="45.061591935143305" lon="0.9062177033890717"><ele>231.8</ele><time>2026-03-29T10:38:30.999Z</time></trkpt><trkpt lat="45.06178030802898" lon="0.9063034374020885"><ele>232.0</ele><time>2026-03-29T10:38:35.999Z</time></trkpt><trkpt lat="45.061853535629474" lon="0.9063742651765967"><ele>231.99999999999997</ele><time>2026-03-29T10:38:36.999Z</time></trkpt><trkpt lat="45.06191882621864" lon="0.9064618847393846"><ele>232.0</ele><time>2026-03-29T10:38:37.999Z</time></trkpt><trkpt lat="45.061967350394646" lon="0.906530062974928"><ele>232.0</ele><time>2026-03-29T10:38:38.999Z</time></trkpt><trkpt lat="45.06203092830362" lon="0.9065876960465075"><ele>232.0</ele><time>2026-03-29T10:38:40.999Z</time></trkpt><trkpt lat="45.06213236128334" lon="0.9065134226554619"><ele>231.99999999999997</ele><time>2026-03-29T10:38:43.999Z</time></trkpt><trkpt lat="45.06217783362834" lon="0.9064483987430145"><ele>232.0</ele><time>2026-03-29T10:38:44.999Z</time></trkpt><trkpt lat="45.06225271840707" lon="0.9063788290411063"><ele>232.0</ele><time>2026-03-29T10:38:46.999Z</time></trkpt><trkpt lat="45.06226933247134" lon="0.9062288986763618"><ele>232.0</ele><time>2026-03-29T10:38:48.999Z</time></trkpt><trkpt lat="45.06228957740535" lon="0.9060817077405359"><ele>232.0</ele><time>2026-03-29T10:38:50.999Z</time></trkpt><trkpt lat="45.0623959972808" lon="0.9060233643836965"><ele>232.0</ele><time>2026-03-29T10:38:52.999Z</time></trkpt><trkpt lat="45.062488130870776" lon="0.9060717168548318"><ele>232.0</ele><time>2026-03-29T10:38:53.999Z</time></trkpt><trkpt lat="45.06257597126751" lon="0.9061350966591981"><ele>231.2</ele><time>2026-03-29T10:38:54.999Z</time></trkpt><trkpt lat="45.06266996952722" lon="0.9061648419518455"><ele>230.39999999999998</ele><time>2026-03-29T10:38:55.999Z</time></trkpt><trkpt lat="45.06277268688079" lon="0.9061737373986649"><ele>229.60000000000002</ele><time>2026-03-29T10:38:56.999Z</time></trkpt><trkpt lat="45.06288749927746" lon="0.906163435551761"><ele>228.8</ele><time>2026-03-29T10:38:57.999Z</time></trkpt><trkpt lat="45.06299846496425" lon="0.9061499209170598"><ele>228.0</ele><time>2026-03-29T10:38:58.999Z</time></trkpt><trkpt lat="45.06310845866059" lon="0.9061409775058951"><ele>228.0</ele><time>2026-03-29T10:38:59.999Z</time></trkpt><trkpt lat="45.063217583374175" lon="0.9061139391123001"><ele>228.0</ele><time>2026-03-29T10:39:00.999Z</time></trkpt><trkpt lat="45.06330789932708" lon="0.9060790598214798"><ele>228.0</ele><time>2026-03-29T10:39:01.999Z</time></trkpt><trkpt lat="45.063373342040265" lon="0.906052835866507"><ele>228.0</ele><time>2026-03-29T10:39:02.999Z</time></trkpt><trkpt lat="45.063472671103554" lon="0.9059474130552415"><ele>228.0</ele><time>2026-03-29T10:39:04.999Z</time></trkpt><trkpt lat="45.06349834604524" lon="0.9057919893074887"><ele>227.33333333333334</ele><time>2026-03-29T10:39:06.999Z</time></trkpt><trkpt lat="45.06353279008939" lon="0.9057096347723494"><ele>226.66666666666669</ele><time>2026-03-29T10:39:07.999Z</time></trkpt><trkpt lat="45.06354682886875" lon="0.9055890490816634"><ele>226.0</ele><time>2026-03-29T10:39:08.999Z</time></trkpt><trkpt lat="45.06355536358185" lon="0.9054836420520314"><ele>225.33333333333334</ele><time>2026-03-29T10:39:09.999Z</time></trkpt><trkpt lat="45.063564393175135" lon="0.9053521854356187"><ele>224.66666666666669</ele><time>2026-03-29T10:39:10.999Z</time></trkpt><trkpt lat="45.063558343768534" lon="0.9052511096319052"><ele>224.0</ele><time>2026-03-29T10:39:11.999Z</time></trkpt><trkpt lat="45.06353123350495" lon="0.905114489760293"><ele>224.79999999999998</ele><time>2026-03-29T10:39:12.999Z</time></trkpt><trkpt lat="45.06351602552858" lon="0.9049584145068336"><ele>225.59999999999997</ele><time>2026-03-29T10:39:13.999Z</time></trkpt><trkpt lat="45.06351595082257" lon="0.9048328437424404"><ele>226.4</ele><time>2026-03-29T10:39:14.999Z</time></trkpt><trkpt lat="45.06350835853989" lon="0.9046997272551185"><ele>227.2</ele><time>2026-03-29T10:39:15.999Z</time></trkpt><trkpt lat="45.06350030168482" lon="0.9045778084131088"><ele>228.0</ele><time>2026-03-29T10:39:16.999Z</time></trkpt><trkpt lat="45.06347371856354" lon="0.9044485349177689"><ele>228.0</ele><time>2026-03-29T10:39:17.999Z</time></trkpt><trkpt lat="45.063442043998016" lon="0.9043170966855948"><ele>228.0</ele><time>2026-03-29T10:39:18.998Z</time></trkpt><trkpt lat="45.06342202939035" lon="0.9041976959807545"><ele>228.0</ele><time>2026-03-29T10:39:19.998Z</time></trkpt><trkpt lat="45.063359975634356" lon="0.9040936286856188"><ele>228.0</ele><time>2026-03-29T10:39:20.998Z</time></trkpt><trkpt lat="45.06328834597012" lon="0.9040110924486213"><ele>228.0</ele><time>2026-03-29T10:39:21.998Z</time></trkpt><trkpt lat="45.06323117227778" lon="0.9039434420112487"><ele>228.0</ele><time>2026-03-29T10:39:22.998Z</time></trkpt><trkpt lat="45.06318712209794" lon="0.9038606086998339"><ele>227.66666666666666</ele><time>2026-03-29T10:39:23.998Z</time></trkpt><trkpt lat="45.063148756470376" lon="0.9037757538895845"><ele>227.33333333333331</ele><time>2026-03-29T10:39:24.998Z</time></trkpt><trkpt lat="45.063108764372096" lon="0.9036881672170648"><ele>227.0</ele><time>2026-03-29T10:39:25.998Z</time></trkpt><trkpt lat="45.06309802864454" lon="0.9035993815946305"><ele>226.66666666666666</ele><time>2026-03-29T10:39:26.998Z</time></trkpt><trkpt lat="45.06310442032374" lon="0.9034835799268307"><ele>226.33333333333331</ele><time>2026-03-29T10:39:27.998Z</time></trkpt><trkpt lat="45.063151465792174" lon="0.9033804666295441"><ele>226.0</ele><time>2026-03-29T10:39:28.998Z</time></trkpt><trkpt lat="45.06323804309654" lon="0.9032710111698468"><ele>225.99999999999997</ele><time>2026-03-29T10:39:30.998Z</time></trkpt><trkpt lat="45.063306566759074" lon="0.9032613779470229"><ele>226.0</ele><time>2026-03-29T10:39:31.998Z</time></trkpt><trkpt lat="45.063382778583126" lon="0.9032712619729273"><ele>226.0</ele><time>2026-03-29T10:39:32.998Z</time></trkpt><trkpt lat="45.06346651812514" lon="0.9033046933976112"><ele>226.0</ele><time>2026-03-29T10:39:33.998Z</time></trkpt><trkpt lat="45.06355096233681" lon="0.9033233105573742"><ele>225.99999999999997</ele><time>2026-03-29T10:39:34.998Z</time></trkpt><trkpt lat="45.063641282199804" lon="0.903337556873753"><ele>226.0</ele><time>2026-03-29T10:39:35.998Z</time></trkpt><trkpt lat="45.0637283374799" lon="0.9033611005900704"><ele>226.0</ele><time>2026-03-29T10:39:36.998Z</time></trkpt><trkpt lat="45.06382427997008" lon="0.9033843597269716"><ele>226.00000000000003</ele><time>2026-03-29T10:39:37.998Z</time></trkpt><trkpt lat="45.06391933971462" lon="0.9034055457710503"><ele>226.00000000000003</ele><time>2026-03-29T10:39:38.998Z</time></trkpt><trkpt lat="45.06402067508968" lon="0.9034173010449068"><ele>226.0</ele><time>2026-03-29T10:39:39.998Z</time></trkpt><trkpt lat="45.06413094752893" lon="0.903424625199633"><ele>226.0</ele><time>2026-03-29T10:39:40.998Z</time></trkpt><trkpt lat="45.064256348433545" lon="0.9034207441676965"><ele>224.75</ele><time>2026-03-29T10:39:41.998Z</time></trkpt><trkpt lat="45.06437295772069" lon="0.9034330702341483"><ele>223.5</ele><time>2026-03-29T10:39:42.998Z</time></trkpt><trkpt lat="45.06449185928071" lon="0.903452129919102"><ele>222.25</ele><time>2026-03-29T10:39:43.998Z</time></trkpt><trkpt lat="45.06461100448392" lon="0.9034580017880138"><ele>221.0</ele><time>2026-03-29T10:39:44.998Z</time></trkpt><trkpt lat="45.06471955987685" lon="0.9034716277513519"><ele>221.0</ele><time>2026-03-29T10:39:45.998Z</time></trkpt><trkpt lat="45.06483345940473" lon="0.9034959425506767"><ele>221.0</ele><time>2026-03-29T10:39:46.998Z</time></trkpt><trkpt lat="45.06493994449236" lon="0.9035157246741815"><ele>221.0</ele><time>2026-03-29T10:39:47.998Z</time></trkpt><trkpt lat="45.06506379404836" lon="0.9035296503682317"><ele>221.0</ele><time>2026-03-29T10:39:48.998Z</time></trkpt><trkpt lat="45.0651827868612" lon="0.9035445714121907"><ele>222.0</ele><time>2026-03-29T10:39:49.998Z</time></trkpt><trkpt lat="45.06527817081283" lon="0.9035528182889997"><ele>223.00000000000003</ele><time>2026-03-29T10:39:50.998Z</time></trkpt><trkpt lat="45.06536442534451" lon="0.9036041424404164"><ele>224.00000000000003</ele><time>2026-03-29T10:39:52.998Z</time></trkpt><trkpt lat="45.06537070998261" lon="0.9037198739438527"><ele>225.0</ele><time>2026-03-29T10:39:53.998Z</time></trkpt><trkpt lat="45.06535016619726" lon="0.9038518359239996"><ele>226.0</ele><time>2026-03-29T10:39:55Z</time></trkpt><trkpt lat="45.065323901095844" lon="0.9039860452369178"><ele>225.99999999999997</ele><time>2026-03-29T10:39:56Z</time></trkpt><trkpt lat="45.06529534329723" lon="0.90409477608623"><ele>226.0</ele><time>2026-03-29T10:39:57Z</time></trkpt><trkpt lat="45.06525295909339" lon="0.9041925344613948"><ele>226.0</ele><time>2026-03-29T10:39:58Z</time></trkpt><trkpt lat="45.06520480461565" lon="0.9042806149963755"><ele>226.0</ele><time>2026-03-29T10:39:59Z</time></trkpt><trkpt lat="45.06516367830955" lon="0.9043760134492712"><ele>225.99999999999997</ele><time>2026-03-29T10:40:00Z</time></trkpt><trkpt lat="45.06515300302234" lon="0.9044711105510291"><ele>226.0</ele><time>2026-03-29T10:40:01Z</time></trkpt><trkpt lat="45.065163602231664" lon="0.9045689999529528"><ele>226.16666666666666</ele><time>2026-03-29T10:40:02Z</time></trkpt><trkpt lat="45.06519824382078" lon="0.9046458611172629"><ele>226.33333333333331</ele><time>2026-03-29T10:40:03Z</time></trkpt><trkpt lat="45.06526656596442" lon="0.9047171245768487"><ele>226.5</ele><time>2026-03-29T10:40:04Z</time></trkpt><trkpt lat="45.06535222928091" lon="0.9047899541591108"><ele>226.66666666666669</ele><time>2026-03-29T10:40:05Z</time></trkpt><trkpt lat="45.06542942978947" lon="0.9048610111353556"><ele>226.83333333333334</ele><time>2026-03-29T10:40:06Z</time></trkpt><trkpt lat="45.065514375405506" lon="0.9049281582020352"><ele>227.0</ele><time>2026-03-29T10:40:07Z</time></trkpt><trkpt lat="45.06560920448114" lon="0.9049647690720167"><ele>227.0</ele><time>2026-03-29T10:40:08Z</time></trkpt><trkpt lat="45.065712019216036" lon="0.9049861102569451"><ele>227.0</ele><time>2026-03-29T10:40:09Z</time></trkpt><trkpt lat="45.06584502598305" lon="0.9050418273027199"><ele>227.0</ele><time>2026-03-29T10:40:10Z</time></trkpt><trkpt lat="45.06598697490565" lon="0.9050982195173413"><ele>227.0</ele><time>2026-03-29T10:40:11Z</time></trkpt><trkpt lat="45.06610620500841" lon="0.9051410106127714"><ele>228.00000000000003</ele><time>2026-03-29T10:40:12Z</time></trkpt><trkpt lat="45.06619709176017" lon="0.9051811601572012"><ele>229.0</ele><time>2026-03-29T10:40:13Z</time></trkpt><trkpt lat="45.06627504199437" lon="0.9052376454390533"><ele>230.0</ele><time>2026-03-29T10:40:14Z</time></trkpt><trkpt lat="45.06635652477723" lon="0.9053051084145011"><ele>231.0</ele><time>2026-03-29T10:40:15Z</time></trkpt><trkpt lat="45.06642793572375" lon="0.9053676066249541"><ele>232.00000000000003</ele><time>2026-03-29T10:40:16Z</time></trkpt><trkpt lat="45.06649171542904" lon="0.905403707643999"><ele>233.0</ele><time>2026-03-29T10:40:17Z</time></trkpt><trkpt lat="45.06660209078287" lon="0.9053703858981632"><ele>233.00000000000003</ele><time>2026-03-29T10:40:19Z</time></trkpt><trkpt lat="45.066676508424585" lon="0.9053347608831199"><ele>233.0</ele><time>2026-03-29T10:40:21Z</time></trkpt><trkpt lat="45.066701387046436" lon="0.9054608611709932"><ele>233.0</ele><time>2026-03-29T10:40:23Z</time></trkpt><trkpt lat="45.06668109439424" lon="0.9055576488193423"><ele>233.0</ele><time>2026-03-29T10:40:24Z</time></trkpt><trkpt lat="45.066655946454496" lon="0.9056565632886582"><ele>233.00000000000003</ele><time>2026-03-29T10:40:25Z</time></trkpt><trkpt lat="45.066625596849356" lon="0.9057701286729857"><ele>233.0</ele><time>2026-03-29T10:40:26Z</time></trkpt><trkpt lat="45.06659894239851" lon="0.9058940449228156"><ele>233.00000000000003</ele><time>2026-03-29T10:40:27Z</time></trkpt><trkpt lat="45.06657116379198" lon="0.9060161894566814"><ele>233.0</ele><time>2026-03-29T10:40:28Z</time></trkpt><trkpt lat="45.06655238910926" lon="0.9061275623877179"><ele>233.0</ele><time>2026-03-29T10:40:29Z</time></trkpt><trkpt lat="45.06654666772614" lon="0.9062408438890753"><ele>233.0</ele><time>2026-03-29T10:40:30Z</time></trkpt><trkpt lat="45.0665611883936" lon="0.9063432250097808"><ele>233.00000000000003</ele><time>2026-03-29T10:40:31Z</time></trkpt><trkpt lat="45.06659559114627" lon="0.9064418159311202"><ele>233.0</ele><time>2026-03-29T10:40:32Z</time></trkpt><trkpt lat="45.06664611275507" lon="0.9065126415946463"><ele>233.33333333333334</ele><time>2026-03-29T10:40:33Z</time></trkpt><trkpt lat="45.06670663895982" lon="0.9065962479444607"><ele>233.66666666666669</ele><time>2026-03-29T10:40:34Z</time></trkpt><trkpt lat="45.06676532816851" lon="0.9066792237993937"><ele>234.0</ele><time>2026-03-29T10:40:34.999Z</time></trkpt><trkpt lat="45.06682722527278" lon="0.9067474624109214"><ele>234.33333333333331</ele><time>2026-03-29T10:40:35.999Z</time></trkpt><trkpt lat="45.06690021446384" lon="0.9068023453436046"><ele>234.66666666666666</ele><time>2026-03-29T10:40:36.999Z</time></trkpt><trkpt lat="45.06698818668123" lon="0.9068475803664185"><ele>235.0</ele><time>2026-03-29T10:40:37.999Z</time></trkpt><trkpt lat="45.06706972379116" lon="0.9068874167783993"><ele>235.66666666666666</ele><time>2026-03-29T10:40:38.999Z</time></trkpt><trkpt lat="45.0671468667471" lon="0.9069510794697774"><ele>236.33333333333331</ele><time>2026-03-29T10:40:39.999Z</time></trkpt><trkpt lat="45.06720111297628" lon="0.9070091872211916"><ele>237.0</ele><time>2026-03-29T10:40:40.999Z</time></trkpt><trkpt lat="45.06727087604949" lon="0.9070563359909516"><ele>237.66666666666669</ele><time>2026-03-29T10:40:41.999Z</time></trkpt><trkpt lat="45.067338064898685" lon="0.9071022776223818"><ele>238.33333333333334</ele><time>2026-03-29T10:40:42.999Z</time></trkpt><trkpt lat="45.06740594619945" lon="0.9071244008444317"><ele>239.0</ele><time>2026-03-29T10:40:43.999Z</time></trkpt><trkpt lat="45.06750171527396" lon="0.9071531358065462"><ele>239.6</ele><time>2026-03-29T10:40:45.999Z</time></trkpt><trkpt lat="45.06756660336597" lon="0.9071754259841083"><ele>240.2</ele><time>2026-03-29T10:40:47.999Z</time></trkpt><trkpt lat="45.06764388133962" lon="0.9070690053397246"><ele>240.79999999999998</ele><time>2026-03-29T10:40:49.999Z</time></trkpt><trkpt lat="45.067714786774786" lon="0.9070015357429656"><ele>241.39999999999998</ele><time>2026-03-29T10:40:50.999Z</time></trkpt><trkpt lat="45.06777984900088" lon="0.9068874505991591"><ele>242.0</ele><time>2026-03-29T10:40:51.999Z</time></trkpt><trkpt lat="45.06785212762566" lon="0.9067662950004011"><ele>241.39999999999998</ele><time>2026-03-29T10:40:52.999Z</time></trkpt><trkpt lat="45.06792427158568" lon="0.9066371546780737"><ele>240.79999999999998</ele><time>2026-03-29T10:40:53.999Z</time></trkpt><trkpt lat="45.06795118002292" lon="0.9064798938988005"><ele>240.2</ele><time>2026-03-29T10:40:54.999Z</time></trkpt><trkpt lat="45.067995958201244" lon="0.9063620586451191"><ele>239.6</ele><time>2026-03-29T10:40:55.999Z</time></trkpt><trkpt lat="45.06803526953748" lon="0.9062395419866078"><ele>239.0</ele><time>2026-03-29T10:40:56.999Z</time></trkpt><trkpt lat="45.06807127915202" lon="0.906111559839592"><ele>239.0</ele><time>2026-03-29T10:40:57.999Z</time></trkpt><trkpt lat="45.068102556894544" lon="0.9059856616746704"><ele>238.99999999999997</ele><time>2026-03-29T10:40:58.999Z</time></trkpt><trkpt lat="45.0681284669809" lon="0.9058490231514598"><ele>238.99999999999997</ele><time>2026-03-29T10:40:59.999Z</time></trkpt><trkpt lat="45.06815888010503" lon="0.9057200510764501"><ele>239.0</ele><time>2026-03-29T10:41:00.999Z</time></trkpt><trkpt lat="45.06821311732071" lon="0.9056024625370952"><ele>239.0</ele><time>2026-03-29T10:41:01.999Z</time></trkpt><trkpt lat="45.0682837578972" lon="0.9054933034742924"><ele>239.0</ele><time>2026-03-29T10:41:02.999Z</time></trkpt><trkpt lat="45.06836066804588" lon="0.9053990778488785"><ele>238.99999999999997</ele><time>2026-03-29T10:41:03.999Z</time></trkpt><trkpt lat="45.06844406104563" lon="0.9052952686725405"><ele>238.99999999999997</ele><time>2026-03-29T10:41:04.999Z</time></trkpt><trkpt lat="45.0685131532191" lon="0.9051794036694004"><ele>239.0</ele><time>2026-03-29T10:41:05.999Z</time></trkpt><trkpt lat="45.06855904397461" lon="0.9050513241902975"><ele>239.0</ele><time>2026-03-29T10:41:06.999Z</time></trkpt><trkpt lat="45.06860288266953" lon="0.9049047352016043"><ele>238.75</ele><time>2026-03-29T10:41:07.999Z</time></trkpt><trkpt lat="45.068638550519104" lon="0.9047395633411831"><ele>238.5</ele><time>2026-03-29T10:41:08.999Z</time></trkpt><trkpt lat="45.068678350620246" lon="0.904581722331174"><ele>238.25</ele><time>2026-03-29T10:41:09.999Z</time></trkpt><trkpt lat="45.068727262890214" lon="0.9044202057411918"><ele>238.0</ele><time>2026-03-29T10:41:10.999Z</time></trkpt><trkpt lat="45.068778495270955" lon="0.904254231280688"><ele>238.25</ele><time>2026-03-29T10:41:11.999Z</time></trkpt><trkpt lat="45.068859097909396" lon="0.9041118147113476"><ele>238.5</ele><time>2026-03-29T10:41:12.999Z</time></trkpt><trkpt lat="45.0689125400732" lon="0.9039566571784966"><ele>238.75</ele><time>2026-03-29T10:41:13.999Z</time></trkpt><trkpt lat="45.06896526532243" lon="0.9038073664471536"><ele>239.0</ele><time>2026-03-29T10:41:14.999Z</time></trkpt><trkpt lat="45.06901732522397" lon="0.9036558939919037"><ele>239.0</ele><time>2026-03-29T10:41:15.999Z</time></trkpt><trkpt lat="45.06905994616814" lon="0.9035025542426844"><ele>239.0</ele><time>2026-03-29T10:41:16.999Z</time></trkpt><trkpt lat="45.06909350098035" lon="0.9033350630437237"><ele>239.0</ele><time>2026-03-29T10:41:17.999Z</time></trkpt><trkpt lat="45.0691206605345" lon="0.9031851754063716"><ele>239.0</ele><time>2026-03-29T10:41:18.999Z</time></trkpt><trkpt lat="45.06913871664017" lon="0.90302324355263"><ele>238.79999999999998</ele><time>2026-03-29T10:41:19.999Z</time></trkpt><trkpt lat="45.06914942295665" lon="0.9028709233350882"><ele>238.59999999999997</ele><time>2026-03-29T10:41:20.999Z</time></trkpt><trkpt lat="45.06917439396397" lon="0.9027452377530234"><ele>238.4</ele><time>2026-03-29T10:41:21.999Z</time></trkpt><trkpt lat="45.06919452308105" lon="0.9026284831993587"><ele>238.2</ele><time>2026-03-29T10:41:22.999Z</time></trkpt><trkpt lat="45.06921944801558" lon="0.9025150646247928"><ele>238.0</ele><time>2026-03-29T10:41:23.999Z</time></trkpt><trkpt lat="45.0692556584536" lon="0.9024121707651643"><ele>238.0</ele><time>2026-03-29T10:41:24.999Z</time></trkpt><trkpt lat="45.06930635656139" lon="0.9023406907202112"><ele>238.0</ele><time>2026-03-29T10:41:25.998Z</time></trkpt><trkpt lat="45.06937416666266" lon="0.9022727593767792"><ele>238.0</ele><time>2026-03-29T10:41:26.998Z</time></trkpt><trkpt lat="45.06942650685426" lon="0.9021816995710924"><ele>238.0</ele><time>2026-03-29T10:41:27.998Z</time></trkpt><trkpt lat="45.06947170433587" lon="0.9020970293234839"><ele>238.0</ele><time>2026-03-29T10:41:28.998Z</time></trkpt><trkpt lat="45.06950746673599" lon="0.9020229926550544"><ele>238.0</ele><time>2026-03-29T10:41:29.998Z</time></trkpt><trkpt lat="45.069539782283606" lon="0.9019440494194875"><ele>238.0</ele><time>2026-03-29T10:41:30.998Z</time></trkpt><trkpt lat="45.06956001452896" lon="0.9018197952943193"><ele>238.0</ele><time>2026-03-29T10:41:32.998Z</time></trkpt><trkpt lat="45.06955676517354" lon="0.9016809811610811"><ele>238.0</ele><time>2026-03-29T10:41:35.998Z</time></trkpt><trkpt lat="45.0695376844688" lon="0.9015283760424613"><ele>238.0</ele><time>2026-03-29T10:41:37.998Z</time></trkpt><trkpt lat="45.06954012049164" lon="0.9014103600763069"><ele>238.0</ele><time>2026-03-29T10:41:38.998Z</time></trkpt><trkpt lat="45.06952256736868" lon="0.901295207440051"><ele>238.0</ele><time>2026-03-29T10:41:39.998Z</time></trkpt><trkpt lat="45.06953716227451" lon="0.9011717059674553"><ele>238.0</ele><time>2026-03-29T10:41:40.998Z</time></trkpt><trkpt lat="45.06956352719941" lon="0.9010538498130964"><ele>238.0</ele><time>2026-03-29T10:41:41.998Z</time></trkpt><trkpt lat="45.06962961835812" lon="0.9009697735265126"><ele>238.0</ele><time>2026-03-29T10:41:42.998Z</time></trkpt><trkpt lat="45.06966538313415" lon="0.9008468198149308"><ele>238.0</ele><time>2026-03-29T10:41:43.998Z</time></trkpt><trkpt lat="45.06972187731318" lon="0.900724312240485"><ele>238.0</ele><time>2026-03-29T10:41:44.998Z</time></trkpt><trkpt lat="45.06975320850913" lon="0.9005962649901583"><ele>237.75</ele><time>2026-03-29T10:41:45.998Z</time></trkpt><trkpt lat="45.069792420273956" lon="0.9004685377845426"><ele>237.5</ele><time>2026-03-29T10:41:46.998Z</time></trkpt><trkpt lat="45.0699502260151" lon="0.9004001828894798"><ele>237.25</ele><time>2026-03-29T10:41:47.998Z</time></trkpt><trkpt lat="45.07003874217426" lon="0.9002841378403743"><ele>237.0</ele><time>2026-03-29T10:41:48.998Z</time></trkpt><trkpt lat="45.07013871906313" lon="0.900164778053245"><ele>235.25</ele><time>2026-03-29T10:41:49.998Z</time></trkpt><trkpt lat="45.07023107071573" lon="0.9000432998370267"><ele>233.5</ele><time>2026-03-29T10:41:50.998Z</time></trkpt><trkpt lat="45.07030875598148" lon="0.899932753223231"><ele>231.75</ele><time>2026-03-29T10:41:51.998Z</time></trkpt><trkpt lat="45.07039637165101" lon="0.8998259987657419"><ele>230.0</ele><time>2026-03-29T10:41:52.998Z</time></trkpt><trkpt lat="45.07048593918014" lon="0.8997172857771703"><ele>230.0</ele><time>2026-03-29T10:41:53.998Z</time></trkpt><trkpt lat="45.07056841678756" lon="0.8996138102965697"><ele>230.0</ele><time>2026-03-29T10:41:54.998Z</time></trkpt><trkpt lat="45.070653261223704" lon="0.8995101843304886"><ele>230.0</ele><time>2026-03-29T10:41:55.998Z</time></trkpt><trkpt lat="45.07073040919629" lon="0.8993940916238068"><ele>230.0</ele><time>2026-03-29T10:41:56.998Z</time></trkpt><trkpt lat="45.070807520198386" lon="0.8992846403666036"><ele>230.0</ele><time>2026-03-29T10:41:57.998Z</time></trkpt><trkpt lat="45.07087438716954" lon="0.8991649629960227"><ele>229.8</ele><time>2026-03-29T10:41:58.998Z</time></trkpt><trkpt lat="45.0709296660362" lon="0.8990562400377681"><ele>229.6</ele><time>2026-03-29T10:41:59.998Z</time></trkpt><trkpt lat="45.07098436887947" lon="0.898926475054109"><ele>229.39999999999998</ele><time>2026-03-29T10:42:01Z</time></trkpt><trkpt lat="45.07104276869792" lon="0.8987908630337361"><ele>229.2</ele><time>2026-03-29T10:42:02Z</time></trkpt><trkpt lat="45.071087476094" lon="0.898649007111758"><ele>229.0</ele><time>2026-03-29T10:42:03Z</time></trkpt><trkpt lat="45.07113162242349" lon="0.8984873497273346"><ele>228.75</ele><time>2026-03-29T10:42:04Z</time></trkpt><trkpt lat="45.071177851279565" lon="0.8983290680881117"><ele>228.5</ele><time>2026-03-29T10:42:05Z</time></trkpt><trkpt lat="45.07122740110227" lon="0.8981772563830004"><ele>228.25</ele><time>2026-03-29T10:42:06Z</time></trkpt><trkpt lat="45.071279688575174" lon="0.8980329110553127"><ele>228.0</ele><time>2026-03-29T10:42:07Z</time></trkpt><trkpt lat="45.07132297401655" lon="0.8978985187989758"><ele>228.0</ele><time>2026-03-29T10:42:08Z</time></trkpt><trkpt lat="45.071381441317214" lon="0.8977624133267172"><ele>228.0</ele><time>2026-03-29T10:42:09Z</time></trkpt><trkpt lat="45.07144631773863" lon="0.897626435267759"><ele>228.0</ele><time>2026-03-29T10:42:10Z</time></trkpt><trkpt lat="45.0715005802337" lon="0.897507461019498"><ele>228.0</ele><time>2026-03-29T10:42:11Z</time></trkpt><trkpt lat="45.07155546342581" lon="0.897371118126045"><ele>228.0</ele><time>2026-03-29T10:42:12Z</time></trkpt><trkpt lat="45.071608204468184" lon="0.8972418218014507"><ele>228.0</ele><time>2026-03-29T10:42:13Z</time></trkpt><trkpt lat="45.07164139687063" lon="0.8971376193909143"><ele>228.0</ele><time>2026-03-29T10:42:14Z</time></trkpt><trkpt lat="45.071702252546395" lon="0.8970362672428168"><ele>228.0</ele><time>2026-03-29T10:42:15Z</time></trkpt><trkpt lat="45.071759592643375" lon="0.8969324751761939"><ele>228.0</ele><time>2026-03-29T10:42:16Z</time></trkpt><trkpt lat="45.0718080124407" lon="0.8968283829377006"><ele>228.0</ele><time>2026-03-29T10:42:17Z</time></trkpt><trkpt lat="45.07182039518651" lon="0.8967395384495753"><ele>228.0</ele><time>2026-03-29T10:42:18Z</time></trkpt><trkpt lat="45.07183695435641" lon="0.8966227797494818"><ele>228.0</ele><time>2026-03-29T10:42:19Z</time></trkpt><trkpt lat="45.07185312572688" lon="0.8965148509472306"><ele>228.0</ele><time>2026-03-29T10:42:20Z</time></trkpt><trkpt lat="45.07186393299944" lon="0.8963977412035641"><ele>228.0</ele><time>2026-03-29T10:42:21Z</time></trkpt><trkpt lat="45.07187049285762" lon="0.8962702380726741"><ele>228.0</ele><time>2026-03-29T10:42:22Z</time></trkpt><trkpt lat="45.07186331550838" lon="0.8961256137511103"><ele>228.0</ele><time>2026-03-29T10:42:23Z</time></trkpt><trkpt lat="45.07187157114759" lon="0.8960032392856413"><ele>228.0</ele><time>2026-03-29T10:42:24Z</time></trkpt><trkpt lat="45.07187287671042" lon="0.895861780842295"><ele>227.2</ele><time>2026-03-29T10:42:25Z</time></trkpt><trkpt lat="45.07187950327499" lon="0.8957369641710067"><ele>226.4</ele><time>2026-03-29T10:42:26Z</time></trkpt><trkpt lat="45.071897606339206" lon="0.895606887825655"><ele>225.59999999999997</ele><time>2026-03-29T10:42:27Z</time></trkpt><trkpt lat="45.071917251298224" lon="0.8954734778998735"><ele>224.79999999999998</ele><time>2026-03-29T10:42:28Z</time></trkpt><trkpt lat="45.07194431580082" lon="0.8953594518932817"><ele>224.0</ele><time>2026-03-29T10:42:29Z</time></trkpt><trkpt lat="45.07197897758944" lon="0.895245322048205"><ele>224.0</ele><time>2026-03-29T10:42:30Z</time></trkpt><trkpt lat="45.07201375964313" lon="0.8951245641327222"><ele>223.99999999999997</ele><time>2026-03-29T10:42:31Z</time></trkpt><trkpt lat="45.072051362440725" lon="0.8950102207612234"><ele>223.99999999999997</ele><time>2026-03-29T10:42:32Z</time></trkpt><trkpt lat="45.07209617919135" lon="0.8948901815054915"><ele>224.0</ele><time>2026-03-29T10:42:33Z</time></trkpt><trkpt lat="45.07214010675565" lon="0.8947704283567037"><ele>224.0</ele><time>2026-03-29T10:42:34Z</time></trkpt><trkpt lat="45.07218424170156" lon="0.8946592530609967"><ele>223.33333333333334</ele><time>2026-03-29T10:42:35Z</time></trkpt><trkpt lat="45.0722235482121" lon="0.8945661912490834"><ele>222.66666666666669</ele><time>2026-03-29T10:42:36Z</time></trkpt><trkpt lat="45.07225789192675" lon="0.8944781800059137"><ele>222.0</ele><time>2026-03-29T10:42:37Z</time></trkpt><trkpt lat="45.072257916440904" lon="0.8943192553521462"><ele>221.33333333333331</ele><time>2026-03-29T10:42:39Z</time></trkpt><trkpt lat="45.07221140170448" lon="0.8942522771482634"><ele>220.66666666666666</ele><time>2026-03-29T10:42:39.999Z</time></trkpt><trkpt lat="45.072156222717254" lon="0.8942083796768591"><ele>220.0</ele><time>2026-03-29T10:42:40.999Z</time></trkpt><trkpt lat="45.07204551796951" lon="0.8941294516791664"><ele>219.6</ele><time>2026-03-29T10:42:42.999Z</time></trkpt><trkpt lat="45.07197240642545" lon="0.8940766114376965"><ele>219.2</ele><time>2026-03-29T10:42:44.999Z</time></trkpt><trkpt lat="45.07190831760259" lon="0.8939909284165123"><ele>218.8</ele><time>2026-03-29T10:43:10.999Z</time></trkpt><trkpt lat="45.07185243914187" lon="0.8939184449260251"><ele>218.4</ele><time>2026-03-29T10:43:12.999Z</time></trkpt><trkpt lat="45.07180862613072" lon="0.8938026953073634"><ele>218.0</ele><time>2026-03-29T10:43:15.999Z</time></trkpt><trkpt lat="45.07189999074215" lon="0.8936958484822031"><ele>218.0</ele><time>2026-03-29T10:43:17.999Z</time></trkpt><trkpt lat="45.07197946557705" lon="0.8936543856902182"><ele>218.0</ele><time>2026-03-29T10:43:18.999Z</time></trkpt><trkpt lat="45.07206883747493" lon="0.8936086377290358"><ele>218.0</ele><time>2026-03-29T10:43:19.999Z</time></trkpt><trkpt lat="45.072158677319365" lon="0.8935589555911668"><ele>218.0</ele><time>2026-03-29T10:43:20.999Z</time></trkpt><trkpt lat="45.07224874410351" lon="0.8934986892443744"><ele>218.0</ele><time>2026-03-29T10:43:21.999Z</time></trkpt><trkpt lat="45.07232486166256" lon="0.8934414555450161"><ele>217.8</ele><time>2026-03-29T10:43:22.999Z</time></trkpt><trkpt lat="45.072403298666146" lon="0.8933789492006777"><ele>217.60000000000002</ele><time>2026-03-29T10:43:23.999Z</time></trkpt><trkpt lat="45.072482294632515" lon="0.8933019405386424"><ele>217.39999999999998</ele><time>2026-03-29T10:43:24.999Z</time></trkpt><trkpt lat="45.072560450365074" lon="0.8932202504469371"><ele>217.2</ele><time>2026-03-29T10:43:25.999Z</time></trkpt><trkpt lat="45.07263209508412" lon="0.8931385671709171"><ele>217.0</ele><time>2026-03-29T10:43:26.999Z</time></trkpt><trkpt lat="45.07269408814014" lon="0.8930675971061307"><ele>216.99999999999997</ele><time>2026-03-29T10:43:27.999Z</time></trkpt><trkpt lat="45.07275412522271" lon="0.8930075463406183"><ele>217.0</ele><time>2026-03-29T10:43:28.999Z</time></trkpt><trkpt lat="45.07280921317134" lon="0.8929482439609708"><ele>217.0</ele><time>2026-03-29T10:43:29.999Z</time></trkpt><trkpt lat="45.07288355956132" lon="0.892861445099002"><ele>217.0</ele><time>2026-03-29T10:43:31.999Z</time></trkpt><trkpt lat="45.07293161504098" lon="0.8927604521489214"><ele>216.99999999999997</ele><time>2026-03-29T10:45:50.998Z</time></trkpt><trkpt lat="45.072877758855384" lon="0.8927032198776138"><ele>217.0</ele><time>2026-03-29T10:45:52.998Z</time></trkpt><trkpt lat="45.07280348866044" lon="0.8926395198925939"><ele>215.99999999999997</ele><time>2026-03-29T10:45:54.998Z</time></trkpt><trkpt lat="45.072723961085515" lon="0.8925546980269916"><ele>215.0</ele><time>2026-03-29T10:45:56.998Z</time></trkpt><trkpt lat="45.072666442875104" lon="0.8925014468177155"><ele>214.0</ele><time>2026-03-29T10:45:57.998Z</time></trkpt><trkpt lat="45.072615306438436" lon="0.8924376661441283"><ele>213.0</ele><time>2026-03-29T10:45:58.998Z</time></trkpt><trkpt lat="45.07256836429741" lon="0.892373719441392"><ele>211.99999999999997</ele><time>2026-03-29T10:45:59.998Z</time></trkpt><trkpt lat="45.07252932471432" lon="0.8923022864730022"><ele>211.0</ele><time>2026-03-29T10:46:00.998Z</time></trkpt><trkpt lat="45.072455458031165" lon="0.892163910095819"><ele>211.83333333333331</ele><time>2026-03-29T10:46:02.998Z</time></trkpt><trkpt lat="45.072398137960604" lon="0.8920166800998593"><ele>212.66666666666666</ele><time>2026-03-29T10:46:04.998Z</time></trkpt><trkpt lat="45.07238292862686" lon="0.8919261196917195"><ele>213.5</ele><time>2026-03-29T10:46:05.998Z</time></trkpt><trkpt lat="45.072377376475735" lon="0.8918336747488196"><ele>214.33333333333331</ele><time>2026-03-29T10:46:06.998Z</time></trkpt><trkpt lat="45.07236825918498" lon="0.8917429262203377"><ele>215.16666666666666</ele><time>2026-03-29T10:46:07.998Z</time></trkpt><trkpt lat="45.07234850100382" lon="0.8916526755975005"><ele>216.0</ele><time>2026-03-29T10:46:08.998Z</time></trkpt><trkpt lat="45.07230818350989" lon="0.891570409868656"><ele>216.20000000000002</ele><time>2026-03-29T10:46:09.998Z</time></trkpt><trkpt lat="45.07226595834944" lon="0.8914917634962362"><ele>216.40000000000003</ele><time>2026-03-29T10:46:10.998Z</time></trkpt><trkpt lat="45.072205903653796" lon="0.891328320601736"><ele>216.6</ele><time>2026-03-29T10:46:13Z</time></trkpt><trkpt lat="45.07217121300527" lon="0.8912472064238816"><ele>216.8</ele><time>2026-03-29T10:46:14Z</time></trkpt><trkpt lat="45.07210145605983" lon="0.8911242379584658"><ele>217.0</ele><time>2026-03-29T10:46:16Z</time></trkpt><trkpt lat="45.07205290341727" lon="0.8910472258040204"><ele>216.5</ele><time>2026-03-29T10:46:19Z</time></trkpt><trkpt lat="45.07202130208907" lon="0.8909208413340945"><ele>216.0</ele><time>2026-03-29T10:47:56.998Z</time></trkpt><trkpt lat="45.07201135368665" lon="0.8907527633803762"><ele>215.5</ele><time>2026-03-29T10:47:58.998Z</time></trkpt><trkpt lat="45.07198850484497" lon="0.8905872358382281"><ele>215.0</ele><time>2026-03-29T10:48:00.998Z</time></trkpt><trkpt lat="45.07194491233014" lon="0.890425017096211"><ele>215.0</ele><time>2026-03-29T10:48:02.998Z</time></trkpt><trkpt lat="45.07191147583972" lon="0.8903178467972288"><ele>215.0</ele><time>2026-03-29T10:48:03.998Z</time></trkpt><trkpt lat="45.07190060457931" lon="0.8902243003195743"><ele>215.0</ele><time>2026-03-29T10:48:04.998Z</time></trkpt><trkpt lat="45.071888215529405" lon="0.8901218556556723"><ele>215.0</ele><time>2026-03-29T10:48:05.998Z</time></trkpt><trkpt lat="45.0718818642434" lon="0.8900263339721671"><ele>215.0</ele><time>2026-03-29T10:48:06.998Z</time></trkpt><trkpt lat="45.07187021647186" lon="0.8899293880270025"><ele>215.0</ele><time>2026-03-29T10:48:07.998Z</time></trkpt><trkpt lat="45.07184948641296" lon="0.8898328947383151"><ele>215.0</ele><time>2026-03-29T10:48:08.998Z</time></trkpt><trkpt lat="45.07181128305307" lon="0.8896603242182632"><ele>214.8</ele><time>2026-03-29T10:48:10.998Z</time></trkpt><trkpt lat="45.07178000289995" lon="0.8894987723701302"><ele>214.6</ele><time>2026-03-29T10:48:12.998Z</time></trkpt><trkpt lat="45.07173297442552" lon="0.889339461235617"><ele>214.39999999999998</ele><time>2026-03-29T10:48:14.998Z</time></trkpt><trkpt lat="45.07169102881785" lon="0.8891953560004349"><ele>214.2</ele><time>2026-03-29T10:48:16.998Z</time></trkpt><trkpt lat="45.071631503612444" lon="0.8890885699819118"><ele>214.0</ele><time>2026-03-29T10:48:19Z</time></trkpt><trkpt lat="45.07155692586077" lon="0.88901312683745"><ele>212.66666666666666</ele><time>2026-03-29T10:48:21Z</time></trkpt><trkpt lat="45.071485282733775" lon="0.8889410037019462"><ele>211.33333333333331</ele><time>2026-03-29T10:48:23Z</time></trkpt><trkpt lat="45.07143039454615" lon="0.8888410628957147"><ele>210.0</ele><time>2026-03-29T10:48:25Z</time></trkpt><trkpt lat="45.07139948328137" lon="0.8886777481999076"><ele>208.66666666666669</ele><time>2026-03-29T10:48:27Z</time></trkpt><trkpt lat="45.07136679546838" lon="0.8885904641104849"><ele>207.33333333333334</ele><time>2026-03-29T10:48:28Z</time></trkpt><trkpt lat="45.07133368719903" lon="0.8885070148949422"><ele>206.0</ele><time>2026-03-29T10:48:29Z</time></trkpt><trkpt lat="45.07129486411199" lon="0.8884224551713571"><ele>205.50000000000003</ele><time>2026-03-29T10:48:30Z</time></trkpt><trkpt lat="45.07124798434882" lon="0.8883170997644175"><ele>205.0</ele><time>2026-03-29T10:48:31Z</time></trkpt><trkpt lat="45.071199597525776" lon="0.8882090736660843"><ele>204.5</ele><time>2026-03-29T10:48:32Z</time></trkpt><trkpt lat="45.0711555911218" lon="0.8881113631945431"><ele>204.0</ele><time>2026-03-29T10:48:33Z</time></trkpt><trkpt lat="45.071108520849776" lon="0.8880078352827705"><ele>203.50000000000003</ele><time>2026-03-29T10:48:34Z</time></trkpt><trkpt lat="45.071071616835525" lon="0.8879075393544866"><ele>203.0</ele><time>2026-03-29T10:48:35Z</time></trkpt><trkpt lat="45.071038326506645" lon="0.8878076261861055"><ele>203.0</ele><time>2026-03-29T10:48:36Z</time></trkpt><trkpt lat="45.071009947392625" lon="0.8877115532427046"><ele>203.0</ele><time>2026-03-29T10:48:37Z</time></trkpt><trkpt lat="45.07098393469349" lon="0.8876203518196881"><ele>203.0</ele><time>2026-03-29T10:48:38Z</time></trkpt><trkpt lat="45.070947109757554" lon="0.8875293895586935"><ele>203.0</ele><time>2026-03-29T10:48:39Z</time></trkpt><trkpt lat="45.07090715430322" lon="0.8874426070422188"><ele>203.0</ele><time>2026-03-29T10:48:40Z</time></trkpt><trkpt lat="45.07086430747739" lon="0.8873467412899284"><ele>203.0</ele><time>2026-03-29T10:48:41Z</time></trkpt><trkpt lat="45.070832367187855" lon="0.8872477715180821"><ele>203.0</ele><time>2026-03-29T10:48:42Z</time></trkpt><trkpt lat="45.07079899600694" lon="0.8871491245326385"><ele>202.33333333333334</ele><time>2026-03-29T10:48:43Z</time></trkpt><trkpt lat="45.07076276188617" lon="0.8870469509792139"><ele>201.66666666666669</ele><time>2026-03-29T10:48:44Z</time></trkpt><trkpt lat="45.070725926804286" lon="0.8869477443343494"><ele>201.0</ele><time>2026-03-29T10:48:45Z</time></trkpt><trkpt lat="45.07068548576278" lon="0.8868544056800003"><ele>200.33333333333331</ele><time>2026-03-29T10:48:46Z</time></trkpt><trkpt lat="45.07063453164684" lon="0.8867632921202627"><ele>199.66666666666666</ele><time>2026-03-29T10:48:47Z</time></trkpt><trkpt lat="45.07058377632903" lon="0.8866734004558003"><ele>199.0</ele><time>2026-03-29T10:48:48Z</time></trkpt><trkpt lat="45.07053032867147" lon="0.8865800267405152"><ele>197.99999999999997</ele><time>2026-03-29T10:48:49Z</time></trkpt><trkpt lat="45.07047557044302" lon="0.8864962867855128"><ele>197.0</ele><time>2026-03-29T10:48:50Z</time></trkpt><trkpt lat="45.07041714659239" lon="0.8864097491916992"><ele>196.0</ele><time>2026-03-29T10:48:51Z</time></trkpt><trkpt lat="45.070355671996644" lon="0.886334026431189"><ele>195.0</ele><time>2026-03-29T10:48:52Z</time></trkpt><trkpt lat="45.0702910442627" lon="0.8862648853236533"><ele>193.99999999999997</ele><time>2026-03-29T10:48:53Z</time></trkpt><trkpt lat="45.07021331154029" lon="0.8861863440825134"><ele>193.0</ele><time>2026-03-29T10:48:54Z</time></trkpt><trkpt lat="45.07014647515775" lon="0.8861020492226563"><ele>193.0</ele><time>2026-03-29T10:48:54.999Z</time></trkpt><trkpt lat="45.07008151570201" lon="0.8860000453904043"><ele>193.0</ele><time>2026-03-29T10:48:55.999Z</time></trkpt><trkpt lat="45.07002354596255" lon="0.8858856757013601"><ele>193.0</ele><time>2026-03-29T10:48:56.999Z</time></trkpt><trkpt lat="45.06996274070091" lon="0.8857733328736181"><ele>193.0</ele><time>2026-03-29T10:48:57.999Z</time></trkpt><trkpt lat="45.06989140898755" lon="0.8856576089952433"><ele>193.0</ele><time>2026-03-29T10:48:58.999Z</time></trkpt><trkpt lat="45.06982001460383" lon="0.8855405557684228"><ele>192.0</ele><time>2026-03-29T10:48:59.999Z</time></trkpt><trkpt lat="45.069741439153546" lon="0.8854189446118325"><ele>191.0</ele><time>2026-03-29T10:49:00.999Z</time></trkpt><trkpt lat="45.06966119092084" lon="0.8853001472726643"><ele>190.0</ele><time>2026-03-29T10:49:01.999Z</time></trkpt><trkpt lat="45.06959930118525" lon="0.8851819302535979"><ele>189.0</ele><time>2026-03-29T10:49:02.999Z</time></trkpt><trkpt lat="45.06954897328766" lon="0.8850506300023103"><ele>188.0</ele><time>2026-03-29T10:49:03.999Z</time></trkpt><trkpt lat="45.06950839606724" lon="0.8849310673214179"><ele>187.83333333333331</ele><time>2026-03-29T10:49:04.999Z</time></trkpt><trkpt lat="45.06947217641001" lon="0.8848145723519617"><ele>187.66666666666666</ele><time>2026-03-29T10:49:05.999Z</time></trkpt><trkpt lat="45.069437978743885" lon="0.8847184025219789"><ele>187.5</ele><time>2026-03-29T10:49:06.999Z</time></trkpt><trkpt lat="45.06938795209996" lon="0.8846423706665456"><ele>187.33333333333334</ele><time>2026-03-29T10:49:07.999Z</time></trkpt><trkpt lat="45.069324967900755" lon="0.8845690238027948"><ele>187.16666666666669</ele><time>2026-03-29T10:49:08.999Z</time></trkpt><trkpt lat="45.069255405438604" lon="0.8845197243461125"><ele>187.0</ele><time>2026-03-29T10:49:09.999Z</time></trkpt><trkpt lat="45.06917327326293" lon="0.8844982684649311"><ele>187.6</ele><time>2026-03-29T10:49:10.999Z</time></trkpt><trkpt lat="45.069080311440686" lon="0.8844979474004291"><ele>188.2</ele><time>2026-03-29T10:49:11.999Z</time></trkpt><trkpt lat="45.06897796154945" lon="0.8845264012931718"><ele>188.8</ele><time>2026-03-29T10:49:12.999Z</time></trkpt><trkpt lat="45.0688714208867" lon="0.884558412883691"><ele>189.4</ele><time>2026-03-29T10:49:13.999Z</time></trkpt><trkpt lat="45.068758817541806" lon="0.8845863904436688"><ele>190.0</ele><time>2026-03-29T10:49:14.999Z</time></trkpt><trkpt lat="45.068648890180675" lon="0.8846139183687898"><ele>190.0</ele><time>2026-03-29T10:49:15.999Z</time></trkpt><trkpt lat="45.068528371277075" lon="0.8846408367850949"><ele>190.0</ele><time>2026-03-29T10:49:16.999Z</time></trkpt><trkpt lat="45.068420411168326" lon="0.8846571676580209"><ele>190.0</ele><time>2026-03-29T10:49:17.999Z</time></trkpt><trkpt lat="45.06830923261811" lon="0.8846863067896684"><ele>190.0</ele><time>2026-03-29T10:49:18.999Z</time></trkpt><trkpt lat="45.06819035897723" lon="0.8847264197160597"><ele>189.6</ele><time>2026-03-29T10:49:19.999Z</time></trkpt><trkpt lat="45.0680867206533" lon="0.8847597253504523"><ele>189.2</ele><time>2026-03-29T10:49:20.999Z</time></trkpt><trkpt lat="45.067983217825685" lon="0.8847982400873565"><ele>188.8</ele><time>2026-03-29T10:49:21.999Z</time></trkpt><trkpt lat="45.06787747520022" lon="0.884834406532589"><ele>188.4</ele><time>2026-03-29T10:49:22.999Z</time></trkpt><trkpt lat="45.06777734470371" lon="0.8848690059566026"><ele>188.0</ele><time>2026-03-29T10:49:23.999Z</time></trkpt><trkpt lat="45.06768124705765" lon="0.884885130023148"><ele>188.0</ele><time>2026-03-29T10:49:24.999Z</time></trkpt><trkpt lat="45.06757951237392" lon="0.8848953977552536"><ele>188.0</ele><time>2026-03-29T10:49:25.999Z</time></trkpt><trkpt lat="45.06747593254779" lon="0.8848998242856774"><ele>188.0</ele><time>2026-03-29T10:49:26.999Z</time></trkpt><trkpt lat="45.06736452612054" lon="0.8849085916645552"><ele>188.0</ele><time>2026-03-29T10:49:27.999Z</time></trkpt><trkpt lat="45.06725153770662" lon="0.8849183677739904"><ele>188.0</ele><time>2026-03-29T10:49:28.999Z</time></trkpt><trkpt lat="45.06713934933358" lon="0.8849227236131442"><ele>188.25</ele><time>2026-03-29T10:49:29.999Z</time></trkpt><trkpt lat="45.06702353893117" lon="0.8849167116293372"><ele>188.5</ele><time>2026-03-29T10:49:30.999Z</time></trkpt><trkpt lat="45.0669096403923" lon="0.8849120351978789"><ele>188.75</ele><time>2026-03-29T10:49:31.999Z</time></trkpt><trkpt lat="45.06679607879992" lon="0.884926222100456"><ele>189.0</ele><time>2026-03-29T10:49:32.999Z</time></trkpt><trkpt lat="45.06668167678527" lon="0.8849202906625637"><ele>189.0</ele><time>2026-03-29T10:49:33.999Z</time></trkpt><trkpt lat="45.06656600318097" lon="0.8849228731998117"><ele>189.0</ele><time>2026-03-29T10:49:34.999Z</time></trkpt><trkpt lat="45.06645642115577" lon="0.8849069917961602"><ele>189.0</ele><time>2026-03-29T10:49:35.999Z</time></trkpt><trkpt lat="45.06633961305199" lon="0.8848956028987583"><ele>189.0</ele><time>2026-03-29T10:49:36.999Z</time></trkpt><trkpt lat="45.06622847650986" lon="0.8848852243323257"><ele>189.0</ele><time>2026-03-29T10:49:37.999Z</time></trkpt><trkpt lat="45.06611289783606" lon="0.8848739024092243"><ele>189.0</ele><time>2026-03-29T10:49:38.999Z</time></trkpt><trkpt lat="45.06599558725076" lon="0.8848674263216036"><ele>189.0</ele><time>2026-03-29T10:49:39.999Z</time></trkpt><trkpt lat="45.0658852161555" lon="0.8848648400616808"><ele>189.0</ele><time>2026-03-29T10:49:40.999Z</time></trkpt><trkpt lat="45.06576497887197" lon="0.8848666663390553"><ele>189.25</ele><time>2026-03-29T10:49:41.999Z</time></trkpt><trkpt lat="45.06564547090968" lon="0.8848742321714228"><ele>189.5</ele><time>2026-03-29T10:49:42.999Z</time></trkpt><trkpt lat="45.06552675808546" lon="0.8848748712948764"><ele>189.75</ele><time>2026-03-29T10:49:43.999Z</time></trkpt><trkpt lat="45.065395559982626" lon="0.8848684692634713"><ele>190.0</ele><time>2026-03-29T10:49:44.999Z</time></trkpt><trkpt lat="45.06528178629622" lon="0.8848560614835447"><ele>190.0</ele><time>2026-03-29T10:49:45.999Z</time></trkpt><trkpt lat="45.06516573699819" lon="0.8848545860053667"><ele>190.0</ele><time>2026-03-29T10:49:46.999Z</time></trkpt><trkpt lat="45.06505453221944" lon="0.8848549815948714"><ele>190.0</ele><time>2026-03-29T10:49:47.999Z</time></trkpt><trkpt lat="45.06494833354998" lon="0.8848529328921226"><ele>190.0</ele><time>2026-03-29T10:49:48.998Z</time></trkpt><trkpt lat="45.06484079460651" lon="0.8848534556614351"><ele>190.0</ele><time>2026-03-29T10:49:49.998Z</time></trkpt><trkpt lat="45.064744406703454" lon="0.8848573708535832"><ele>190.33333333333334</ele><time>2026-03-29T10:49:50.998Z</time></trkpt><trkpt lat="45.06467466876247" lon="0.8848957438390848"><ele>190.66666666666669</ele><time>2026-03-29T10:49:51.998Z</time></trkpt><trkpt lat="45.064615945015184" lon="0.8849593836186406"><ele>191.0</ele><time>2026-03-29T10:49:52.998Z</time></trkpt><trkpt lat="45.06456133999451" lon="0.8850523127123946"><ele>191.33333333333334</ele><time>2026-03-29T10:49:53.998Z</time></trkpt><trkpt lat="45.0644956419674" lon="0.8851507048658727"><ele>191.66666666666666</ele><time>2026-03-29T10:49:54.998Z</time></trkpt><trkpt lat="45.06442180544455" lon="0.8852342745007713"><ele>192.0</ele><time>2026-03-29T10:49:55.998Z</time></trkpt><trkpt lat="45.06433789471193" lon="0.8853191055128312"><ele>192.0</ele><time>2026-03-29T10:49:56.998Z</time></trkpt><trkpt lat="45.06426490293935" lon="0.8853819916034384"><ele>192.0</ele><time>2026-03-29T10:49:57.998Z</time></trkpt><trkpt lat="45.06418992032162" lon="0.8854125589187095"><ele>192.0</ele><time>2026-03-29T10:49:58.998Z</time></trkpt><trkpt lat="45.064089922950544" lon="0.8854319785727164"><ele>192.0</ele><time>2026-03-29T10:49:59.998Z</time></trkpt><trkpt lat="45.06398589399439" lon="0.8854375362308761"><ele>192.0</ele><time>2026-03-29T10:50:00.998Z</time></trkpt><trkpt lat="45.06387504546404" lon="0.8854272295870084"><ele>190.0</ele><time>2026-03-29T10:50:01.998Z</time></trkpt><trkpt lat="45.063765650587115" lon="0.8854146822917317"><ele>188.0</ele><time>2026-03-29T10:50:02.998Z</time></trkpt><trkpt lat="45.06364967516758" lon="0.8853977379698073"><ele>186.0</ele><time>2026-03-29T10:50:03.998Z</time></trkpt><trkpt lat="45.06353855753109" lon="0.885385043529195"><ele>184.0</ele><time>2026-03-29T10:50:04.998Z</time></trkpt><trkpt lat="45.06342385354545" lon="0.8853731746674351"><ele>184.0</ele><time>2026-03-29T10:50:05.998Z</time></trkpt><trkpt lat="45.06330567523664" lon="0.8853621084074578"><ele>184.0</ele><time>2026-03-29T10:50:06.998Z</time></trkpt><trkpt lat="45.06319355718836" lon="0.885352885089026"><ele>184.0</ele><time>2026-03-29T10:50:07.998Z</time></trkpt><trkpt lat="45.06308099658458" lon="0.8853456883101677"><ele>184.0</ele><time>2026-03-29T10:50:08.998Z</time></trkpt><trkpt lat="45.0629701425822" lon="0.8853352345500194"><ele>183.6</ele><time>2026-03-29T10:50:09.998Z</time></trkpt><trkpt lat="45.06285797198835" lon="0.8853259268787649"><ele>183.2</ele><time>2026-03-29T10:50:10.998Z</time></trkpt><trkpt lat="45.06274910346473" lon="0.8853155776600584"><ele>182.79999999999998</ele><time>2026-03-29T10:50:11.998Z</time></trkpt><trkpt lat="45.06263682124539" lon="0.885307081158839"><ele>182.39999999999998</ele><time>2026-03-29T10:50:12.998Z</time></trkpt><trkpt lat="45.062527776431665" lon="0.8853037901278881"><ele>182.0</ele><time>2026-03-29T10:50:13.998Z</time></trkpt><trkpt lat="45.06241777884059" lon="0.8852987875148247"><ele>183.16666666666666</ele><time>2026-03-29T10:50:14.998Z</time></trkpt><trkpt lat="45.06231638386069" lon="0.8852839799201471"><ele>184.33333333333331</ele><time>2026-03-29T10:50:15.998Z</time></trkpt><trkpt lat="45.062218368463036" lon="0.8852652498395235"><ele>185.5</ele><time>2026-03-29T10:50:16.998Z</time></trkpt><trkpt lat="45.06212998814925" lon="0.885255309675579"><ele>186.66666666666666</ele><time>2026-03-29T10:50:17.998Z</time></trkpt><trkpt lat="45.06205344016931" lon="0.8852485674296336"><ele>187.83333333333334</ele><time>2026-03-29T10:50:18.998Z</time></trkpt><trkpt lat="45.06198309974971" lon="0.8852407295779735"><ele>189.0</ele><time>2026-03-29T10:50:19.998Z</time></trkpt><trkpt lat="45.06187000990847" lon="0.8852710596549153"><ele>189.0</ele><time>2026-03-29T10:50:21.998Z</time></trkpt><trkpt lat="45.06181177637019" lon="0.8853178363742064"><ele>189.0</ele><time>2026-03-29T10:50:23.998Z</time></trkpt><trkpt lat="45.06170525648233" lon="0.8853328753681303"><ele>189.0</ele><time>2026-03-29T10:50:27Z</time></trkpt><trkpt lat="45.061611580563294" lon="0.8852981775560009"><ele>189.0</ele><time>2026-03-29T10:50:29Z</time></trkpt><trkpt lat="45.061511044590816" lon="0.885277999760149"><ele>189.0</ele><time>2026-03-29T10:50:31Z</time></trkpt><trkpt lat="45.06139215258907" lon="0.8852837004306774"><ele>189.16666666666666</ele><time>2026-03-29T10:50:33Z</time></trkpt><trkpt lat="45.06131431563276" lon="0.8852877283637739"><ele>189.33333333333334</ele><time>2026-03-29T10:50:34Z</time></trkpt><trkpt lat="45.06123303234891" lon="0.885285499780143"><ele>189.5</ele><time>2026-03-29T10:50:35Z</time></trkpt><trkpt lat="45.06115528138607" lon="0.8852901090177739"><ele>189.66666666666669</ele><time>2026-03-29T10:50:36Z</time></trkpt><trkpt lat="45.06108765042268" lon="0.885304379046206"><ele>189.83333333333334</ele><time>2026-03-29T10:50:37Z</time></trkpt><trkpt lat="45.06095531706532" lon="0.885301280925709"><ele>190.0</ele><time>2026-03-29T10:50:39Z</time></trkpt><trkpt lat="45.06088495811386" lon="0.8852628817621558"><ele>190.0</ele><time>2026-03-29T10:50:40Z</time></trkpt><trkpt lat="45.06080512188701" lon="0.8852478321609157"><ele>190.0</ele><time>2026-03-29T10:50:41Z</time></trkpt><trkpt lat="45.060731941405564" lon="0.8852538954336827"><ele>190.0</ele><time>2026-03-29T10:50:42Z</time></trkpt><trkpt lat="45.06066207315084" lon="0.8852502410281811"><ele>190.0</ele><time>2026-03-29T10:50:43Z</time></trkpt><trkpt lat="45.06059141490261" lon="0.8852540884156362"><ele>190.0</ele><time>2026-03-29T10:50:44Z</time></trkpt><trkpt lat="45.0605284024399" lon="0.8852515592129166"><ele>190.0</ele><time>2026-03-29T10:50:45Z</time></trkpt><trkpt lat="45.0604149334829" lon="0.8852812076254097"><ele>190.16666666666669</ele><time>2026-03-29T10:50:47Z</time></trkpt><trkpt lat="45.06035131122922" lon="0.8852910680915549"><ele>190.33333333333334</ele><time>2026-03-29T10:50:48Z</time></trkpt><trkpt lat="45.06024660787002" lon="0.8852841391789077"><ele>190.5</ele><time>2026-03-29T10:50:50Z</time></trkpt><trkpt lat="45.060171159113516" lon="0.8852784760830958"><ele>190.66666666666666</ele><time>2026-03-29T10:50:52Z</time></trkpt><trkpt lat="45.060088885452934" lon="0.8852520882460646"><ele>190.83333333333331</ele><time>2026-03-29T10:50:54Z</time></trkpt><trkpt lat="45.05997662709758" lon="0.8852440963002328"><ele>191.0</ele><time>2026-03-29T10:50:56Z</time></trkpt><trkpt lat="45.05986410336448" lon="0.8852552735871171"><ele>192.0</ele><time>2026-03-29T10:50:58Z</time></trkpt><trkpt lat="45.05974061047323" lon="0.8852129682711891"><ele>193.0</ele><time>2026-03-29T10:51:00Z</time></trkpt><trkpt lat="45.059624294714766" lon="0.8852448936867078"><ele>194.0</ele><time>2026-03-29T10:51:01.999Z</time></trkpt><trkpt lat="45.05951792387481" lon="0.8852781380593486"><ele>195.0</ele><time>2026-03-29T10:51:03.999Z</time></trkpt><trkpt lat="45.05943839452671" lon="0.8852518354080681"><ele>196.0</ele><time>2026-03-29T10:51:05.999Z</time></trkpt><trkpt lat="45.059404136216784" lon="0.8851525524684271"><ele>195.20000000000002</ele><time>2026-03-29T10:51:07.999Z</time></trkpt><trkpt lat="45.05942128256879" lon="0.88504099623785"><ele>194.4</ele><time>2026-03-29T10:51:09.999Z</time></trkpt><trkpt lat="45.05943128805713" lon="0.8848985793488741"><ele>193.6</ele><time>2026-03-29T10:51:11.999Z</time></trkpt><trkpt lat="45.05939906583374" lon="0.8847666333584717"><ele>192.8</ele><time>2026-03-29T10:51:13.999Z</time></trkpt><trkpt lat="45.05929152294007" lon="0.88474452516063"><ele>192.0</ele><time>2026-03-29T10:51:15.999Z</time></trkpt><trkpt lat="45.05922582130561" lon="0.8847475405808085"><ele>192.0</ele><time>2026-03-29T10:51:16.999Z</time></trkpt><trkpt lat="45.05916219545807" lon="0.8847468555228543"><ele>192.0</ele><time>2026-03-29T10:51:17.999Z</time></trkpt><trkpt lat="45.059064389040145" lon="0.8847428294308698"><ele>192.0</ele><time>2026-03-29T10:51:19.999Z</time></trkpt><trkpt lat="45.05894957307268" lon="0.8847312102904826"><ele>192.0</ele><time>2026-03-29T10:51:21.999Z</time></trkpt><trkpt lat="45.05888657411451" lon="0.884724420311195"><ele>192.0</ele><time>2026-03-29T10:51:22.999Z</time></trkpt><trkpt lat="45.05882037920978" lon="0.8847300750581684"><ele>192.0</ele><time>2026-03-29T10:51:23.999Z</time></trkpt><trkpt lat="45.0587005807363" lon="0.884737525948058"><ele>192.2</ele><time>2026-03-29T10:51:25.999Z</time></trkpt><trkpt lat="45.05863537813265" lon="0.8847320797172564"><ele>192.39999999999998</ele><time>2026-03-29T10:51:26.999Z</time></trkpt><trkpt lat="45.0585211787292" lon="0.8847392486466981"><ele>192.60000000000002</ele><time>2026-03-29T10:51:28.999Z</time></trkpt><trkpt lat="45.058423038566815" lon="0.8847408711749257"><ele>192.8</ele><time>2026-03-29T10:51:30.999Z</time></trkpt><trkpt lat="45.05831995761523" lon="0.8847461774653673"><ele>193.0</ele><time>2026-03-29T10:51:32.999Z</time></trkpt><trkpt lat="45.058211922650244" lon="0.8847555047713574"><ele>193.16666666666666</ele><time>2026-03-29T10:51:34.999Z</time></trkpt><trkpt lat="45.058096218163506" lon="0.8847944388573408"><ele>193.33333333333331</ele><time>2026-03-29T10:51:36.999Z</time></trkpt><trkpt lat="45.05803105143531" lon="0.8848063652769171"><ele>193.5</ele><time>2026-03-29T10:51:37.999Z</time></trkpt><trkpt lat="45.05793492875491" lon="0.8848234114450728"><ele>193.66666666666669</ele><time>2026-03-29T10:51:39.999Z</time></trkpt><trkpt lat="45.0578698510141" lon="0.8848360113884188"><ele>193.83333333333334</ele><time>2026-03-29T10:51:40.999Z</time></trkpt><trkpt lat="45.057783426470024" lon="0.8848503272183643"><ele>194.0</ele><time>2026-03-29T10:51:41.999Z</time></trkpt><trkpt lat="45.057699753710246" lon="0.8848692370930583"><ele>194.0</ele><time>2026-03-29T10:51:42.999Z</time></trkpt><trkpt lat="45.05762931335951" lon="0.8848657788339774"><ele>194.0</ele><time>2026-03-29T10:51:43.999Z</time></trkpt><trkpt lat="45.05755664707043" lon="0.8848819222227877"><ele>194.0</ele><time>2026-03-29T10:51:44.999Z</time></trkpt><trkpt lat="45.05747629005508" lon="0.8849128493909146"><ele>194.0</ele><time>2026-03-29T10:51:45.999Z</time></trkpt><trkpt lat="45.057382323355405" lon="0.8849586386813069"><ele>194.0</ele><time>2026-03-29T10:51:47.999Z</time></trkpt><trkpt lat="45.05725956195356" lon="0.8849837108848501"><ele>193.66666666666669</ele><time>2026-03-29T10:51:49.999Z</time></trkpt><trkpt lat="45.05718508583898" lon="0.8850018248821376"><ele>193.33333333333334</ele><time>2026-03-29T10:51:50.999Z</time></trkpt><trkpt lat="45.057104580887206" lon="0.8850438500074733"><ele>193.0</ele><time>2026-03-29T10:51:51.999Z</time></trkpt><trkpt lat="45.05703185945896" lon="0.8850732883791429"><ele>192.66666666666669</ele><time>2026-03-29T10:51:52.999Z</time></trkpt><trkpt lat="45.05695786805098" lon="0.885099034752301"><ele>192.33333333333334</ele><time>2026-03-29T10:51:53.999Z</time></trkpt><trkpt lat="45.05688522548783" lon="0.8851254202701863"><ele>192.0</ele><time>2026-03-29T10:51:54.998Z</time></trkpt><trkpt lat="45.05680543882274" lon="0.8851475411428944"><ele>193.66666666666666</ele><time>2026-03-29T10:51:55.998Z</time></trkpt><trkpt lat="45.05673704412432" lon="0.8851652268363134"><ele>195.33333333333331</ele><time>2026-03-29T10:51:56.998Z</time></trkpt><trkpt lat="45.05667557429716" lon="0.8851875543800936"><ele>197.0</ele><time>2026-03-29T10:51:57.998Z</time></trkpt><trkpt lat="45.056563597842754" lon="0.8851668644839754"><ele>198.66666666666666</ele><time>2026-03-29T10:51:59.998Z</time></trkpt><trkpt lat="45.0564623591029" lon="0.8851168529291367"><ele>200.33333333333331</ele><time>2026-03-29T10:52:01.998Z</time></trkpt><trkpt lat="45.056399394458936" lon="0.8851101719089526"><ele>202.0</ele><time>2026-03-29T10:52:02.998Z</time></trkpt><trkpt lat="45.05632956789583" lon="0.8851094422733933"><ele>201.99999999999997</ele><time>2026-03-29T10:52:03.998Z</time></trkpt><trkpt lat="45.056256134264025" lon="0.8851399307040125"><ele>202.0</ele><time>2026-03-29T10:52:04.998Z</time></trkpt><trkpt lat="45.05618043627337" lon="0.8851767376228771"><ele>202.0</ele><time>2026-03-29T10:52:05.998Z</time></trkpt><trkpt lat="45.056097175486705" lon="0.8852322253061516"><ele>202.0</ele><time>2026-03-29T10:52:06.998Z</time></trkpt><trkpt lat="45.056027512647105" lon="0.885263575849582"><ele>201.99999999999997</ele><time>2026-03-29T10:52:07.998Z</time></trkpt><trkpt lat="45.0559523729636" lon="0.8852982405731225"><ele>202.0</ele><time>2026-03-29T10:52:08.998Z</time></trkpt><trkpt lat="45.055865539793686" lon="0.8853164195367721"><ele>201.0</ele><time>2026-03-29T10:52:09.998Z</time></trkpt><trkpt lat="45.05577861456195" lon="0.8853444267225442"><ele>200.0</ele><time>2026-03-29T10:52:10.998Z</time></trkpt><trkpt lat="45.05569254338665" lon="0.8853910917841448"><ele>199.0</ele><time>2026-03-29T10:52:11.998Z</time></trkpt><trkpt lat="45.05559840348839" lon="0.885451254268982"><ele>198.0</ele><time>2026-03-29T10:52:12.998Z</time></trkpt><trkpt lat="45.05550103809846" lon="0.8855242971495514"><ele>197.0</ele><time>2026-03-29T10:52:13.998Z</time></trkpt><trkpt lat="45.05538702432182" lon="0.8855874651879575"><ele>197.0</ele><time>2026-03-29T10:52:14.998Z</time></trkpt><trkpt lat="45.05527428013099" lon="0.8856566354749639"><ele>197.0</ele><time>2026-03-29T10:52:15.998Z</time></trkpt><trkpt lat="45.055190545343535" lon="0.8857476340541872"><ele>197.0</ele><time>2026-03-29T10:52:16.998Z</time></trkpt><trkpt lat="45.05512067281765" lon="0.8857813193907657"><ele>197.0</ele><time>2026-03-29T10:52:17.998Z</time></trkpt><trkpt lat="45.05498995756594" lon="0.8858881220869247"><ele>197.25</ele><time>2026-03-29T10:52:18.998Z</time></trkpt><trkpt lat="45.054885451307165" lon="0.8859567269495903"><ele>197.5</ele><time>2026-03-29T10:52:19.998Z</time></trkpt><trkpt lat="45.05478078231634" lon="0.8860327471491145"><ele>197.75</ele><time>2026-03-29T10:52:20.998Z</time></trkpt><trkpt lat="45.05468459536124" lon="0.8861085494363768"><ele>198.0</ele><time>2026-03-29T10:52:21.998Z</time></trkpt><trkpt lat="45.054585240796975" lon="0.8861814706553522"><ele>198.0</ele><time>2026-03-29T10:52:22.998Z</time></trkpt><trkpt lat="45.05448926340209" lon="0.8862563213098684"><ele>198.0</ele><time>2026-03-29T10:52:23.998Z</time></trkpt><trkpt lat="45.05438660800934" lon="0.8863445448446673"><ele>198.0</ele><time>2026-03-29T10:52:24.998Z</time></trkpt><trkpt lat="45.05428697021854" lon="0.8864272924127528"><ele>198.0</ele><time>2026-03-29T10:52:25.998Z</time></trkpt><trkpt lat="45.054197549087746" lon="0.8865010467744778"><ele>198.0</ele><time>2026-03-29T10:52:26.998Z</time></trkpt><trkpt lat="45.05410853872732" lon="0.8865591123440587"><ele>197.5</ele><time>2026-03-29T10:52:27.998Z</time></trkpt><trkpt lat="45.05402133366168" lon="0.8866269529873874"><ele>197.0</ele><time>2026-03-29T10:52:28.998Z</time></trkpt><trkpt lat="45.0539406099524" lon="0.8866816489482837"><ele>196.5</ele><time>2026-03-29T10:52:29.998Z</time></trkpt><trkpt lat="45.05386548014396" lon="0.8867349655194946"><ele>196.0</ele><time>2026-03-29T10:52:31Z</time></trkpt><trkpt lat="45.0537953232705" lon="0.8867863637776744"><ele>195.5</ele><time>2026-03-29T10:52:32Z</time></trkpt><trkpt lat="45.053731747650374" lon="0.8868375308480174"><ele>195.0</ele><time>2026-03-29T10:52:33Z</time></trkpt><trkpt lat="45.0536751903123" lon="0.8868981952449241"><ele>195.0</ele><time>2026-03-29T10:52:34Z</time></trkpt><trkpt lat="45.053631071147706" lon="0.8869759785540828"><ele>195.0</ele><time>2026-03-29T10:52:35Z</time></trkpt><trkpt lat="45.05359244421995" lon="0.8870879038456413"><ele>195.0</ele><time>2026-03-29T10:52:36Z</time></trkpt><trkpt lat="45.05355732240973" lon="0.8871683839194499"><ele>195.0</ele><time>2026-03-29T10:52:37Z</time></trkpt><trkpt lat="45.05351953358601" lon="0.8872528075845884"><ele>195.0</ele><time>2026-03-29T10:52:38Z</time></trkpt><trkpt lat="45.05344588666008" lon="0.8873978703016043"><ele>195.0</ele><time>2026-03-29T10:52:40Z</time></trkpt><trkpt lat="45.05335725317304" lon="0.8874970238457432"><ele>196.16666666666666</ele><time>2026-03-29T10:52:42Z</time></trkpt><trkpt lat="45.05328340399242" lon="0.8875117607319072"><ele>197.33333333333331</ele><time>2026-03-29T10:52:44Z</time></trkpt><trkpt lat="45.05320557570023" lon="0.8873909418843586"><ele>198.5</ele><time>2026-03-29T10:52:46Z</time></trkpt><trkpt lat="45.05316564554116" lon="0.8873091428894707"><ele>199.66666666666666</ele><time>2026-03-29T10:52:47Z</time></trkpt><trkpt lat="45.05312924881299" lon="0.887233217129582"><ele>200.83333333333331</ele><time>2026-03-29T10:52:48Z</time></trkpt><trkpt lat="45.05303946129006" lon="0.8871395213019839"><ele>202.0</ele><time>2026-03-29T10:52:50Z</time></trkpt><trkpt lat="45.05297658075156" lon="0.8871216447655604"><ele>201.99999999999997</ele><time>2026-03-29T10:52:51Z</time></trkpt><trkpt lat="45.05291239843975" lon="0.8871369251885288"><ele>202.0</ele><time>2026-03-29T10:52:52Z</time></trkpt><trkpt lat="45.05284607967234" lon="0.8871986308555059"><ele>202.0</ele><time>2026-03-29T10:52:53Z</time></trkpt><trkpt lat="45.052779111748485" lon="0.8872385398063558"><ele>202.0</ele><time>2026-03-29T10:52:54Z</time></trkpt><trkpt lat="45.052658283570885" lon="0.8871903890013716"><ele>201.99999999999997</ele><time>2026-03-29T10:52:56Z</time></trkpt><trkpt lat="45.052594062345634" lon="0.8871220843559646"><ele>202.0</ele><time>2026-03-29T10:52:57Z</time></trkpt><trkpt lat="45.05252546628477" lon="0.8870336037047045"><ele>202.0</ele><time>2026-03-29T10:52:58Z</time></trkpt><trkpt lat="45.05246303143065" lon="0.8869327647697083"><ele>202.0</ele><time>2026-03-29T10:52:59Z</time></trkpt><trkpt lat="45.052413169207945" lon="0.8868305483934874"><ele>202.0</ele><time>2026-03-29T10:53:00Z</time></trkpt><trkpt lat="45.05236173028811" lon="0.8867404352456785"><ele>202.0</ele><time>2026-03-29T10:53:01Z</time></trkpt><trkpt lat="45.05228357745137" lon="0.8866281633291041"><ele>202.0</ele><time>2026-03-29T10:53:02Z</time></trkpt><trkpt lat="45.05221988736285" lon="0.8865323189893362"><ele>203.8</ele><time>2026-03-29T10:53:03Z</time></trkpt><trkpt lat="45.052165156887895" lon="0.8864178144668842"><ele>205.6</ele><time>2026-03-29T10:53:04Z</time></trkpt><trkpt lat="45.05211668931123" lon="0.8862966764485026"><ele>207.4</ele><time>2026-03-29T10:53:05Z</time></trkpt><trkpt lat="45.052058571152955" lon="0.8861832079158946"><ele>209.20000000000002</ele><time>2026-03-29T10:53:06Z</time></trkpt><trkpt lat="45.05201056378671" lon="0.8860535866366467"><ele>211.0</ele><time>2026-03-29T10:53:07Z</time></trkpt><trkpt lat="45.05195866276647" lon="0.8859219067026795"><ele>211.0</ele><time>2026-03-29T10:53:08Z</time></trkpt><trkpt lat="45.05190219453835" lon="0.8857845529931913"><ele>211.0</ele><time>2026-03-29T10:53:09Z</time></trkpt><trkpt lat="45.05185093332349" lon="0.8856497576057756"><ele>211.0</ele><time>2026-03-29T10:53:10Z</time></trkpt><trkpt lat="45.051791565009886" lon="0.8855153140971416"><ele>211.0</ele><time>2026-03-29T10:53:11Z</time></trkpt><trkpt lat="45.05173134042494" lon="0.8853828887028459"><ele>211.0</ele><time>2026-03-29T10:53:11.999Z</time></trkpt><trkpt lat="45.05166993141492" lon="0.8852506619818246"><ele>212.0</ele><time>2026-03-29T10:53:12.999Z</time></trkpt><trkpt lat="45.05161815326704" lon="0.885124436023223"><ele>213.0</ele><time>2026-03-29T10:53:13.999Z</time></trkpt><trkpt lat="45.05157157700007" lon="0.8850063181528973"><ele>214.00000000000003</ele><time>2026-03-29T10:53:14.999Z</time></trkpt><trkpt lat="45.051544014916345" lon="0.8848990283240074"><ele>215.0</ele><time>2026-03-29T10:53:15.999Z</time></trkpt><trkpt lat="45.05148321602702" lon="0.8847679553707378"><ele>216.0</ele><time>2026-03-29T10:53:17.999Z</time></trkpt><trkpt lat="45.05143129319667" lon="0.8846259258722936"><ele>216.0</ele><time>2026-03-29T10:53:20.999Z</time></trkpt><trkpt lat="45.05143711932256" lon="0.8845093555135087"><ele>216.00000000000003</ele><time>2026-03-29T10:53:21.999Z</time></trkpt><trkpt lat="45.05146058750526" lon="0.8843688900315212"><ele>216.00000000000003</ele><time>2026-03-29T10:53:22.999Z</time></trkpt><trkpt lat="45.05149111406317" lon="0.8842104257640222"><ele>216.0</ele><time>2026-03-29T10:53:23.999Z</time></trkpt><trkpt lat="45.051516947687055" lon="0.8840361373053779"><ele>216.0</ele><time>2026-03-29T10:53:24.999Z</time></trkpt><trkpt lat="45.051542022253784" lon="0.8838681773999372"><ele>215.20000000000002</ele><time>2026-03-29T10:53:25.999Z</time></trkpt><trkpt lat="45.05156254393258" lon="0.883711921452303"><ele>214.40000000000003</ele><time>2026-03-29T10:53:26.999Z</time></trkpt><trkpt lat="45.051580037560825" lon="0.8835585507273515"><ele>213.6</ele><time>2026-03-29T10:53:27.999Z</time></trkpt><trkpt lat="45.05159581326622" lon="0.8834092899645345"><ele>212.8</ele><time>2026-03-29T10:53:28.999Z</time></trkpt><trkpt lat="45.051608004607715" lon="0.8832522455072273"><ele>212.0</ele><time>2026-03-29T10:53:29.999Z</time></trkpt><trkpt lat="45.051613388842576" lon="0.8831048154993766"><ele>212.39999999999998</ele><time>2026-03-29T10:53:30.999Z</time></trkpt><trkpt lat="45.05163201827452" lon="0.8829539799091287"><ele>212.79999999999998</ele><time>2026-03-29T10:53:31.999Z</time></trkpt><trkpt lat="45.05163445543343" lon="0.8828046270617159"><ele>213.2</ele><time>2026-03-29T10:53:32.999Z</time></trkpt><trkpt lat="45.05163667666647" lon="0.8826558104040457"><ele>213.6</ele><time>2026-03-29T10:53:33.999Z</time></trkpt><trkpt lat="45.05165019350612" lon="0.8825140941283114"><ele>214.0</ele><time>2026-03-29T10:53:34.999Z</time></trkpt><trkpt lat="45.05166417410928" lon="0.8823670587243874"><ele>214.0</ele><time>2026-03-29T10:53:35.999Z</time></trkpt><trkpt lat="45.051682181456485" lon="0.8822173717097394"><ele>213.99999999999997</ele><time>2026-03-29T10:53:36.999Z</time></trkpt><trkpt lat="45.051724364897915" lon="0.8820796837919845"><ele>213.99999999999997</ele><time>2026-03-29T10:53:37.999Z</time></trkpt><trkpt lat="45.051744115863244" lon="0.881927301105199"><ele>214.0</ele><time>2026-03-29T10:53:38.999Z</time></trkpt><trkpt lat="45.05179915373921" lon="0.8817907781290647"><ele>214.0</ele><time>2026-03-29T10:53:39.999Z</time></trkpt><trkpt lat="45.05184534061465" lon="0.8816541069334849"><ele>214.79999999999998</ele><time>2026-03-29T10:53:40.999Z</time></trkpt><trkpt lat="45.05189908667623" lon="0.8815162893139964"><ele>215.59999999999997</ele><time>2026-03-29T10:53:41.999Z</time></trkpt><trkpt lat="45.05196188998775" lon="0.8813947729633184"><ele>216.4</ele><time>2026-03-29T10:53:42.999Z</time></trkpt><trkpt lat="45.052035322881856" lon="0.8812994446511089"><ele>217.2</ele><time>2026-03-29T10:53:43.999Z</time></trkpt><trkpt lat="45.052119424564836" lon="0.8812299826662875"><ele>218.0</ele><time>2026-03-29T10:53:44.999Z</time></trkpt><trkpt lat="45.05222231198583" lon="0.8811558485426515"><ele>218.0</ele><time>2026-03-29T10:53:45.999Z</time></trkpt><trkpt lat="45.05233030371262" lon="0.8810931763367706"><ele>218.0</ele><time>2026-03-29T10:53:46.999Z</time></trkpt><trkpt lat="45.052431568734846" lon="0.8810083725658356"><ele>218.0</ele><time>2026-03-29T10:53:47.999Z</time></trkpt><trkpt lat="45.05253061279939" lon="0.8809377278770769"><ele>218.0</ele><time>2026-03-29T10:53:48.999Z</time></trkpt><trkpt lat="45.052630974437015" lon="0.8808879092728659"><ele>218.4</ele><time>2026-03-29T10:53:49.999Z</time></trkpt><trkpt lat="45.052723493847296" lon="0.8807842215793753"><ele>218.8</ele><time>2026-03-29T10:53:50.999Z</time></trkpt><trkpt lat="45.052816171494946" lon="0.8807063165772601"><ele>219.2</ele><time>2026-03-29T10:53:51.999Z</time></trkpt><trkpt lat="45.05290629386629" lon="0.8806106653866728"><ele>219.6</ele><time>2026-03-29T10:53:52.999Z</time></trkpt><trkpt lat="45.052992171042376" lon="0.880515373164043"><ele>220.0</ele><time>2026-03-29T10:53:53.999Z</time></trkpt><trkpt lat="45.05307846219469" lon="0.8804126159620231"><ele>220.0</ele><time>2026-03-29T10:53:54.999Z</time></trkpt><trkpt lat="45.05316046223403" lon="0.8803025089448716"><ele>220.0</ele><time>2026-03-29T10:53:55.999Z</time></trkpt><trkpt lat="45.05323802395142" lon="0.880178402443478"><ele>220.0</ele><time>2026-03-29T10:53:56.999Z</time></trkpt><trkpt lat="45.05331425152423" lon="0.8800730301404727"><ele>220.0</ele><time>2026-03-29T10:53:57.999Z</time></trkpt><trkpt lat="45.053390623624935" lon="0.8799632100209687"><ele>220.0</ele><time>2026-03-29T10:53:58.999Z</time></trkpt><trkpt lat="45.05347722971635" lon="0.87985353611108"><ele>221.0</ele><time>2026-03-29T10:53:59.999Z</time></trkpt><trkpt lat="45.053551104912856" lon="0.8797246487829463"><ele>222.0</ele><time>2026-03-29T10:54:00.999Z</time></trkpt><trkpt lat="45.05361548728173" lon="0.8795871638071738"><ele>223.0</ele><time>2026-03-29T10:54:01.999Z</time></trkpt><trkpt lat="45.05367467776447" lon="0.8794391013077526"><ele>224.0</ele><time>2026-03-29T10:54:02.999Z</time></trkpt><trkpt lat="45.05371773362419" lon="0.8792760921121926"><ele>225.39999999999998</ele><time>2026-03-29T10:54:03.999Z</time></trkpt><trkpt lat="45.05378371263744" lon="0.8791376007484643"><ele>226.79999999999998</ele><time>2026-03-29T10:54:04.999Z</time></trkpt><trkpt lat="45.05382139354814" lon="0.8789963606331883"><ele>228.20000000000002</ele><time>2026-03-29T10:54:05.999Z</time></trkpt><trkpt lat="45.05385994300826" lon="0.8788667564805804"><ele>229.60000000000002</ele><time>2026-03-29T10:54:06.998Z</time></trkpt><trkpt lat="45.053898378434205" lon="0.878745626378595"><ele>231.0</ele><time>2026-03-29T10:54:07.998Z</time></trkpt><trkpt lat="45.05393667770267" lon="0.8786403836980808"><ele>231.0</ele><time>2026-03-29T10:54:08.998Z</time></trkpt><trkpt lat="45.05397678761733" lon="0.8785650023081603"><ele>231.00000000000003</ele><time>2026-03-29T10:54:09.998Z</time></trkpt><trkpt lat="45.05401502917263" lon="0.8784558599317485"><ele>231.00000000000003</ele><time>2026-03-29T10:54:11.998Z</time></trkpt><trkpt lat="45.05388470884694" lon="0.8783195430065927"><ele>231.0</ele><time>2026-03-29T10:54:12.998Z</time></trkpt><trkpt lat="45.05383563821871" lon="0.8782337677367527"><ele>231.0</ele><time>2026-03-29T10:54:13.998Z</time></trkpt><trkpt lat="45.05377953555393" lon="0.8781332724214507"><ele>231.66666666666666</ele><time>2026-03-29T10:54:14.998Z</time></trkpt><trkpt lat="45.05372326983029" lon="0.8780199400517867"><ele>232.33333333333331</ele><time>2026-03-29T10:54:15.998Z</time></trkpt><trkpt lat="45.053678705214296" lon="0.8779260350170863"><ele>233.0</ele><time>2026-03-29T10:54:16.998Z</time></trkpt><trkpt lat="45.05363685832509" lon="0.8778024157872324"><ele>233.66666666666666</ele><time>2026-03-29T10:54:17.998Z</time></trkpt><trkpt lat="45.053597001468894" lon="0.8776985445675737"><ele>234.33333333333331</ele><time>2026-03-29T10:54:18.998Z</time></trkpt><trkpt lat="45.05356177542623" lon="0.8775991261640711"><ele>235.0</ele><time>2026-03-29T10:54:19.998Z</time></trkpt><trkpt lat="45.05350886975482" lon="0.8774816061323709"><ele>235.0</ele><time>2026-03-29T10:54:20.998Z</time></trkpt><trkpt lat="45.05347358675202" lon="0.8773584209192644"><ele>235.0</ele><time>2026-03-29T10:54:21.998Z</time></trkpt><trkpt lat="45.05343470118932" lon="0.8772309109366728"><ele>235.0</ele><time>2026-03-29T10:54:22.998Z</time></trkpt><trkpt lat="45.05341802097108" lon="0.8771036554979186"><ele>235.0</ele><time>2026-03-29T10:54:23.998Z</time></trkpt><trkpt lat="45.05339392263403" lon="0.8769896163348238"><ele>235.0</ele><time>2026-03-29T10:54:24.998Z</time></trkpt><trkpt lat="45.05337585574262" lon="0.8768759136957478"><ele>234.83333333333331</ele><time>2026-03-29T10:54:25.998Z</time></trkpt><trkpt lat="45.05336993025426" lon="0.8767579218995855"><ele>234.66666666666666</ele><time>2026-03-29T10:54:26.998Z</time></trkpt><trkpt lat="45.05337352775741" lon="0.8766307742003415"><ele>234.5</ele><time>2026-03-29T10:54:27.998Z</time></trkpt><trkpt lat="45.05335997027104" lon="0.8765215322130503"><ele>234.33333333333331</ele><time>2026-03-29T10:54:28.998Z</time></trkpt><trkpt lat="45.053333003086514" lon="0.8764227698953402"><ele>234.16666666666666</ele><time>2026-03-29T10:54:29.998Z</time></trkpt><trkpt lat="45.05327255679433" lon="0.8763355333733012"><ele>234.0</ele><time>2026-03-29T10:54:30.998Z</time></trkpt><trkpt lat="45.053218169185435" lon="0.8762521785292697"><ele>234.33333333333334</ele><time>2026-03-29T10:54:31.998Z</time></trkpt><trkpt lat="45.05315648902798" lon="0.87617908562677"><ele>234.66666666666669</ele><time>2026-03-29T10:54:32.998Z</time></trkpt><trkpt lat="45.05309219830114" lon="0.876099182737242"><ele>235.0</ele><time>2026-03-29T10:54:33.998Z</time></trkpt><trkpt lat="45.05302094939952" lon="0.8760366632976988"><ele>235.33333333333334</ele><time>2026-03-29T10:54:34.998Z</time></trkpt><trkpt lat="45.052961577756356" lon="0.8759450156711259"><ele>235.66666666666669</ele><time>2026-03-29T10:54:35.998Z</time></trkpt><trkpt lat="45.0528957367997" lon="0.8758669324460491"><ele>236.0</ele><time>2026-03-29T10:54:37Z</time></trkpt><trkpt lat="45.052786524757906" lon="0.875871206596054"><ele>236.0</ele><time>2026-03-29T10:54:38Z</time></trkpt><trkpt lat="45.052700171126126" lon="0.8758467486497467"><ele>236.00000000000003</ele><time>2026-03-29T10:54:39Z</time></trkpt><trkpt lat="45.05260239338371" lon="0.8758123326096575"><ele>236.00000000000003</ele><time>2026-03-29T10:54:40Z</time></trkpt><trkpt lat="45.05251023318103" lon="0.8757671810638145"><ele>236.0</ele><time>2026-03-29T10:54:41Z</time></trkpt><trkpt lat="45.052414229853156" lon="0.8757160244797977"><ele>236.0</ele><time>2026-03-29T10:54:42Z</time></trkpt><trkpt lat="45.05231222261177" lon="0.875683176444944"><ele>236.60000000000002</ele><time>2026-03-29T10:54:43Z</time></trkpt><trkpt lat="45.052205730658486" lon="0.8756892115331906"><ele>237.20000000000002</ele><time>2026-03-29T10:54:44Z</time></trkpt><trkpt lat="45.052110081926095" lon="0.8757286892144104"><ele>237.79999999999998</ele><time>2026-03-29T10:54:45Z</time></trkpt><trkpt lat="45.052013294648525" lon="0.8757793283406741"><ele>238.39999999999998</ele><time>2026-03-29T10:54:46Z</time></trkpt><trkpt lat="45.05191789385599" lon="0.8758234939534743"><ele>239.0</ele><time>2026-03-29T10:54:47Z</time></trkpt><trkpt lat="45.05182305331478" lon="0.875857840151752"><ele>239.0</ele><time>2026-03-29T10:54:48Z</time></trkpt><trkpt lat="45.05172287872944" lon="0.8758875820998389"><ele>238.99999999999997</ele><time>2026-03-29T10:54:49Z</time></trkpt><trkpt lat="45.051621492123374" lon="0.875906091605375"><ele>238.99999999999997</ele><time>2026-03-29T10:54:50Z</time></trkpt><trkpt lat="45.05152331094885" lon="0.8759248737620687"><ele>239.0</ele><time>2026-03-29T10:54:51Z</time></trkpt><trkpt lat="45.05142910682339" lon="0.8759511423165549"><ele>239.0</ele><time>2026-03-29T10:54:52Z</time></trkpt><trkpt lat="45.0513348901945" lon="0.8759780217449191"><ele>239.39999999999998</ele><time>2026-03-29T10:54:53Z</time></trkpt><trkpt lat="45.051239567374886" lon="0.8760090242544443"><ele>239.79999999999998</ele><time>2026-03-29T10:54:54Z</time></trkpt><trkpt lat="45.051139880915684" lon="0.876038370763357"><ele>240.20000000000002</ele><time>2026-03-29T10:54:55Z</time></trkpt><trkpt lat="45.05104154709543" lon="0.8760720857163532"><ele>240.60000000000002</ele><time>2026-03-29T10:54:56Z</time></trkpt><trkpt lat="45.0509467997189" lon="0.8761029619691311"><ele>241.0</ele><time>2026-03-29T10:54:57Z</time></trkpt><trkpt lat="45.0508505589045" lon="0.8761363962795619"><ele>242.0</ele><time>2026-03-29T10:54:58Z</time></trkpt><trkpt lat="45.05075978881689" lon="0.8761704517104993"><ele>243.00000000000003</ele><time>2026-03-29T10:54:59Z</time></trkpt><trkpt lat="45.050665461185" lon="0.8761968436563842"><ele>244.00000000000003</ele><time>2026-03-29T10:55:00Z</time></trkpt><trkpt lat="45.05056939223577" lon="0.8762077914735784"><ele>245.0</ele><time>2026-03-29T10:55:01Z</time></trkpt><trkpt lat="45.05048122476476" lon="0.8761727069226574"><ele>246.0</ele><time>2026-03-29T10:55:02Z</time></trkpt><trkpt lat="45.050392930981985" lon="0.8761178743940087"><ele>246.0</ele><time>2026-03-29T10:55:03Z</time></trkpt><trkpt lat="45.05030089317619" lon="0.8760547276095653"><ele>246.00000000000003</ele><time>2026-03-29T10:55:04Z</time></trkpt><trkpt lat="45.05020276005218" lon="0.8759889683960914"><ele>246.00000000000003</ele><time>2026-03-29T10:55:05Z</time></trkpt><trkpt lat="45.05010296269262" lon="0.8759265503981921"><ele>246.0</ele><time>2026-03-29T10:55:06Z</time></trkpt><trkpt lat="45.05000048817102" lon="0.8758653080481665"><ele>246.0</ele><time>2026-03-29T10:55:07Z</time></trkpt><trkpt lat="45.04989862457612" lon="0.8758054421133893"><ele>247.5</ele><time>2026-03-29T10:55:08Z</time></trkpt><trkpt lat="45.04979418403539" lon="0.8757425873085154"><ele>249.0</ele><time>2026-03-29T10:55:09Z</time></trkpt><trkpt lat="45.04968785513662" lon="0.8756743740283383"><ele>250.5</ele><time>2026-03-29T10:55:10Z</time></trkpt><trkpt lat="45.04957619550574" lon="0.8756024652228217"><ele>252.0</ele><time>2026-03-29T10:55:11Z</time></trkpt><trkpt lat="45.0494611413878" lon="0.8755241220557353"><ele>252.0</ele><time>2026-03-29T10:55:12Z</time></trkpt><trkpt lat="45.04933295334943" lon="0.875444856827817"><ele>252.0</ele><time>2026-03-29T10:55:12.999Z</time></trkpt><trkpt lat="45.04920500110529" lon="0.8753642428164249"><ele>252.0</ele><time>2026-03-29T10:55:13.999Z</time></trkpt><trkpt lat="45.04907461582943" lon="0.8752823888372143"><ele>252.0</ele><time>2026-03-29T10:55:14.999Z</time></trkpt><trkpt lat="45.04894404469298" lon="0.8751956113925453"><ele>252.25</ele><time>2026-03-29T10:55:15.999Z</time></trkpt><trkpt lat="45.04881047693906" lon="0.8751152502362451"><ele>252.5</ele><time>2026-03-29T10:55:16.999Z</time></trkpt><trkpt lat="45.048675377259634" lon="0.8750479073112439"><ele>252.75</ele><time>2026-03-29T10:55:17.999Z</time></trkpt><trkpt lat="45.048541719437274" lon="0.8749985615112087"><ele>253.0</ele><time>2026-03-29T10:55:18.999Z</time></trkpt><trkpt lat="45.04839414174092" lon="0.8749518776290408"><ele>251.75</ele><time>2026-03-29T10:55:19.999Z</time></trkpt><trkpt lat="45.04825638531078" lon="0.8749080877993717"><ele>250.5</ele><time>2026-03-29T10:55:20.999Z</time></trkpt><trkpt lat="45.048125748066944" lon="0.8748644962500305"><ele>249.25</ele><time>2026-03-29T10:55:21.999Z</time></trkpt><trkpt lat="45.048001433475584" lon="0.8748308640307807"><ele>248.0</ele><time>2026-03-29T10:55:22.999Z</time></trkpt><trkpt lat="45.04788635333965" lon="0.8747956912183305"><ele>248.0</ele><time>2026-03-29T10:55:23.999Z</time></trkpt><trkpt lat="45.04777453223342" lon="0.8747559576841248"><ele>248.0</ele><time>2026-03-29T10:55:24.999Z</time></trkpt><trkpt lat="45.04767109159025" lon="0.8747199346304909"><ele>248.0</ele><time>2026-03-29T10:55:25.999Z</time></trkpt><trkpt lat="45.04758005986192" lon="0.8746868309047073"><ele>248.0</ele><time>2026-03-29T10:55:26.999Z</time></trkpt><trkpt lat="45.047503869244785" lon="0.8746613331097722"><ele>248.0</ele><time>2026-03-29T10:55:27.999Z</time></trkpt><trkpt lat="45.047433383264845" lon="0.8746369235602814"><ele>247.8</ele><time>2026-03-29T10:55:28.999Z</time></trkpt><trkpt lat="45.04736895794565" lon="0.8746125972150882"><ele>247.60000000000002</ele><time>2026-03-29T10:55:29.999Z</time></trkpt><trkpt lat="45.04727175136368" lon="0.8745622733422123"><ele>247.39999999999998</ele><time>2026-03-29T10:55:31.999Z</time></trkpt><trkpt lat="45.04734727416377" lon="0.8743639969018955"><ele>247.2</ele><time>2026-03-29T10:55:32.999Z</time></trkpt><trkpt lat="45.04738107741319" lon="0.8742405835247216"><ele>247.0</ele><time>2026-03-29T10:55:33.999Z</time></trkpt><trkpt lat="45.04741440873638" lon="0.8741099014298563"><ele>247.0</ele><time>2026-03-29T10:55:34.999Z</time></trkpt><trkpt lat="45.04744968596185" lon="0.873971590063115"><ele>247.0</ele><time>2026-03-29T10:55:35.999Z</time></trkpt><trkpt lat="45.04749859416826" lon="0.873779835750686"><ele>247.0</ele><time>2026-03-29T10:55:36.999Z</time></trkpt><trkpt lat="45.047560005551084" lon="0.8735417033649175"><ele>247.0</ele><time>2026-03-29T10:55:37.999Z</time></trkpt><trkpt lat="45.047627088672506" lon="0.8732785339245528"><ele>250.33333333333331</ele><time>2026-03-29T10:55:38.999Z</time></trkpt><trkpt lat="45.047696177505536" lon="0.8729992732686763"><ele>253.66666666666669</ele><time>2026-03-29T10:55:39.999Z</time></trkpt><trkpt lat="45.04776958095458" lon="0.872701040604277"><ele>257.0</ele><time>2026-03-29T10:55:40.999Z</time></trkpt><trkpt lat="45.04783416415701" lon="0.8724416979565704"><ele>257.33333333333337</ele><time>2026-03-29T10:55:41.999Z</time></trkpt><trkpt lat="45.04788936346495" lon="0.8722233091118616"><ele>257.6666666666667</ele><time>2026-03-29T10:55:42.999Z</time></trkpt><trkpt lat="45.04794251763349" lon="0.8720161955876548"><ele>258.0</ele><time>2026-03-29T10:55:43.999Z</time></trkpt><trkpt lat="45.04799030195376" lon="0.8718339140653719"><ele>258.25</ele><time>2026-03-29T10:55:44.999Z</time></trkpt><trkpt lat="45.048037663841356" lon="0.8716503453156486"><ele>258.5</ele><time>2026-03-29T10:55:45.999Z</time></trkpt><trkpt lat="45.048086410558795" lon="0.87146085312912"><ele>258.75</ele><time>2026-03-29T10:55:46.999Z</time></trkpt><trkpt lat="45.0481366050935" lon="0.8712620621906184"><ele>259.0</ele><time>2026-03-29T10:55:47.999Z</time></trkpt><trkpt lat="45.04818591261557" lon="0.8710631612817348"><ele>259.3333333333333</ele><time>2026-03-29T10:55:48.999Z</time></trkpt><trkpt lat="45.04823760248671" lon="0.8708530963016109"><ele>259.6666666666667</ele><time>2026-03-29T10:55:49.999Z</time></trkpt><trkpt lat="45.04828734823638" lon="0.8706530693189696"><ele>260.0</ele><time>2026-03-29T10:55:50.999Z</time></trkpt><trkpt lat="45.04833926473567" lon="0.8704501492093089"><ele>259.33333333333337</ele><time>2026-03-29T10:55:51.999Z</time></trkpt><trkpt lat="45.04839108866334" lon="0.8702475909529124"><ele>258.6666666666667</ele><time>2026-03-29T10:55:52.999Z</time></trkpt><trkpt lat="45.04844407032577" lon="0.8700405075704695"><ele>258.0</ele><time>2026-03-29T10:55:53.999Z</time></trkpt><trkpt lat="45.04849490035236" lon="0.8698419191943756"><ele>258.0</ele><time>2026-03-29T10:55:54.999Z</time></trkpt><trkpt lat="45.04854141548489" lon="0.8696602803464919"><ele>258.0</ele><time>2026-03-29T10:55:55.999Z</time></trkpt><trkpt lat="45.04858248314524" lon="0.8694999136165448"><ele>258.0</ele><time>2026-03-29T10:55:56.999Z</time></trkpt><trkpt lat="45.04862136138172" lon="0.8693467171991651"><ele>258.0</ele><time>2026-03-29T10:55:57.999Z</time></trkpt><trkpt lat="45.04865598284328" lon="0.8692085721477717"><ele>258.2</ele><time>2026-03-29T10:55:58.999Z</time></trkpt><trkpt lat="45.04868678244082" lon="0.8690856769753571"><ele>258.4</ele><time>2026-03-29T10:55:59.999Z</time></trkpt><trkpt lat="45.048695644433174" lon="0.8689810793975716"><ele>258.59999999999997</ele><time>2026-03-29T10:56:00.999Z</time></trkpt><trkpt lat="45.04873747947577" lon="0.8688833879717154"><ele>258.8</ele><time>2026-03-29T10:56:02.999Z</time></trkpt><trkpt lat="45.04858430458642" lon="0.8688022435312613"><ele>259.0</ele><time>2026-03-29T10:56:04.999Z</time></trkpt><trkpt lat="45.048508940153965" lon="0.8688092874804484"><ele>259.0</ele><time>2026-03-29T10:56:05.998Z</time></trkpt><trkpt lat="45.0484059260291" lon="0.8688384777851944"><ele>259.0</ele><time>2026-03-29T10:56:06.998Z</time></trkpt><trkpt lat="45.04829603102369" lon="0.8688436682374223"><ele>259.0</ele><time>2026-03-29T10:56:07.998Z</time></trkpt><trkpt lat="45.04816673592286" lon="0.8688457001542899"><ele>259.0</ele><time>2026-03-29T10:56:08.998Z</time></trkpt><trkpt lat="45.04802749070631" lon="0.8688532247577249"><ele>259.25</ele><time>2026-03-29T10:56:09.998Z</time></trkpt><trkpt lat="45.047890524112" lon="0.8688673328437112"><ele>259.5</ele><time>2026-03-29T10:56:10.998Z</time></trkpt><trkpt lat="45.04777555708585" lon="0.8688822893015241"><ele>259.75</ele><time>2026-03-29T10:56:11.998Z</time></trkpt><trkpt lat="45.04766461600113" lon="0.8688935765639688"><ele>260.0</ele><time>2026-03-29T10:56:12.998Z</time></trkpt><trkpt lat="45.047549787508466" lon="0.8689027061871231"><ele>258.8</ele><time>2026-03-29T10:56:13.998Z</time></trkpt><trkpt lat="45.04744074993" lon="0.8689132622702705"><ele>257.6</ele><time>2026-03-29T10:56:14.998Z</time></trkpt><trkpt lat="45.04732849100885" lon="0.8689241135945387"><ele>256.4</ele><time>2026-03-29T10:56:15.998Z</time></trkpt><trkpt lat="45.04722469677442" lon="0.8689347617394405"><ele>255.2</ele><time>2026-03-29T10:56:16.998Z</time></trkpt><trkpt lat="45.04713247595533" lon="0.8689453098692792"><ele>254.0</ele><time>2026-03-29T10:56:17.998Z</time></trkpt><trkpt lat="45.047048789858984" lon="0.8689532123255408"><ele>254.00000000000003</ele><time>2026-03-29T10:56:18.998Z</time></trkpt><trkpt lat="45.046974792347235" lon="0.8689411468817008"><ele>254.0</ele><time>2026-03-29T10:56:19.998Z</time></trkpt><trkpt lat="45.04690613075323" lon="0.8689465994682921"><ele>254.0</ele><time>2026-03-29T10:56:20.998Z</time></trkpt><trkpt lat="45.04684014500693" lon="0.8689565344970434"><ele>254.0</ele><time>2026-03-29T10:56:21.998Z</time></trkpt><trkpt lat="45.04672203097153" lon="0.8689965863044069"><ele>254.00000000000003</ele><time>2026-03-29T10:56:23.998Z</time></trkpt><trkpt lat="45.04664592630162" lon="0.8690097388924578"><ele>254.0</ele><time>2026-03-29T10:56:24.998Z</time></trkpt><trkpt lat="45.04654885145324" lon="0.8690663844357323"><ele>250.0</ele><time>2026-03-29T10:56:26.998Z</time></trkpt><trkpt lat="45.04636764571149" lon="0.8686132182036506"><ele>246.0</ele><time>2026-03-29T10:56:27.998Z</time></trkpt><trkpt lat="45.04625525496255" lon="0.8685736605867646"><ele>246.0</ele><time>2026-03-29T10:56:29.998Z</time></trkpt><trkpt lat="45.046168240540666" lon="0.8684598739214485"><ele>246.00000000000003</ele><time>2026-03-29T10:56:31.998Z</time></trkpt><trkpt lat="45.04614862611138" lon="0.8683645549085423"><ele>246.00000000000003</ele><time>2026-03-29T10:56:32.998Z</time></trkpt><trkpt lat="45.04612791598423" lon="0.86825269580263"><ele>246.0</ele><time>2026-03-29T10:56:33.998Z</time></trkpt><trkpt lat="45.04611965123307" lon="0.8681423079366187"><ele>246.0</ele><time>2026-03-29T10:56:34.998Z</time></trkpt><trkpt lat="45.046135675244834" lon="0.8679823478069408"><ele>245.5</ele><time>2026-03-29T10:56:36.998Z</time></trkpt><trkpt lat="45.046137492689205" lon="0.867862386325095"><ele>245.0</ele><time>2026-03-29T10:56:38.998Z</time></trkpt><trkpt lat="45.046137496990895" lon="0.8677726004780411"><ele>244.5</ele><time>2026-03-29T10:56:44Z</time></trkpt><trkpt lat="45.046104467190936" lon="0.8678942167434148"><ele>244.0</ele><time>2026-03-29T10:56:47Z</time></trkpt><trkpt lat="45.0461210692304" lon="0.8680043843598473"><ele>243.5</ele><time>2026-03-29T10:56:48Z</time></trkpt><trkpt lat="45.04612327884193" lon="0.8681113631537977"><ele>243.0</ele><time>2026-03-29T10:56:50Z</time></trkpt><trkpt lat="45.04613628456521" lon="0.868236658875692"><ele>243.0</ele><time>2026-03-29T10:58:05.999Z</time></trkpt><trkpt lat="45.046168157554796" lon="0.8683588597992148"><ele>243.0</ele><time>2026-03-29T10:58:07.999Z</time></trkpt><trkpt lat="45.046186058677925" lon="0.8685106365888388"><ele>243.0</ele><time>2026-03-29T10:58:09.999Z</time></trkpt><trkpt lat="45.046289856272686" lon="0.8686370597038806"><ele>243.0</ele><time>2026-03-29T10:58:11.999Z</time></trkpt><trkpt lat="45.046391819779934" lon="0.868676918608"><ele>243.0</ele><time>2026-03-29T10:58:12.999Z</time></trkpt><trkpt lat="45.046520047920964" lon="0.8687018245075231"><ele>245.75</ele><time>2026-03-29T10:58:13.999Z</time></trkpt><trkpt lat="45.04667511455536" lon="0.8687389545245522"><ele>248.5</ele><time>2026-03-29T10:58:14.999Z</time></trkpt><trkpt lat="45.04683673404624" lon="0.8687930995558831"><ele>251.25</ele><time>2026-03-29T10:58:15.998Z</time></trkpt><trkpt lat="45.046945598165685" lon="0.868853333763554"><ele>254.0</ele><time>2026-03-29T10:58:16.998Z</time></trkpt><trkpt lat="45.04702924733277" lon="0.8689109607197486"><ele>254.0</ele><time>2026-03-29T10:58:17.998Z</time></trkpt><trkpt lat="45.04713414990309" lon="0.8689313665408811"><ele>253.99999999999997</ele><time>2026-03-29T10:58:18.998Z</time></trkpt><trkpt lat="45.047246553346" lon="0.868902935924503"><ele>253.99999999999997</ele><time>2026-03-29T10:58:19.998Z</time></trkpt><trkpt lat="45.04734988844102" lon="0.8688695069818585"><ele>254.0</ele><time>2026-03-29T10:58:20.998Z</time></trkpt><trkpt lat="45.04744236357434" lon="0.8688535678373164"><ele>254.0</ele><time>2026-03-29T10:58:21.998Z</time></trkpt><trkpt lat="45.04757012015871" lon="0.8688489694255923"><ele>255.2</ele><time>2026-03-29T10:58:23.998Z</time></trkpt><trkpt lat="45.04765400589743" lon="0.8687948772508481"><ele>256.4</ele><time>2026-03-29T10:58:25.998Z</time></trkpt><trkpt lat="45.04767786437291" lon="0.8686608059995697"><ele>257.6</ele><time>2026-03-29T10:58:27.998Z</time></trkpt><trkpt lat="45.047684914595216" lon="0.8685484402566562"><ele>258.8</ele><time>2026-03-29T10:58:29.998Z</time></trkpt><trkpt lat="45.04777178967356" lon="0.8684873954717505"><ele>260.0</ele><time>2026-03-29T10:58:31.998Z</time></trkpt><trkpt lat="45.047859456607696" lon="0.868556721931487"><ele>260.00000000000006</ele><time>2026-03-29T10:58:33.998Z</time></trkpt><trkpt lat="45.04791027054152" lon="0.8686109909274716"><ele>260.0</ele><time>2026-03-29T10:58:35.998Z</time></trkpt><trkpt lat="45.04786087048244" lon="0.8686784783515709"><ele>260.0</ele><time>2026-03-29T10:58:38.998Z</time></trkpt><trkpt lat="45.047813959559555" lon="0.8685923869614554"><ele>260.0</ele><time>2026-03-29T10:58:41.998Z</time></trkpt><trkpt lat="45.047741168435856" lon="0.868607417204146"><ele>260.0</ele><time>2026-03-29T10:59:11Z</time></trkpt><trkpt lat="45.047810554390225" lon="0.868702622885479"><ele>260.00000000000006</ele><time>2026-03-29T11:02:54.998Z</time></trkpt><trkpt lat="45.047782026846654" lon="0.8687828369211161"><ele>260.0</ele><time>2026-03-29T11:03:03Z</time></trkpt><trkpt lat="45.04772075948704" lon="0.8687499201029484"><ele>260.00000000000006</ele><time>2026-03-29T11:03:12Z</time></trkpt><trkpt lat="45.04777458028466" lon="0.8687995960769793"><ele>260.0</ele><time>2026-03-29T11:04:41.998Z</time></trkpt><trkpt lat="45.04783010167107" lon="0.8687428573741208"><ele>260.0</ele><time>2026-03-29T11:08:21.999Z</time></trkpt><trkpt lat="45.04788251226453" lon="0.8686717099581601"><ele>260.0</ele><time>2026-03-29T11:08:27.999Z</time></trkpt><trkpt lat="45.04793034430282" lon="0.8686015081028682"><ele>260.0</ele><time>2026-03-29T11:08:33.999Z</time></trkpt><trkpt lat="45.04799566008958" lon="0.8685695418191649"><ele>260.00000000000006</ele><time>2026-03-29T11:08:39.999Z</time></trkpt><trkpt lat="45.04806817953982" lon="0.868548741332513"><ele>260.0</ele><time>2026-03-29T11:08:45.999Z</time></trkpt><trkpt lat="45.04812877390401" lon="0.8684952595638568"><ele>260.0</ele><time>2026-03-29T11:08:51.998Z</time></trkpt></trkseg></trk></gpx>